<?xml version="1.0" encoding="UTF-8" standalone="no" ?>
<gpx xmlns="http://www.topografix.com/GPX/1/1" xmlns:xsi="http://www.w3.org/2001/XMLSchema-instance" xsi:schemaLocation="http://www.topografix.com/GPX/1/1 http://www.topografix.com/GPX/1/1/gpx.xsd" version="1.1" creator="VisuGPX - https://www.visugpx.com">
  <metadata>
    <name>Poly lyonnaise 2019</name>
  </metadata>
  <trk>
    <name><![CDATA[Poly lyonnaise]]></name>
    <trkseg>
      <trkpt lat="45.83541" lon="4.77289">
        <ele>396.6</ele>
        <time>2019-10-13T06:17:32Z</time>
      </trkpt>
      <trkpt lat="45.83544" lon="4.77282">
        <ele>396.8</ele>
        <time>2019-10-13T06:17:59Z</time>
      </trkpt>
      <trkpt lat="45.83547" lon="4.77276">
        <ele>397</ele>
        <time>2019-10-13T06:18:01Z</time>
      </trkpt>
      <trkpt lat="45.83552" lon="4.77266">
        <ele>397</ele>
        <time>2019-10-13T06:18:06Z</time>
      </trkpt>
      <trkpt lat="45.83554" lon="4.77264">
        <ele>397.1</ele>
        <time>2019-10-13T06:18:07Z</time>
      </trkpt>
      <trkpt lat="45.83565" lon="4.77263">
        <ele>397.7</ele>
        <time>2019-10-13T06:18:12Z</time>
      </trkpt>
      <trkpt lat="45.83569" lon="4.77262">
        <ele>397.9</ele>
        <time>2019-10-13T06:18:15Z</time>
      </trkpt>
      <trkpt lat="45.83571" lon="4.77252">
        <ele>397.9</ele>
        <time>2019-10-13T06:18:37Z</time>
      </trkpt>
      <trkpt lat="45.83571" lon="4.77247">
        <ele>397.7</ele>
        <time>2019-10-13T06:18:39Z</time>
      </trkpt>
      <trkpt lat="45.83572" lon="4.7724">
        <ele>397</ele>
        <time>2019-10-13T06:18:42Z</time>
      </trkpt>
      <trkpt lat="45.83573" lon="4.77234">
        <ele>396.6</ele>
        <time>2019-10-13T06:18:45Z</time>
      </trkpt>
      <trkpt lat="45.83574" lon="4.77231">
        <ele>396.3</ele>
        <time>2019-10-13T06:18:47Z</time>
      </trkpt>
      <trkpt lat="45.83574" lon="4.77226">
        <ele>395.9</ele>
        <time>2019-10-13T06:18:49Z</time>
      </trkpt>
      <trkpt lat="45.83576" lon="4.77208">
        <ele>394.5</ele>
        <time>2019-10-13T06:18:53Z</time>
      </trkpt>
      <trkpt lat="45.83579" lon="4.77193">
        <ele>394.1</ele>
        <time>2019-10-13T06:18:58Z</time>
      </trkpt>
      <trkpt lat="45.83581" lon="4.77168">
        <ele>392.8</ele>
        <time>2019-10-13T06:19:03Z</time>
      </trkpt>
      <trkpt lat="45.83581" lon="4.77159">
        <ele>392.4</ele>
        <time>2019-10-13T06:19:05Z</time>
      </trkpt>
      <trkpt lat="45.83581" lon="4.77152">
        <ele>392</ele>
        <time>2019-10-13T06:19:07Z</time>
      </trkpt>
      <trkpt lat="45.83579" lon="4.77147">
        <ele>391.7</ele>
        <time>2019-10-13T06:19:09Z</time>
      </trkpt>
      <trkpt lat="45.83578" lon="4.77147">
        <ele>391.6</ele>
        <time>2019-10-13T06:19:10Z</time>
      </trkpt>
      <trkpt lat="45.83573" lon="4.77142">
        <ele>391</ele>
        <time>2019-10-13T06:19:13Z</time>
      </trkpt>
      <trkpt lat="45.83571" lon="4.7714">
        <ele>390.8</ele>
        <time>2019-10-13T06:19:14Z</time>
      </trkpt>
      <trkpt lat="45.83565" lon="4.77138">
        <ele>390.3</ele>
        <time>2019-10-13T06:19:16Z</time>
      </trkpt>
      <trkpt lat="45.83561" lon="4.77137">
        <ele>390</ele>
        <time>2019-10-13T06:19:17Z</time>
      </trkpt>
      <trkpt lat="45.83553" lon="4.77137">
        <ele>389.4</ele>
        <time>2019-10-13T06:19:19Z</time>
      </trkpt>
      <trkpt lat="45.83528" lon="4.77139">
        <ele>387.2</ele>
        <time>2019-10-13T06:19:24Z</time>
      </trkpt>
      <trkpt lat="45.83523" lon="4.77139">
        <ele>386.8</ele>
        <time>2019-10-13T06:19:25Z</time>
      </trkpt>
      <trkpt lat="45.83487" lon="4.77142">
        <ele>383.4</ele>
        <time>2019-10-13T06:19:32Z</time>
      </trkpt>
      <trkpt lat="45.83476" lon="4.77144">
        <ele>382.6</ele>
        <time>2019-10-13T06:19:35Z</time>
      </trkpt>
      <trkpt lat="45.83474" lon="4.77143">
        <ele>382.5</ele>
        <time>2019-10-13T06:19:36Z</time>
      </trkpt>
      <trkpt lat="45.83472" lon="4.77145">
        <ele>382.3</ele>
        <time>2019-10-13T06:19:43Z</time>
      </trkpt>
      <trkpt lat="45.83472" lon="4.7715">
        <ele>382.1</ele>
        <time>2019-10-13T06:19:45Z</time>
      </trkpt>
      <trkpt lat="45.83472" lon="4.77163">
        <ele>384.6</ele>
        <time>2019-10-13T06:19:48Z</time>
      </trkpt>
      <trkpt lat="45.83472" lon="4.77169">
        <ele>385.2</ele>
        <time>2019-10-13T06:19:49Z</time>
      </trkpt>
      <trkpt lat="45.83471" lon="4.77198">
        <ele>388.2</ele>
        <time>2019-10-13T06:19:53Z</time>
      </trkpt>
      <trkpt lat="45.8347" lon="4.77225">
        <ele>389.5</ele>
        <time>2019-10-13T06:19:56Z</time>
      </trkpt>
      <trkpt lat="45.83468" lon="4.77254">
        <ele>390.9</ele>
        <time>2019-10-13T06:19:59Z</time>
      </trkpt>
      <trkpt lat="45.83462" lon="4.77273">
        <ele>391.7</ele>
        <time>2019-10-13T06:20:01Z</time>
      </trkpt>
      <trkpt lat="45.83456" lon="4.7728">
        <ele>392.2</ele>
        <time>2019-10-13T06:20:02Z</time>
      </trkpt>
      <trkpt lat="45.83449" lon="4.77286">
        <ele>392.1</ele>
        <time>2019-10-13T06:20:03Z</time>
      </trkpt>
      <trkpt lat="45.83433" lon="4.77292">
        <ele>390.8</ele>
        <time>2019-10-13T06:20:05Z</time>
      </trkpt>
      <trkpt lat="45.83406" lon="4.77291">
        <ele>388.5</ele>
        <time>2019-10-13T06:20:08Z</time>
      </trkpt>
      <trkpt lat="45.83397" lon="4.77289">
        <ele>387.7</ele>
        <time>2019-10-13T06:20:09Z</time>
      </trkpt>
      <trkpt lat="45.83378" lon="4.77284">
        <ele>385.9</ele>
        <time>2019-10-13T06:20:11Z</time>
      </trkpt>
      <trkpt lat="45.83358" lon="4.77279">
        <ele>383.9</ele>
        <time>2019-10-13T06:20:13Z</time>
      </trkpt>
      <trkpt lat="45.83349" lon="4.77279">
        <ele>382.9</ele>
        <time>2019-10-13T06:20:14Z</time>
      </trkpt>
      <trkpt lat="45.8334" lon="4.77282">
        <ele>382</ele>
        <time>2019-10-13T06:20:15Z</time>
      </trkpt>
      <trkpt lat="45.83326" lon="4.77295">
        <ele>380.6</ele>
        <time>2019-10-13T06:20:17Z</time>
      </trkpt>
      <trkpt lat="45.83323" lon="4.77301">
        <ele>380.2</ele>
        <time>2019-10-13T06:20:18Z</time>
      </trkpt>
      <trkpt lat="45.83321" lon="4.77307">
        <ele>379.7</ele>
        <time>2019-10-13T06:20:19Z</time>
      </trkpt>
      <trkpt lat="45.8332" lon="4.77312">
        <ele>379.2</ele>
        <time>2019-10-13T06:20:20Z</time>
      </trkpt>
      <trkpt lat="45.83317" lon="4.77323">
        <ele>379.5</ele>
        <time>2019-10-13T06:20:22Z</time>
      </trkpt>
      <trkpt lat="45.83315" lon="4.77333">
        <ele>379.6</ele>
        <time>2019-10-13T06:20:24Z</time>
      </trkpt>
      <trkpt lat="45.83314" lon="4.77344">
        <ele>379.8</ele>
        <time>2019-10-13T06:20:26Z</time>
      </trkpt>
      <trkpt lat="45.83313" lon="4.7735">
        <ele>379.8</ele>
        <time>2019-10-13T06:20:27Z</time>
      </trkpt>
      <trkpt lat="45.83308" lon="4.77369">
        <ele>380.1</ele>
        <time>2019-10-13T06:20:30Z</time>
      </trkpt>
      <trkpt lat="45.83306" lon="4.77376">
        <ele>380.2</ele>
        <time>2019-10-13T06:20:31Z</time>
      </trkpt>
      <trkpt lat="45.83303" lon="4.77382">
        <ele>380.5</ele>
        <time>2019-10-13T06:20:32Z</time>
      </trkpt>
      <trkpt lat="45.83296" lon="4.77393">
        <ele>380.8</ele>
        <time>2019-10-13T06:20:34Z</time>
      </trkpt>
      <trkpt lat="45.83282" lon="4.77409">
        <ele>381.3</ele>
        <time>2019-10-13T06:20:38Z</time>
      </trkpt>
      <trkpt lat="45.83279" lon="4.77413">
        <ele>381.5</ele>
        <time>2019-10-13T06:20:39Z</time>
      </trkpt>
      <trkpt lat="45.83275" lon="4.77417">
        <ele>381.7</ele>
        <time>2019-10-13T06:20:40Z</time>
      </trkpt>
      <trkpt lat="45.83269" lon="4.77431">
        <ele>382.2</ele>
        <time>2019-10-13T06:20:43Z</time>
      </trkpt>
      <trkpt lat="45.83259" lon="4.77455">
        <ele>383.1</ele>
        <time>2019-10-13T06:20:48Z</time>
      </trkpt>
      <trkpt lat="45.83255" lon="4.77468">
        <ele>383.6</ele>
        <time>2019-10-13T06:20:51Z</time>
      </trkpt>
      <trkpt lat="45.83251" lon="4.77476">
        <ele>383.9</ele>
        <time>2019-10-13T06:20:53Z</time>
      </trkpt>
      <trkpt lat="45.83247" lon="4.77489">
        <ele>384.4</ele>
        <time>2019-10-13T06:20:56Z</time>
      </trkpt>
      <trkpt lat="45.83242" lon="4.77502">
        <ele>384.8</ele>
        <time>2019-10-13T06:20:59Z</time>
      </trkpt>
      <trkpt lat="45.83239" lon="4.77511">
        <ele>385.2</ele>
        <time>2019-10-13T06:21:01Z</time>
      </trkpt>
      <trkpt lat="45.83229" lon="4.77537">
        <ele>386.2</ele>
        <time>2019-10-13T06:21:07Z</time>
      </trkpt>
      <trkpt lat="45.83227" lon="4.77541">
        <ele>386.4</ele>
        <time>2019-10-13T06:21:08Z</time>
      </trkpt>
      <trkpt lat="45.83221" lon="4.77553">
        <ele>386.9</ele>
        <time>2019-10-13T06:21:11Z</time>
      </trkpt>
      <trkpt lat="45.83213" lon="4.77562">
        <ele>387.4</ele>
        <time>2019-10-13T06:21:14Z</time>
      </trkpt>
      <trkpt lat="45.8321" lon="4.77564">
        <ele>387.5</ele>
        <time>2019-10-13T06:21:15Z</time>
      </trkpt>
      <trkpt lat="45.83195" lon="4.7757">
        <ele>388.1</ele>
        <time>2019-10-13T06:21:20Z</time>
      </trkpt>
      <trkpt lat="45.83186" lon="4.77573">
        <ele>388.4</ele>
        <time>2019-10-13T06:21:23Z</time>
      </trkpt>
      <trkpt lat="45.83174" lon="4.77577">
        <ele>388.8</ele>
        <time>2019-10-13T06:21:27Z</time>
      </trkpt>
      <trkpt lat="45.83172" lon="4.77578">
        <ele>388.9</ele>
        <time>2019-10-13T06:21:28Z</time>
      </trkpt>
      <trkpt lat="45.83162" lon="4.77587">
        <ele>389.4</ele>
        <time>2019-10-13T06:21:32Z</time>
      </trkpt>
      <trkpt lat="45.83156" lon="4.77595">
        <ele>389.8</ele>
        <time>2019-10-13T06:21:35Z</time>
      </trkpt>
      <trkpt lat="45.83154" lon="4.77598">
        <ele>389.9</ele>
        <time>2019-10-13T06:21:36Z</time>
      </trkpt>
      <trkpt lat="45.83151" lon="4.77608">
        <ele>390.5</ele>
        <time>2019-10-13T06:21:39Z</time>
      </trkpt>
      <trkpt lat="45.83148" lon="4.77621">
        <ele>392.1</ele>
        <time>2019-10-13T06:21:42Z</time>
      </trkpt>
      <trkpt lat="45.83148" lon="4.77625">
        <ele>392.5</ele>
        <time>2019-10-13T06:21:43Z</time>
      </trkpt>
      <trkpt lat="45.83146" lon="4.77642">
        <ele>393.8</ele>
        <time>2019-10-13T06:21:47Z</time>
      </trkpt>
      <trkpt lat="45.83145" lon="4.77655">
        <ele>394.9</ele>
        <time>2019-10-13T06:21:50Z</time>
      </trkpt>
      <trkpt lat="45.83143" lon="4.77669">
        <ele>395.2</ele>
        <time>2019-10-13T06:21:53Z</time>
      </trkpt>
      <trkpt lat="45.83138" lon="4.77681">
        <ele>395.4</ele>
        <time>2019-10-13T06:21:56Z</time>
      </trkpt>
      <trkpt lat="45.8313" lon="4.77691">
        <ele>395.5</ele>
        <time>2019-10-13T06:21:59Z</time>
      </trkpt>
      <trkpt lat="45.8312" lon="4.77697">
        <ele>395.6</ele>
        <time>2019-10-13T06:22:02Z</time>
      </trkpt>
      <trkpt lat="45.83117" lon="4.77699">
        <ele>395.5</ele>
        <time>2019-10-13T06:22:03Z</time>
      </trkpt>
      <trkpt lat="45.83099" lon="4.77709">
        <ele>395.2</ele>
        <time>2019-10-13T06:22:09Z</time>
      </trkpt>
      <trkpt lat="45.83093" lon="4.7771">
        <ele>394.7</ele>
        <time>2019-10-13T06:22:12Z</time>
      </trkpt>
      <trkpt lat="45.83088" lon="4.77711">
        <ele>394.3</ele>
        <time>2019-10-13T06:22:14Z</time>
      </trkpt>
      <trkpt lat="45.83072" lon="4.77713">
        <ele>393.2</ele>
        <time>2019-10-13T06:22:18Z</time>
      </trkpt>
      <trkpt lat="45.83039" lon="4.77719">
        <ele>390.9</ele>
        <time>2019-10-13T06:22:24Z</time>
      </trkpt>
      <trkpt lat="45.83002" lon="4.7773">
        <ele>386.7</ele>
        <time>2019-10-13T06:22:29Z</time>
      </trkpt>
      <trkpt lat="45.82985" lon="4.77736">
        <ele>384.2</ele>
        <time>2019-10-13T06:22:31Z</time>
      </trkpt>
      <trkpt lat="45.82967" lon="4.77741">
        <ele>381.4</ele>
        <time>2019-10-13T06:22:33Z</time>
      </trkpt>
      <trkpt lat="45.82958" lon="4.77739">
        <ele>380.2</ele>
        <time>2019-10-13T06:22:34Z</time>
      </trkpt>
      <trkpt lat="45.82948" lon="4.77737">
        <ele>378.9</ele>
        <time>2019-10-13T06:22:35Z</time>
      </trkpt>
      <trkpt lat="45.82929" lon="4.7773">
        <ele>376.2</ele>
        <time>2019-10-13T06:22:37Z</time>
      </trkpt>
      <trkpt lat="45.82921" lon="4.77726">
        <ele>375.8</ele>
        <time>2019-10-13T06:22:38Z</time>
      </trkpt>
      <trkpt lat="45.82914" lon="4.77722">
        <ele>375.4</ele>
        <time>2019-10-13T06:22:39Z</time>
      </trkpt>
      <trkpt lat="45.82899" lon="4.77713">
        <ele>374.7</ele>
        <time>2019-10-13T06:22:41Z</time>
      </trkpt>
      <trkpt lat="45.82886" lon="4.77705">
        <ele>374.1</ele>
        <time>2019-10-13T06:22:43Z</time>
      </trkpt>
      <trkpt lat="45.82873" lon="4.77697">
        <ele>373.6</ele>
        <time>2019-10-13T06:22:45Z</time>
      </trkpt>
      <trkpt lat="45.82867" lon="4.77686">
        <ele>373.2</ele>
        <time>2019-10-13T06:22:47Z</time>
      </trkpt>
      <trkpt lat="45.82862" lon="4.77671">
        <ele>372.8</ele>
        <time>2019-10-13T06:22:49Z</time>
      </trkpt>
      <trkpt lat="45.82856" lon="4.77663">
        <ele>372.5</ele>
        <time>2019-10-13T06:22:51Z</time>
      </trkpt>
      <trkpt lat="45.82853" lon="4.77661">
        <ele>372.4</ele>
        <time>2019-10-13T06:22:53Z</time>
      </trkpt>
      <trkpt lat="45.82857" lon="4.77665">
        <ele>372.2</ele>
        <time>2019-10-13T06:23:08Z</time>
      </trkpt>
      <trkpt lat="45.82862" lon="4.77671">
        <ele>372</ele>
        <time>2019-10-13T06:23:11Z</time>
      </trkpt>
      <trkpt lat="45.82867" lon="4.77689">
        <ele>371.6</ele>
        <time>2019-10-13T06:23:16Z</time>
      </trkpt>
      <trkpt lat="45.82877" lon="4.77699">
        <ele>371.1</ele>
        <time>2019-10-13T06:23:21Z</time>
      </trkpt>
      <trkpt lat="45.8289" lon="4.77707">
        <ele>370.6</ele>
        <time>2019-10-13T06:23:27Z</time>
      </trkpt>
      <trkpt lat="45.82894" lon="4.77709">
        <ele>370.4</ele>
        <time>2019-10-13T06:23:29Z</time>
      </trkpt>
      <trkpt lat="45.82902" lon="4.77713">
        <ele>370.1</ele>
        <time>2019-10-13T06:23:33Z</time>
      </trkpt>
      <trkpt lat="45.82907" lon="4.77717">
        <ele>369.9</ele>
        <time>2019-10-13T06:23:36Z</time>
      </trkpt>
      <trkpt lat="45.82916" lon="4.77723">
        <ele>369.5</ele>
        <time>2019-10-13T06:23:42Z</time>
      </trkpt>
      <trkpt lat="45.82919" lon="4.77725">
        <ele>369.4</ele>
        <time>2019-10-13T06:23:44Z</time>
      </trkpt>
      <trkpt lat="45.82919" lon="4.7773">
        <ele>369.3</ele>
        <time>2019-10-13T06:23:47Z</time>
      </trkpt>
      <trkpt lat="45.82915" lon="4.77736">
        <ele>369.1</ele>
        <time>2019-10-13T06:23:53Z</time>
      </trkpt>
      <trkpt lat="45.82915" lon="4.77737">
        <ele>369.1</ele>
        <time>2019-10-13T06:23:54Z</time>
      </trkpt>
      <trkpt lat="45.82913" lon="4.77741">
        <ele>369</ele>
        <time>2019-10-13T06:23:57Z</time>
      </trkpt>
      <trkpt lat="45.82918" lon="4.77724">
        <ele>368.5</ele>
        <time>2019-10-13T06:24:49Z</time>
      </trkpt>
      <trkpt lat="45.82907" lon="4.77717">
        <ele>368</ele>
        <time>2019-10-13T06:24:53Z</time>
      </trkpt>
      <trkpt lat="45.82893" lon="4.77709">
        <ele>367.4</ele>
        <time>2019-10-13T06:24:56Z</time>
      </trkpt>
      <trkpt lat="45.82883" lon="4.77703">
        <ele>366.9</ele>
        <time>2019-10-13T06:24:58Z</time>
      </trkpt>
      <trkpt lat="45.82877" lon="4.77699">
        <ele>366.5</ele>
        <time>2019-10-13T06:24:59Z</time>
      </trkpt>
      <trkpt lat="45.82872" lon="4.77695">
        <ele>366.2</ele>
        <time>2019-10-13T06:25:00Z</time>
      </trkpt>
      <trkpt lat="45.82868" lon="4.77689">
        <ele>365.9</ele>
        <time>2019-10-13T06:25:01Z</time>
      </trkpt>
      <trkpt lat="45.82865" lon="4.77683">
        <ele>365.6</ele>
        <time>2019-10-13T06:25:02Z</time>
      </trkpt>
      <trkpt lat="45.82863" lon="4.77675">
        <ele>365.3</ele>
        <time>2019-10-13T06:25:03Z</time>
      </trkpt>
      <trkpt lat="45.8286" lon="4.7767">
        <ele>365</ele>
        <time>2019-10-13T06:25:04Z</time>
      </trkpt>
      <trkpt lat="45.82857" lon="4.77666">
        <ele>364.8</ele>
        <time>2019-10-13T06:25:05Z</time>
      </trkpt>
      <trkpt lat="45.82853" lon="4.77664">
        <ele>364.6</ele>
        <time>2019-10-13T06:25:06Z</time>
      </trkpt>
      <trkpt lat="45.8285" lon="4.77664">
        <ele>364.4</ele>
        <time>2019-10-13T06:25:07Z</time>
      </trkpt>
      <trkpt lat="45.82845" lon="4.77665">
        <ele>364.2</ele>
        <time>2019-10-13T06:25:09Z</time>
      </trkpt>
      <trkpt lat="45.8284" lon="4.77672">
        <ele>362.9</ele>
        <time>2019-10-13T06:25:12Z</time>
      </trkpt>
      <trkpt lat="45.82839" lon="4.77676">
        <ele>362.9</ele>
        <time>2019-10-13T06:25:13Z</time>
      </trkpt>
      <trkpt lat="45.82836" lon="4.77684">
        <ele>362.9</ele>
        <time>2019-10-13T06:25:15Z</time>
      </trkpt>
      <trkpt lat="45.82834" lon="4.7769">
        <ele>362.9</ele>
        <time>2019-10-13T06:25:16Z</time>
      </trkpt>
      <trkpt lat="45.82833" lon="4.77698">
        <ele>362.9</ele>
        <time>2019-10-13T06:25:17Z</time>
      </trkpt>
      <trkpt lat="45.82833" lon="4.77706">
        <ele>362.9</ele>
        <time>2019-10-13T06:25:18Z</time>
      </trkpt>
      <trkpt lat="45.82836" lon="4.7772">
        <ele>363.1</ele>
        <time>2019-10-13T06:25:20Z</time>
      </trkpt>
      <trkpt lat="45.82839" lon="4.77727">
        <ele>363.3</ele>
        <time>2019-10-13T06:25:21Z</time>
      </trkpt>
      <trkpt lat="45.82842" lon="4.77734">
        <ele>363.4</ele>
        <time>2019-10-13T06:25:22Z</time>
      </trkpt>
      <trkpt lat="45.82845" lon="4.7774">
        <ele>363.6</ele>
        <time>2019-10-13T06:25:23Z</time>
      </trkpt>
      <trkpt lat="45.82849" lon="4.77747">
        <ele>363.7</ele>
        <time>2019-10-13T06:25:24Z</time>
      </trkpt>
      <trkpt lat="45.82854" lon="4.77754">
        <ele>363.9</ele>
        <time>2019-10-13T06:25:25Z</time>
      </trkpt>
      <trkpt lat="45.82859" lon="4.7776">
        <ele>364.1</ele>
        <time>2019-10-13T06:25:26Z</time>
      </trkpt>
      <trkpt lat="45.82864" lon="4.77764">
        <ele>364.3</ele>
        <time>2019-10-13T06:25:27Z</time>
      </trkpt>
      <trkpt lat="45.82875" lon="4.77772">
        <ele>364.7</ele>
        <time>2019-10-13T06:25:29Z</time>
      </trkpt>
      <trkpt lat="45.82894" lon="4.77784">
        <ele>365.4</ele>
        <time>2019-10-13T06:25:32Z</time>
      </trkpt>
      <trkpt lat="45.82898" lon="4.77787">
        <ele>365.6</ele>
        <time>2019-10-13T06:25:33Z</time>
      </trkpt>
      <trkpt lat="45.829" lon="4.77791">
        <ele>365.6</ele>
        <time>2019-10-13T06:25:34Z</time>
      </trkpt>
      <trkpt lat="45.82899" lon="4.77793">
        <ele>365.7</ele>
        <time>2019-10-13T06:25:35Z</time>
      </trkpt>
      <trkpt lat="45.82897" lon="4.77794">
        <ele>365.8</ele>
        <time>2019-10-13T06:25:36Z</time>
      </trkpt>
      <trkpt lat="45.8289" lon="4.77794">
        <ele>366</ele>
        <time>2019-10-13T06:25:38Z</time>
      </trkpt>
      <trkpt lat="45.82886" lon="4.77797">
        <ele>366.1</ele>
        <time>2019-10-13T06:25:39Z</time>
      </trkpt>
      <trkpt lat="45.82883" lon="4.77802">
        <ele>366.3</ele>
        <time>2019-10-13T06:25:40Z</time>
      </trkpt>
      <trkpt lat="45.82879" lon="4.77813">
        <ele>366.6</ele>
        <time>2019-10-13T06:25:42Z</time>
      </trkpt>
      <trkpt lat="45.82877" lon="4.77819">
        <ele>366.8</ele>
        <time>2019-10-13T06:25:43Z</time>
      </trkpt>
      <trkpt lat="45.82874" lon="4.77829">
        <ele>367.2</ele>
        <time>2019-10-13T06:25:45Z</time>
      </trkpt>
      <trkpt lat="45.82867" lon="4.77844">
        <ele>367.8</ele>
        <time>2019-10-13T06:25:48Z</time>
      </trkpt>
      <trkpt lat="45.82857" lon="4.77853">
        <ele>367.4</ele>
        <time>2019-10-13T06:25:51Z</time>
      </trkpt>
      <trkpt lat="45.82853" lon="4.77857">
        <ele>367.2</ele>
        <time>2019-10-13T06:25:52Z</time>
      </trkpt>
      <trkpt lat="45.8285" lon="4.77861">
        <ele>366.9</ele>
        <time>2019-10-13T06:25:53Z</time>
      </trkpt>
      <trkpt lat="45.82835" lon="4.77868">
        <ele>366.3</ele>
        <time>2019-10-13T06:25:57Z</time>
      </trkpt>
      <trkpt lat="45.82832" lon="4.77869">
        <ele>366.2</ele>
        <time>2019-10-13T06:25:58Z</time>
      </trkpt>
      <trkpt lat="45.82822" lon="4.77871">
        <ele>366.1</ele>
        <time>2019-10-13T06:26:01Z</time>
      </trkpt>
      <trkpt lat="45.82814" lon="4.77872">
        <ele>366</ele>
        <time>2019-10-13T06:26:04Z</time>
      </trkpt>
      <trkpt lat="45.82811" lon="4.77872">
        <ele>366</ele>
        <time>2019-10-13T06:26:05Z</time>
      </trkpt>
      <trkpt lat="45.82806" lon="4.77872">
        <ele>366.1</ele>
        <time>2019-10-13T06:26:07Z</time>
      </trkpt>
      <trkpt lat="45.82799" lon="4.77872">
        <ele>366.2</ele>
        <time>2019-10-13T06:26:10Z</time>
      </trkpt>
      <trkpt lat="45.82795" lon="4.77873">
        <ele>366.3</ele>
        <time>2019-10-13T06:26:12Z</time>
      </trkpt>
      <trkpt lat="45.82789" lon="4.77873">
        <ele>366.5</ele>
        <time>2019-10-13T06:26:15Z</time>
      </trkpt>
      <trkpt lat="45.82783" lon="4.77874">
        <ele>366.8</ele>
        <time>2019-10-13T06:26:18Z</time>
      </trkpt>
      <trkpt lat="45.8278" lon="4.77875">
        <ele>367</ele>
        <time>2019-10-13T06:26:20Z</time>
      </trkpt>
      <trkpt lat="45.82775" lon="4.77876">
        <ele>367.3</ele>
        <time>2019-10-13T06:26:23Z</time>
      </trkpt>
      <trkpt lat="45.82773" lon="4.77877">
        <ele>367.4</ele>
        <time>2019-10-13T06:26:24Z</time>
      </trkpt>
      <trkpt lat="45.8277" lon="4.77877">
        <ele>367.6</ele>
        <time>2019-10-13T06:26:26Z</time>
      </trkpt>
      <trkpt lat="45.82763" lon="4.77879">
        <ele>368.1</ele>
        <time>2019-10-13T06:26:30Z</time>
      </trkpt>
      <trkpt lat="45.8276" lon="4.7788">
        <ele>368.2</ele>
        <time>2019-10-13T06:26:32Z</time>
      </trkpt>
      <trkpt lat="45.82758" lon="4.7788">
        <ele>368.3</ele>
        <time>2019-10-13T06:26:33Z</time>
      </trkpt>
      <trkpt lat="45.82753" lon="4.77881">
        <ele>368.6</ele>
        <time>2019-10-13T06:26:36Z</time>
      </trkpt>
      <trkpt lat="45.82744" lon="4.77882">
        <ele>369.1</ele>
        <time>2019-10-13T06:26:41Z</time>
      </trkpt>
      <trkpt lat="45.82742" lon="4.77883">
        <ele>369.1</ele>
        <time>2019-10-13T06:26:42Z</time>
      </trkpt>
      <trkpt lat="45.82733" lon="4.77884">
        <ele>369.5</ele>
        <time>2019-10-13T06:26:47Z</time>
      </trkpt>
      <trkpt lat="45.82726" lon="4.77885">
        <ele>369.8</ele>
        <time>2019-10-13T06:26:51Z</time>
      </trkpt>
      <trkpt lat="45.82711" lon="4.77886">
        <ele>369.7</ele>
        <time>2019-10-13T06:26:57Z</time>
      </trkpt>
      <trkpt lat="45.82708" lon="4.77886">
        <ele>369.7</ele>
        <time>2019-10-13T06:26:58Z</time>
      </trkpt>
      <trkpt lat="45.82689" lon="4.7789">
        <ele>369.1</ele>
        <time>2019-10-13T06:27:05Z</time>
      </trkpt>
      <trkpt lat="45.82673" lon="4.779">
        <ele>367.9</ele>
        <time>2019-10-13T06:27:10Z</time>
      </trkpt>
      <trkpt lat="45.82672" lon="4.77903">
        <ele>368</ele>
        <time>2019-10-13T06:27:11Z</time>
      </trkpt>
      <trkpt lat="45.82672" lon="4.77915">
        <ele>368</ele>
        <time>2019-10-13T06:27:14Z</time>
      </trkpt>
      <trkpt lat="45.82673" lon="4.77931">
        <ele>368.4</ele>
        <time>2019-10-13T06:27:18Z</time>
      </trkpt>
      <trkpt lat="45.82674" lon="4.77946">
        <ele>369</ele>
        <time>2019-10-13T06:27:22Z</time>
      </trkpt>
      <trkpt lat="45.82674" lon="4.7795">
        <ele>369.1</ele>
        <time>2019-10-13T06:27:23Z</time>
      </trkpt>
      <trkpt lat="45.82673" lon="4.77961">
        <ele>369.7</ele>
        <time>2019-10-13T06:27:26Z</time>
      </trkpt>
      <trkpt lat="45.82673" lon="4.77974">
        <ele>370.5</ele>
        <time>2019-10-13T06:27:29Z</time>
      </trkpt>
      <trkpt lat="45.82671" lon="4.77989">
        <ele>371.6</ele>
        <time>2019-10-13T06:27:33Z</time>
      </trkpt>
      <trkpt lat="45.8267" lon="4.78009">
        <ele>372.8</ele>
        <time>2019-10-13T06:27:38Z</time>
      </trkpt>
      <trkpt lat="45.82669" lon="4.7802">
        <ele>373.2</ele>
        <time>2019-10-13T06:27:41Z</time>
      </trkpt>
      <trkpt lat="45.82669" lon="4.7804">
        <ele>373.9</ele>
        <time>2019-10-13T06:27:45Z</time>
      </trkpt>
      <trkpt lat="45.82667" lon="4.78045">
        <ele>374.1</ele>
        <time>2019-10-13T06:27:46Z</time>
      </trkpt>
      <trkpt lat="45.82663" lon="4.78048">
        <ele>374</ele>
        <time>2019-10-13T06:27:47Z</time>
      </trkpt>
      <trkpt lat="45.82657" lon="4.78049">
        <ele>373.2</ele>
        <time>2019-10-13T06:27:48Z</time>
      </trkpt>
      <trkpt lat="45.82644" lon="4.7805">
        <ele>371.5</ele>
        <time>2019-10-13T06:27:50Z</time>
      </trkpt>
      <trkpt lat="45.82629" lon="4.7805">
        <ele>369.6</ele>
        <time>2019-10-13T06:27:52Z</time>
      </trkpt>
      <trkpt lat="45.82584" lon="4.78044">
        <ele>363.6</ele>
        <time>2019-10-13T06:27:57Z</time>
      </trkpt>
      <trkpt lat="45.82553" lon="4.78036">
        <ele>361</ele>
        <time>2019-10-13T06:28:00Z</time>
      </trkpt>
      <trkpt lat="45.82532" lon="4.7803">
        <ele>359.1</ele>
        <time>2019-10-13T06:28:02Z</time>
      </trkpt>
      <trkpt lat="45.82521" lon="4.78027">
        <ele>357.7</ele>
        <time>2019-10-13T06:28:03Z</time>
      </trkpt>
      <trkpt lat="45.8251" lon="4.78024">
        <ele>356.1</ele>
        <time>2019-10-13T06:28:04Z</time>
      </trkpt>
      <trkpt lat="45.82488" lon="4.78019">
        <ele>352.8</ele>
        <time>2019-10-13T06:28:06Z</time>
      </trkpt>
      <trkpt lat="45.82464" lon="4.78014">
        <ele>351.1</ele>
        <time>2019-10-13T06:28:08Z</time>
      </trkpt>
      <trkpt lat="45.82452" lon="4.78011">
        <ele>350.5</ele>
        <time>2019-10-13T06:28:09Z</time>
      </trkpt>
      <trkpt lat="45.8244" lon="4.78008">
        <ele>350.1</ele>
        <time>2019-10-13T06:28:10Z</time>
      </trkpt>
      <trkpt lat="45.82417" lon="4.78003">
        <ele>349.5</ele>
        <time>2019-10-13T06:28:12Z</time>
      </trkpt>
      <trkpt lat="45.82395" lon="4.77998">
        <ele>348.9</ele>
        <time>2019-10-13T06:28:14Z</time>
      </trkpt>
      <trkpt lat="45.82385" lon="4.77995">
        <ele>348.7</ele>
        <time>2019-10-13T06:28:15Z</time>
      </trkpt>
      <trkpt lat="45.82375" lon="4.77992">
        <ele>348.4</ele>
        <time>2019-10-13T06:28:16Z</time>
      </trkpt>
      <trkpt lat="45.82356" lon="4.77986">
        <ele>348</ele>
        <time>2019-10-13T06:28:18Z</time>
      </trkpt>
      <trkpt lat="45.82338" lon="4.77982">
        <ele>347.6</ele>
        <time>2019-10-13T06:28:20Z</time>
      </trkpt>
      <trkpt lat="45.82329" lon="4.77979">
        <ele>347.5</ele>
        <time>2019-10-13T06:28:21Z</time>
      </trkpt>
      <trkpt lat="45.82321" lon="4.77977">
        <ele>347.3</ele>
        <time>2019-10-13T06:28:22Z</time>
      </trkpt>
      <trkpt lat="45.82287" lon="4.77968">
        <ele>347</ele>
        <time>2019-10-13T06:28:26Z</time>
      </trkpt>
      <trkpt lat="45.82279" lon="4.77967">
        <ele>347</ele>
        <time>2019-10-13T06:28:27Z</time>
      </trkpt>
      <trkpt lat="45.82248" lon="4.77963">
        <ele>346.9</ele>
        <time>2019-10-13T06:28:31Z</time>
      </trkpt>
      <trkpt lat="45.82242" lon="4.77965">
        <ele>346.9</ele>
        <time>2019-10-13T06:28:32Z</time>
      </trkpt>
      <trkpt lat="45.82216" lon="4.77981">
        <ele>346.9</ele>
        <time>2019-10-13T06:28:37Z</time>
      </trkpt>
      <trkpt lat="45.82199" lon="4.77983">
        <ele>346.8</ele>
        <time>2019-10-13T06:28:42Z</time>
      </trkpt>
      <trkpt lat="45.82184" lon="4.77985">
        <ele>346.4</ele>
        <time>2019-10-13T06:28:46Z</time>
      </trkpt>
      <trkpt lat="45.82173" lon="4.77985">
        <ele>346.1</ele>
        <time>2019-10-13T06:28:49Z</time>
      </trkpt>
      <trkpt lat="45.82155" lon="4.77985">
        <ele>345.5</ele>
        <time>2019-10-13T06:28:54Z</time>
      </trkpt>
      <trkpt lat="45.82144" lon="4.77987">
        <ele>345.1</ele>
        <time>2019-10-13T06:28:57Z</time>
      </trkpt>
      <trkpt lat="45.82136" lon="4.77988">
        <ele>344.9</ele>
        <time>2019-10-13T06:28:59Z</time>
      </trkpt>
      <trkpt lat="45.82125" lon="4.7799">
        <ele>344.5</ele>
        <time>2019-10-13T06:29:03Z</time>
      </trkpt>
      <trkpt lat="45.82121" lon="4.77989">
        <ele>344.3</ele>
        <time>2019-10-13T06:29:05Z</time>
      </trkpt>
      <trkpt lat="45.8212" lon="4.7799">
        <ele>344.3</ele>
        <time>2019-10-13T06:29:06Z</time>
      </trkpt>
      <trkpt lat="45.82119" lon="4.77991">
        <ele>344.2</ele>
        <time>2019-10-13T06:29:07Z</time>
      </trkpt>
      <trkpt lat="45.82121" lon="4.77994">
        <ele>344.1</ele>
        <time>2019-10-13T06:29:10Z</time>
      </trkpt>
      <trkpt lat="45.82122" lon="4.77993">
        <ele>344</ele>
        <time>2019-10-13T06:29:11Z</time>
      </trkpt>
      <trkpt lat="45.82136" lon="4.77992">
        <ele>344.6</ele>
        <time>2019-10-13T06:29:17Z</time>
      </trkpt>
      <trkpt lat="45.82155" lon="4.77988">
        <ele>345.3</ele>
        <time>2019-10-13T06:29:23Z</time>
      </trkpt>
      <trkpt lat="45.82176" lon="4.77985">
        <ele>346</ele>
        <time>2019-10-13T06:29:29Z</time>
      </trkpt>
      <trkpt lat="45.8218" lon="4.77985">
        <ele>346.1</ele>
        <time>2019-10-13T06:29:30Z</time>
      </trkpt>
      <trkpt lat="45.822" lon="4.77985">
        <ele>346.8</ele>
        <time>2019-10-13T06:29:35Z</time>
      </trkpt>
      <trkpt lat="45.82222" lon="4.77984">
        <ele>346.9</ele>
        <time>2019-10-13T06:29:40Z</time>
      </trkpt>
      <trkpt lat="45.82235" lon="4.77978">
        <ele>346.9</ele>
        <time>2019-10-13T06:29:43Z</time>
      </trkpt>
      <trkpt lat="45.82249" lon="4.77969">
        <ele>346.9</ele>
        <time>2019-10-13T06:29:46Z</time>
      </trkpt>
      <trkpt lat="45.82254" lon="4.77967">
        <ele>346.9</ele>
        <time>2019-10-13T06:29:47Z</time>
      </trkpt>
      <trkpt lat="45.82267" lon="4.77964">
        <ele>346.9</ele>
        <time>2019-10-13T06:29:50Z</time>
      </trkpt>
      <trkpt lat="45.82272" lon="4.77964">
        <ele>347</ele>
        <time>2019-10-13T06:29:51Z</time>
      </trkpt>
      <trkpt lat="45.82286" lon="4.77966">
        <ele>347</ele>
        <time>2019-10-13T06:29:54Z</time>
      </trkpt>
      <trkpt lat="45.82295" lon="4.77966">
        <ele>347.1</ele>
        <time>2019-10-13T06:29:56Z</time>
      </trkpt>
      <trkpt lat="45.823" lon="4.77967">
        <ele>347.1</ele>
        <time>2019-10-13T06:29:57Z</time>
      </trkpt>
      <trkpt lat="45.82337" lon="4.77979">
        <ele>347.6</ele>
        <time>2019-10-13T06:30:04Z</time>
      </trkpt>
      <trkpt lat="45.82382" lon="4.77993">
        <ele>348.6</ele>
        <time>2019-10-13T06:30:13Z</time>
      </trkpt>
      <trkpt lat="45.82401" lon="4.77999">
        <ele>349.1</ele>
        <time>2019-10-13T06:30:17Z</time>
      </trkpt>
      <trkpt lat="45.8242" lon="4.78004">
        <ele>349.6</ele>
        <time>2019-10-13T06:30:21Z</time>
      </trkpt>
      <trkpt lat="45.82438" lon="4.7801">
        <ele>350</ele>
        <time>2019-10-13T06:30:25Z</time>
      </trkpt>
      <trkpt lat="45.82456" lon="4.78014">
        <ele>350.7</ele>
        <time>2019-10-13T06:30:29Z</time>
      </trkpt>
      <trkpt lat="45.82473" lon="4.78017">
        <ele>351.7</ele>
        <time>2019-10-13T06:30:33Z</time>
      </trkpt>
      <trkpt lat="45.82477" lon="4.78017">
        <ele>352</ele>
        <time>2019-10-13T06:30:34Z</time>
      </trkpt>
      <trkpt lat="45.82504" lon="4.78022">
        <ele>355.1</ele>
        <time>2019-10-13T06:30:41Z</time>
      </trkpt>
      <trkpt lat="45.82525" lon="4.78025">
        <ele>357.9</ele>
        <time>2019-10-13T06:30:47Z</time>
      </trkpt>
      <trkpt lat="45.82531" lon="4.78027">
        <ele>358.6</ele>
        <time>2019-10-13T06:30:49Z</time>
      </trkpt>
      <trkpt lat="45.8255" lon="4.78033">
        <ele>360.5</ele>
        <time>2019-10-13T06:30:55Z</time>
      </trkpt>
      <trkpt lat="45.82563" lon="4.78037">
        <ele>361.4</ele>
        <time>2019-10-13T06:30:59Z</time>
      </trkpt>
      <trkpt lat="45.82579" lon="4.78042">
        <ele>362.6</ele>
        <time>2019-10-13T06:31:04Z</time>
      </trkpt>
      <trkpt lat="45.82588" lon="4.78046">
        <ele>363.3</ele>
        <time>2019-10-13T06:31:07Z</time>
      </trkpt>
      <trkpt lat="45.82595" lon="4.78047">
        <ele>364</ele>
        <time>2019-10-13T06:31:10Z</time>
      </trkpt>
      <trkpt lat="45.826" lon="4.7805">
        <ele>364.4</ele>
        <time>2019-10-13T06:31:14Z</time>
      </trkpt>
      <trkpt lat="45.82601" lon="4.78051">
        <ele>364.5</ele>
        <time>2019-10-13T06:31:15Z</time>
      </trkpt>
      <trkpt lat="45.82598" lon="4.78062">
        <ele>365.3</ele>
        <time>2019-10-13T06:31:19Z</time>
      </trkpt>
      <trkpt lat="45.82596" lon="4.78082">
        <ele>359.3</ele>
        <time>2019-10-13T06:31:23Z</time>
      </trkpt>
      <trkpt lat="45.82596" lon="4.78089">
        <ele>358.1</ele>
        <time>2019-10-13T06:31:24Z</time>
      </trkpt>
      <trkpt lat="45.82596" lon="4.78101">
        <ele>355.9</ele>
        <time>2019-10-13T06:31:26Z</time>
      </trkpt>
      <trkpt lat="45.82597" lon="4.78105">
        <ele>355</ele>
        <time>2019-10-13T06:31:27Z</time>
      </trkpt>
      <trkpt lat="45.82599" lon="4.7811">
        <ele>354.2</ele>
        <time>2019-10-13T06:31:28Z</time>
      </trkpt>
      <trkpt lat="45.82603" lon="4.78117">
        <ele>353.2</ele>
        <time>2019-10-13T06:31:29Z</time>
      </trkpt>
      <trkpt lat="45.82607" lon="4.78125">
        <ele>352.1</ele>
        <time>2019-10-13T06:31:30Z</time>
      </trkpt>
      <trkpt lat="45.82623" lon="4.78152">
        <ele>350.6</ele>
        <time>2019-10-13T06:31:33Z</time>
      </trkpt>
      <trkpt lat="45.82633" lon="4.78169">
        <ele>350.4</ele>
        <time>2019-10-13T06:31:35Z</time>
      </trkpt>
      <trkpt lat="45.82643" lon="4.78182">
        <ele>350.4</ele>
        <time>2019-10-13T06:31:37Z</time>
      </trkpt>
      <trkpt lat="45.82651" lon="4.78194">
        <ele>350.5</ele>
        <time>2019-10-13T06:31:39Z</time>
      </trkpt>
      <trkpt lat="45.8267" lon="4.7822">
        <ele>351.3</ele>
        <time>2019-10-13T06:31:44Z</time>
      </trkpt>
      <trkpt lat="45.82677" lon="4.7823">
        <ele>351.6</ele>
        <time>2019-10-13T06:31:46Z</time>
      </trkpt>
      <trkpt lat="45.8268" lon="4.78235">
        <ele>351.7</ele>
        <time>2019-10-13T06:31:47Z</time>
      </trkpt>
      <trkpt lat="45.8269" lon="4.78245">
        <ele>352.2</ele>
        <time>2019-10-13T06:31:50Z</time>
      </trkpt>
      <trkpt lat="45.82694" lon="4.78248">
        <ele>352.3</ele>
        <time>2019-10-13T06:31:51Z</time>
      </trkpt>
      <trkpt lat="45.82703" lon="4.78257">
        <ele>352.8</ele>
        <time>2019-10-13T06:31:55Z</time>
      </trkpt>
      <trkpt lat="45.827" lon="4.78271">
        <ele>353.3</ele>
        <time>2019-10-13T06:31:59Z</time>
      </trkpt>
      <trkpt lat="45.82688" lon="4.78277">
        <ele>354</ele>
        <time>2019-10-13T06:32:03Z</time>
      </trkpt>
      <trkpt lat="45.82684" lon="4.78279">
        <ele>354.1</ele>
        <time>2019-10-13T06:32:04Z</time>
      </trkpt>
      <trkpt lat="45.82668" lon="4.78282">
        <ele>355</ele>
        <time>2019-10-13T06:32:09Z</time>
      </trkpt>
      <trkpt lat="45.82642" lon="4.78285">
        <ele>356.5</ele>
        <time>2019-10-13T06:32:17Z</time>
      </trkpt>
      <trkpt lat="45.82627" lon="4.78294">
        <ele>357.9</ele>
        <time>2019-10-13T06:32:23Z</time>
      </trkpt>
      <trkpt lat="45.82621" lon="4.78305">
        <ele>359.1</ele>
        <time>2019-10-13T06:32:28Z</time>
      </trkpt>
      <trkpt lat="45.8262" lon="4.78307">
        <ele>359.3</ele>
        <time>2019-10-13T06:32:29Z</time>
      </trkpt>
      <trkpt lat="45.8262" lon="4.78317">
        <ele>360.5</ele>
        <time>2019-10-13T06:32:35Z</time>
      </trkpt>
      <trkpt lat="45.8262" lon="4.7832">
        <ele>360.8</ele>
        <time>2019-10-13T06:32:36Z</time>
      </trkpt>
      <trkpt lat="45.82619" lon="4.78328">
        <ele>361.7</ele>
        <time>2019-10-13T06:32:39Z</time>
      </trkpt>
      <trkpt lat="45.82618" lon="4.78336">
        <ele>362.9</ele>
        <time>2019-10-13T06:32:43Z</time>
      </trkpt>
      <trkpt lat="45.82618" lon="4.78338">
        <ele>363.2</ele>
        <time>2019-10-13T06:32:44Z</time>
      </trkpt>
      <trkpt lat="45.82617" lon="4.78345">
        <ele>364.2</ele>
        <time>2019-10-13T06:32:47Z</time>
      </trkpt>
      <trkpt lat="45.82615" lon="4.78364">
        <ele>366.9</ele>
        <time>2019-10-13T06:32:57Z</time>
      </trkpt>
      <trkpt lat="45.82616" lon="4.78379">
        <ele>368.4</ele>
        <time>2019-10-13T06:33:00Z</time>
      </trkpt>
      <trkpt lat="45.82617" lon="4.78386">
        <ele>369.1</ele>
        <time>2019-10-13T06:33:01Z</time>
      </trkpt>
      <trkpt lat="45.82621" lon="4.78414">
        <ele>369.6</ele>
        <time>2019-10-13T06:33:04Z</time>
      </trkpt>
      <trkpt lat="45.82624" lon="4.78423">
        <ele>369.3</ele>
        <time>2019-10-13T06:33:05Z</time>
      </trkpt>
      <trkpt lat="45.82628" lon="4.78443">
        <ele>368.8</ele>
        <time>2019-10-13T06:33:07Z</time>
      </trkpt>
      <trkpt lat="45.82638" lon="4.78478">
        <ele>368.2</ele>
        <time>2019-10-13T06:33:11Z</time>
      </trkpt>
      <trkpt lat="45.82659" lon="4.78526">
        <ele>368.2</ele>
        <time>2019-10-13T06:33:17Z</time>
      </trkpt>
      <trkpt lat="45.82679" lon="4.78571">
        <ele>369.2</ele>
        <time>2019-10-13T06:33:24Z</time>
      </trkpt>
      <trkpt lat="45.82685" lon="4.78602">
        <ele>370.6</ele>
        <time>2019-10-13T06:33:29Z</time>
      </trkpt>
      <trkpt lat="45.82688" lon="4.78626">
        <ele>372.1</ele>
        <time>2019-10-13T06:33:34Z</time>
      </trkpt>
      <trkpt lat="45.82695" lon="4.78638">
        <ele>373.4</ele>
        <time>2019-10-13T06:33:39Z</time>
      </trkpt>
      <trkpt lat="45.82698" lon="4.78641">
        <ele>374</ele>
        <time>2019-10-13T06:33:41Z</time>
      </trkpt>
      <trkpt lat="45.82699" lon="4.78644">
        <ele>374.4</ele>
        <time>2019-10-13T06:33:43Z</time>
      </trkpt>
      <trkpt lat="45.82699" lon="4.78648">
        <ele>374.8</ele>
        <time>2019-10-13T06:33:45Z</time>
      </trkpt>
      <trkpt lat="45.82698" lon="4.78651">
        <ele>375.3</ele>
        <time>2019-10-13T06:33:47Z</time>
      </trkpt>
      <trkpt lat="45.82677" lon="4.78702">
        <ele>382.8</ele>
        <time>2019-10-13T06:34:35Z</time>
      </trkpt>
      <trkpt lat="45.82675" lon="4.78711">
        <ele>383.7</ele>
        <time>2019-10-13T06:34:39Z</time>
      </trkpt>
      <trkpt lat="45.82675" lon="4.78713">
        <ele>384</ele>
        <time>2019-10-13T06:34:40Z</time>
      </trkpt>
      <trkpt lat="45.82675" lon="4.78717">
        <ele>384.5</ele>
        <time>2019-10-13T06:34:42Z</time>
      </trkpt>
      <trkpt lat="45.82673" lon="4.78726">
        <ele>385.7</ele>
        <time>2019-10-13T06:34:46Z</time>
      </trkpt>
      <trkpt lat="45.82672" lon="4.78728">
        <ele>386.8</ele>
        <time>2019-10-13T06:34:47Z</time>
      </trkpt>
      <trkpt lat="45.8267" lon="4.78738">
        <ele>387</ele>
        <time>2019-10-13T06:34:52Z</time>
      </trkpt>
      <trkpt lat="45.82671" lon="4.7874">
        <ele>387.1</ele>
        <time>2019-10-13T06:34:53Z</time>
      </trkpt>
      <trkpt lat="45.82675" lon="4.78738">
        <ele>387.9</ele>
        <time>2019-10-13T06:34:56Z</time>
      </trkpt>
      <trkpt lat="45.8268" lon="4.78732">
        <ele>388.1</ele>
        <time>2019-10-13T06:34:59Z</time>
      </trkpt>
      <trkpt lat="45.82688" lon="4.78721">
        <ele>388.8</ele>
        <time>2019-10-13T06:35:03Z</time>
      </trkpt>
      <trkpt lat="45.8269" lon="4.78718">
        <ele>389</ele>
        <time>2019-10-13T06:35:04Z</time>
      </trkpt>
      <trkpt lat="45.82706" lon="4.78696">
        <ele>390.4</ele>
        <time>2019-10-13T06:35:11Z</time>
      </trkpt>
      <trkpt lat="45.82729" lon="4.7868">
        <ele>393</ele>
        <time>2019-10-13T06:35:18Z</time>
      </trkpt>
      <trkpt lat="45.82759" lon="4.78673">
        <ele>396.8</ele>
        <time>2019-10-13T06:35:26Z</time>
      </trkpt>
      <trkpt lat="45.82781" lon="4.78666">
        <ele>399.2</ele>
        <time>2019-10-13T06:35:32Z</time>
      </trkpt>
      <trkpt lat="45.82785" lon="4.78666">
        <ele>399.4</ele>
        <time>2019-10-13T06:35:33Z</time>
      </trkpt>
      <trkpt lat="45.82795" lon="4.78659">
        <ele>400.2</ele>
        <time>2019-10-13T06:35:36Z</time>
      </trkpt>
      <trkpt lat="45.82801" lon="4.78652">
        <ele>400.9</ele>
        <time>2019-10-13T06:35:38Z</time>
      </trkpt>
      <trkpt lat="45.82811" lon="4.78633">
        <ele>399</ele>
        <time>2019-10-13T06:35:42Z</time>
      </trkpt>
      <trkpt lat="45.82814" lon="4.78604">
        <ele>396.2</ele>
        <time>2019-10-13T06:35:47Z</time>
      </trkpt>
      <trkpt lat="45.82813" lon="4.78598">
        <ele>395.8</ele>
        <time>2019-10-13T06:35:48Z</time>
      </trkpt>
      <trkpt lat="45.82808" lon="4.78581">
        <ele>394.1</ele>
        <time>2019-10-13T06:35:51Z</time>
      </trkpt>
      <trkpt lat="45.82801" lon="4.78566">
        <ele>392.5</ele>
        <time>2019-10-13T06:35:54Z</time>
      </trkpt>
      <trkpt lat="45.82789" lon="4.78534">
        <ele>390.3</ele>
        <time>2019-10-13T06:36:00Z</time>
      </trkpt>
      <trkpt lat="45.82787" lon="4.78528">
        <ele>389.9</ele>
        <time>2019-10-13T06:36:01Z</time>
      </trkpt>
      <trkpt lat="45.82785" lon="4.78515">
        <ele>389.1</ele>
        <time>2019-10-13T06:36:03Z</time>
      </trkpt>
      <trkpt lat="45.82785" lon="4.78509">
        <ele>388.7</ele>
        <time>2019-10-13T06:36:04Z</time>
      </trkpt>
      <trkpt lat="45.82785" lon="4.78503">
        <ele>388.4</ele>
        <time>2019-10-13T06:36:05Z</time>
      </trkpt>
      <trkpt lat="45.8279" lon="4.78477">
        <ele>387.3</ele>
        <time>2019-10-13T06:36:10Z</time>
      </trkpt>
      <trkpt lat="45.82796" lon="4.78468">
        <ele>387</ele>
        <time>2019-10-13T06:36:12Z</time>
      </trkpt>
      <trkpt lat="45.82803" lon="4.78461">
        <ele>386.7</ele>
        <time>2019-10-13T06:36:14Z</time>
      </trkpt>
      <trkpt lat="45.82808" lon="4.78454">
        <ele>386.4</ele>
        <time>2019-10-13T06:36:16Z</time>
      </trkpt>
      <trkpt lat="45.82815" lon="4.78453">
        <ele>387.7</ele>
        <time>2019-10-13T06:36:19Z</time>
      </trkpt>
      <trkpt lat="45.82821" lon="4.7846">
        <ele>389.3</ele>
        <time>2019-10-13T06:36:23Z</time>
      </trkpt>
      <trkpt lat="45.82824" lon="4.78463">
        <ele>390</ele>
        <time>2019-10-13T06:36:25Z</time>
      </trkpt>
      <trkpt lat="45.82825" lon="4.78464">
        <ele>390.2</ele>
        <time>2019-10-13T06:36:26Z</time>
      </trkpt>
      <trkpt lat="45.82827" lon="4.78464">
        <ele>390.5</ele>
        <time>2019-10-13T06:36:27Z</time>
      </trkpt>
      <trkpt lat="45.82828" lon="4.78465">
        <ele>390.8</ele>
        <time>2019-10-13T06:36:28Z</time>
      </trkpt>
      <trkpt lat="45.82831" lon="4.78466">
        <ele>391.4</ele>
        <time>2019-10-13T06:36:30Z</time>
      </trkpt>
      <trkpt lat="45.82833" lon="4.78467">
        <ele>391.7</ele>
        <time>2019-10-13T06:36:31Z</time>
      </trkpt>
      <trkpt lat="45.82835" lon="4.78468">
        <ele>392.3</ele>
        <time>2019-10-13T06:36:33Z</time>
      </trkpt>
      <trkpt lat="45.82838" lon="4.7847">
        <ele>393</ele>
        <time>2019-10-13T06:36:35Z</time>
      </trkpt>
      <trkpt lat="45.82841" lon="4.78473">
        <ele>393.7</ele>
        <time>2019-10-13T06:36:38Z</time>
      </trkpt>
      <trkpt lat="45.82844" lon="4.78475">
        <ele>394.1</ele>
        <time>2019-10-13T06:36:40Z</time>
      </trkpt>
      <trkpt lat="45.8285" lon="4.78479">
        <ele>395.4</ele>
        <time>2019-10-13T06:36:47Z</time>
      </trkpt>
      <trkpt lat="45.82855" lon="4.78484">
        <ele>396.3</ele>
        <time>2019-10-13T06:36:50Z</time>
      </trkpt>
      <trkpt lat="45.82857" lon="4.78486">
        <ele>396.9</ele>
        <time>2019-10-13T06:36:52Z</time>
      </trkpt>
      <trkpt lat="45.82859" lon="4.78486">
        <ele>397.2</ele>
        <time>2019-10-13T06:36:53Z</time>
      </trkpt>
      <trkpt lat="45.82863" lon="4.7849">
        <ele>398.3</ele>
        <time>2019-10-13T06:36:57Z</time>
      </trkpt>
      <trkpt lat="45.82866" lon="4.78493">
        <ele>399.2</ele>
        <time>2019-10-13T06:37:00Z</time>
      </trkpt>
      <trkpt lat="45.82868" lon="4.78494">
        <ele>399.7</ele>
        <time>2019-10-13T06:37:02Z</time>
      </trkpt>
      <trkpt lat="45.82874" lon="4.78502">
        <ele>401.7</ele>
        <time>2019-10-13T06:37:07Z</time>
      </trkpt>
      <trkpt lat="45.8288" lon="4.78509">
        <ele>404.2</ele>
        <time>2019-10-13T06:37:12Z</time>
      </trkpt>
      <trkpt lat="45.82882" lon="4.78511">
        <ele>404.4</ele>
        <time>2019-10-13T06:37:14Z</time>
      </trkpt>
      <trkpt lat="45.82885" lon="4.78512">
        <ele>404.8</ele>
        <time>2019-10-13T06:37:17Z</time>
      </trkpt>
      <trkpt lat="45.8289" lon="4.78511">
        <ele>405.3</ele>
        <time>2019-10-13T06:37:21Z</time>
      </trkpt>
      <trkpt lat="45.82891" lon="4.78511">
        <ele>405.5</ele>
        <time>2019-10-13T06:37:22Z</time>
      </trkpt>
      <trkpt lat="45.82897" lon="4.78509">
        <ele>406</ele>
        <time>2019-10-13T06:37:26Z</time>
      </trkpt>
      <trkpt lat="45.82902" lon="4.78506">
        <ele>406.7</ele>
        <time>2019-10-13T06:37:30Z</time>
      </trkpt>
      <trkpt lat="45.82911" lon="4.78504">
        <ele>407.7</ele>
        <time>2019-10-13T06:37:36Z</time>
      </trkpt>
      <trkpt lat="45.82915" lon="4.78504">
        <ele>408.1</ele>
        <time>2019-10-13T06:37:39Z</time>
      </trkpt>
      <trkpt lat="45.82917" lon="4.78504">
        <ele>408.3</ele>
        <time>2019-10-13T06:37:40Z</time>
      </trkpt>
      <trkpt lat="45.82921" lon="4.78504">
        <ele>408.8</ele>
        <time>2019-10-13T06:37:43Z</time>
      </trkpt>
      <trkpt lat="45.82929" lon="4.78505">
        <ele>409.6</ele>
        <time>2019-10-13T06:37:49Z</time>
      </trkpt>
      <trkpt lat="45.82935" lon="4.78501">
        <ele>409.1</ele>
        <time>2019-10-13T06:37:52Z</time>
      </trkpt>
      <trkpt lat="45.82937" lon="4.78499">
        <ele>408.9</ele>
        <time>2019-10-13T06:37:53Z</time>
      </trkpt>
      <trkpt lat="45.82951" lon="4.78481">
        <ele>408</ele>
        <time>2019-10-13T06:37:57Z</time>
      </trkpt>
      <trkpt lat="45.82974" lon="4.7845">
        <ele>407.4</ele>
        <time>2019-10-13T06:38:04Z</time>
      </trkpt>
      <trkpt lat="45.82979" lon="4.78447">
        <ele>407.3</ele>
        <time>2019-10-13T06:38:05Z</time>
      </trkpt>
      <trkpt lat="45.83" lon="4.78437">
        <ele>406.7</ele>
        <time>2019-10-13T06:38:09Z</time>
      </trkpt>
      <trkpt lat="45.83029" lon="4.78425">
        <ele>406.5</ele>
        <time>2019-10-13T06:38:14Z</time>
      </trkpt>
      <trkpt lat="45.83035" lon="4.78422">
        <ele>406.4</ele>
        <time>2019-10-13T06:38:15Z</time>
      </trkpt>
      <trkpt lat="45.83052" lon="4.78411">
        <ele>406.4</ele>
        <time>2019-10-13T06:38:18Z</time>
      </trkpt>
      <trkpt lat="45.8307" lon="4.78399">
        <ele>406.6</ele>
        <time>2019-10-13T06:38:21Z</time>
      </trkpt>
      <trkpt lat="45.83075" lon="4.78394">
        <ele>406.8</ele>
        <time>2019-10-13T06:38:22Z</time>
      </trkpt>
      <trkpt lat="45.83099" lon="4.78371">
        <ele>408.5</ele>
        <time>2019-10-13T06:38:27Z</time>
      </trkpt>
      <trkpt lat="45.83102" lon="4.78365">
        <ele>408.9</ele>
        <time>2019-10-13T06:38:28Z</time>
      </trkpt>
      <trkpt lat="45.83105" lon="4.78344">
        <ele>410.2</ele>
        <time>2019-10-13T06:38:32Z</time>
      </trkpt>
      <trkpt lat="45.83105" lon="4.78335">
        <ele>410.8</ele>
        <time>2019-10-13T06:38:34Z</time>
      </trkpt>
      <trkpt lat="45.83102" lon="4.78322">
        <ele>411.9</ele>
        <time>2019-10-13T06:38:38Z</time>
      </trkpt>
      <trkpt lat="45.83097" lon="4.78293">
        <ele>415.3</ele>
        <time>2019-10-13T06:38:47Z</time>
      </trkpt>
      <trkpt lat="45.83098" lon="4.78279">
        <ele>420.5</ele>
        <time>2019-10-13T06:38:53Z</time>
      </trkpt>
      <trkpt lat="45.83101" lon="4.7828">
        <ele>420.9</ele>
        <time>2019-10-13T06:38:55Z</time>
      </trkpt>
      <trkpt lat="45.83104" lon="4.78282">
        <ele>421.3</ele>
        <time>2019-10-13T06:38:57Z</time>
      </trkpt>
      <trkpt lat="45.83108" lon="4.78282">
        <ele>421.9</ele>
        <time>2019-10-13T06:39:00Z</time>
      </trkpt>
      <trkpt lat="45.83111" lon="4.78283">
        <ele>422.4</ele>
        <time>2019-10-13T06:39:03Z</time>
      </trkpt>
      <trkpt lat="45.83113" lon="4.78283">
        <ele>422.7</ele>
        <time>2019-10-13T06:39:05Z</time>
      </trkpt>
      <trkpt lat="45.83114" lon="4.78283">
        <ele>423</ele>
        <time>2019-10-13T06:39:06Z</time>
      </trkpt>
      <trkpt lat="45.83119" lon="4.78284">
        <ele>423.8</ele>
        <time>2019-10-13T06:39:09Z</time>
      </trkpt>
      <trkpt lat="45.83123" lon="4.78283">
        <ele>424.6</ele>
        <time>2019-10-13T06:39:12Z</time>
      </trkpt>
      <trkpt lat="45.83126" lon="4.78281">
        <ele>425.3</ele>
        <time>2019-10-13T06:39:14Z</time>
      </trkpt>
      <trkpt lat="45.83127" lon="4.78281">
        <ele>425.5</ele>
        <time>2019-10-13T06:39:15Z</time>
      </trkpt>
      <trkpt lat="45.8313" lon="4.7828">
        <ele>426.2</ele>
        <time>2019-10-13T06:39:17Z</time>
      </trkpt>
      <trkpt lat="45.83133" lon="4.78278">
        <ele>427</ele>
        <time>2019-10-13T06:39:20Z</time>
      </trkpt>
      <trkpt lat="45.83137" lon="4.78277">
        <ele>427.7</ele>
        <time>2019-10-13T06:39:23Z</time>
      </trkpt>
      <trkpt lat="45.83138" lon="4.78276">
        <ele>427.9</ele>
        <time>2019-10-13T06:39:24Z</time>
      </trkpt>
      <trkpt lat="45.8314" lon="4.78275">
        <ele>428.5</ele>
        <time>2019-10-13T06:39:26Z</time>
      </trkpt>
      <trkpt lat="45.83144" lon="4.78273">
        <ele>429.4</ele>
        <time>2019-10-13T06:39:29Z</time>
      </trkpt>
      <trkpt lat="45.83148" lon="4.78271">
        <ele>430.4</ele>
        <time>2019-10-13T06:39:32Z</time>
      </trkpt>
      <trkpt lat="45.83153" lon="4.78269">
        <ele>431.2</ele>
        <time>2019-10-13T06:39:34Z</time>
      </trkpt>
      <trkpt lat="45.83154" lon="4.78268">
        <ele>431.7</ele>
        <time>2019-10-13T06:39:35Z</time>
      </trkpt>
      <trkpt lat="45.83165" lon="4.78266">
        <ele>434</ele>
        <time>2019-10-13T06:39:41Z</time>
      </trkpt>
      <trkpt lat="45.83167" lon="4.78267">
        <ele>434.4</ele>
        <time>2019-10-13T06:39:42Z</time>
      </trkpt>
      <trkpt lat="45.83185" lon="4.78269">
        <ele>438.3</ele>
        <time>2019-10-13T06:39:52Z</time>
      </trkpt>
      <trkpt lat="45.83189" lon="4.78269">
        <ele>439.1</ele>
        <time>2019-10-13T06:39:54Z</time>
      </trkpt>
      <trkpt lat="45.83193" lon="4.78269">
        <ele>440.1</ele>
        <time>2019-10-13T06:39:57Z</time>
      </trkpt>
      <trkpt lat="45.83198" lon="4.7827">
        <ele>441.1</ele>
        <time>2019-10-13T06:40:00Z</time>
      </trkpt>
      <trkpt lat="45.832" lon="4.7827">
        <ele>441.4</ele>
        <time>2019-10-13T06:40:01Z</time>
      </trkpt>
      <trkpt lat="45.83206" lon="4.78272">
        <ele>442.7</ele>
        <time>2019-10-13T06:40:05Z</time>
      </trkpt>
      <trkpt lat="45.8321" lon="4.78273">
        <ele>443.5</ele>
        <time>2019-10-13T06:40:07Z</time>
      </trkpt>
      <trkpt lat="45.83227" lon="4.7828">
        <ele>447.2</ele>
        <time>2019-10-13T06:40:15Z</time>
      </trkpt>
      <trkpt lat="45.83237" lon="4.78285">
        <ele>449</ele>
        <time>2019-10-13T06:40:20Z</time>
      </trkpt>
      <trkpt lat="45.8324" lon="4.78288">
        <ele>449.6</ele>
        <time>2019-10-13T06:40:22Z</time>
      </trkpt>
      <trkpt lat="45.83247" lon="4.7829">
        <ele>450.8</ele>
        <time>2019-10-13T06:40:26Z</time>
      </trkpt>
      <trkpt lat="45.83255" lon="4.78296">
        <ele>452.9</ele>
        <time>2019-10-13T06:40:30Z</time>
      </trkpt>
      <trkpt lat="45.83257" lon="4.78299">
        <ele>453.6</ele>
        <time>2019-10-13T06:40:31Z</time>
      </trkpt>
      <trkpt lat="45.83261" lon="4.7831">
        <ele>455.6</ele>
        <time>2019-10-13T06:40:35Z</time>
      </trkpt>
      <trkpt lat="45.83263" lon="4.78316">
        <ele>455.5</ele>
        <time>2019-10-13T06:40:37Z</time>
      </trkpt>
      <trkpt lat="45.83264" lon="4.78322">
        <ele>455.3</ele>
        <time>2019-10-13T06:40:39Z</time>
      </trkpt>
      <trkpt lat="45.83264" lon="4.7834">
        <ele>455.1</ele>
        <time>2019-10-13T06:40:45Z</time>
      </trkpt>
      <trkpt lat="45.83262" lon="4.78352">
        <ele>455</ele>
        <time>2019-10-13T06:40:49Z</time>
      </trkpt>
      <trkpt lat="45.83261" lon="4.78357">
        <ele>454.9</ele>
        <time>2019-10-13T06:40:51Z</time>
      </trkpt>
      <trkpt lat="45.83259" lon="4.78359">
        <ele>454.9</ele>
        <time>2019-10-13T06:40:53Z</time>
      </trkpt>
      <trkpt lat="45.83255" lon="4.78373">
        <ele>454.8</ele>
        <time>2019-10-13T06:40:58Z</time>
      </trkpt>
      <trkpt lat="45.83253" lon="4.78376">
        <ele>454.8</ele>
        <time>2019-10-13T06:40:59Z</time>
      </trkpt>
      <trkpt lat="45.83245" lon="4.78401">
        <ele>454.8</ele>
        <time>2019-10-13T06:41:06Z</time>
      </trkpt>
      <trkpt lat="45.83232" lon="4.78437">
        <ele>454.3</ele>
        <time>2019-10-13T06:41:15Z</time>
      </trkpt>
      <trkpt lat="45.83227" lon="4.78447">
        <ele>454.1</ele>
        <time>2019-10-13T06:41:17Z</time>
      </trkpt>
      <trkpt lat="45.83219" lon="4.78455">
        <ele>454</ele>
        <time>2019-10-13T06:41:19Z</time>
      </trkpt>
      <trkpt lat="45.832" lon="4.78468">
        <ele>453.8</ele>
        <time>2019-10-13T06:41:23Z</time>
      </trkpt>
      <trkpt lat="45.83196" lon="4.78473">
        <ele>453.7</ele>
        <time>2019-10-13T06:41:24Z</time>
      </trkpt>
      <trkpt lat="45.83192" lon="4.78478">
        <ele>453.6</ele>
        <time>2019-10-13T06:41:25Z</time>
      </trkpt>
      <trkpt lat="45.83186" lon="4.78489">
        <ele>453.3</ele>
        <time>2019-10-13T06:41:27Z</time>
      </trkpt>
      <trkpt lat="45.83176" lon="4.78506">
        <ele>453</ele>
        <time>2019-10-13T06:41:30Z</time>
      </trkpt>
      <trkpt lat="45.83172" lon="4.78511">
        <ele>453</ele>
        <time>2019-10-13T06:41:31Z</time>
      </trkpt>
      <trkpt lat="45.83163" lon="4.78519">
        <ele>452.9</ele>
        <time>2019-10-13T06:41:33Z</time>
      </trkpt>
      <trkpt lat="45.83154" lon="4.78525">
        <ele>452.7</ele>
        <time>2019-10-13T06:41:35Z</time>
      </trkpt>
      <trkpt lat="45.83149" lon="4.78527">
        <ele>452.6</ele>
        <time>2019-10-13T06:41:36Z</time>
      </trkpt>
      <trkpt lat="45.83122" lon="4.78545">
        <ele>452.1</ele>
        <time>2019-10-13T06:41:43Z</time>
      </trkpt>
      <trkpt lat="45.83104" lon="4.78565">
        <ele>452.1</ele>
        <time>2019-10-13T06:41:49Z</time>
      </trkpt>
      <trkpt lat="45.83092" lon="4.78582">
        <ele>452.1</ele>
        <time>2019-10-13T06:41:54Z</time>
      </trkpt>
      <trkpt lat="45.83081" lon="4.78605">
        <ele>452.8</ele>
        <time>2019-10-13T06:42:00Z</time>
      </trkpt>
      <trkpt lat="45.83079" lon="4.78609">
        <ele>452.9</ele>
        <time>2019-10-13T06:42:01Z</time>
      </trkpt>
      <trkpt lat="45.83062" lon="4.78641">
        <ele>454.1</ele>
        <time>2019-10-13T06:42:09Z</time>
      </trkpt>
      <trkpt lat="45.83046" lon="4.78673">
        <ele>454.6</ele>
        <time>2019-10-13T06:42:15Z</time>
      </trkpt>
      <trkpt lat="45.8304" lon="4.78685">
        <ele>454.8</ele>
        <time>2019-10-13T06:42:17Z</time>
      </trkpt>
      <trkpt lat="45.83019" lon="4.78732">
        <ele>455.5</ele>
        <time>2019-10-13T06:42:24Z</time>
      </trkpt>
      <trkpt lat="45.83015" lon="4.78739">
        <ele>455.7</ele>
        <time>2019-10-13T06:42:25Z</time>
      </trkpt>
      <trkpt lat="45.82991" lon="4.78779">
        <ele>456.4</ele>
        <time>2019-10-13T06:42:31Z</time>
      </trkpt>
      <trkpt lat="45.82968" lon="4.78804">
        <ele>457</ele>
        <time>2019-10-13T06:42:36Z</time>
      </trkpt>
      <trkpt lat="45.82946" lon="4.78824">
        <ele>457.6</ele>
        <time>2019-10-13T06:42:42Z</time>
      </trkpt>
      <trkpt lat="45.82938" lon="4.78833">
        <ele>457.7</ele>
        <time>2019-10-13T06:42:45Z</time>
      </trkpt>
      <trkpt lat="45.82931" lon="4.78843">
        <ele>457.3</ele>
        <time>2019-10-13T06:42:48Z</time>
      </trkpt>
      <trkpt lat="45.82928" lon="4.78851">
        <ele>457.5</ele>
        <time>2019-10-13T06:42:50Z</time>
      </trkpt>
      <trkpt lat="45.82925" lon="4.78861">
        <ele>457.8</ele>
        <time>2019-10-13T06:42:53Z</time>
      </trkpt>
      <trkpt lat="45.82924" lon="4.78863">
        <ele>457.9</ele>
        <time>2019-10-13T06:42:54Z</time>
      </trkpt>
      <trkpt lat="45.8292" lon="4.78872">
        <ele>458.3</ele>
        <time>2019-10-13T06:42:58Z</time>
      </trkpt>
      <trkpt lat="45.82918" lon="4.78874">
        <ele>458.4</ele>
        <time>2019-10-13T06:42:59Z</time>
      </trkpt>
      <trkpt lat="45.8291" lon="4.78884">
        <ele>458.8</ele>
        <time>2019-10-13T06:43:04Z</time>
      </trkpt>
      <trkpt lat="45.82904" lon="4.7889">
        <ele>459.1</ele>
        <time>2019-10-13T06:43:07Z</time>
      </trkpt>
      <trkpt lat="45.829" lon="4.78895">
        <ele>459.3</ele>
        <time>2019-10-13T06:43:09Z</time>
      </trkpt>
      <trkpt lat="45.82893" lon="4.78904">
        <ele>459.8</ele>
        <time>2019-10-13T06:43:13Z</time>
      </trkpt>
      <trkpt lat="45.82891" lon="4.78906">
        <ele>459.9</ele>
        <time>2019-10-13T06:43:14Z</time>
      </trkpt>
      <trkpt lat="45.82884" lon="4.78913">
        <ele>460.2</ele>
        <time>2019-10-13T06:43:17Z</time>
      </trkpt>
      <trkpt lat="45.82878" lon="4.7892">
        <ele>460.4</ele>
        <time>2019-10-13T06:43:20Z</time>
      </trkpt>
      <trkpt lat="45.82868" lon="4.78933">
        <ele>460.9</ele>
        <time>2019-10-13T06:43:25Z</time>
      </trkpt>
      <trkpt lat="45.82862" lon="4.7894">
        <ele>461.3</ele>
        <time>2019-10-13T06:43:28Z</time>
      </trkpt>
      <trkpt lat="45.8286" lon="4.78943">
        <ele>461.4</ele>
        <time>2019-10-13T06:43:29Z</time>
      </trkpt>
      <trkpt lat="45.82853" lon="4.78954">
        <ele>462</ele>
        <time>2019-10-13T06:43:33Z</time>
      </trkpt>
      <trkpt lat="45.82847" lon="4.78964">
        <ele>462.4</ele>
        <time>2019-10-13T06:43:37Z</time>
      </trkpt>
      <trkpt lat="45.82842" lon="4.78973">
        <ele>462.8</ele>
        <time>2019-10-13T06:43:40Z</time>
      </trkpt>
      <trkpt lat="45.82833" lon="4.78986">
        <ele>463.2</ele>
        <time>2019-10-13T06:43:44Z</time>
      </trkpt>
      <trkpt lat="45.82818" lon="4.79013">
        <ele>463.6</ele>
        <time>2019-10-13T06:43:50Z</time>
      </trkpt>
      <trkpt lat="45.82816" lon="4.79023">
        <ele>463.2</ele>
        <time>2019-10-13T06:43:53Z</time>
      </trkpt>
      <trkpt lat="45.82817" lon="4.79025">
        <ele>463.2</ele>
        <time>2019-10-13T06:43:54Z</time>
      </trkpt>
      <trkpt lat="45.82819" lon="4.79023">
        <ele>463.4</ele>
        <time>2019-10-13T06:43:59Z</time>
      </trkpt>
      <trkpt lat="45.82812" lon="4.7903">
        <ele>462.9</ele>
        <time>2019-10-13T06:44:03Z</time>
      </trkpt>
      <trkpt lat="45.82812" lon="4.79051">
        <ele>463</ele>
        <time>2019-10-13T06:44:07Z</time>
      </trkpt>
      <trkpt lat="45.82817" lon="4.79071">
        <ele>463.6</ele>
        <time>2019-10-13T06:44:10Z</time>
      </trkpt>
      <trkpt lat="45.82821" lon="4.79086">
        <ele>464.1</ele>
        <time>2019-10-13T06:44:12Z</time>
      </trkpt>
      <trkpt lat="45.8283" lon="4.79123">
        <ele>465.9</ele>
        <time>2019-10-13T06:44:17Z</time>
      </trkpt>
      <trkpt lat="45.82831" lon="4.79131">
        <ele>465.9</ele>
        <time>2019-10-13T06:44:21Z</time>
      </trkpt>
      <trkpt lat="45.82834" lon="4.79144">
        <ele>465.8</ele>
        <time>2019-10-13T06:44:24Z</time>
      </trkpt>
      <trkpt lat="45.82836" lon="4.7915">
        <ele>465.8</ele>
        <time>2019-10-13T06:44:25Z</time>
      </trkpt>
      <trkpt lat="45.82844" lon="4.79166">
        <ele>465.9</ele>
        <time>2019-10-13T06:44:28Z</time>
      </trkpt>
      <trkpt lat="45.82846" lon="4.79172">
        <ele>466</ele>
        <time>2019-10-13T06:44:29Z</time>
      </trkpt>
      <trkpt lat="45.8286" lon="4.79223">
        <ele>466.8</ele>
        <time>2019-10-13T06:44:37Z</time>
      </trkpt>
      <trkpt lat="45.82872" lon="4.79264">
        <ele>466.3</ele>
        <time>2019-10-13T06:44:44Z</time>
      </trkpt>
      <trkpt lat="45.82873" lon="4.79268">
        <ele>466.3</ele>
        <time>2019-10-13T06:44:45Z</time>
      </trkpt>
      <trkpt lat="45.82884" lon="4.793">
        <ele>464.3</ele>
        <time>2019-10-13T06:44:51Z</time>
      </trkpt>
      <trkpt lat="45.82904" lon="4.79345">
        <ele>459.9</ele>
        <time>2019-10-13T06:44:57Z</time>
      </trkpt>
      <trkpt lat="45.82909" lon="4.79364">
        <ele>458.1</ele>
        <time>2019-10-13T06:44:59Z</time>
      </trkpt>
      <trkpt lat="45.82909" lon="4.79375">
        <ele>457.2</ele>
        <time>2019-10-13T06:45:00Z</time>
      </trkpt>
      <trkpt lat="45.82905" lon="4.79406">
        <ele>454.5</ele>
        <time>2019-10-13T06:45:03Z</time>
      </trkpt>
      <trkpt lat="45.82902" lon="4.79414">
        <ele>453.6</ele>
        <time>2019-10-13T06:45:04Z</time>
      </trkpt>
      <trkpt lat="45.8289" lon="4.79434">
        <ele>451.5</ele>
        <time>2019-10-13T06:45:07Z</time>
      </trkpt>
      <trkpt lat="45.82884" lon="4.79439">
        <ele>451.1</ele>
        <time>2019-10-13T06:45:08Z</time>
      </trkpt>
      <trkpt lat="45.82878" lon="4.79443">
        <ele>450.1</ele>
        <time>2019-10-13T06:45:09Z</time>
      </trkpt>
      <trkpt lat="45.82871" lon="4.79447">
        <ele>449.3</ele>
        <time>2019-10-13T06:45:10Z</time>
      </trkpt>
      <trkpt lat="45.82863" lon="4.79451">
        <ele>448.6</ele>
        <time>2019-10-13T06:45:11Z</time>
      </trkpt>
      <trkpt lat="45.82849" lon="4.79458">
        <ele>447.1</ele>
        <time>2019-10-13T06:45:13Z</time>
      </trkpt>
      <trkpt lat="45.82833" lon="4.79466">
        <ele>445.5</ele>
        <time>2019-10-13T06:45:15Z</time>
      </trkpt>
      <trkpt lat="45.82817" lon="4.79474">
        <ele>444.6</ele>
        <time>2019-10-13T06:45:17Z</time>
      </trkpt>
      <trkpt lat="45.828" lon="4.79482">
        <ele>443.8</ele>
        <time>2019-10-13T06:45:19Z</time>
      </trkpt>
      <trkpt lat="45.82783" lon="4.79487">
        <ele>442.7</ele>
        <time>2019-10-13T06:45:21Z</time>
      </trkpt>
      <trkpt lat="45.82765" lon="4.79492">
        <ele>441.6</ele>
        <time>2019-10-13T06:45:23Z</time>
      </trkpt>
      <trkpt lat="45.82756" lon="4.79495">
        <ele>440.9</ele>
        <time>2019-10-13T06:45:24Z</time>
      </trkpt>
      <trkpt lat="45.82747" lon="4.79498">
        <ele>440.2</ele>
        <time>2019-10-13T06:45:25Z</time>
      </trkpt>
      <trkpt lat="45.82737" lon="4.795">
        <ele>439.5</ele>
        <time>2019-10-13T06:45:26Z</time>
      </trkpt>
      <trkpt lat="45.82727" lon="4.79502">
        <ele>438.8</ele>
        <time>2019-10-13T06:45:27Z</time>
      </trkpt>
      <trkpt lat="45.82711" lon="4.79505">
        <ele>437.3</ele>
        <time>2019-10-13T06:45:29Z</time>
      </trkpt>
      <trkpt lat="45.82705" lon="4.79509">
        <ele>436.6</ele>
        <time>2019-10-13T06:45:31Z</time>
      </trkpt>
      <trkpt lat="45.82705" lon="4.79517">
        <ele>436.3</ele>
        <time>2019-10-13T06:45:33Z</time>
      </trkpt>
      <trkpt lat="45.82707" lon="4.79524">
        <ele>436</ele>
        <time>2019-10-13T06:45:34Z</time>
      </trkpt>
      <trkpt lat="45.8271" lon="4.79532">
        <ele>435.6</ele>
        <time>2019-10-13T06:45:35Z</time>
      </trkpt>
      <trkpt lat="45.82714" lon="4.79551">
        <ele>434.8</ele>
        <time>2019-10-13T06:45:37Z</time>
      </trkpt>
      <trkpt lat="45.82715" lon="4.79562">
        <ele>434.3</ele>
        <time>2019-10-13T06:45:38Z</time>
      </trkpt>
      <trkpt lat="45.82717" lon="4.79573">
        <ele>433.8</ele>
        <time>2019-10-13T06:45:39Z</time>
      </trkpt>
      <trkpt lat="45.82719" lon="4.79583">
        <ele>433.3</ele>
        <time>2019-10-13T06:45:40Z</time>
      </trkpt>
      <trkpt lat="45.82721" lon="4.79594">
        <ele>433</ele>
        <time>2019-10-13T06:45:41Z</time>
      </trkpt>
      <trkpt lat="45.82722" lon="4.79603">
        <ele>432.7</ele>
        <time>2019-10-13T06:45:42Z</time>
      </trkpt>
      <trkpt lat="45.82723" lon="4.7961">
        <ele>432.6</ele>
        <time>2019-10-13T06:45:43Z</time>
      </trkpt>
      <trkpt lat="45.82725" lon="4.79622">
        <ele>432.3</ele>
        <time>2019-10-13T06:45:45Z</time>
      </trkpt>
      <trkpt lat="45.82726" lon="4.7963">
        <ele>432.2</ele>
        <time>2019-10-13T06:45:47Z</time>
      </trkpt>
      <trkpt lat="45.82727" lon="4.79636">
        <ele>432</ele>
        <time>2019-10-13T06:45:49Z</time>
      </trkpt>
      <trkpt lat="45.82728" lon="4.79638">
        <ele>432</ele>
        <time>2019-10-13T06:45:50Z</time>
      </trkpt>
      <trkpt lat="45.82732" lon="4.79639">
        <ele>432.4</ele>
        <time>2019-10-13T06:45:51Z</time>
      </trkpt>
      <trkpt lat="45.82737" lon="4.79637">
        <ele>433</ele>
        <time>2019-10-13T06:45:53Z</time>
      </trkpt>
      <trkpt lat="45.82741" lon="4.79634">
        <ele>433.5</ele>
        <time>2019-10-13T06:46:00Z</time>
      </trkpt>
      <trkpt lat="45.82743" lon="4.79633">
        <ele>433.7</ele>
        <time>2019-10-13T06:46:01Z</time>
      </trkpt>
      <trkpt lat="45.82754" lon="4.7963">
        <ele>434.9</ele>
        <time>2019-10-13T06:46:05Z</time>
      </trkpt>
      <trkpt lat="45.82754" lon="4.79635">
        <ele>435.3</ele>
        <time>2019-10-13T06:46:06Z</time>
      </trkpt>
      <trkpt lat="45.82747" lon="4.79642">
        <ele>433.3</ele>
        <time>2019-10-13T06:46:08Z</time>
      </trkpt>
      <trkpt lat="45.82737" lon="4.79648">
        <ele>431.5</ele>
        <time>2019-10-13T06:46:10Z</time>
      </trkpt>
      <trkpt lat="45.82724" lon="4.79653">
        <ele>429.7</ele>
        <time>2019-10-13T06:46:12Z</time>
      </trkpt>
      <trkpt lat="45.8271" lon="4.79659">
        <ele>427.5</ele>
        <time>2019-10-13T06:46:14Z</time>
      </trkpt>
      <trkpt lat="45.82694" lon="4.79666">
        <ele>425.4</ele>
        <time>2019-10-13T06:46:16Z</time>
      </trkpt>
      <trkpt lat="45.82685" lon="4.79669">
        <ele>424.1</ele>
        <time>2019-10-13T06:46:17Z</time>
      </trkpt>
      <trkpt lat="45.82677" lon="4.79672">
        <ele>423</ele>
        <time>2019-10-13T06:46:18Z</time>
      </trkpt>
      <trkpt lat="45.82664" lon="4.79679">
        <ele>420.9</ele>
        <time>2019-10-13T06:46:20Z</time>
      </trkpt>
      <trkpt lat="45.82658" lon="4.79682">
        <ele>420</ele>
        <time>2019-10-13T06:46:21Z</time>
      </trkpt>
      <trkpt lat="45.82652" lon="4.79685">
        <ele>419.2</ele>
        <time>2019-10-13T06:46:22Z</time>
      </trkpt>
      <trkpt lat="45.82643" lon="4.7969">
        <ele>417.8</ele>
        <time>2019-10-13T06:46:24Z</time>
      </trkpt>
      <trkpt lat="45.8264" lon="4.79692">
        <ele>417.2</ele>
        <time>2019-10-13T06:46:25Z</time>
      </trkpt>
      <trkpt lat="45.82636" lon="4.79696">
        <ele>416.2</ele>
        <time>2019-10-13T06:46:26Z</time>
      </trkpt>
      <trkpt lat="45.82634" lon="4.79701">
        <ele>415.5</ele>
        <time>2019-10-13T06:46:27Z</time>
      </trkpt>
      <trkpt lat="45.82631" lon="4.79707">
        <ele>414.9</ele>
        <time>2019-10-13T06:46:28Z</time>
      </trkpt>
      <trkpt lat="45.82624" lon="4.79725">
        <ele>413.5</ele>
        <time>2019-10-13T06:46:32Z</time>
      </trkpt>
      <trkpt lat="45.82622" lon="4.7973">
        <ele>413.2</ele>
        <time>2019-10-13T06:46:33Z</time>
      </trkpt>
      <trkpt lat="45.82619" lon="4.79743">
        <ele>412.7</ele>
        <time>2019-10-13T06:46:35Z</time>
      </trkpt>
      <trkpt lat="45.82616" lon="4.79757">
        <ele>412.3</ele>
        <time>2019-10-13T06:46:37Z</time>
      </trkpt>
      <trkpt lat="45.82614" lon="4.7977">
        <ele>412</ele>
        <time>2019-10-13T06:46:39Z</time>
      </trkpt>
      <trkpt lat="45.82612" lon="4.79796">
        <ele>411.6</ele>
        <time>2019-10-13T06:46:43Z</time>
      </trkpt>
      <trkpt lat="45.82607" lon="4.7983">
        <ele>411.4</ele>
        <time>2019-10-13T06:46:49Z</time>
      </trkpt>
      <trkpt lat="45.82599" lon="4.79871">
        <ele>411.1</ele>
        <time>2019-10-13T06:46:54Z</time>
      </trkpt>
      <trkpt lat="45.82596" lon="4.79879">
        <ele>411.1</ele>
        <time>2019-10-13T06:46:55Z</time>
      </trkpt>
      <trkpt lat="45.82588" lon="4.79911">
        <ele>410.8</ele>
        <time>2019-10-13T06:46:59Z</time>
      </trkpt>
      <trkpt lat="45.82584" lon="4.79954">
        <ele>410.6</ele>
        <time>2019-10-13T06:47:05Z</time>
      </trkpt>
      <trkpt lat="45.82574" lon="4.79981">
        <ele>410.6</ele>
        <time>2019-10-13T06:47:09Z</time>
      </trkpt>
      <trkpt lat="45.82569" lon="4.79996">
        <ele>410.6</ele>
        <time>2019-10-13T06:47:11Z</time>
      </trkpt>
      <trkpt lat="45.82566" lon="4.80012">
        <ele>410.6</ele>
        <time>2019-10-13T06:47:13Z</time>
      </trkpt>
      <trkpt lat="45.82565" lon="4.80019">
        <ele>410.6</ele>
        <time>2019-10-13T06:47:14Z</time>
      </trkpt>
      <trkpt lat="45.8256" lon="4.80054">
        <ele>410.5</ele>
        <time>2019-10-13T06:47:20Z</time>
      </trkpt>
      <trkpt lat="45.82554" lon="4.80071">
        <ele>410.4</ele>
        <time>2019-10-13T06:47:23Z</time>
      </trkpt>
      <trkpt lat="45.82548" lon="4.80082">
        <ele>410.1</ele>
        <time>2019-10-13T06:47:25Z</time>
      </trkpt>
      <trkpt lat="45.82541" lon="4.80094">
        <ele>409.9</ele>
        <time>2019-10-13T06:47:27Z</time>
      </trkpt>
      <trkpt lat="45.82526" lon="4.80114">
        <ele>409.4</ele>
        <time>2019-10-13T06:47:30Z</time>
      </trkpt>
      <trkpt lat="45.82504" lon="4.80141">
        <ele>408.4</ele>
        <time>2019-10-13T06:47:34Z</time>
      </trkpt>
      <trkpt lat="45.82498" lon="4.80149">
        <ele>408.1</ele>
        <time>2019-10-13T06:47:35Z</time>
      </trkpt>
      <trkpt lat="45.82481" lon="4.80172">
        <ele>407.4</ele>
        <time>2019-10-13T06:47:38Z</time>
      </trkpt>
      <trkpt lat="45.82464" lon="4.80193">
        <ele>406.7</ele>
        <time>2019-10-13T06:47:41Z</time>
      </trkpt>
      <trkpt lat="45.82454" lon="4.80209">
        <ele>406.5</ele>
        <time>2019-10-13T06:47:43Z</time>
      </trkpt>
      <trkpt lat="45.82447" lon="4.80224">
        <ele>406.5</ele>
        <time>2019-10-13T06:47:45Z</time>
      </trkpt>
      <trkpt lat="45.82446" lon="4.8023">
        <ele>406.5</ele>
        <time>2019-10-13T06:47:46Z</time>
      </trkpt>
      <trkpt lat="45.82444" lon="4.80236">
        <ele>406.6</ele>
        <time>2019-10-13T06:47:47Z</time>
      </trkpt>
      <trkpt lat="45.82441" lon="4.80245">
        <ele>406.6</ele>
        <time>2019-10-13T06:47:50Z</time>
      </trkpt>
      <trkpt lat="45.82439" lon="4.80251">
        <ele>406.7</ele>
        <time>2019-10-13T06:47:52Z</time>
      </trkpt>
      <trkpt lat="45.82437" lon="4.80258">
        <ele>406.9</ele>
        <time>2019-10-13T06:47:55Z</time>
      </trkpt>
      <trkpt lat="45.82434" lon="4.80273">
        <ele>407.3</ele>
        <time>2019-10-13T06:48:01Z</time>
      </trkpt>
      <trkpt lat="45.82431" lon="4.8029">
        <ele>408</ele>
        <time>2019-10-13T06:48:08Z</time>
      </trkpt>
      <trkpt lat="45.8243" lon="4.80292">
        <ele>408.1</ele>
        <time>2019-10-13T06:48:09Z</time>
      </trkpt>
      <trkpt lat="45.82428" lon="4.80299">
        <ele>408.6</ele>
        <time>2019-10-13T06:48:12Z</time>
      </trkpt>
      <trkpt lat="45.82427" lon="4.803">
        <ele>408.7</ele>
        <time>2019-10-13T06:48:13Z</time>
      </trkpt>
      <trkpt lat="45.82427" lon="4.80302">
        <ele>408.7</ele>
        <time>2019-10-13T06:48:14Z</time>
      </trkpt>
      <trkpt lat="45.82425" lon="4.80306">
        <ele>408.9</ele>
        <time>2019-10-13T06:48:17Z</time>
      </trkpt>
      <trkpt lat="45.82422" lon="4.80312">
        <ele>409.2</ele>
        <time>2019-10-13T06:48:20Z</time>
      </trkpt>
      <trkpt lat="45.8242" lon="4.8032">
        <ele>409.5</ele>
        <time>2019-10-13T06:48:24Z</time>
      </trkpt>
      <trkpt lat="45.82417" lon="4.80328">
        <ele>410</ele>
        <time>2019-10-13T06:48:28Z</time>
      </trkpt>
      <trkpt lat="45.82417" lon="4.80331">
        <ele>410.1</ele>
        <time>2019-10-13T06:48:29Z</time>
      </trkpt>
      <trkpt lat="45.82415" lon="4.80337">
        <ele>410.6</ele>
        <time>2019-10-13T06:48:32Z</time>
      </trkpt>
      <trkpt lat="45.82413" lon="4.80344">
        <ele>411.1</ele>
        <time>2019-10-13T06:48:35Z</time>
      </trkpt>
      <trkpt lat="45.82412" lon="4.80347">
        <ele>411.3</ele>
        <time>2019-10-13T06:48:36Z</time>
      </trkpt>
      <trkpt lat="45.82412" lon="4.80354">
        <ele>412</ele>
        <time>2019-10-13T06:48:39Z</time>
      </trkpt>
      <trkpt lat="45.8241" lon="4.80363">
        <ele>412.9</ele>
        <time>2019-10-13T06:48:43Z</time>
      </trkpt>
      <trkpt lat="45.8241" lon="4.80365">
        <ele>413.2</ele>
        <time>2019-10-13T06:48:44Z</time>
      </trkpt>
      <trkpt lat="45.82409" lon="4.80369">
        <ele>413.6</ele>
        <time>2019-10-13T06:48:46Z</time>
      </trkpt>
      <trkpt lat="45.82408" lon="4.80376">
        <ele>414.2</ele>
        <time>2019-10-13T06:48:48Z</time>
      </trkpt>
      <trkpt lat="45.82407" lon="4.80385">
        <ele>415.3</ele>
        <time>2019-10-13T06:48:52Z</time>
      </trkpt>
      <trkpt lat="45.82405" lon="4.80392">
        <ele>416.3</ele>
        <time>2019-10-13T06:48:55Z</time>
      </trkpt>
      <trkpt lat="45.82401" lon="4.80401">
        <ele>416</ele>
        <time>2019-10-13T06:48:58Z</time>
      </trkpt>
      <trkpt lat="45.82399" lon="4.80405">
        <ele>416</ele>
        <time>2019-10-13T06:48:59Z</time>
      </trkpt>
      <trkpt lat="45.82393" lon="4.80432">
        <ele>416.1</ele>
        <time>2019-10-13T06:49:04Z</time>
      </trkpt>
      <trkpt lat="45.82385" lon="4.8047">
        <ele>413.3</ele>
        <time>2019-10-13T06:49:11Z</time>
      </trkpt>
      <trkpt lat="45.82378" lon="4.80501">
        <ele>409.4</ele>
        <time>2019-10-13T06:49:16Z</time>
      </trkpt>
      <trkpt lat="45.82371" lon="4.80531">
        <ele>405.5</ele>
        <time>2019-10-13T06:49:21Z</time>
      </trkpt>
      <trkpt lat="45.82369" lon="4.80536">
        <ele>404.8</ele>
        <time>2019-10-13T06:49:22Z</time>
      </trkpt>
      <trkpt lat="45.82365" lon="4.8055">
        <ele>403.6</ele>
        <time>2019-10-13T06:49:24Z</time>
      </trkpt>
      <trkpt lat="45.82361" lon="4.80562">
        <ele>402</ele>
        <time>2019-10-13T06:49:26Z</time>
      </trkpt>
      <trkpt lat="45.82359" lon="4.80575">
        <ele>400.5</ele>
        <time>2019-10-13T06:49:28Z</time>
      </trkpt>
      <trkpt lat="45.82358" lon="4.80584">
        <ele>399.7</ele>
        <time>2019-10-13T06:49:30Z</time>
      </trkpt>
      <trkpt lat="45.82358" lon="4.80587">
        <ele>399.4</ele>
        <time>2019-10-13T06:49:31Z</time>
      </trkpt>
      <trkpt lat="45.82356" lon="4.80596">
        <ele>398.8</ele>
        <time>2019-10-13T06:49:34Z</time>
      </trkpt>
      <trkpt lat="45.82357" lon="4.806">
        <ele>398.5</ele>
        <time>2019-10-13T06:49:36Z</time>
      </trkpt>
      <trkpt lat="45.82358" lon="4.80603">
        <ele>398.2</ele>
        <time>2019-10-13T06:49:37Z</time>
      </trkpt>
      <trkpt lat="45.82356" lon="4.80623">
        <ele>396.3</ele>
        <time>2019-10-13T06:49:41Z</time>
      </trkpt>
      <trkpt lat="45.82355" lon="4.80635">
        <ele>394.8</ele>
        <time>2019-10-13T06:49:43Z</time>
      </trkpt>
      <trkpt lat="45.82353" lon="4.8065">
        <ele>392.9</ele>
        <time>2019-10-13T06:49:46Z</time>
      </trkpt>
      <trkpt lat="45.82353" lon="4.80656">
        <ele>392.3</ele>
        <time>2019-10-13T06:49:47Z</time>
      </trkpt>
      <trkpt lat="45.82352" lon="4.8066">
        <ele>391.7</ele>
        <time>2019-10-13T06:49:48Z</time>
      </trkpt>
      <trkpt lat="45.82349" lon="4.80669">
        <ele>390.5</ele>
        <time>2019-10-13T06:49:50Z</time>
      </trkpt>
      <trkpt lat="45.82351" lon="4.80673">
        <ele>390</ele>
        <time>2019-10-13T06:49:51Z</time>
      </trkpt>
      <trkpt lat="45.82356" lon="4.80683">
        <ele>390.6</ele>
        <time>2019-10-13T06:49:53Z</time>
      </trkpt>
      <trkpt lat="45.82363" lon="4.80691">
        <ele>391</ele>
        <time>2019-10-13T06:49:55Z</time>
      </trkpt>
      <trkpt lat="45.82365" lon="4.80695">
        <ele>391.2</ele>
        <time>2019-10-13T06:49:56Z</time>
      </trkpt>
      <trkpt lat="45.8237" lon="4.80697">
        <ele>391.4</ele>
        <time>2019-10-13T06:49:58Z</time>
      </trkpt>
      <trkpt lat="45.82371" lon="4.80698">
        <ele>391.4</ele>
        <time>2019-10-13T06:49:59Z</time>
      </trkpt>
      <trkpt lat="45.82373" lon="4.80699">
        <ele>391.5</ele>
        <time>2019-10-13T06:50:00Z</time>
      </trkpt>
      <trkpt lat="45.82375" lon="4.80702">
        <ele>391.6</ele>
        <time>2019-10-13T06:50:01Z</time>
      </trkpt>
      <trkpt lat="45.82376" lon="4.80705">
        <ele>391.7</ele>
        <time>2019-10-13T06:50:02Z</time>
      </trkpt>
      <trkpt lat="45.82378" lon="4.80714">
        <ele>389.7</ele>
        <time>2019-10-13T06:50:04Z</time>
      </trkpt>
      <trkpt lat="45.82378" lon="4.80724">
        <ele>388.7</ele>
        <time>2019-10-13T06:50:06Z</time>
      </trkpt>
      <trkpt lat="45.82374" lon="4.80737">
        <ele>387.3</ele>
        <time>2019-10-13T06:50:08Z</time>
      </trkpt>
      <trkpt lat="45.82369" lon="4.80751">
        <ele>385.8</ele>
        <time>2019-10-13T06:50:10Z</time>
      </trkpt>
      <trkpt lat="45.82367" lon="4.80766">
        <ele>384.3</ele>
        <time>2019-10-13T06:50:12Z</time>
      </trkpt>
      <trkpt lat="45.82366" lon="4.80773">
        <ele>383.6</ele>
        <time>2019-10-13T06:50:13Z</time>
      </trkpt>
      <trkpt lat="45.82365" lon="4.8078">
        <ele>383.1</ele>
        <time>2019-10-13T06:50:14Z</time>
      </trkpt>
      <trkpt lat="45.82366" lon="4.80793">
        <ele>382</ele>
        <time>2019-10-13T06:50:16Z</time>
      </trkpt>
      <trkpt lat="45.82368" lon="4.80801">
        <ele>381.2</ele>
        <time>2019-10-13T06:50:17Z</time>
      </trkpt>
      <trkpt lat="45.82368" lon="4.80811">
        <ele>380.2</ele>
        <time>2019-10-13T06:50:18Z</time>
      </trkpt>
      <trkpt lat="45.82371" lon="4.80831">
        <ele>377.8</ele>
        <time>2019-10-13T06:50:20Z</time>
      </trkpt>
      <trkpt lat="45.82373" lon="4.80837">
        <ele>377.1</ele>
        <time>2019-10-13T06:50:21Z</time>
      </trkpt>
      <trkpt lat="45.82373" lon="4.80843">
        <ele>376.3</ele>
        <time>2019-10-13T06:50:22Z</time>
      </trkpt>
      <trkpt lat="45.82375" lon="4.80851">
        <ele>376.2</ele>
        <time>2019-10-13T06:50:24Z</time>
      </trkpt>
      <trkpt lat="45.8238" lon="4.80857">
        <ele>376.1</ele>
        <time>2019-10-13T06:50:26Z</time>
      </trkpt>
      <trkpt lat="45.82387" lon="4.80864">
        <ele>375.9</ele>
        <time>2019-10-13T06:50:28Z</time>
      </trkpt>
      <trkpt lat="45.82391" lon="4.80867">
        <ele>375.8</ele>
        <time>2019-10-13T06:50:29Z</time>
      </trkpt>
      <trkpt lat="45.82395" lon="4.8087">
        <ele>375.7</ele>
        <time>2019-10-13T06:50:30Z</time>
      </trkpt>
      <trkpt lat="45.82404" lon="4.80878">
        <ele>375.6</ele>
        <time>2019-10-13T06:50:32Z</time>
      </trkpt>
      <trkpt lat="45.82413" lon="4.80886">
        <ele>375.6</ele>
        <time>2019-10-13T06:50:34Z</time>
      </trkpt>
      <trkpt lat="45.82431" lon="4.80906">
        <ele>375.7</ele>
        <time>2019-10-13T06:50:38Z</time>
      </trkpt>
      <trkpt lat="45.82444" lon="4.8092">
        <ele>375.9</ele>
        <time>2019-10-13T06:50:41Z</time>
      </trkpt>
      <trkpt lat="45.82474" lon="4.80944">
        <ele>376.5</ele>
        <time>2019-10-13T06:50:48Z</time>
      </trkpt>
      <trkpt lat="45.82502" lon="4.80955">
        <ele>377.3</ele>
        <time>2019-10-13T06:50:54Z</time>
      </trkpt>
      <trkpt lat="45.82538" lon="4.80962">
        <ele>379.6</ele>
        <time>2019-10-13T06:51:02Z</time>
      </trkpt>
      <trkpt lat="45.82541" lon="4.80964">
        <ele>379.9</ele>
        <time>2019-10-13T06:51:03Z</time>
      </trkpt>
      <trkpt lat="45.8256" lon="4.80968">
        <ele>380.9</ele>
        <time>2019-10-13T06:51:08Z</time>
      </trkpt>
      <trkpt lat="45.82563" lon="4.80968">
        <ele>381</ele>
        <time>2019-10-13T06:51:09Z</time>
      </trkpt>
      <trkpt lat="45.82589" lon="4.80974">
        <ele>382.1</ele>
        <time>2019-10-13T06:51:16Z</time>
      </trkpt>
      <trkpt lat="45.82597" lon="4.80976">
        <ele>382.4</ele>
        <time>2019-10-13T06:51:18Z</time>
      </trkpt>
      <trkpt lat="45.82612" lon="4.80979">
        <ele>382.8</ele>
        <time>2019-10-13T06:51:22Z</time>
      </trkpt>
      <trkpt lat="45.8262" lon="4.80985">
        <ele>383.1</ele>
        <time>2019-10-13T06:51:26Z</time>
      </trkpt>
      <trkpt lat="45.8262" lon="4.80986">
        <ele>383.1</ele>
        <time>2019-10-13T06:51:27Z</time>
      </trkpt>
      <trkpt lat="45.82629" lon="4.80998">
        <ele>384.1</ele>
        <time>2019-10-13T06:51:32Z</time>
      </trkpt>
      <trkpt lat="45.82638" lon="4.81011">
        <ele>385.4</ele>
        <time>2019-10-13T06:51:37Z</time>
      </trkpt>
      <trkpt lat="45.82644" lon="4.81017">
        <ele>385.8</ele>
        <time>2019-10-13T06:51:40Z</time>
      </trkpt>
      <trkpt lat="45.8265" lon="4.81016">
        <ele>386.3</ele>
        <time>2019-10-13T06:51:43Z</time>
      </trkpt>
      <trkpt lat="45.82655" lon="4.81014">
        <ele>386.6</ele>
        <time>2019-10-13T06:51:45Z</time>
      </trkpt>
      <trkpt lat="45.82671" lon="4.81011">
        <ele>388.1</ele>
        <time>2019-10-13T06:51:52Z</time>
      </trkpt>
      <trkpt lat="45.8268" lon="4.81012">
        <ele>388.6</ele>
        <time>2019-10-13T06:51:57Z</time>
      </trkpt>
      <trkpt lat="45.82684" lon="4.81014">
        <ele>388.9</ele>
        <time>2019-10-13T06:52:00Z</time>
      </trkpt>
      <trkpt lat="45.82686" lon="4.81014">
        <ele>389</ele>
        <time>2019-10-13T06:52:01Z</time>
      </trkpt>
      <trkpt lat="45.82692" lon="4.81017">
        <ele>390.3</ele>
        <time>2019-10-13T06:52:05Z</time>
      </trkpt>
      <trkpt lat="45.82697" lon="4.8102">
        <ele>391</ele>
        <time>2019-10-13T06:52:08Z</time>
      </trkpt>
      <trkpt lat="45.82702" lon="4.81027">
        <ele>392</ele>
        <time>2019-10-13T06:52:13Z</time>
      </trkpt>
      <trkpt lat="45.82705" lon="4.81028">
        <ele>392.4</ele>
        <time>2019-10-13T06:52:15Z</time>
      </trkpt>
      <trkpt lat="45.82736" lon="4.8107">
        <ele>398.3</ele>
        <time>2019-10-13T06:52:47Z</time>
      </trkpt>
      <trkpt lat="45.82737" lon="4.81071">
        <ele>398.5</ele>
        <time>2019-10-13T06:52:48Z</time>
      </trkpt>
      <trkpt lat="45.82742" lon="4.81076">
        <ele>399.2</ele>
        <time>2019-10-13T06:52:51Z</time>
      </trkpt>
      <trkpt lat="45.82746" lon="4.8108">
        <ele>399.8</ele>
        <time>2019-10-13T06:52:54Z</time>
      </trkpt>
      <trkpt lat="45.82747" lon="4.81081">
        <ele>400</ele>
        <time>2019-10-13T06:52:55Z</time>
      </trkpt>
      <trkpt lat="45.8275" lon="4.81084">
        <ele>400.4</ele>
        <time>2019-10-13T06:52:58Z</time>
      </trkpt>
      <trkpt lat="45.82757" lon="4.81088">
        <ele>401.2</ele>
        <time>2019-10-13T06:53:03Z</time>
      </trkpt>
      <trkpt lat="45.82761" lon="4.81092">
        <ele>401.7</ele>
        <time>2019-10-13T06:53:06Z</time>
      </trkpt>
      <trkpt lat="45.82766" lon="4.81095">
        <ele>402.2</ele>
        <time>2019-10-13T06:53:10Z</time>
      </trkpt>
      <trkpt lat="45.82778" lon="4.81102">
        <ele>403.2</ele>
        <time>2019-10-13T06:54:40Z</time>
      </trkpt>
      <trkpt lat="45.82782" lon="4.81105">
        <ele>403.5</ele>
        <time>2019-10-13T06:54:43Z</time>
      </trkpt>
      <trkpt lat="45.82783" lon="4.81106">
        <ele>403.7</ele>
        <time>2019-10-13T06:54:44Z</time>
      </trkpt>
      <trkpt lat="45.82796" lon="4.81115">
        <ele>404.7</ele>
        <time>2019-10-13T06:56:39Z</time>
      </trkpt>
      <trkpt lat="45.82807" lon="4.81122">
        <ele>405.7</ele>
        <time>2019-10-13T06:56:46Z</time>
      </trkpt>
      <trkpt lat="45.82809" lon="4.81123">
        <ele>405.8</ele>
        <time>2019-10-13T06:56:47Z</time>
      </trkpt>
      <trkpt lat="45.82816" lon="4.81129">
        <ele>406.6</ele>
        <time>2019-10-13T06:56:52Z</time>
      </trkpt>
      <trkpt lat="45.8282" lon="4.81132">
        <ele>407</ele>
        <time>2019-10-13T06:56:54Z</time>
      </trkpt>
      <trkpt lat="45.82823" lon="4.81135">
        <ele>408.1</ele>
        <time>2019-10-13T06:56:56Z</time>
      </trkpt>
      <trkpt lat="45.82825" lon="4.81143">
        <ele>408</ele>
        <time>2019-10-13T06:57:00Z</time>
      </trkpt>
      <trkpt lat="45.82824" lon="4.81148">
        <ele>407.9</ele>
        <time>2019-10-13T06:57:02Z</time>
      </trkpt>
      <trkpt lat="45.82819" lon="4.81159">
        <ele>407.8</ele>
        <time>2019-10-13T06:57:05Z</time>
      </trkpt>
      <trkpt lat="45.82806" lon="4.81195">
        <ele>408.1</ele>
        <time>2019-10-13T06:57:14Z</time>
      </trkpt>
      <trkpt lat="45.82804" lon="4.81203">
        <ele>408.3</ele>
        <time>2019-10-13T06:57:16Z</time>
      </trkpt>
      <trkpt lat="45.82794" lon="4.81243">
        <ele>409.8</ele>
        <time>2019-10-13T06:57:26Z</time>
      </trkpt>
      <trkpt lat="45.82791" lon="4.8126">
        <ele>410.6</ele>
        <time>2019-10-13T06:57:30Z</time>
      </trkpt>
      <trkpt lat="45.82789" lon="4.81281">
        <ele>411.7</ele>
        <time>2019-10-13T06:57:35Z</time>
      </trkpt>
      <trkpt lat="45.82788" lon="4.81285">
        <ele>411.8</ele>
        <time>2019-10-13T06:57:36Z</time>
      </trkpt>
      <trkpt lat="45.82787" lon="4.81302">
        <ele>412.2</ele>
        <time>2019-10-13T06:57:40Z</time>
      </trkpt>
      <trkpt lat="45.82784" lon="4.81323">
        <ele>412.8</ele>
        <time>2019-10-13T06:57:45Z</time>
      </trkpt>
      <trkpt lat="45.82783" lon="4.81337">
        <ele>413.4</ele>
        <time>2019-10-13T06:57:49Z</time>
      </trkpt>
      <trkpt lat="45.8278" lon="4.81356">
        <ele>414.3</ele>
        <time>2019-10-13T06:57:54Z</time>
      </trkpt>
      <trkpt lat="45.82777" lon="4.81366">
        <ele>414.9</ele>
        <time>2019-10-13T06:57:57Z</time>
      </trkpt>
      <trkpt lat="45.82774" lon="4.81377">
        <ele>415.5</ele>
        <time>2019-10-13T06:58:00Z</time>
      </trkpt>
      <trkpt lat="45.82773" lon="4.81381">
        <ele>415.7</ele>
        <time>2019-10-13T06:58:01Z</time>
      </trkpt>
      <trkpt lat="45.82772" lon="4.81391">
        <ele>416.5</ele>
        <time>2019-10-13T06:58:04Z</time>
      </trkpt>
      <trkpt lat="45.82772" lon="4.81402">
        <ele>417.2</ele>
        <time>2019-10-13T06:58:08Z</time>
      </trkpt>
      <trkpt lat="45.82772" lon="4.81408">
        <ele>417.7</ele>
        <time>2019-10-13T06:58:11Z</time>
      </trkpt>
      <trkpt lat="45.82771" lon="4.81427">
        <ele>419.1</ele>
        <time>2019-10-13T06:58:21Z</time>
      </trkpt>
      <trkpt lat="45.82767" lon="4.81442">
        <ele>420.4</ele>
        <time>2019-10-13T06:58:28Z</time>
      </trkpt>
      <trkpt lat="45.82762" lon="4.81455">
        <ele>421.9</ele>
        <time>2019-10-13T06:58:33Z</time>
      </trkpt>
      <trkpt lat="45.82759" lon="4.81466">
        <ele>422.9</ele>
        <time>2019-10-13T06:58:38Z</time>
      </trkpt>
      <trkpt lat="45.82756" lon="4.8148">
        <ele>423.9</ele>
        <time>2019-10-13T06:58:44Z</time>
      </trkpt>
      <trkpt lat="45.82754" lon="4.81485">
        <ele>424.3</ele>
        <time>2019-10-13T06:58:46Z</time>
      </trkpt>
      <trkpt lat="45.82755" lon="4.81492">
        <ele>424.9</ele>
        <time>2019-10-13T06:58:49Z</time>
      </trkpt>
      <trkpt lat="45.82755" lon="4.81494">
        <ele>425.1</ele>
        <time>2019-10-13T06:58:50Z</time>
      </trkpt>
      <trkpt lat="45.82748" lon="4.81515">
        <ele>427.5</ele>
        <time>2019-10-13T06:59:04Z</time>
      </trkpt>
      <trkpt lat="45.82747" lon="4.81515">
        <ele>427.8</ele>
        <time>2019-10-13T06:59:05Z</time>
      </trkpt>
      <trkpt lat="45.82741" lon="4.81518">
        <ele>428.8</ele>
        <time>2019-10-13T06:59:08Z</time>
      </trkpt>
      <trkpt lat="45.82736" lon="4.81521">
        <ele>430</ele>
        <time>2019-10-13T06:59:12Z</time>
      </trkpt>
      <trkpt lat="45.82726" lon="4.81529">
        <ele>432.1</ele>
        <time>2019-10-13T06:59:18Z</time>
      </trkpt>
      <trkpt lat="45.82721" lon="4.81532">
        <ele>433</ele>
        <time>2019-10-13T06:59:20Z</time>
      </trkpt>
      <trkpt lat="45.82713" lon="4.81535">
        <ele>434</ele>
        <time>2019-10-13T06:59:25Z</time>
      </trkpt>
      <trkpt lat="45.82711" lon="4.81536">
        <ele>434.1</ele>
        <time>2019-10-13T06:59:26Z</time>
      </trkpt>
      <trkpt lat="45.82697" lon="4.8154">
        <ele>434.8</ele>
        <time>2019-10-13T06:59:33Z</time>
      </trkpt>
      <trkpt lat="45.82682" lon="4.81548">
        <ele>435.9</ele>
        <time>2019-10-13T06:59:42Z</time>
      </trkpt>
      <trkpt lat="45.82677" lon="4.8155">
        <ele>436.2</ele>
        <time>2019-10-13T06:59:44Z</time>
      </trkpt>
      <trkpt lat="45.82666" lon="4.81556">
        <ele>437.1</ele>
        <time>2019-10-13T06:59:49Z</time>
      </trkpt>
      <trkpt lat="45.82653" lon="4.81563">
        <ele>438.1</ele>
        <time>2019-10-13T06:59:56Z</time>
      </trkpt>
      <trkpt lat="45.82648" lon="4.81565">
        <ele>438.3</ele>
        <time>2019-10-13T06:59:58Z</time>
      </trkpt>
      <trkpt lat="45.82646" lon="4.81566">
        <ele>438.5</ele>
        <time>2019-10-13T06:59:59Z</time>
      </trkpt>
      <trkpt lat="45.82638" lon="4.81571">
        <ele>438.9</ele>
        <time>2019-10-13T07:00:02Z</time>
      </trkpt>
      <trkpt lat="45.82632" lon="4.81573">
        <ele>439.2</ele>
        <time>2019-10-13T07:00:05Z</time>
      </trkpt>
      <trkpt lat="45.8263" lon="4.81575">
        <ele>439.3</ele>
        <time>2019-10-13T07:00:06Z</time>
      </trkpt>
      <trkpt lat="45.8262" lon="4.81581">
        <ele>439.9</ele>
        <time>2019-10-13T07:00:10Z</time>
      </trkpt>
      <trkpt lat="45.82615" lon="4.81583">
        <ele>440.2</ele>
        <time>2019-10-13T07:00:12Z</time>
      </trkpt>
      <trkpt lat="45.82607" lon="4.81586">
        <ele>440.6</ele>
        <time>2019-10-13T07:00:15Z</time>
      </trkpt>
      <trkpt lat="45.82592" lon="4.81592">
        <ele>441.3</ele>
        <time>2019-10-13T07:00:21Z</time>
      </trkpt>
      <trkpt lat="45.82582" lon="4.81598">
        <ele>441.8</ele>
        <time>2019-10-13T07:00:25Z</time>
      </trkpt>
      <trkpt lat="45.82574" lon="4.81602">
        <ele>442.3</ele>
        <time>2019-10-13T07:00:28Z</time>
      </trkpt>
      <trkpt lat="45.82555" lon="4.81613">
        <ele>443.4</ele>
        <time>2019-10-13T07:00:36Z</time>
      </trkpt>
      <trkpt lat="45.82553" lon="4.81615">
        <ele>443.5</ele>
        <time>2019-10-13T07:00:37Z</time>
      </trkpt>
      <trkpt lat="45.82549" lon="4.8162">
        <ele>443.8</ele>
        <time>2019-10-13T07:00:40Z</time>
      </trkpt>
      <trkpt lat="45.82548" lon="4.8162">
        <ele>443.8</ele>
        <time>2019-10-13T07:00:41Z</time>
      </trkpt>
      <trkpt lat="45.82543" lon="4.81624">
        <ele>444.1</ele>
        <time>2019-10-13T07:00:44Z</time>
      </trkpt>
      <trkpt lat="45.8254" lon="4.81628">
        <ele>444.4</ele>
        <time>2019-10-13T07:00:46Z</time>
      </trkpt>
      <trkpt lat="45.82539" lon="4.8163">
        <ele>444.6</ele>
        <time>2019-10-13T07:00:47Z</time>
      </trkpt>
      <trkpt lat="45.82538" lon="4.81636">
        <ele>444.8</ele>
        <time>2019-10-13T07:00:49Z</time>
      </trkpt>
      <trkpt lat="45.82538" lon="4.81644">
        <ele>445.1</ele>
        <time>2019-10-13T07:00:51Z</time>
      </trkpt>
      <trkpt lat="45.82534" lon="4.81671">
        <ele>446.1</ele>
        <time>2019-10-13T07:00:57Z</time>
      </trkpt>
      <trkpt lat="45.82533" lon="4.81675">
        <ele>446.3</ele>
        <time>2019-10-13T07:00:58Z</time>
      </trkpt>
      <trkpt lat="45.82531" lon="4.8169">
        <ele>447.2</ele>
        <time>2019-10-13T07:01:01Z</time>
      </trkpt>
      <trkpt lat="45.82527" lon="4.81714">
        <ele>448</ele>
        <time>2019-10-13T07:01:06Z</time>
      </trkpt>
      <trkpt lat="45.82525" lon="4.81723">
        <ele>448.3</ele>
        <time>2019-10-13T07:01:08Z</time>
      </trkpt>
      <trkpt lat="45.82522" lon="4.81742">
        <ele>449.1</ele>
        <time>2019-10-13T07:01:12Z</time>
      </trkpt>
      <trkpt lat="45.82515" lon="4.81769">
        <ele>450.8</ele>
        <time>2019-10-13T07:01:18Z</time>
      </trkpt>
      <trkpt lat="45.82514" lon="4.81773">
        <ele>451.1</ele>
        <time>2019-10-13T07:01:19Z</time>
      </trkpt>
      <trkpt lat="45.82501" lon="4.81794">
        <ele>452.6</ele>
        <time>2019-10-13T07:01:25Z</time>
      </trkpt>
      <trkpt lat="45.82498" lon="4.81796">
        <ele>452.7</ele>
        <time>2019-10-13T07:01:26Z</time>
      </trkpt>
      <trkpt lat="45.82475" lon="4.81811">
        <ele>452.9</ele>
        <time>2019-10-13T07:01:32Z</time>
      </trkpt>
      <trkpt lat="45.8246" lon="4.81823">
        <ele>452.8</ele>
        <time>2019-10-13T07:01:36Z</time>
      </trkpt>
      <trkpt lat="45.82445" lon="4.81833">
        <ele>452.6</ele>
        <time>2019-10-13T07:01:40Z</time>
      </trkpt>
      <trkpt lat="45.82416" lon="4.81851">
        <ele>452.4</ele>
        <time>2019-10-13T07:01:48Z</time>
      </trkpt>
      <trkpt lat="45.82391" lon="4.81864">
        <ele>452.5</ele>
        <time>2019-10-13T07:01:55Z</time>
      </trkpt>
      <trkpt lat="45.82387" lon="4.81866">
        <ele>452.5</ele>
        <time>2019-10-13T07:01:56Z</time>
      </trkpt>
      <trkpt lat="45.82369" lon="4.81878">
        <ele>452.7</ele>
        <time>2019-10-13T07:02:01Z</time>
      </trkpt>
      <trkpt lat="45.82353" lon="4.81888">
        <ele>452.8</ele>
        <time>2019-10-13T07:02:05Z</time>
      </trkpt>
      <trkpt lat="45.82346" lon="4.81892">
        <ele>452.9</ele>
        <time>2019-10-13T07:02:07Z</time>
      </trkpt>
      <trkpt lat="45.8234" lon="4.81895">
        <ele>453</ele>
        <time>2019-10-13T07:02:09Z</time>
      </trkpt>
      <trkpt lat="45.82323" lon="4.81901">
        <ele>453.2</ele>
        <time>2019-10-13T07:02:13Z</time>
      </trkpt>
      <trkpt lat="45.82294" lon="4.8191">
        <ele>454.4</ele>
        <time>2019-10-13T07:02:20Z</time>
      </trkpt>
      <trkpt lat="45.82278" lon="4.81915">
        <ele>455.2</ele>
        <time>2019-10-13T07:02:25Z</time>
      </trkpt>
      <trkpt lat="45.82264" lon="4.81926">
        <ele>455.9</ele>
        <time>2019-10-13T07:02:31Z</time>
      </trkpt>
      <trkpt lat="45.82262" lon="4.81928">
        <ele>456.1</ele>
        <time>2019-10-13T07:02:32Z</time>
      </trkpt>
      <trkpt lat="45.82253" lon="4.8194">
        <ele>456.7</ele>
        <time>2019-10-13T07:02:37Z</time>
      </trkpt>
      <trkpt lat="45.8225" lon="4.81945">
        <ele>456.9</ele>
        <time>2019-10-13T07:02:39Z</time>
      </trkpt>
      <trkpt lat="45.82247" lon="4.81949">
        <ele>457</ele>
        <time>2019-10-13T07:02:41Z</time>
      </trkpt>
      <trkpt lat="45.82245" lon="4.8195">
        <ele>457.1</ele>
        <time>2019-10-13T07:02:42Z</time>
      </trkpt>
      <trkpt lat="45.82242" lon="4.81951">
        <ele>457.2</ele>
        <time>2019-10-13T07:02:43Z</time>
      </trkpt>
      <trkpt lat="45.82238" lon="4.81951">
        <ele>457.3</ele>
        <time>2019-10-13T07:02:44Z</time>
      </trkpt>
      <trkpt lat="45.82224" lon="4.81952">
        <ele>455.9</ele>
        <time>2019-10-13T07:02:47Z</time>
      </trkpt>
      <trkpt lat="45.82214" lon="4.81952">
        <ele>455</ele>
        <time>2019-10-13T07:02:49Z</time>
      </trkpt>
      <trkpt lat="45.82204" lon="4.81957">
        <ele>454.4</ele>
        <time>2019-10-13T07:02:51Z</time>
      </trkpt>
      <trkpt lat="45.82195" lon="4.81963">
        <ele>453.9</ele>
        <time>2019-10-13T07:02:53Z</time>
      </trkpt>
      <trkpt lat="45.8219" lon="4.81966">
        <ele>453.6</ele>
        <time>2019-10-13T07:02:54Z</time>
      </trkpt>
      <trkpt lat="45.82181" lon="4.81972">
        <ele>453.1</ele>
        <time>2019-10-13T07:02:56Z</time>
      </trkpt>
      <trkpt lat="45.82178" lon="4.81976">
        <ele>452.9</ele>
        <time>2019-10-13T07:02:57Z</time>
      </trkpt>
      <trkpt lat="45.82176" lon="4.81986">
        <ele>452.9</ele>
        <time>2019-10-13T07:02:59Z</time>
      </trkpt>
      <trkpt lat="45.82178" lon="4.81998">
        <ele>453.5</ele>
        <time>2019-10-13T07:03:02Z</time>
      </trkpt>
      <trkpt lat="45.8218" lon="4.82006">
        <ele>454</ele>
        <time>2019-10-13T07:03:04Z</time>
      </trkpt>
      <trkpt lat="45.82189" lon="4.82029">
        <ele>455.6</ele>
        <time>2019-10-13T07:03:11Z</time>
      </trkpt>
      <trkpt lat="45.82202" lon="4.82053">
        <ele>457.2</ele>
        <time>2019-10-13T07:03:17Z</time>
      </trkpt>
      <trkpt lat="45.82213" lon="4.82072">
        <ele>458.3</ele>
        <time>2019-10-13T07:03:21Z</time>
      </trkpt>
      <trkpt lat="45.82224" lon="4.82089">
        <ele>459.4</ele>
        <time>2019-10-13T07:03:25Z</time>
      </trkpt>
      <trkpt lat="45.82236" lon="4.82107">
        <ele>461.1</ele>
        <time>2019-10-13T07:03:29Z</time>
      </trkpt>
      <trkpt lat="45.82244" lon="4.8211">
        <ele>462.1</ele>
        <time>2019-10-13T07:03:31Z</time>
      </trkpt>
      <trkpt lat="45.82253" lon="4.82103">
        <ele>464.1</ele>
        <time>2019-10-13T07:03:34Z</time>
      </trkpt>
      <trkpt lat="45.82261" lon="4.82086">
        <ele>465.4</ele>
        <time>2019-10-13T07:03:38Z</time>
      </trkpt>
      <trkpt lat="45.82263" lon="4.82083">
        <ele>465.7</ele>
        <time>2019-10-13T07:03:39Z</time>
      </trkpt>
      <trkpt lat="45.82267" lon="4.82082">
        <ele>466.9</ele>
        <time>2019-10-13T07:03:40Z</time>
      </trkpt>
      <trkpt lat="45.82274" lon="4.82084">
        <ele>467.3</ele>
        <time>2019-10-13T07:03:42Z</time>
      </trkpt>
      <trkpt lat="45.82281" lon="4.82088">
        <ele>467.6</ele>
        <time>2019-10-13T07:03:44Z</time>
      </trkpt>
      <trkpt lat="45.82291" lon="4.82095">
        <ele>468</ele>
        <time>2019-10-13T07:03:47Z</time>
      </trkpt>
      <trkpt lat="45.82297" lon="4.82099">
        <ele>468</ele>
        <time>2019-10-13T07:03:49Z</time>
      </trkpt>
      <trkpt lat="45.82315" lon="4.8211">
        <ele>468.1</ele>
        <time>2019-10-13T07:03:55Z</time>
      </trkpt>
      <trkpt lat="45.82336" lon="4.8212">
        <ele>468.2</ele>
        <time>2019-10-13T07:04:01Z</time>
      </trkpt>
      <trkpt lat="45.82362" lon="4.82131">
        <ele>467.2</ele>
        <time>2019-10-13T07:04:08Z</time>
      </trkpt>
      <trkpt lat="45.82373" lon="4.82132">
        <ele>466.6</ele>
        <time>2019-10-13T07:04:11Z</time>
      </trkpt>
      <trkpt lat="45.82376" lon="4.82131">
        <ele>466.5</ele>
        <time>2019-10-13T07:04:12Z</time>
      </trkpt>
      <trkpt lat="45.82396" lon="4.82136">
        <ele>465.5</ele>
        <time>2019-10-13T07:04:17Z</time>
      </trkpt>
      <trkpt lat="45.824" lon="4.82137">
        <ele>465.4</ele>
        <time>2019-10-13T07:04:18Z</time>
      </trkpt>
      <trkpt lat="45.82421" lon="4.82143">
        <ele>465.1</ele>
        <time>2019-10-13T07:04:24Z</time>
      </trkpt>
      <trkpt lat="45.82425" lon="4.82144">
        <ele>465.1</ele>
        <time>2019-10-13T07:04:25Z</time>
      </trkpt>
      <trkpt lat="45.8244" lon="4.82148">
        <ele>465</ele>
        <time>2019-10-13T07:04:31Z</time>
      </trkpt>
      <trkpt lat="45.82445" lon="4.82148">
        <ele>465</ele>
        <time>2019-10-13T07:04:33Z</time>
      </trkpt>
      <trkpt lat="45.82456" lon="4.82149">
        <ele>465.2</ele>
        <time>2019-10-13T07:04:37Z</time>
      </trkpt>
      <trkpt lat="45.82463" lon="4.82149">
        <ele>465.3</ele>
        <time>2019-10-13T07:04:39Z</time>
      </trkpt>
      <trkpt lat="45.8248" lon="4.82149">
        <ele>465.7</ele>
        <time>2019-10-13T07:04:45Z</time>
      </trkpt>
      <trkpt lat="45.82495" lon="4.82148">
        <ele>465.6</ele>
        <time>2019-10-13T07:04:49Z</time>
      </trkpt>
      <trkpt lat="45.82503" lon="4.82153">
        <ele>465.4</ele>
        <time>2019-10-13T07:04:52Z</time>
      </trkpt>
      <trkpt lat="45.82506" lon="4.82157">
        <ele>465.3</ele>
        <time>2019-10-13T07:04:53Z</time>
      </trkpt>
      <trkpt lat="45.82507" lon="4.82168">
        <ele>465</ele>
        <time>2019-10-13T07:04:55Z</time>
      </trkpt>
      <trkpt lat="45.82515" lon="4.82187">
        <ele>464.4</ele>
        <time>2019-10-13T07:04:59Z</time>
      </trkpt>
      <trkpt lat="45.82519" lon="4.82203">
        <ele>463.8</ele>
        <time>2019-10-13T07:05:02Z</time>
      </trkpt>
      <trkpt lat="45.82519" lon="4.8221">
        <ele>463.6</ele>
        <time>2019-10-13T07:05:03Z</time>
      </trkpt>
      <trkpt lat="45.82523" lon="4.82222">
        <ele>462.1</ele>
        <time>2019-10-13T07:05:05Z</time>
      </trkpt>
      <trkpt lat="45.8253" lon="4.82226">
        <ele>461.7</ele>
        <time>2019-10-13T07:05:07Z</time>
      </trkpt>
      <trkpt lat="45.82541" lon="4.82227">
        <ele>461</ele>
        <time>2019-10-13T07:05:09Z</time>
      </trkpt>
      <trkpt lat="45.82552" lon="4.82228">
        <ele>460.3</ele>
        <time>2019-10-13T07:05:11Z</time>
      </trkpt>
      <trkpt lat="45.82585" lon="4.82229">
        <ele>458.8</ele>
        <time>2019-10-13T07:05:17Z</time>
      </trkpt>
      <trkpt lat="45.82589" lon="4.82225">
        <ele>458.6</ele>
        <time>2019-10-13T07:05:18Z</time>
      </trkpt>
      <trkpt lat="45.82595" lon="4.82217">
        <ele>458.2</ele>
        <time>2019-10-13T07:05:20Z</time>
      </trkpt>
      <trkpt lat="45.82599" lon="4.82215">
        <ele>458</ele>
        <time>2019-10-13T07:05:21Z</time>
      </trkpt>
      <trkpt lat="45.82611" lon="4.8221">
        <ele>457.3</ele>
        <time>2019-10-13T07:05:24Z</time>
      </trkpt>
      <trkpt lat="45.82626" lon="4.82204">
        <ele>456.2</ele>
        <time>2019-10-13T07:05:27Z</time>
      </trkpt>
      <trkpt lat="45.82643" lon="4.82198">
        <ele>454.4</ele>
        <time>2019-10-13T07:05:30Z</time>
      </trkpt>
      <trkpt lat="45.82654" lon="4.82196">
        <ele>453.3</ele>
        <time>2019-10-13T07:05:32Z</time>
      </trkpt>
      <trkpt lat="45.82658" lon="4.82194">
        <ele>452.9</ele>
        <time>2019-10-13T07:05:33Z</time>
      </trkpt>
      <trkpt lat="45.82661" lon="4.82194">
        <ele>452.4</ele>
        <time>2019-10-13T07:05:34Z</time>
      </trkpt>
      <trkpt lat="45.82664" lon="4.82197">
        <ele>452.4</ele>
        <time>2019-10-13T07:05:35Z</time>
      </trkpt>
      <trkpt lat="45.82665" lon="4.82201">
        <ele>452.4</ele>
        <time>2019-10-13T07:05:36Z</time>
      </trkpt>
      <trkpt lat="45.82669" lon="4.82209">
        <ele>452.3</ele>
        <time>2019-10-13T07:05:38Z</time>
      </trkpt>
      <trkpt lat="45.82671" lon="4.82214">
        <ele>452.2</ele>
        <time>2019-10-13T07:05:39Z</time>
      </trkpt>
      <trkpt lat="45.82674" lon="4.82219">
        <ele>452.2</ele>
        <time>2019-10-13T07:05:40Z</time>
      </trkpt>
      <trkpt lat="45.82676" lon="4.82224">
        <ele>452.1</ele>
        <time>2019-10-13T07:05:41Z</time>
      </trkpt>
      <trkpt lat="45.82684" lon="4.82239">
        <ele>451.9</ele>
        <time>2019-10-13T07:05:44Z</time>
      </trkpt>
      <trkpt lat="45.82706" lon="4.82276">
        <ele>450.3</ele>
        <time>2019-10-13T07:05:51Z</time>
      </trkpt>
      <trkpt lat="45.8271" lon="4.82282">
        <ele>449.9</ele>
        <time>2019-10-13T07:05:52Z</time>
      </trkpt>
      <trkpt lat="45.82721" lon="4.82309">
        <ele>447.9</ele>
        <time>2019-10-13T07:05:56Z</time>
      </trkpt>
      <trkpt lat="45.82721" lon="4.82315">
        <ele>447.5</ele>
        <time>2019-10-13T07:05:57Z</time>
      </trkpt>
      <trkpt lat="45.82722" lon="4.8232">
        <ele>447.2</ele>
        <time>2019-10-13T07:05:58Z</time>
      </trkpt>
      <trkpt lat="45.82723" lon="4.82326">
        <ele>446.9</ele>
        <time>2019-10-13T07:05:59Z</time>
      </trkpt>
      <trkpt lat="45.82724" lon="4.82332">
        <ele>446.5</ele>
        <time>2019-10-13T07:06:00Z</time>
      </trkpt>
      <trkpt lat="45.82728" lon="4.82349">
        <ele>445.4</ele>
        <time>2019-10-13T07:06:03Z</time>
      </trkpt>
      <trkpt lat="45.8273" lon="4.82355">
        <ele>445</ele>
        <time>2019-10-13T07:06:04Z</time>
      </trkpt>
      <trkpt lat="45.82732" lon="4.82366">
        <ele>444.2</ele>
        <time>2019-10-13T07:06:06Z</time>
      </trkpt>
      <trkpt lat="45.82736" lon="4.82382">
        <ele>443</ele>
        <time>2019-10-13T07:06:09Z</time>
      </trkpt>
      <trkpt lat="45.82739" lon="4.82396">
        <ele>441.9</ele>
        <time>2019-10-13T07:06:11Z</time>
      </trkpt>
      <trkpt lat="45.82742" lon="4.82413">
        <ele>440.8</ele>
        <time>2019-10-13T07:06:13Z</time>
      </trkpt>
      <trkpt lat="45.82748" lon="4.8243">
        <ele>439.9</ele>
        <time>2019-10-13T07:06:15Z</time>
      </trkpt>
      <trkpt lat="45.82752" lon="4.82437">
        <ele>439.5</ele>
        <time>2019-10-13T07:06:16Z</time>
      </trkpt>
      <trkpt lat="45.82756" lon="4.82444">
        <ele>439.1</ele>
        <time>2019-10-13T07:06:17Z</time>
      </trkpt>
      <trkpt lat="45.82765" lon="4.82454">
        <ele>438.4</ele>
        <time>2019-10-13T07:06:19Z</time>
      </trkpt>
      <trkpt lat="45.82768" lon="4.82458">
        <ele>438</ele>
        <time>2019-10-13T07:06:20Z</time>
      </trkpt>
      <trkpt lat="45.82773" lon="4.82469">
        <ele>437.3</ele>
        <time>2019-10-13T07:06:22Z</time>
      </trkpt>
      <trkpt lat="45.82777" lon="4.82479">
        <ele>436.6</ele>
        <time>2019-10-13T07:06:24Z</time>
      </trkpt>
      <trkpt lat="45.82778" lon="4.82485">
        <ele>436.2</ele>
        <time>2019-10-13T07:06:25Z</time>
      </trkpt>
      <trkpt lat="45.82779" lon="4.82492">
        <ele>435.8</ele>
        <time>2019-10-13T07:06:26Z</time>
      </trkpt>
      <trkpt lat="45.82782" lon="4.82507">
        <ele>434.6</ele>
        <time>2019-10-13T07:06:28Z</time>
      </trkpt>
      <trkpt lat="45.82785" lon="4.82524">
        <ele>433.5</ele>
        <time>2019-10-13T07:06:30Z</time>
      </trkpt>
      <trkpt lat="45.82787" lon="4.82537">
        <ele>432.4</ele>
        <time>2019-10-13T07:06:32Z</time>
      </trkpt>
      <trkpt lat="45.82784" lon="4.82547">
        <ele>431.5</ele>
        <time>2019-10-13T07:06:34Z</time>
      </trkpt>
      <trkpt lat="45.82781" lon="4.82556">
        <ele>430.6</ele>
        <time>2019-10-13T07:06:36Z</time>
      </trkpt>
      <trkpt lat="45.82779" lon="4.82566">
        <ele>429.9</ele>
        <time>2019-10-13T07:06:38Z</time>
      </trkpt>
      <trkpt lat="45.8278" lon="4.82579">
        <ele>428.7</ele>
        <time>2019-10-13T07:06:40Z</time>
      </trkpt>
      <trkpt lat="45.82783" lon="4.82593">
        <ele>427.1</ele>
        <time>2019-10-13T07:06:42Z</time>
      </trkpt>
      <trkpt lat="45.82788" lon="4.82608">
        <ele>425.3</ele>
        <time>2019-10-13T07:06:44Z</time>
      </trkpt>
      <trkpt lat="45.82793" lon="4.82626">
        <ele>423.2</ele>
        <time>2019-10-13T07:06:46Z</time>
      </trkpt>
      <trkpt lat="45.82796" lon="4.82636">
        <ele>422.3</ele>
        <time>2019-10-13T07:06:47Z</time>
      </trkpt>
      <trkpt lat="45.82799" lon="4.82645">
        <ele>421.4</ele>
        <time>2019-10-13T07:06:48Z</time>
      </trkpt>
      <trkpt lat="45.82801" lon="4.82652">
        <ele>420.6</ele>
        <time>2019-10-13T07:06:49Z</time>
      </trkpt>
      <trkpt lat="45.82803" lon="4.82661">
        <ele>419.4</ele>
        <time>2019-10-13T07:06:50Z</time>
      </trkpt>
      <trkpt lat="45.82803" lon="4.82667">
        <ele>418.3</ele>
        <time>2019-10-13T07:06:51Z</time>
      </trkpt>
      <trkpt lat="45.82804" lon="4.82675">
        <ele>417.2</ele>
        <time>2019-10-13T07:06:52Z</time>
      </trkpt>
      <trkpt lat="45.82804" lon="4.82688">
        <ele>414.5</ele>
        <time>2019-10-13T07:06:54Z</time>
      </trkpt>
      <trkpt lat="45.82803" lon="4.82694">
        <ele>413</ele>
        <time>2019-10-13T07:06:55Z</time>
      </trkpt>
      <trkpt lat="45.828" lon="4.82705">
        <ele>410.2</ele>
        <time>2019-10-13T07:06:57Z</time>
      </trkpt>
      <trkpt lat="45.82798" lon="4.8271">
        <ele>408.9</ele>
        <time>2019-10-13T07:06:58Z</time>
      </trkpt>
      <trkpt lat="45.82794" lon="4.82713">
        <ele>407.6</ele>
        <time>2019-10-13T07:06:59Z</time>
      </trkpt>
      <trkpt lat="45.82788" lon="4.8272">
        <ele>405.4</ele>
        <time>2019-10-13T07:07:01Z</time>
      </trkpt>
      <trkpt lat="45.82781" lon="4.82726">
        <ele>403.9</ele>
        <time>2019-10-13T07:07:03Z</time>
      </trkpt>
      <trkpt lat="45.82773" lon="4.82731">
        <ele>402.2</ele>
        <time>2019-10-13T07:07:05Z</time>
      </trkpt>
      <trkpt lat="45.82767" lon="4.82734">
        <ele>401.4</ele>
        <time>2019-10-13T07:07:06Z</time>
      </trkpt>
      <trkpt lat="45.82762" lon="4.82736">
        <ele>400.7</ele>
        <time>2019-10-13T07:07:07Z</time>
      </trkpt>
      <trkpt lat="45.82755" lon="4.82737">
        <ele>399.7</ele>
        <time>2019-10-13T07:07:08Z</time>
      </trkpt>
      <trkpt lat="45.82749" lon="4.82738">
        <ele>398.8</ele>
        <time>2019-10-13T07:07:09Z</time>
      </trkpt>
      <trkpt lat="45.82743" lon="4.82738">
        <ele>398</ele>
        <time>2019-10-13T07:07:10Z</time>
      </trkpt>
      <trkpt lat="45.82731" lon="4.82737">
        <ele>396.5</ele>
        <time>2019-10-13T07:07:12Z</time>
      </trkpt>
      <trkpt lat="45.82711" lon="4.82731">
        <ele>393.8</ele>
        <time>2019-10-13T07:07:15Z</time>
      </trkpt>
      <trkpt lat="45.82686" lon="4.82722">
        <ele>390.1</ele>
        <time>2019-10-13T07:07:19Z</time>
      </trkpt>
      <trkpt lat="45.82681" lon="4.82717">
        <ele>389.1</ele>
        <time>2019-10-13T07:07:20Z</time>
      </trkpt>
      <trkpt lat="45.82668" lon="4.82703">
        <ele>385.9</ele>
        <time>2019-10-13T07:07:22Z</time>
      </trkpt>
      <trkpt lat="45.82636" lon="4.82674">
        <ele>380.8</ele>
        <time>2019-10-13T07:07:26Z</time>
      </trkpt>
      <trkpt lat="45.82598" lon="4.82654">
        <ele>375.6</ele>
        <time>2019-10-13T07:07:30Z</time>
      </trkpt>
      <trkpt lat="45.82579" lon="4.82648">
        <ele>372.4</ele>
        <time>2019-10-13T07:07:32Z</time>
      </trkpt>
      <trkpt lat="45.82561" lon="4.82647">
        <ele>368.9</ele>
        <time>2019-10-13T07:07:34Z</time>
      </trkpt>
      <trkpt lat="45.82555" lon="4.82649">
        <ele>367.3</ele>
        <time>2019-10-13T07:07:35Z</time>
      </trkpt>
      <trkpt lat="45.82536" lon="4.82668">
        <ele>362.3</ele>
        <time>2019-10-13T07:07:38Z</time>
      </trkpt>
      <trkpt lat="45.8253" lon="4.82676">
        <ele>360.6</ele>
        <time>2019-10-13T07:07:39Z</time>
      </trkpt>
      <trkpt lat="45.8252" lon="4.82694">
        <ele>357.8</ele>
        <time>2019-10-13T07:07:41Z</time>
      </trkpt>
      <trkpt lat="45.82518" lon="4.82703">
        <ele>357.4</ele>
        <time>2019-10-13T07:07:42Z</time>
      </trkpt>
      <trkpt lat="45.82517" lon="4.82714">
        <ele>357</ele>
        <time>2019-10-13T07:07:43Z</time>
      </trkpt>
      <trkpt lat="45.82522" lon="4.82719">
        <ele>356.8</ele>
        <time>2019-10-13T07:07:44Z</time>
      </trkpt>
      <trkpt lat="45.82526" lon="4.82722">
        <ele>356.7</ele>
        <time>2019-10-13T07:07:45Z</time>
      </trkpt>
      <trkpt lat="45.82529" lon="4.82724">
        <ele>356.7</ele>
        <time>2019-10-13T07:07:46Z</time>
      </trkpt>
      <trkpt lat="45.82539" lon="4.82725">
        <ele>356.6</ele>
        <time>2019-10-13T07:07:48Z</time>
      </trkpt>
      <trkpt lat="45.82544" lon="4.82727">
        <ele>356.7</ele>
        <time>2019-10-13T07:07:49Z</time>
      </trkpt>
      <trkpt lat="45.82549" lon="4.82728">
        <ele>356.8</ele>
        <time>2019-10-13T07:07:50Z</time>
      </trkpt>
      <trkpt lat="45.82553" lon="4.82729">
        <ele>356.9</ele>
        <time>2019-10-13T07:07:51Z</time>
      </trkpt>
      <trkpt lat="45.82556" lon="4.8273">
        <ele>357</ele>
        <time>2019-10-13T07:07:52Z</time>
      </trkpt>
      <trkpt lat="45.82568" lon="4.82729">
        <ele>357.6</ele>
        <time>2019-10-13T07:07:55Z</time>
      </trkpt>
      <trkpt lat="45.82579" lon="4.82727">
        <ele>358.2</ele>
        <time>2019-10-13T07:07:58Z</time>
      </trkpt>
      <trkpt lat="45.82583" lon="4.82726">
        <ele>358.5</ele>
        <time>2019-10-13T07:07:59Z</time>
      </trkpt>
      <trkpt lat="45.82593" lon="4.82726">
        <ele>359</ele>
        <time>2019-10-13T07:08:02Z</time>
      </trkpt>
      <trkpt lat="45.826" lon="4.82727">
        <ele>359.2</ele>
        <time>2019-10-13T07:08:04Z</time>
      </trkpt>
      <trkpt lat="45.82606" lon="4.82728">
        <ele>359.4</ele>
        <time>2019-10-13T07:08:06Z</time>
      </trkpt>
      <trkpt lat="45.82617" lon="4.82734">
        <ele>359.6</ele>
        <time>2019-10-13T07:08:10Z</time>
      </trkpt>
      <trkpt lat="45.82619" lon="4.82736">
        <ele>359.6</ele>
        <time>2019-10-13T07:08:11Z</time>
      </trkpt>
      <trkpt lat="45.82633" lon="4.82748">
        <ele>360.1</ele>
        <time>2019-10-13T07:08:16Z</time>
      </trkpt>
      <trkpt lat="45.82642" lon="4.82756">
        <ele>360.5</ele>
        <time>2019-10-13T07:08:19Z</time>
      </trkpt>
      <trkpt lat="45.8265" lon="4.82765">
        <ele>360.8</ele>
        <time>2019-10-13T07:08:22Z</time>
      </trkpt>
      <trkpt lat="45.82662" lon="4.8278">
        <ele>361.1</ele>
        <time>2019-10-13T07:08:27Z</time>
      </trkpt>
      <trkpt lat="45.82667" lon="4.8279">
        <ele>361.3</ele>
        <time>2019-10-13T07:08:30Z</time>
      </trkpt>
      <trkpt lat="45.82673" lon="4.82801">
        <ele>361.5</ele>
        <time>2019-10-13T07:08:33Z</time>
      </trkpt>
      <trkpt lat="45.82679" lon="4.82815">
        <ele>361.8</ele>
        <time>2019-10-13T07:08:36Z</time>
      </trkpt>
      <trkpt lat="45.82689" lon="4.82834">
        <ele>362</ele>
        <time>2019-10-13T07:08:40Z</time>
      </trkpt>
      <trkpt lat="45.82699" lon="4.82852">
        <ele>361.9</ele>
        <time>2019-10-13T07:08:44Z</time>
      </trkpt>
      <trkpt lat="45.82704" lon="4.82859">
        <ele>361.8</ele>
        <time>2019-10-13T07:08:46Z</time>
      </trkpt>
      <trkpt lat="45.82711" lon="4.82867">
        <ele>361.7</ele>
        <time>2019-10-13T07:08:48Z</time>
      </trkpt>
      <trkpt lat="45.82714" lon="4.82871">
        <ele>361.5</ele>
        <time>2019-10-13T07:08:49Z</time>
      </trkpt>
      <trkpt lat="45.82719" lon="4.82874">
        <ele>361.4</ele>
        <time>2019-10-13T07:08:50Z</time>
      </trkpt>
      <trkpt lat="45.82728" lon="4.82878">
        <ele>361</ele>
        <time>2019-10-13T07:08:52Z</time>
      </trkpt>
      <trkpt lat="45.82747" lon="4.82884">
        <ele>360.3</ele>
        <time>2019-10-13T07:08:56Z</time>
      </trkpt>
      <trkpt lat="45.82767" lon="4.82888">
        <ele>359.5</ele>
        <time>2019-10-13T07:09:00Z</time>
      </trkpt>
      <trkpt lat="45.82778" lon="4.8289">
        <ele>359.1</ele>
        <time>2019-10-13T07:09:02Z</time>
      </trkpt>
      <trkpt lat="45.82819" lon="4.82888">
        <ele>358.1</ele>
        <time>2019-10-13T07:09:09Z</time>
      </trkpt>
      <trkpt lat="45.82861" lon="4.82883">
        <ele>355.6</ele>
        <time>2019-10-13T07:09:16Z</time>
      </trkpt>
      <trkpt lat="45.82889" lon="4.82879">
        <ele>353.9</ele>
        <time>2019-10-13T07:09:20Z</time>
      </trkpt>
      <trkpt lat="45.82895" lon="4.82877">
        <ele>353.4</ele>
        <time>2019-10-13T07:09:21Z</time>
      </trkpt>
      <trkpt lat="45.82913" lon="4.82868">
        <ele>352</ele>
        <time>2019-10-13T07:09:24Z</time>
      </trkpt>
      <trkpt lat="45.82935" lon="4.82854">
        <ele>350.8</ele>
        <time>2019-10-13T07:09:28Z</time>
      </trkpt>
      <trkpt lat="45.8294" lon="4.8285">
        <ele>350.5</ele>
        <time>2019-10-13T07:09:29Z</time>
      </trkpt>
      <trkpt lat="45.82964" lon="4.8283">
        <ele>349.2</ele>
        <time>2019-10-13T07:09:34Z</time>
      </trkpt>
      <trkpt lat="45.8298" lon="4.82819">
        <ele>348.3</ele>
        <time>2019-10-13T07:09:37Z</time>
      </trkpt>
      <trkpt lat="45.82992" lon="4.82805">
        <ele>347.9</ele>
        <time>2019-10-13T07:09:40Z</time>
      </trkpt>
      <trkpt lat="45.82995" lon="4.828">
        <ele>347.9</ele>
        <time>2019-10-13T07:09:41Z</time>
      </trkpt>
      <trkpt lat="45.82998" lon="4.82794">
        <ele>347.9</ele>
        <time>2019-10-13T07:09:42Z</time>
      </trkpt>
      <trkpt lat="45.83004" lon="4.82781">
        <ele>347.9</ele>
        <time>2019-10-13T07:09:45Z</time>
      </trkpt>
      <trkpt lat="45.83021" lon="4.82759">
        <ele>348.3</ele>
        <time>2019-10-13T07:09:51Z</time>
      </trkpt>
      <trkpt lat="45.83025" lon="4.82754">
        <ele>348.5</ele>
        <time>2019-10-13T07:09:52Z</time>
      </trkpt>
      <trkpt lat="45.83037" lon="4.82731">
        <ele>349</ele>
        <time>2019-10-13T07:09:56Z</time>
      </trkpt>
      <trkpt lat="45.83056" lon="4.82689">
        <ele>349.9</ele>
        <time>2019-10-13T07:10:02Z</time>
      </trkpt>
      <trkpt lat="45.8306" lon="4.82683">
        <ele>350</ele>
        <time>2019-10-13T07:10:03Z</time>
      </trkpt>
      <trkpt lat="45.83074" lon="4.82664">
        <ele>350.7</ele>
        <time>2019-10-13T07:10:07Z</time>
      </trkpt>
      <trkpt lat="45.83077" lon="4.8266">
        <ele>350.8</ele>
        <time>2019-10-13T07:10:08Z</time>
      </trkpt>
      <trkpt lat="45.83091" lon="4.82641">
        <ele>351.5</ele>
        <time>2019-10-13T07:10:13Z</time>
      </trkpt>
      <trkpt lat="45.83102" lon="4.82627">
        <ele>351.7</ele>
        <time>2019-10-13T07:10:16Z</time>
      </trkpt>
      <trkpt lat="45.83108" lon="4.82615">
        <ele>351.7</ele>
        <time>2019-10-13T07:10:18Z</time>
      </trkpt>
      <trkpt lat="45.83111" lon="4.82608">
        <ele>351.7</ele>
        <time>2019-10-13T07:10:19Z</time>
      </trkpt>
      <trkpt lat="45.8312" lon="4.82584">
        <ele>351.4</ele>
        <time>2019-10-13T07:10:23Z</time>
      </trkpt>
      <trkpt lat="45.83132" lon="4.82538">
        <ele>350.2</ele>
        <time>2019-10-13T07:10:30Z</time>
      </trkpt>
      <trkpt lat="45.8314" lon="4.82495">
        <ele>349.1</ele>
        <time>2019-10-13T07:10:37Z</time>
      </trkpt>
      <trkpt lat="45.83141" lon="4.8248">
        <ele>348.7</ele>
        <time>2019-10-13T07:10:40Z</time>
      </trkpt>
      <trkpt lat="45.83139" lon="4.8247">
        <ele>348.4</ele>
        <time>2019-10-13T07:10:42Z</time>
      </trkpt>
      <trkpt lat="45.83138" lon="4.82449">
        <ele>348</ele>
        <time>2019-10-13T07:10:47Z</time>
      </trkpt>
      <trkpt lat="45.83136" lon="4.82421">
        <ele>347.6</ele>
        <time>2019-10-13T07:10:53Z</time>
      </trkpt>
      <trkpt lat="45.83139" lon="4.82392">
        <ele>347.5</ele>
        <time>2019-10-13T07:10:59Z</time>
      </trkpt>
      <trkpt lat="45.83143" lon="4.82359">
        <ele>347.7</ele>
        <time>2019-10-13T07:11:04Z</time>
      </trkpt>
      <trkpt lat="45.83142" lon="4.82347">
        <ele>347.8</ele>
        <time>2019-10-13T07:11:06Z</time>
      </trkpt>
      <trkpt lat="45.83141" lon="4.82338">
        <ele>347.8</ele>
        <time>2019-10-13T07:11:08Z</time>
      </trkpt>
      <trkpt lat="45.83141" lon="4.8233">
        <ele>347.8</ele>
        <time>2019-10-13T07:11:10Z</time>
      </trkpt>
      <trkpt lat="45.8314" lon="4.82321">
        <ele>347.8</ele>
        <time>2019-10-13T07:11:12Z</time>
      </trkpt>
      <trkpt lat="45.8314" lon="4.82308">
        <ele>347.8</ele>
        <time>2019-10-13T07:11:15Z</time>
      </trkpt>
      <trkpt lat="45.83139" lon="4.82298">
        <ele>348</ele>
        <time>2019-10-13T07:11:17Z</time>
      </trkpt>
      <trkpt lat="45.83139" lon="4.82289">
        <ele>348.3</ele>
        <time>2019-10-13T07:11:19Z</time>
      </trkpt>
      <trkpt lat="45.83138" lon="4.8228">
        <ele>348.7</ele>
        <time>2019-10-13T07:11:21Z</time>
      </trkpt>
      <trkpt lat="45.83138" lon="4.82277">
        <ele>348.8</ele>
        <time>2019-10-13T07:11:22Z</time>
      </trkpt>
      <trkpt lat="45.83138" lon="4.82273">
        <ele>349</ele>
        <time>2019-10-13T07:11:23Z</time>
      </trkpt>
      <trkpt lat="45.83135" lon="4.82261">
        <ele>349.7</ele>
        <time>2019-10-13T07:11:28Z</time>
      </trkpt>
      <trkpt lat="45.83121" lon="4.82231">
        <ele>352.2</ele>
        <time>2019-10-13T07:11:42Z</time>
      </trkpt>
      <trkpt lat="45.8312" lon="4.82225">
        <ele>352.7</ele>
        <time>2019-10-13T07:11:44Z</time>
      </trkpt>
      <trkpt lat="45.83115" lon="4.82208">
        <ele>354</ele>
        <time>2019-10-13T07:11:51Z</time>
      </trkpt>
      <trkpt lat="45.83109" lon="4.82171">
        <ele>356.1</ele>
        <time>2019-10-13T07:12:08Z</time>
      </trkpt>
      <trkpt lat="45.83106" lon="4.82164">
        <ele>356.6</ele>
        <time>2019-10-13T07:12:11Z</time>
      </trkpt>
      <trkpt lat="45.83097" lon="4.82149">
        <ele>358</ele>
        <time>2019-10-13T07:12:17Z</time>
      </trkpt>
      <trkpt lat="45.83088" lon="4.82138">
        <ele>359.5</ele>
        <time>2019-10-13T07:12:22Z</time>
      </trkpt>
      <trkpt lat="45.83087" lon="4.82137">
        <ele>359.7</ele>
        <time>2019-10-13T07:12:23Z</time>
      </trkpt>
      <trkpt lat="45.83081" lon="4.82131">
        <ele>360.6</ele>
        <time>2019-10-13T07:12:27Z</time>
      </trkpt>
      <trkpt lat="45.83061" lon="4.82098">
        <ele>364.2</ele>
        <time>2019-10-13T07:12:46Z</time>
      </trkpt>
      <trkpt lat="45.83055" lon="4.8209">
        <ele>365</ele>
        <time>2019-10-13T07:12:51Z</time>
      </trkpt>
      <trkpt lat="45.83017" lon="4.82046">
        <ele>370</ele>
        <time>2019-10-13T07:13:21Z</time>
      </trkpt>
      <trkpt lat="45.83014" lon="4.82041">
        <ele>370.3</ele>
        <time>2019-10-13T07:13:23Z</time>
      </trkpt>
      <trkpt lat="45.8301" lon="4.82036">
        <ele>370.6</ele>
        <time>2019-10-13T07:13:25Z</time>
      </trkpt>
      <trkpt lat="45.83006" lon="4.82031">
        <ele>370.8</ele>
        <time>2019-10-13T07:13:27Z</time>
      </trkpt>
      <trkpt lat="45.82999" lon="4.82021">
        <ele>371.2</ele>
        <time>2019-10-13T07:13:31Z</time>
      </trkpt>
      <trkpt lat="45.82987" lon="4.82003">
        <ele>375.3</ele>
        <time>2019-10-13T07:13:35Z</time>
      </trkpt>
      <trkpt lat="45.8298" lon="4.81982">
        <ele>374.6</ele>
        <time>2019-10-13T07:13:41Z</time>
      </trkpt>
      <trkpt lat="45.82985" lon="4.81979">
        <ele>372.6</ele>
        <time>2019-10-13T07:13:44Z</time>
      </trkpt>
      <trkpt lat="45.82993" lon="4.81973">
        <ele>369.5</ele>
        <time>2019-10-13T07:13:48Z</time>
      </trkpt>
      <trkpt lat="45.83001" lon="4.81962">
        <ele>365.9</ele>
        <time>2019-10-13T07:13:53Z</time>
      </trkpt>
      <trkpt lat="45.83003" lon="4.81959">
        <ele>365</ele>
        <time>2019-10-13T07:13:55Z</time>
      </trkpt>
      <trkpt lat="45.83006" lon="4.81954">
        <ele>363.3</ele>
        <time>2019-10-13T07:13:59Z</time>
      </trkpt>
      <trkpt lat="45.83007" lon="4.81952">
        <ele>362.6</ele>
        <time>2019-10-13T07:14:00Z</time>
      </trkpt>
      <trkpt lat="45.83019" lon="4.81938">
        <ele>356.7</ele>
        <time>2019-10-13T07:14:07Z</time>
      </trkpt>
      <trkpt lat="45.83019" lon="4.81936">
        <ele>356</ele>
        <time>2019-10-13T07:14:08Z</time>
      </trkpt>
      <trkpt lat="45.8302" lon="4.81928">
        <ele>353.7</ele>
        <time>2019-10-13T07:14:12Z</time>
      </trkpt>
      <trkpt lat="45.83019" lon="4.81917">
        <ele>357.1</ele>
        <time>2019-10-13T07:14:17Z</time>
      </trkpt>
      <trkpt lat="45.83015" lon="4.81888">
        <ele>362.4</ele>
        <time>2019-10-13T07:14:24Z</time>
      </trkpt>
      <trkpt lat="45.83013" lon="4.81873">
        <ele>365.6</ele>
        <time>2019-10-13T07:14:29Z</time>
      </trkpt>
      <trkpt lat="45.83011" lon="4.81863">
        <ele>367.9</ele>
        <time>2019-10-13T07:14:34Z</time>
      </trkpt>
      <trkpt lat="45.83011" lon="4.81861">
        <ele>368.4</ele>
        <time>2019-10-13T07:14:35Z</time>
      </trkpt>
      <trkpt lat="45.83003" lon="4.81843">
        <ele>373.9</ele>
        <time>2019-10-13T07:14:40Z</time>
      </trkpt>
      <trkpt lat="45.82999" lon="4.81827">
        <ele>378.2</ele>
        <time>2019-10-13T07:14:45Z</time>
      </trkpt>
      <trkpt lat="45.82998" lon="4.81824">
        <ele>378.9</ele>
        <time>2019-10-13T07:14:46Z</time>
      </trkpt>
      <trkpt lat="45.82997" lon="4.81822">
        <ele>379.6</ele>
        <time>2019-10-13T07:14:47Z</time>
      </trkpt>
      <trkpt lat="45.82993" lon="4.81816">
        <ele>381.3</ele>
        <time>2019-10-13T07:14:50Z</time>
      </trkpt>
      <trkpt lat="45.8294" lon="4.81751">
        <ele>390.1</ele>
        <time>2019-10-13T07:15:45Z</time>
      </trkpt>
      <trkpt lat="45.82937" lon="4.81745">
        <ele>389.6</ele>
        <time>2019-10-13T07:15:47Z</time>
      </trkpt>
      <trkpt lat="45.82932" lon="4.81735">
        <ele>388.6</ele>
        <time>2019-10-13T07:15:50Z</time>
      </trkpt>
      <trkpt lat="45.82931" lon="4.81732">
        <ele>388.2</ele>
        <time>2019-10-13T07:15:51Z</time>
      </trkpt>
      <trkpt lat="45.8293" lon="4.81728">
        <ele>387.8</ele>
        <time>2019-10-13T07:15:52Z</time>
      </trkpt>
      <trkpt lat="45.82927" lon="4.81717">
        <ele>386.4</ele>
        <time>2019-10-13T07:15:55Z</time>
      </trkpt>
      <trkpt lat="45.8292" lon="4.81703">
        <ele>384.2</ele>
        <time>2019-10-13T07:15:58Z</time>
      </trkpt>
      <trkpt lat="45.82916" lon="4.81692">
        <ele>382.7</ele>
        <time>2019-10-13T07:16:00Z</time>
      </trkpt>
      <trkpt lat="45.82909" lon="4.81673">
        <ele>379.7</ele>
        <time>2019-10-13T07:16:04Z</time>
      </trkpt>
      <trkpt lat="45.82907" lon="4.81663">
        <ele>378</ele>
        <time>2019-10-13T07:16:06Z</time>
      </trkpt>
      <trkpt lat="45.82901" lon="4.81651">
        <ele>376.1</ele>
        <time>2019-10-13T07:16:09Z</time>
      </trkpt>
      <trkpt lat="45.82898" lon="4.81647">
        <ele>375.3</ele>
        <time>2019-10-13T07:16:10Z</time>
      </trkpt>
      <trkpt lat="45.82891" lon="4.81639">
        <ele>374</ele>
        <time>2019-10-13T07:16:12Z</time>
      </trkpt>
      <trkpt lat="45.82887" lon="4.81633">
        <ele>373</ele>
        <time>2019-10-13T07:16:14Z</time>
      </trkpt>
      <trkpt lat="45.82885" lon="4.8163">
        <ele>372.4</ele>
        <time>2019-10-13T07:16:15Z</time>
      </trkpt>
      <trkpt lat="45.82883" lon="4.81627">
        <ele>371.8</ele>
        <time>2019-10-13T07:16:16Z</time>
      </trkpt>
      <trkpt lat="45.82879" lon="4.8162">
        <ele>370.8</ele>
        <time>2019-10-13T07:16:18Z</time>
      </trkpt>
      <trkpt lat="45.82877" lon="4.81615">
        <ele>370.2</ele>
        <time>2019-10-13T07:16:20Z</time>
      </trkpt>
      <trkpt lat="45.82874" lon="4.81609">
        <ele>369.2</ele>
        <time>2019-10-13T07:16:22Z</time>
      </trkpt>
      <trkpt lat="45.8287" lon="4.816">
        <ele>367.4</ele>
        <time>2019-10-13T07:16:24Z</time>
      </trkpt>
      <trkpt lat="45.82869" lon="4.81596">
        <ele>366.8</ele>
        <time>2019-10-13T07:16:25Z</time>
      </trkpt>
      <trkpt lat="45.82868" lon="4.81592">
        <ele>366.2</ele>
        <time>2019-10-13T07:16:26Z</time>
      </trkpt>
      <trkpt lat="45.82864" lon="4.81587">
        <ele>365.2</ele>
        <time>2019-10-13T07:16:28Z</time>
      </trkpt>
      <trkpt lat="45.82861" lon="4.81581">
        <ele>364.2</ele>
        <time>2019-10-13T07:16:30Z</time>
      </trkpt>
      <trkpt lat="45.82858" lon="4.81573">
        <ele>362.9</ele>
        <time>2019-10-13T07:16:32Z</time>
      </trkpt>
      <trkpt lat="45.82855" lon="4.81558">
        <ele>361.2</ele>
        <time>2019-10-13T07:16:35Z</time>
      </trkpt>
      <trkpt lat="45.82861" lon="4.81535">
        <ele>358.5</ele>
        <time>2019-10-13T07:16:40Z</time>
      </trkpt>
      <trkpt lat="45.82864" lon="4.81529">
        <ele>357.8</ele>
        <time>2019-10-13T07:16:41Z</time>
      </trkpt>
      <trkpt lat="45.82868" lon="4.81514">
        <ele>356.4</ele>
        <time>2019-10-13T07:16:43Z</time>
      </trkpt>
      <trkpt lat="45.82873" lon="4.81492">
        <ele>354.3</ele>
        <time>2019-10-13T07:16:46Z</time>
      </trkpt>
      <trkpt lat="45.82878" lon="4.81482">
        <ele>353.2</ele>
        <time>2019-10-13T07:16:48Z</time>
      </trkpt>
      <trkpt lat="45.82884" lon="4.81474">
        <ele>352.1</ele>
        <time>2019-10-13T07:16:50Z</time>
      </trkpt>
      <trkpt lat="45.82897" lon="4.81461">
        <ele>349.6</ele>
        <time>2019-10-13T07:16:54Z</time>
      </trkpt>
      <trkpt lat="45.82917" lon="4.81442">
        <ele>345</ele>
        <time>2019-10-13T07:17:00Z</time>
      </trkpt>
      <trkpt lat="45.82931" lon="4.81428">
        <ele>342</ele>
        <time>2019-10-13T07:17:05Z</time>
      </trkpt>
      <trkpt lat="45.82934" lon="4.81426">
        <ele>341.5</ele>
        <time>2019-10-13T07:17:06Z</time>
      </trkpt>
      <trkpt lat="45.82945" lon="4.81414">
        <ele>339.2</ele>
        <time>2019-10-13T07:17:10Z</time>
      </trkpt>
      <trkpt lat="45.82948" lon="4.81408">
        <ele>338.4</ele>
        <time>2019-10-13T07:17:11Z</time>
      </trkpt>
      <trkpt lat="45.82968" lon="4.81383">
        <ele>335</ele>
        <time>2019-10-13T07:17:16Z</time>
      </trkpt>
      <trkpt lat="45.82973" lon="4.81379">
        <ele>334.4</ele>
        <time>2019-10-13T07:17:17Z</time>
      </trkpt>
      <trkpt lat="45.82976" lon="4.81375">
        <ele>333.9</ele>
        <time>2019-10-13T07:17:18Z</time>
      </trkpt>
      <trkpt lat="45.82987" lon="4.81357">
        <ele>332.4</ele>
        <time>2019-10-13T07:17:21Z</time>
      </trkpt>
      <trkpt lat="45.82997" lon="4.81339">
        <ele>331.2</ele>
        <time>2019-10-13T07:17:24Z</time>
      </trkpt>
      <trkpt lat="45.83" lon="4.81336">
        <ele>331</ele>
        <time>2019-10-13T07:17:25Z</time>
      </trkpt>
      <trkpt lat="45.83019" lon="4.81319">
        <ele>329.7</ele>
        <time>2019-10-13T07:17:29Z</time>
      </trkpt>
      <trkpt lat="45.83024" lon="4.81318">
        <ele>326.9</ele>
        <time>2019-10-13T07:17:30Z</time>
      </trkpt>
      <trkpt lat="45.83036" lon="4.81311">
        <ele>325.1</ele>
        <time>2019-10-13T07:17:33Z</time>
      </trkpt>
      <trkpt lat="45.83039" lon="4.81308">
        <ele>324.7</ele>
        <time>2019-10-13T07:17:34Z</time>
      </trkpt>
      <trkpt lat="45.83046" lon="4.81305">
        <ele>323.7</ele>
        <time>2019-10-13T07:17:38Z</time>
      </trkpt>
      <trkpt lat="45.83056" lon="4.81314">
        <ele>322.5</ele>
        <time>2019-10-13T07:17:41Z</time>
      </trkpt>
      <trkpt lat="45.8306" lon="4.8132">
        <ele>322</ele>
        <time>2019-10-13T07:17:42Z</time>
      </trkpt>
      <trkpt lat="45.83081" lon="4.81347">
        <ele>318.9</ele>
        <time>2019-10-13T07:17:46Z</time>
      </trkpt>
      <trkpt lat="45.83087" lon="4.81354">
        <ele>317.9</ele>
        <time>2019-10-13T07:17:47Z</time>
      </trkpt>
      <trkpt lat="45.83103" lon="4.81374">
        <ele>315.2</ele>
        <time>2019-10-13T07:17:50Z</time>
      </trkpt>
      <trkpt lat="45.83107" lon="4.81381">
        <ele>314.2</ele>
        <time>2019-10-13T07:17:51Z</time>
      </trkpt>
      <trkpt lat="45.83111" lon="4.81386">
        <ele>313.5</ele>
        <time>2019-10-13T07:17:52Z</time>
      </trkpt>
      <trkpt lat="45.83119" lon="4.81401">
        <ele>311.6</ele>
        <time>2019-10-13T07:17:56Z</time>
      </trkpt>
      <trkpt lat="45.8312" lon="4.81415">
        <ele>309.4</ele>
        <time>2019-10-13T07:18:01Z</time>
      </trkpt>
      <trkpt lat="45.83127" lon="4.81429">
        <ele>306.7</ele>
        <time>2019-10-13T07:18:05Z</time>
      </trkpt>
      <trkpt lat="45.83132" lon="4.81439">
        <ele>304.9</ele>
        <time>2019-10-13T07:18:07Z</time>
      </trkpt>
      <trkpt lat="45.83145" lon="4.81463">
        <ele>301.7</ele>
        <time>2019-10-13T07:18:12Z</time>
      </trkpt>
      <trkpt lat="45.83149" lon="4.81468">
        <ele>301</ele>
        <time>2019-10-13T07:18:13Z</time>
      </trkpt>
      <trkpt lat="45.83152" lon="4.81473">
        <ele>300.3</ele>
        <time>2019-10-13T07:18:14Z</time>
      </trkpt>
      <trkpt lat="45.83159" lon="4.81485">
        <ele>298.4</ele>
        <time>2019-10-13T07:18:16Z</time>
      </trkpt>
      <trkpt lat="45.83163" lon="4.81493">
        <ele>297.6</ele>
        <time>2019-10-13T07:18:17Z</time>
      </trkpt>
      <trkpt lat="45.83185" lon="4.81531">
        <ele>292.3</ele>
        <time>2019-10-13T07:18:21Z</time>
      </trkpt>
      <trkpt lat="45.832" lon="4.8156">
        <ele>288.1</ele>
        <time>2019-10-13T07:18:24Z</time>
      </trkpt>
      <trkpt lat="45.83204" lon="4.8157">
        <ele>286.8</ele>
        <time>2019-10-13T07:18:25Z</time>
      </trkpt>
      <trkpt lat="45.83208" lon="4.81582">
        <ele>285.2</ele>
        <time>2019-10-13T07:18:26Z</time>
      </trkpt>
      <trkpt lat="45.83214" lon="4.81604">
        <ele>281.6</ele>
        <time>2019-10-13T07:18:28Z</time>
      </trkpt>
      <trkpt lat="45.83218" lon="4.81624">
        <ele>282</ele>
        <time>2019-10-13T07:18:30Z</time>
      </trkpt>
      <trkpt lat="45.83221" lon="4.81633">
        <ele>282</ele>
        <time>2019-10-13T07:18:31Z</time>
      </trkpt>
      <trkpt lat="45.83223" lon="4.81639">
        <ele>282.1</ele>
        <time>2019-10-13T07:18:32Z</time>
      </trkpt>
      <trkpt lat="45.83226" lon="4.81645">
        <ele>282.2</ele>
        <time>2019-10-13T07:18:33Z</time>
      </trkpt>
      <trkpt lat="45.83229" lon="4.8165">
        <ele>282.2</ele>
        <time>2019-10-13T07:18:34Z</time>
      </trkpt>
      <trkpt lat="45.83241" lon="4.81656">
        <ele>282.4</ele>
        <time>2019-10-13T07:18:38Z</time>
      </trkpt>
      <trkpt lat="45.83252" lon="4.81651">
        <ele>282.6</ele>
        <time>2019-10-13T07:18:41Z</time>
      </trkpt>
      <trkpt lat="45.83255" lon="4.81652">
        <ele>282.7</ele>
        <time>2019-10-13T07:18:43Z</time>
      </trkpt>
      <trkpt lat="45.83257" lon="4.81652">
        <ele>282.7</ele>
        <time>2019-10-13T07:18:44Z</time>
      </trkpt>
      <trkpt lat="45.83265" lon="4.81664">
        <ele>283</ele>
        <time>2019-10-13T07:18:49Z</time>
      </trkpt>
      <trkpt lat="45.8327" lon="4.81675">
        <ele>283.2</ele>
        <time>2019-10-13T07:18:53Z</time>
      </trkpt>
      <trkpt lat="45.83275" lon="4.81685">
        <ele>283.3</ele>
        <time>2019-10-13T07:18:57Z</time>
      </trkpt>
      <trkpt lat="45.83277" lon="4.81687">
        <ele>283.4</ele>
        <time>2019-10-13T07:18:58Z</time>
      </trkpt>
      <trkpt lat="45.8328" lon="4.81692">
        <ele>283.5</ele>
        <time>2019-10-13T07:19:00Z</time>
      </trkpt>
      <trkpt lat="45.83285" lon="4.81699">
        <ele>283.6</ele>
        <time>2019-10-13T07:19:03Z</time>
      </trkpt>
      <trkpt lat="45.83288" lon="4.81704">
        <ele>283.7</ele>
        <time>2019-10-13T07:19:05Z</time>
      </trkpt>
      <trkpt lat="45.83289" lon="4.81706">
        <ele>283.8</ele>
        <time>2019-10-13T07:19:06Z</time>
      </trkpt>
      <trkpt lat="45.83292" lon="4.81709">
        <ele>283.8</ele>
        <time>2019-10-13T07:19:08Z</time>
      </trkpt>
      <trkpt lat="45.83298" lon="4.81718">
        <ele>284</ele>
        <time>2019-10-13T07:19:12Z</time>
      </trkpt>
      <trkpt lat="45.833" lon="4.8172">
        <ele>284</ele>
        <time>2019-10-13T07:19:13Z</time>
      </trkpt>
      <trkpt lat="45.8331" lon="4.8173">
        <ele>284.2</ele>
        <time>2019-10-13T07:19:19Z</time>
      </trkpt>
      <trkpt lat="45.83315" lon="4.81736">
        <ele>284.3</ele>
        <time>2019-10-13T07:19:22Z</time>
      </trkpt>
      <trkpt lat="45.83322" lon="4.81743">
        <ele>284.5</ele>
        <time>2019-10-13T07:19:26Z</time>
      </trkpt>
      <trkpt lat="45.83326" lon="4.81746">
        <ele>284.6</ele>
        <time>2019-10-13T07:19:28Z</time>
      </trkpt>
      <trkpt lat="45.8333" lon="4.81748">
        <ele>284.7</ele>
        <time>2019-10-13T07:19:30Z</time>
      </trkpt>
      <trkpt lat="45.83338" lon="4.81752">
        <ele>284.8</ele>
        <time>2019-10-13T07:19:34Z</time>
      </trkpt>
      <trkpt lat="45.83351" lon="4.81758">
        <ele>285.1</ele>
        <time>2019-10-13T07:19:42Z</time>
      </trkpt>
      <trkpt lat="45.8335" lon="4.81759">
        <ele>285.2</ele>
        <time>2019-10-13T07:19:43Z</time>
      </trkpt>
      <trkpt lat="45.83348" lon="4.81759">
        <ele>285.2</ele>
        <time>2019-10-13T07:19:44Z</time>
      </trkpt>
      <trkpt lat="45.83347" lon="4.81759">
        <ele>285.2</ele>
        <time>2019-10-13T07:19:45Z</time>
      </trkpt>
      <trkpt lat="45.83346" lon="4.81759">
        <ele>285.3</ele>
        <time>2019-10-13T07:19:46Z</time>
      </trkpt>
      <trkpt lat="45.83346" lon="4.81759">
        <ele>285.3</ele>
        <time>2019-10-13T07:19:47Z</time>
      </trkpt>
      <trkpt lat="45.83347" lon="4.81759">
        <ele>285.3</ele>
        <time>2019-10-13T07:19:48Z</time>
      </trkpt>
      <trkpt lat="45.83348" lon="4.8176">
        <ele>285.3</ele>
        <time>2019-10-13T07:19:49Z</time>
      </trkpt>
      <trkpt lat="45.83349" lon="4.8176">
        <ele>285.3</ele>
        <time>2019-10-13T07:19:50Z</time>
      </trkpt>
      <trkpt lat="45.8335" lon="4.81761">
        <ele>285.4</ele>
        <time>2019-10-13T07:19:51Z</time>
      </trkpt>
      <trkpt lat="45.83349" lon="4.81761">
        <ele>285.4</ele>
        <time>2019-10-13T07:19:52Z</time>
      </trkpt>
      <trkpt lat="45.83347" lon="4.81761">
        <ele>285.5</ele>
        <time>2019-10-13T07:19:53Z</time>
      </trkpt>
      <trkpt lat="45.83348" lon="4.81761">
        <ele>285.5</ele>
        <time>2019-10-13T07:19:54Z</time>
      </trkpt>
      <trkpt lat="45.83349" lon="4.81761">
        <ele>285.5</ele>
        <time>2019-10-13T07:19:55Z</time>
      </trkpt>
      <trkpt lat="45.8335" lon="4.81762">
        <ele>285.5</ele>
        <time>2019-10-13T07:19:56Z</time>
      </trkpt>
      <trkpt lat="45.83351" lon="4.81762">
        <ele>285.6</ele>
        <time>2019-10-13T07:19:57Z</time>
      </trkpt>
      <trkpt lat="45.83353" lon="4.81763">
        <ele>285.6</ele>
        <time>2019-10-13T07:19:58Z</time>
      </trkpt>
      <trkpt lat="45.83354" lon="4.81764">
        <ele>285.6</ele>
        <time>2019-10-13T07:19:59Z</time>
      </trkpt>
      <trkpt lat="45.83358" lon="4.81765">
        <ele>285.7</ele>
        <time>2019-10-13T07:20:01Z</time>
      </trkpt>
      <trkpt lat="45.83362" lon="4.81766">
        <ele>285.8</ele>
        <time>2019-10-13T07:20:03Z</time>
      </trkpt>
      <trkpt lat="45.83365" lon="4.81766">
        <ele>285.9</ele>
        <time>2019-10-13T07:20:05Z</time>
      </trkpt>
      <trkpt lat="45.83368" lon="4.81766">
        <ele>286</ele>
        <time>2019-10-13T07:20:06Z</time>
      </trkpt>
      <trkpt lat="45.83369" lon="4.81766">
        <ele>286</ele>
        <time>2019-10-13T07:20:07Z</time>
      </trkpt>
      <trkpt lat="45.83374" lon="4.81766">
        <ele>286.6</ele>
        <time>2019-10-13T07:20:09Z</time>
      </trkpt>
      <trkpt lat="45.83382" lon="4.81764">
        <ele>287.9</ele>
        <time>2019-10-13T07:20:13Z</time>
      </trkpt>
      <trkpt lat="45.83384" lon="4.81764">
        <ele>288.2</ele>
        <time>2019-10-13T07:20:14Z</time>
      </trkpt>
      <trkpt lat="45.834" lon="4.8176">
        <ele>290.8</ele>
        <time>2019-10-13T07:20:22Z</time>
      </trkpt>
      <trkpt lat="45.8342" lon="4.81755">
        <ele>293.9</ele>
        <time>2019-10-13T07:20:31Z</time>
      </trkpt>
      <trkpt lat="45.83436" lon="4.81753">
        <ele>296.3</ele>
        <time>2019-10-13T07:20:39Z</time>
      </trkpt>
      <trkpt lat="45.83456" lon="4.81749">
        <ele>298.3</ele>
        <time>2019-10-13T07:20:48Z</time>
      </trkpt>
      <trkpt lat="45.83473" lon="4.81745">
        <ele>299.9</ele>
        <time>2019-10-13T07:20:56Z</time>
      </trkpt>
      <trkpt lat="45.83483" lon="4.8174">
        <ele>301.5</ele>
        <time>2019-10-13T07:21:02Z</time>
      </trkpt>
      <trkpt lat="45.83479" lon="4.81734">
        <ele>301.5</ele>
        <time>2019-10-13T07:21:07Z</time>
      </trkpt>
      <trkpt lat="45.83473" lon="4.81732">
        <ele>301.6</ele>
        <time>2019-10-13T07:21:12Z</time>
      </trkpt>
      <trkpt lat="45.83462" lon="4.81732">
        <ele>301.9</ele>
        <time>2019-10-13T07:21:19Z</time>
      </trkpt>
      <trkpt lat="45.83452" lon="4.81727">
        <ele>302.3</ele>
        <time>2019-10-13T07:21:26Z</time>
      </trkpt>
      <trkpt lat="45.83447" lon="4.81725">
        <ele>302.5</ele>
        <time>2019-10-13T07:21:29Z</time>
      </trkpt>
      <trkpt lat="45.83437" lon="4.81721">
        <ele>302.9</ele>
        <time>2019-10-13T07:21:34Z</time>
      </trkpt>
      <trkpt lat="45.83435" lon="4.8172">
        <ele>303</ele>
        <time>2019-10-13T07:21:35Z</time>
      </trkpt>
      <trkpt lat="45.83426" lon="4.81716">
        <ele>303.2</ele>
        <time>2019-10-13T07:21:40Z</time>
      </trkpt>
      <trkpt lat="45.83422" lon="4.81715">
        <ele>303.3</ele>
        <time>2019-10-13T07:21:42Z</time>
      </trkpt>
      <trkpt lat="45.83417" lon="4.81713">
        <ele>303.4</ele>
        <time>2019-10-13T07:21:45Z</time>
      </trkpt>
      <trkpt lat="45.8341" lon="4.8171">
        <ele>303.5</ele>
        <time>2019-10-13T07:21:49Z</time>
      </trkpt>
      <trkpt lat="45.83403" lon="4.81706">
        <ele>303.6</ele>
        <time>2019-10-13T07:21:53Z</time>
      </trkpt>
      <trkpt lat="45.83397" lon="4.81703">
        <ele>303.8</ele>
        <time>2019-10-13T07:21:56Z</time>
      </trkpt>
      <trkpt lat="45.83393" lon="4.817">
        <ele>303.9</ele>
        <time>2019-10-13T07:21:58Z</time>
      </trkpt>
      <trkpt lat="45.83389" lon="4.81695">
        <ele>304.1</ele>
        <time>2019-10-13T07:22:01Z</time>
      </trkpt>
      <trkpt lat="45.83384" lon="4.81685">
        <ele>304.2</ele>
        <time>2019-10-13T07:22:05Z</time>
      </trkpt>
      <trkpt lat="45.83383" lon="4.81683">
        <ele>304.2</ele>
        <time>2019-10-13T07:22:06Z</time>
      </trkpt>
      <trkpt lat="45.83379" lon="4.81674">
        <ele>304.3</ele>
        <time>2019-10-13T07:22:10Z</time>
      </trkpt>
      <trkpt lat="45.83378" lon="4.81671">
        <ele>304.3</ele>
        <time>2019-10-13T07:22:11Z</time>
      </trkpt>
      <trkpt lat="45.83376" lon="4.81663">
        <ele>304.9</ele>
        <time>2019-10-13T07:22:15Z</time>
      </trkpt>
      <trkpt lat="45.83372" lon="4.81654">
        <ele>305.5</ele>
        <time>2019-10-13T07:22:19Z</time>
      </trkpt>
      <trkpt lat="45.8337" lon="4.81649">
        <ele>305.8</ele>
        <time>2019-10-13T07:22:21Z</time>
      </trkpt>
      <trkpt lat="45.83366" lon="4.81641">
        <ele>306.6</ele>
        <time>2019-10-13T07:22:25Z</time>
      </trkpt>
      <trkpt lat="45.83361" lon="4.81627">
        <ele>307.8</ele>
        <time>2019-10-13T07:22:31Z</time>
      </trkpt>
      <trkpt lat="45.8336" lon="4.8162">
        <ele>308.4</ele>
        <time>2019-10-13T07:22:34Z</time>
      </trkpt>
      <trkpt lat="45.83357" lon="4.81611">
        <ele>309.2</ele>
        <time>2019-10-13T07:22:38Z</time>
      </trkpt>
      <trkpt lat="45.83356" lon="4.81609">
        <ele>309.5</ele>
        <time>2019-10-13T07:22:39Z</time>
      </trkpt>
      <trkpt lat="45.83352" lon="4.81598">
        <ele>310.7</ele>
        <time>2019-10-13T07:22:44Z</time>
      </trkpt>
      <trkpt lat="45.8335" lon="4.81592">
        <ele>311.4</ele>
        <time>2019-10-13T07:22:47Z</time>
      </trkpt>
      <trkpt lat="45.83344" lon="4.81574">
        <ele>313.5</ele>
        <time>2019-10-13T07:22:55Z</time>
      </trkpt>
      <trkpt lat="45.8334" lon="4.81561">
        <ele>314.9</ele>
        <time>2019-10-13T07:23:01Z</time>
      </trkpt>
      <trkpt lat="45.83339" lon="4.81559">
        <ele>315.1</ele>
        <time>2019-10-13T07:23:02Z</time>
      </trkpt>
      <trkpt lat="45.83338" lon="4.81555">
        <ele>315.6</ele>
        <time>2019-10-13T07:23:04Z</time>
      </trkpt>
      <trkpt lat="45.83333" lon="4.81544">
        <ele>317.1</ele>
        <time>2019-10-13T07:23:09Z</time>
      </trkpt>
      <trkpt lat="45.83332" lon="4.81543">
        <ele>317.3</ele>
        <time>2019-10-13T07:23:10Z</time>
      </trkpt>
      <trkpt lat="45.8333" lon="4.81529">
        <ele>319.2</ele>
        <time>2019-10-13T07:23:17Z</time>
      </trkpt>
      <trkpt lat="45.83329" lon="4.81526">
        <ele>319.6</ele>
        <time>2019-10-13T07:23:19Z</time>
      </trkpt>
      <trkpt lat="45.8332" lon="4.81485">
        <ele>326.1</ele>
        <time>2019-10-13T07:23:45Z</time>
      </trkpt>
      <trkpt lat="45.83319" lon="4.81483">
        <ele>326.5</ele>
        <time>2019-10-13T07:23:46Z</time>
      </trkpt>
      <trkpt lat="45.83315" lon="4.81443">
        <ele>331.4</ele>
        <time>2019-10-13T07:24:09Z</time>
      </trkpt>
      <trkpt lat="45.83315" lon="4.81436">
        <ele>332</ele>
        <time>2019-10-13T07:24:12Z</time>
      </trkpt>
      <trkpt lat="45.83315" lon="4.81432">
        <ele>332.3</ele>
        <time>2019-10-13T07:24:14Z</time>
      </trkpt>
      <trkpt lat="45.83314" lon="4.81429">
        <ele>332.6</ele>
        <time>2019-10-13T07:24:15Z</time>
      </trkpt>
      <trkpt lat="45.8331" lon="4.81419">
        <ele>333.6</ele>
        <time>2019-10-13T07:24:19Z</time>
      </trkpt>
      <trkpt lat="45.83307" lon="4.81405">
        <ele>335</ele>
        <time>2019-10-13T07:24:25Z</time>
      </trkpt>
      <trkpt lat="45.83306" lon="4.81402">
        <ele>335.2</ele>
        <time>2019-10-13T07:24:26Z</time>
      </trkpt>
      <trkpt lat="45.833" lon="4.8139">
        <ele>336.3</ele>
        <time>2019-10-13T07:24:32Z</time>
      </trkpt>
      <trkpt lat="45.83298" lon="4.81384">
        <ele>337</ele>
        <time>2019-10-13T07:24:35Z</time>
      </trkpt>
      <trkpt lat="45.83295" lon="4.81376">
        <ele>337.9</ele>
        <time>2019-10-13T07:24:39Z</time>
      </trkpt>
      <trkpt lat="45.83292" lon="4.81369">
        <ele>338.6</ele>
        <time>2019-10-13T07:24:42Z</time>
      </trkpt>
      <trkpt lat="45.8328" lon="4.81343">
        <ele>342.4</ele>
        <time>2019-10-13T07:25:00Z</time>
      </trkpt>
      <trkpt lat="45.83274" lon="4.81339">
        <ele>343.7</ele>
        <time>2019-10-13T07:25:05Z</time>
      </trkpt>
      <trkpt lat="45.83266" lon="4.81328">
        <ele>345.7</ele>
        <time>2019-10-13T07:25:16Z</time>
      </trkpt>
      <trkpt lat="45.83266" lon="4.81326">
        <ele>346.1</ele>
        <time>2019-10-13T07:25:17Z</time>
      </trkpt>
      <trkpt lat="45.83264" lon="4.8132">
        <ele>347</ele>
        <time>2019-10-13T07:25:20Z</time>
      </trkpt>
      <trkpt lat="45.83237" lon="4.81232">
        <ele>362.5</ele>
        <time>2019-10-13T07:26:23Z</time>
      </trkpt>
      <trkpt lat="45.83237" lon="4.81229">
        <ele>362.8</ele>
        <time>2019-10-13T07:26:24Z</time>
      </trkpt>
      <trkpt lat="45.83237" lon="4.81218">
        <ele>364.2</ele>
        <time>2019-10-13T07:26:29Z</time>
      </trkpt>
      <trkpt lat="45.83238" lon="4.81214">
        <ele>364.8</ele>
        <time>2019-10-13T07:26:31Z</time>
      </trkpt>
      <trkpt lat="45.83239" lon="4.81202">
        <ele>366.3</ele>
        <time>2019-10-13T07:26:37Z</time>
      </trkpt>
      <trkpt lat="45.83239" lon="4.812">
        <ele>366.5</ele>
        <time>2019-10-13T07:26:38Z</time>
      </trkpt>
      <trkpt lat="45.83239" lon="4.81185">
        <ele>368.4</ele>
        <time>2019-10-13T07:26:45Z</time>
      </trkpt>
      <trkpt lat="45.83239" lon="4.81182">
        <ele>368.8</ele>
        <time>2019-10-13T07:26:46Z</time>
      </trkpt>
      <trkpt lat="45.83237" lon="4.8117">
        <ele>370.5</ele>
        <time>2019-10-13T07:26:51Z</time>
      </trkpt>
      <trkpt lat="45.83235" lon="4.81166">
        <ele>371.2</ele>
        <time>2019-10-13T07:26:53Z</time>
      </trkpt>
      <trkpt lat="45.83234" lon="4.81162">
        <ele>371.8</ele>
        <time>2019-10-13T07:26:55Z</time>
      </trkpt>
      <trkpt lat="45.83231" lon="4.81152">
        <ele>373.1</ele>
        <time>2019-10-13T07:27:00Z</time>
      </trkpt>
      <trkpt lat="45.83234" lon="4.81145">
        <ele>374.1</ele>
        <time>2019-10-13T07:27:04Z</time>
      </trkpt>
      <trkpt lat="45.83236" lon="4.81142">
        <ele>375.2</ele>
        <time>2019-10-13T07:27:07Z</time>
      </trkpt>
      <trkpt lat="45.83241" lon="4.81135">
        <ele>375.8</ele>
        <time>2019-10-13T07:27:11Z</time>
      </trkpt>
      <trkpt lat="45.83244" lon="4.81128">
        <ele>376.4</ele>
        <time>2019-10-13T07:27:14Z</time>
      </trkpt>
      <trkpt lat="45.83245" lon="4.81125">
        <ele>376.6</ele>
        <time>2019-10-13T07:27:15Z</time>
      </trkpt>
      <trkpt lat="45.83246" lon="4.81112">
        <ele>377.5</ele>
        <time>2019-10-13T07:27:21Z</time>
      </trkpt>
      <trkpt lat="45.83239" lon="4.8109">
        <ele>379</ele>
        <time>2019-10-13T07:27:33Z</time>
      </trkpt>
      <trkpt lat="45.83234" lon="4.81085">
        <ele>379.6</ele>
        <time>2019-10-13T07:27:36Z</time>
      </trkpt>
      <trkpt lat="45.8323" lon="4.81083">
        <ele>380.1</ele>
        <time>2019-10-13T07:27:39Z</time>
      </trkpt>
      <trkpt lat="45.83204" lon="4.81074">
        <ele>383.6</ele>
        <time>2019-10-13T07:27:54Z</time>
      </trkpt>
      <trkpt lat="45.83187" lon="4.8107">
        <ele>386.3</ele>
        <time>2019-10-13T07:28:02Z</time>
      </trkpt>
      <trkpt lat="45.83176" lon="4.81066">
        <ele>388.1</ele>
        <time>2019-10-13T07:28:09Z</time>
      </trkpt>
      <trkpt lat="45.83172" lon="4.81064">
        <ele>388.7</ele>
        <time>2019-10-13T07:28:11Z</time>
      </trkpt>
      <trkpt lat="45.83163" lon="4.81061">
        <ele>391.4</ele>
        <time>2019-10-13T07:28:16Z</time>
      </trkpt>
      <trkpt lat="45.83146" lon="4.81006">
        <ele>400.8</ele>
        <time>2019-10-13T07:28:47Z</time>
      </trkpt>
      <trkpt lat="45.83147" lon="4.81005">
        <ele>401</ele>
        <time>2019-10-13T07:28:48Z</time>
      </trkpt>
      <trkpt lat="45.8315" lon="4.80969">
        <ele>403.8</ele>
        <time>2019-10-13T07:29:06Z</time>
      </trkpt>
      <trkpt lat="45.83152" lon="4.80965">
        <ele>403.5</ele>
        <time>2019-10-13T07:29:09Z</time>
      </trkpt>
      <trkpt lat="45.83154" lon="4.80963">
        <ele>403.2</ele>
        <time>2019-10-13T07:29:11Z</time>
      </trkpt>
      <trkpt lat="45.83158" lon="4.8096">
        <ele>402.9</ele>
        <time>2019-10-13T07:29:14Z</time>
      </trkpt>
      <trkpt lat="45.8316" lon="4.80957">
        <ele>402.7</ele>
        <time>2019-10-13T07:29:16Z</time>
      </trkpt>
      <trkpt lat="45.83171" lon="4.80888">
        <ele>400.5</ele>
        <time>2019-10-13T07:30:08Z</time>
      </trkpt>
      <trkpt lat="45.8317" lon="4.80883">
        <ele>400.6</ele>
        <time>2019-10-13T07:30:10Z</time>
      </trkpt>
      <trkpt lat="45.83177" lon="4.80875">
        <ele>401</ele>
        <time>2019-10-13T07:30:18Z</time>
      </trkpt>
      <trkpt lat="45.8318" lon="4.80873">
        <ele>401.3</ele>
        <time>2019-10-13T07:30:20Z</time>
      </trkpt>
      <trkpt lat="45.83183" lon="4.8087">
        <ele>401.6</ele>
        <time>2019-10-13T07:30:22Z</time>
      </trkpt>
      <trkpt lat="45.83187" lon="4.80865">
        <ele>402.1</ele>
        <time>2019-10-13T07:30:27Z</time>
      </trkpt>
      <trkpt lat="45.83254" lon="4.80786">
        <ele>409.4</ele>
        <time>2019-10-13T07:31:44Z</time>
      </trkpt>
      <trkpt lat="45.83259" lon="4.80789">
        <ele>409.8</ele>
        <time>2019-10-13T07:31:47Z</time>
      </trkpt>
      <trkpt lat="45.83262" lon="4.8079">
        <ele>410</ele>
        <time>2019-10-13T07:31:49Z</time>
      </trkpt>
      <trkpt lat="45.83265" lon="4.8079">
        <ele>410.2</ele>
        <time>2019-10-13T07:31:51Z</time>
      </trkpt>
      <trkpt lat="45.83266" lon="4.80788">
        <ele>410.3</ele>
        <time>2019-10-13T07:31:52Z</time>
      </trkpt>
      <trkpt lat="45.83268" lon="4.80787">
        <ele>410.4</ele>
        <time>2019-10-13T07:31:53Z</time>
      </trkpt>
      <trkpt lat="45.83274" lon="4.80786">
        <ele>410.7</ele>
        <time>2019-10-13T07:31:58Z</time>
      </trkpt>
      <trkpt lat="45.83277" lon="4.8079">
        <ele>411</ele>
        <time>2019-10-13T07:32:01Z</time>
      </trkpt>
      <trkpt lat="45.83283" lon="4.808">
        <ele>411.5</ele>
        <time>2019-10-13T07:32:05Z</time>
      </trkpt>
      <trkpt lat="45.83285" lon="4.80804">
        <ele>411.8</ele>
        <time>2019-10-13T07:32:06Z</time>
      </trkpt>
      <trkpt lat="45.83287" lon="4.80812">
        <ele>412.1</ele>
        <time>2019-10-13T07:32:07Z</time>
      </trkpt>
      <trkpt lat="45.8329" lon="4.8083">
        <ele>412.9</ele>
        <time>2019-10-13T07:32:09Z</time>
      </trkpt>
      <trkpt lat="45.83292" lon="4.80846">
        <ele>413.5</ele>
        <time>2019-10-13T07:32:11Z</time>
      </trkpt>
      <trkpt lat="45.83294" lon="4.80849">
        <ele>413.6</ele>
        <time>2019-10-13T07:32:12Z</time>
      </trkpt>
      <trkpt lat="45.83296" lon="4.80848">
        <ele>413.7</ele>
        <time>2019-10-13T07:32:13Z</time>
      </trkpt>
      <trkpt lat="45.83299" lon="4.80846">
        <ele>414.1</ele>
        <time>2019-10-13T07:32:15Z</time>
      </trkpt>
      <trkpt lat="45.83304" lon="4.80842">
        <ele>414.7</ele>
        <time>2019-10-13T07:32:18Z</time>
      </trkpt>
      <trkpt lat="45.83307" lon="4.80839">
        <ele>415</ele>
        <time>2019-10-13T07:32:21Z</time>
      </trkpt>
      <trkpt lat="45.8331" lon="4.80834">
        <ele>415.7</ele>
        <time>2019-10-13T07:32:26Z</time>
      </trkpt>
      <trkpt lat="45.83318" lon="4.80825">
        <ele>417.1</ele>
        <time>2019-10-13T07:32:34Z</time>
      </trkpt>
      <trkpt lat="45.83319" lon="4.80824">
        <ele>417.3</ele>
        <time>2019-10-13T07:32:35Z</time>
      </trkpt>
      <trkpt lat="45.83323" lon="4.80818">
        <ele>418.1</ele>
        <time>2019-10-13T07:32:40Z</time>
      </trkpt>
      <trkpt lat="45.83324" lon="4.80817">
        <ele>418.3</ele>
        <time>2019-10-13T07:32:41Z</time>
      </trkpt>
      <trkpt lat="45.83327" lon="4.80813">
        <ele>418.8</ele>
        <time>2019-10-13T07:32:44Z</time>
      </trkpt>
      <trkpt lat="45.83331" lon="4.8081">
        <ele>419.4</ele>
        <time>2019-10-13T07:32:48Z</time>
      </trkpt>
      <trkpt lat="45.83332" lon="4.80809">
        <ele>419.5</ele>
        <time>2019-10-13T07:32:49Z</time>
      </trkpt>
      <trkpt lat="45.83333" lon="4.80807">
        <ele>419.8</ele>
        <time>2019-10-13T07:32:51Z</time>
      </trkpt>
      <trkpt lat="45.83335" lon="4.80804">
        <ele>420.1</ele>
        <time>2019-10-13T07:32:53Z</time>
      </trkpt>
      <trkpt lat="45.83338" lon="4.80801">
        <ele>420.5</ele>
        <time>2019-10-13T07:32:56Z</time>
      </trkpt>
      <trkpt lat="45.8334" lon="4.80799">
        <ele>420.8</ele>
        <time>2019-10-13T07:32:58Z</time>
      </trkpt>
      <trkpt lat="45.83346" lon="4.80792">
        <ele>421.6</ele>
        <time>2019-10-13T07:33:04Z</time>
      </trkpt>
      <trkpt lat="45.83348" lon="4.8079">
        <ele>421.8</ele>
        <time>2019-10-13T07:33:06Z</time>
      </trkpt>
      <trkpt lat="45.83353" lon="4.80786">
        <ele>422.6</ele>
        <time>2019-10-13T07:33:12Z</time>
      </trkpt>
      <trkpt lat="45.83357" lon="4.80782">
        <ele>423.1</ele>
        <time>2019-10-13T07:33:15Z</time>
      </trkpt>
      <trkpt lat="45.83361" lon="4.80777">
        <ele>423.8</ele>
        <time>2019-10-13T07:33:20Z</time>
      </trkpt>
      <trkpt lat="45.83362" lon="4.80777">
        <ele>424</ele>
        <time>2019-10-13T07:33:21Z</time>
      </trkpt>
      <trkpt lat="45.83371" lon="4.80768">
        <ele>425.3</ele>
        <time>2019-10-13T07:33:29Z</time>
      </trkpt>
      <trkpt lat="45.83372" lon="4.80768">
        <ele>425.5</ele>
        <time>2019-10-13T07:33:30Z</time>
      </trkpt>
      <trkpt lat="45.83381" lon="4.80757">
        <ele>426.8</ele>
        <time>2019-10-13T07:33:38Z</time>
      </trkpt>
      <trkpt lat="45.83387" lon="4.80752">
        <ele>427.5</ele>
        <time>2019-10-13T07:33:43Z</time>
      </trkpt>
      <trkpt lat="45.83391" lon="4.80749">
        <ele>428</ele>
        <time>2019-10-13T07:33:46Z</time>
      </trkpt>
      <trkpt lat="45.83395" lon="4.80745">
        <ele>428.4</ele>
        <time>2019-10-13T07:33:49Z</time>
      </trkpt>
      <trkpt lat="45.83398" lon="4.80742">
        <ele>428.7</ele>
        <time>2019-10-13T07:33:52Z</time>
      </trkpt>
      <trkpt lat="45.83408" lon="4.80729">
        <ele>429.8</ele>
        <time>2019-10-13T07:34:01Z</time>
      </trkpt>
      <trkpt lat="45.83412" lon="4.80719">
        <ele>431</ele>
        <time>2019-10-13T07:34:18Z</time>
      </trkpt>
      <trkpt lat="45.83414" lon="4.80713">
        <ele>431.4</ele>
        <time>2019-10-13T07:34:21Z</time>
      </trkpt>
      <trkpt lat="45.8341" lon="4.80706">
        <ele>432.1</ele>
        <time>2019-10-13T07:34:35Z</time>
      </trkpt>
      <trkpt lat="45.83409" lon="4.80703">
        <ele>432.4</ele>
        <time>2019-10-13T07:34:36Z</time>
      </trkpt>
      <trkpt lat="45.83396" lon="4.80677">
        <ele>434.8</ele>
        <time>2019-10-13T07:34:44Z</time>
      </trkpt>
      <trkpt lat="45.83386" lon="4.80652">
        <ele>436.8</ele>
        <time>2019-10-13T07:34:51Z</time>
      </trkpt>
      <trkpt lat="45.83385" lon="4.80647">
        <ele>437.2</ele>
        <time>2019-10-13T07:34:52Z</time>
      </trkpt>
      <trkpt lat="45.83381" lon="4.80607">
        <ele>439.8</ele>
        <time>2019-10-13T07:34:59Z</time>
      </trkpt>
      <trkpt lat="45.83376" lon="4.80575">
        <ele>441.4</ele>
        <time>2019-10-13T07:35:06Z</time>
      </trkpt>
      <trkpt lat="45.83374" lon="4.80563">
        <ele>442.4</ele>
        <time>2019-10-13T07:35:11Z</time>
      </trkpt>
      <trkpt lat="45.83375" lon="4.80561">
        <ele>442.6</ele>
        <time>2019-10-13T07:35:13Z</time>
      </trkpt>
      <trkpt lat="45.83421" lon="4.80546">
        <ele>449.1</ele>
        <time>2019-10-13T07:35:46Z</time>
      </trkpt>
      <trkpt lat="45.83427" lon="4.80542">
        <ele>449.8</ele>
        <time>2019-10-13T07:35:51Z</time>
      </trkpt>
      <trkpt lat="45.83429" lon="4.8054">
        <ele>450</ele>
        <time>2019-10-13T07:35:53Z</time>
      </trkpt>
      <trkpt lat="45.83431" lon="4.80537">
        <ele>450.2</ele>
        <time>2019-10-13T07:35:55Z</time>
      </trkpt>
      <trkpt lat="45.83435" lon="4.80532">
        <ele>450.6</ele>
        <time>2019-10-13T07:35:59Z</time>
      </trkpt>
      <trkpt lat="45.8344" lon="4.80528">
        <ele>451.1</ele>
        <time>2019-10-13T07:36:03Z</time>
      </trkpt>
      <trkpt lat="45.83446" lon="4.80525">
        <ele>451.7</ele>
        <time>2019-10-13T07:36:08Z</time>
      </trkpt>
      <trkpt lat="45.83485" lon="4.80515">
        <ele>455.4</ele>
        <time>2019-10-13T07:36:38Z</time>
      </trkpt>
      <trkpt lat="45.83489" lon="4.8051">
        <ele>455.9</ele>
        <time>2019-10-13T07:36:41Z</time>
      </trkpt>
      <trkpt lat="45.83493" lon="4.80507">
        <ele>456.3</ele>
        <time>2019-10-13T07:36:44Z</time>
      </trkpt>
      <trkpt lat="45.83494" lon="4.80506">
        <ele>456.5</ele>
        <time>2019-10-13T07:36:45Z</time>
      </trkpt>
      <trkpt lat="45.835" lon="4.80501">
        <ele>457.1</ele>
        <time>2019-10-13T07:36:49Z</time>
      </trkpt>
      <trkpt lat="45.83503" lon="4.80497">
        <ele>457.5</ele>
        <time>2019-10-13T07:36:51Z</time>
      </trkpt>
      <trkpt lat="45.83546" lon="4.80465">
        <ele>461.9</ele>
        <time>2019-10-13T07:37:23Z</time>
      </trkpt>
      <trkpt lat="45.83548" lon="4.80463">
        <ele>462</ele>
        <time>2019-10-13T07:37:24Z</time>
      </trkpt>
      <trkpt lat="45.83549" lon="4.80462">
        <ele>462.2</ele>
        <time>2019-10-13T07:37:25Z</time>
      </trkpt>
      <trkpt lat="45.83604" lon="4.80421">
        <ele>468.1</ele>
        <time>2019-10-13T07:38:08Z</time>
      </trkpt>
      <trkpt lat="45.83603" lon="4.80415">
        <ele>468.7</ele>
        <time>2019-10-13T07:38:10Z</time>
      </trkpt>
      <trkpt lat="45.83602" lon="4.80406">
        <ele>469.7</ele>
        <time>2019-10-13T07:38:13Z</time>
      </trkpt>
      <trkpt lat="45.83599" lon="4.80395">
        <ele>470.8</ele>
        <time>2019-10-13T07:38:17Z</time>
      </trkpt>
      <trkpt lat="45.83598" lon="4.80392">
        <ele>471</ele>
        <time>2019-10-13T07:38:18Z</time>
      </trkpt>
      <trkpt lat="45.83591" lon="4.8038">
        <ele>472</ele>
        <time>2019-10-13T07:38:23Z</time>
      </trkpt>
      <trkpt lat="45.83587" lon="4.80378">
        <ele>472.4</ele>
        <time>2019-10-13T07:38:25Z</time>
      </trkpt>
      <trkpt lat="45.83577" lon="4.80377">
        <ele>473.6</ele>
        <time>2019-10-13T07:38:29Z</time>
      </trkpt>
      <trkpt lat="45.83567" lon="4.80368">
        <ele>475.4</ele>
        <time>2019-10-13T07:38:35Z</time>
      </trkpt>
      <trkpt lat="45.83563" lon="4.80364">
        <ele>475.9</ele>
        <time>2019-10-13T07:38:38Z</time>
      </trkpt>
      <trkpt lat="45.83556" lon="4.80356">
        <ele>476.8</ele>
        <time>2019-10-13T07:38:42Z</time>
      </trkpt>
      <trkpt lat="45.83553" lon="4.80349">
        <ele>477.2</ele>
        <time>2019-10-13T07:38:45Z</time>
      </trkpt>
      <trkpt lat="45.83549" lon="4.80339">
        <ele>477.8</ele>
        <time>2019-10-13T07:38:49Z</time>
      </trkpt>
      <trkpt lat="45.83548" lon="4.80337">
        <ele>477.9</ele>
        <time>2019-10-13T07:38:50Z</time>
      </trkpt>
      <trkpt lat="45.83544" lon="4.8033">
        <ele>478.2</ele>
        <time>2019-10-13T07:38:53Z</time>
      </trkpt>
      <trkpt lat="45.83542" lon="4.80327">
        <ele>478.3</ele>
        <time>2019-10-13T07:38:54Z</time>
      </trkpt>
      <trkpt lat="45.83541" lon="4.80325">
        <ele>478.4</ele>
        <time>2019-10-13T07:38:55Z</time>
      </trkpt>
      <trkpt lat="45.83536" lon="4.80315">
        <ele>478.7</ele>
        <time>2019-10-13T07:38:59Z</time>
      </trkpt>
      <trkpt lat="45.83532" lon="4.80307">
        <ele>479</ele>
        <time>2019-10-13T07:39:02Z</time>
      </trkpt>
      <trkpt lat="45.83522" lon="4.80288">
        <ele>479.7</ele>
        <time>2019-10-13T07:39:08Z</time>
      </trkpt>
      <trkpt lat="45.83511" lon="4.80269">
        <ele>480.4</ele>
        <time>2019-10-13T07:39:16Z</time>
      </trkpt>
      <trkpt lat="45.83508" lon="4.80257">
        <ele>481</ele>
        <time>2019-10-13T07:39:20Z</time>
      </trkpt>
      <trkpt lat="45.83507" lon="4.80246">
        <ele>481.6</ele>
        <time>2019-10-13T07:39:23Z</time>
      </trkpt>
      <trkpt lat="45.83505" lon="4.80237">
        <ele>482.3</ele>
        <time>2019-10-13T07:39:26Z</time>
      </trkpt>
      <trkpt lat="45.83505" lon="4.80228">
        <ele>483.1</ele>
        <time>2019-10-13T07:39:29Z</time>
      </trkpt>
      <trkpt lat="45.83505" lon="4.80224">
        <ele>483.4</ele>
        <time>2019-10-13T07:39:30Z</time>
      </trkpt>
      <trkpt lat="45.83502" lon="4.80208">
        <ele>485.2</ele>
        <time>2019-10-13T07:39:36Z</time>
      </trkpt>
      <trkpt lat="45.83503" lon="4.80197">
        <ele>486.8</ele>
        <time>2019-10-13T07:39:41Z</time>
      </trkpt>
      <trkpt lat="45.83504" lon="4.80194">
        <ele>487.1</ele>
        <time>2019-10-13T07:39:42Z</time>
      </trkpt>
      <trkpt lat="45.83506" lon="4.80188">
        <ele>487.9</ele>
        <time>2019-10-13T07:39:45Z</time>
      </trkpt>
      <trkpt lat="45.8351" lon="4.8018">
        <ele>489</ele>
        <time>2019-10-13T07:39:49Z</time>
      </trkpt>
      <trkpt lat="45.83513" lon="4.80173">
        <ele>489.5</ele>
        <time>2019-10-13T07:39:52Z</time>
      </trkpt>
      <trkpt lat="45.83517" lon="4.80162">
        <ele>490.2</ele>
        <time>2019-10-13T07:39:57Z</time>
      </trkpt>
      <trkpt lat="45.83518" lon="4.80161">
        <ele>490.4</ele>
        <time>2019-10-13T07:39:58Z</time>
      </trkpt>
      <trkpt lat="45.8352" lon="4.80155">
        <ele>490.7</ele>
        <time>2019-10-13T07:40:01Z</time>
      </trkpt>
      <trkpt lat="45.83524" lon="4.80145">
        <ele>491.6</ele>
        <time>2019-10-13T07:40:05Z</time>
      </trkpt>
      <trkpt lat="45.83526" lon="4.80144">
        <ele>491.8</ele>
        <time>2019-10-13T07:40:06Z</time>
      </trkpt>
      <trkpt lat="45.83527" lon="4.80142">
        <ele>491.9</ele>
        <time>2019-10-13T07:40:07Z</time>
      </trkpt>
      <trkpt lat="45.83532" lon="4.80137">
        <ele>492.5</ele>
        <time>2019-10-13T07:40:11Z</time>
      </trkpt>
      <trkpt lat="45.83543" lon="4.80121">
        <ele>493.9</ele>
        <time>2019-10-13T07:40:20Z</time>
      </trkpt>
      <trkpt lat="45.83549" lon="4.80109">
        <ele>495</ele>
        <time>2019-10-13T07:40:26Z</time>
      </trkpt>
      <trkpt lat="45.83551" lon="4.80104">
        <ele>495.4</ele>
        <time>2019-10-13T07:40:29Z</time>
      </trkpt>
      <trkpt lat="45.83553" lon="4.801">
        <ele>495.8</ele>
        <time>2019-10-13T07:40:32Z</time>
      </trkpt>
      <trkpt lat="45.83558" lon="4.80089">
        <ele>496.6</ele>
        <time>2019-10-13T07:40:38Z</time>
      </trkpt>
      <trkpt lat="45.83563" lon="4.80085">
        <ele>497.1</ele>
        <time>2019-10-13T07:40:41Z</time>
      </trkpt>
      <trkpt lat="45.83567" lon="4.8008">
        <ele>497.5</ele>
        <time>2019-10-13T07:40:44Z</time>
      </trkpt>
      <trkpt lat="45.8357" lon="4.80077">
        <ele>497.8</ele>
        <time>2019-10-13T07:40:46Z</time>
      </trkpt>
      <trkpt lat="45.83573" lon="4.80072">
        <ele>498.2</ele>
        <time>2019-10-13T07:40:49Z</time>
      </trkpt>
      <trkpt lat="45.83578" lon="4.80065">
        <ele>498.9</ele>
        <time>2019-10-13T07:40:53Z</time>
      </trkpt>
      <trkpt lat="45.83579" lon="4.80064">
        <ele>499.1</ele>
        <time>2019-10-13T07:40:54Z</time>
      </trkpt>
      <trkpt lat="45.83589" lon="4.80053">
        <ele>500.4</ele>
        <time>2019-10-13T07:41:01Z</time>
      </trkpt>
      <trkpt lat="45.83592" lon="4.80049">
        <ele>500.7</ele>
        <time>2019-10-13T07:41:03Z</time>
      </trkpt>
      <trkpt lat="45.83598" lon="4.80041">
        <ele>501.5</ele>
        <time>2019-10-13T07:41:08Z</time>
      </trkpt>
      <trkpt lat="45.836" lon="4.80038">
        <ele>501.9</ele>
        <time>2019-10-13T07:41:10Z</time>
      </trkpt>
      <trkpt lat="45.83604" lon="4.8003">
        <ele>502.6</ele>
        <time>2019-10-13T07:41:14Z</time>
      </trkpt>
      <trkpt lat="45.83607" lon="4.80026">
        <ele>502.9</ele>
        <time>2019-10-13T07:41:16Z</time>
      </trkpt>
      <trkpt lat="45.83608" lon="4.80025">
        <ele>503</ele>
        <time>2019-10-13T07:41:17Z</time>
      </trkpt>
      <trkpt lat="45.83613" lon="4.80017">
        <ele>504</ele>
        <time>2019-10-13T07:41:22Z</time>
      </trkpt>
      <trkpt lat="45.83614" lon="4.80016">
        <ele>504.2</ele>
        <time>2019-10-13T07:41:23Z</time>
      </trkpt>
      <trkpt lat="45.83617" lon="4.80013">
        <ele>504.5</ele>
        <time>2019-10-13T07:41:25Z</time>
      </trkpt>
      <trkpt lat="45.83621" lon="4.80009">
        <ele>505</ele>
        <time>2019-10-13T07:41:28Z</time>
      </trkpt>
      <trkpt lat="45.83625" lon="4.80008">
        <ele>505.3</ele>
        <time>2019-10-13T07:41:30Z</time>
      </trkpt>
      <trkpt lat="45.83628" lon="4.80006">
        <ele>505.7</ele>
        <time>2019-10-13T07:41:32Z</time>
      </trkpt>
      <trkpt lat="45.83636" lon="4.80001">
        <ele>506.6</ele>
        <time>2019-10-13T07:41:36Z</time>
      </trkpt>
      <trkpt lat="45.83637" lon="4.8">
        <ele>506.7</ele>
        <time>2019-10-13T07:41:37Z</time>
      </trkpt>
      <trkpt lat="45.83639" lon="4.79999">
        <ele>507</ele>
        <time>2019-10-13T07:41:39Z</time>
      </trkpt>
      <trkpt lat="45.83645" lon="4.79995">
        <ele>507.7</ele>
        <time>2019-10-13T07:41:43Z</time>
      </trkpt>
      <trkpt lat="45.83649" lon="4.79992">
        <ele>508.2</ele>
        <time>2019-10-13T07:41:46Z</time>
      </trkpt>
      <trkpt lat="45.83652" lon="4.7999">
        <ele>508.5</ele>
        <time>2019-10-13T07:41:48Z</time>
      </trkpt>
      <trkpt lat="45.83659" lon="4.79984">
        <ele>509.2</ele>
        <time>2019-10-13T07:41:52Z</time>
      </trkpt>
      <trkpt lat="45.83689" lon="4.79965">
        <ele>513.5</ele>
        <time>2019-10-13T07:42:12Z</time>
      </trkpt>
      <trkpt lat="45.83692" lon="4.79963">
        <ele>513.9</ele>
        <time>2019-10-13T07:42:14Z</time>
      </trkpt>
      <trkpt lat="45.83701" lon="4.79957">
        <ele>514.9</ele>
        <time>2019-10-13T07:42:21Z</time>
      </trkpt>
      <trkpt lat="45.83742" lon="4.79935">
        <ele>518.7</ele>
        <time>2019-10-13T07:42:48Z</time>
      </trkpt>
      <trkpt lat="45.83747" lon="4.79931">
        <ele>519.4</ele>
        <time>2019-10-13T07:42:51Z</time>
      </trkpt>
      <trkpt lat="45.83748" lon="4.7993">
        <ele>519.6</ele>
        <time>2019-10-13T07:42:52Z</time>
      </trkpt>
      <trkpt lat="45.83752" lon="4.79928">
        <ele>520</ele>
        <time>2019-10-13T07:42:54Z</time>
      </trkpt>
      <trkpt lat="45.83758" lon="4.79919">
        <ele>520.7</ele>
        <time>2019-10-13T07:42:58Z</time>
      </trkpt>
      <trkpt lat="45.8376" lon="4.79918">
        <ele>520.9</ele>
        <time>2019-10-13T07:43:00Z</time>
      </trkpt>
      <trkpt lat="45.83762" lon="4.79918">
        <ele>521</ele>
        <time>2019-10-13T07:43:01Z</time>
      </trkpt>
      <trkpt lat="45.83768" lon="4.79919">
        <ele>522.6</ele>
        <time>2019-10-13T07:43:12Z</time>
      </trkpt>
      <trkpt lat="45.8377" lon="4.79919">
        <ele>522.7</ele>
        <time>2019-10-13T07:43:13Z</time>
      </trkpt>
      <trkpt lat="45.83782" lon="4.79915">
        <ele>524.5</ele>
        <time>2019-10-13T07:43:19Z</time>
      </trkpt>
      <trkpt lat="45.83791" lon="4.79912">
        <ele>526.2</ele>
        <time>2019-10-13T07:43:24Z</time>
      </trkpt>
      <trkpt lat="45.83794" lon="4.79912">
        <ele>526.8</ele>
        <time>2019-10-13T07:43:26Z</time>
      </trkpt>
      <trkpt lat="45.83801" lon="4.7991">
        <ele>528.1</ele>
        <time>2019-10-13T07:43:30Z</time>
      </trkpt>
      <trkpt lat="45.83803" lon="4.79909">
        <ele>528.5</ele>
        <time>2019-10-13T07:43:31Z</time>
      </trkpt>
      <trkpt lat="45.83808" lon="4.79907">
        <ele>529.8</ele>
        <time>2019-10-13T07:43:34Z</time>
      </trkpt>
      <trkpt lat="45.83816" lon="4.79904">
        <ele>532</ele>
        <time>2019-10-13T07:43:39Z</time>
      </trkpt>
      <trkpt lat="45.83819" lon="4.79902">
        <ele>532.9</ele>
        <time>2019-10-13T07:43:41Z</time>
      </trkpt>
      <trkpt lat="45.83827" lon="4.79898">
        <ele>535</ele>
        <time>2019-10-13T07:43:46Z</time>
      </trkpt>
      <trkpt lat="45.83839" lon="4.79896">
        <ele>537.2</ele>
        <time>2019-10-13T07:43:51Z</time>
      </trkpt>
      <trkpt lat="45.83848" lon="4.79894">
        <ele>538.9</ele>
        <time>2019-10-13T07:43:55Z</time>
      </trkpt>
      <trkpt lat="45.83854" lon="4.79893">
        <ele>539.9</ele>
        <time>2019-10-13T07:43:58Z</time>
      </trkpt>
      <trkpt lat="45.83862" lon="4.79894">
        <ele>541.3</ele>
        <time>2019-10-13T07:44:03Z</time>
      </trkpt>
      <trkpt lat="45.83864" lon="4.79894">
        <ele>541.6</ele>
        <time>2019-10-13T07:44:04Z</time>
      </trkpt>
      <trkpt lat="45.83869" lon="4.79894">
        <ele>542.7</ele>
        <time>2019-10-13T07:44:07Z</time>
      </trkpt>
      <trkpt lat="45.83876" lon="4.79895">
        <ele>544.1</ele>
        <time>2019-10-13T07:44:11Z</time>
      </trkpt>
      <trkpt lat="45.83878" lon="4.79895">
        <ele>544.3</ele>
        <time>2019-10-13T07:44:12Z</time>
      </trkpt>
      <trkpt lat="45.83886" lon="4.79896">
        <ele>545.6</ele>
        <time>2019-10-13T07:44:17Z</time>
      </trkpt>
      <trkpt lat="45.83889" lon="4.79897">
        <ele>546</ele>
        <time>2019-10-13T07:44:19Z</time>
      </trkpt>
      <trkpt lat="45.83891" lon="4.79897">
        <ele>546.1</ele>
        <time>2019-10-13T07:44:20Z</time>
      </trkpt>
      <trkpt lat="45.83892" lon="4.79897">
        <ele>546.3</ele>
        <time>2019-10-13T07:44:21Z</time>
      </trkpt>
      <trkpt lat="45.83895" lon="4.79899">
        <ele>546.6</ele>
        <time>2019-10-13T07:44:23Z</time>
      </trkpt>
      <trkpt lat="45.83899" lon="4.79901">
        <ele>547</ele>
        <time>2019-10-13T07:44:26Z</time>
      </trkpt>
      <trkpt lat="45.83902" lon="4.79903">
        <ele>547.3</ele>
        <time>2019-10-13T07:44:28Z</time>
      </trkpt>
      <trkpt lat="45.83905" lon="4.79905">
        <ele>547.7</ele>
        <time>2019-10-13T07:44:30Z</time>
      </trkpt>
      <trkpt lat="45.83912" lon="4.7991">
        <ele>548.3</ele>
        <time>2019-10-13T07:44:34Z</time>
      </trkpt>
      <trkpt lat="45.83913" lon="4.79912">
        <ele>548.4</ele>
        <time>2019-10-13T07:44:35Z</time>
      </trkpt>
      <trkpt lat="45.83916" lon="4.79915">
        <ele>548.6</ele>
        <time>2019-10-13T07:44:37Z</time>
      </trkpt>
      <trkpt lat="45.83921" lon="4.7992">
        <ele>549</ele>
        <time>2019-10-13T07:44:40Z</time>
      </trkpt>
      <trkpt lat="45.83928" lon="4.79926">
        <ele>549.4</ele>
        <time>2019-10-13T07:44:44Z</time>
      </trkpt>
      <trkpt lat="45.83938" lon="4.79939">
        <ele>550.2</ele>
        <time>2019-10-13T07:44:51Z</time>
      </trkpt>
      <trkpt lat="45.8395" lon="4.79954">
        <ele>551.1</ele>
        <time>2019-10-13T07:45:00Z</time>
      </trkpt>
      <trkpt lat="45.83958" lon="4.79969">
        <ele>551.9</ele>
        <time>2019-10-13T07:45:07Z</time>
      </trkpt>
      <trkpt lat="45.8396" lon="4.79975">
        <ele>552.2</ele>
        <time>2019-10-13T07:45:10Z</time>
      </trkpt>
      <trkpt lat="45.83964" lon="4.79984">
        <ele>552.6</ele>
        <time>2019-10-13T07:45:14Z</time>
      </trkpt>
      <trkpt lat="45.83965" lon="4.79988">
        <ele>552.7</ele>
        <time>2019-10-13T07:45:16Z</time>
      </trkpt>
      <trkpt lat="45.83969" lon="4.80005">
        <ele>553.3</ele>
        <time>2019-10-13T07:45:23Z</time>
      </trkpt>
      <trkpt lat="45.8397" lon="4.80016">
        <ele>553.7</ele>
        <time>2019-10-13T07:45:27Z</time>
      </trkpt>
      <trkpt lat="45.83971" lon="4.80022">
        <ele>553.9</ele>
        <time>2019-10-13T07:45:29Z</time>
      </trkpt>
      <trkpt lat="45.83978" lon="4.80044">
        <ele>554.5</ele>
        <time>2019-10-13T07:45:36Z</time>
      </trkpt>
      <trkpt lat="45.83986" lon="4.80062">
        <ele>555</ele>
        <time>2019-10-13T07:45:43Z</time>
      </trkpt>
      <trkpt lat="45.83989" lon="4.80067">
        <ele>555.2</ele>
        <time>2019-10-13T07:45:45Z</time>
      </trkpt>
      <trkpt lat="45.84001" lon="4.80078">
        <ele>556.8</ele>
        <time>2019-10-13T07:45:51Z</time>
      </trkpt>
      <trkpt lat="45.84009" lon="4.80082">
        <ele>557.4</ele>
        <time>2019-10-13T07:45:55Z</time>
      </trkpt>
      <trkpt lat="45.84019" lon="4.80086">
        <ele>558</ele>
        <time>2019-10-13T07:46:00Z</time>
      </trkpt>
      <trkpt lat="45.84031" lon="4.80086">
        <ele>558.6</ele>
        <time>2019-10-13T07:46:06Z</time>
      </trkpt>
      <trkpt lat="45.84037" lon="4.80086">
        <ele>558.9</ele>
        <time>2019-10-13T07:46:09Z</time>
      </trkpt>
      <trkpt lat="45.84047" lon="4.80084">
        <ele>559.3</ele>
        <time>2019-10-13T07:46:13Z</time>
      </trkpt>
      <trkpt lat="45.84056" lon="4.80082">
        <ele>559.7</ele>
        <time>2019-10-13T07:46:18Z</time>
      </trkpt>
      <trkpt lat="45.84058" lon="4.80082">
        <ele>559.8</ele>
        <time>2019-10-13T07:46:19Z</time>
      </trkpt>
      <trkpt lat="45.84065" lon="4.80079">
        <ele>560.1</ele>
        <time>2019-10-13T07:46:22Z</time>
      </trkpt>
      <trkpt lat="45.8407" lon="4.80077">
        <ele>560.3</ele>
        <time>2019-10-13T07:46:25Z</time>
      </trkpt>
      <trkpt lat="45.84072" lon="4.80077">
        <ele>560.3</ele>
        <time>2019-10-13T07:46:26Z</time>
      </trkpt>
      <trkpt lat="45.84076" lon="4.80075">
        <ele>560.4</ele>
        <time>2019-10-13T07:46:29Z</time>
      </trkpt>
      <trkpt lat="45.8408" lon="4.80075">
        <ele>560.6</ele>
        <time>2019-10-13T07:46:32Z</time>
      </trkpt>
      <trkpt lat="45.84087" lon="4.80076">
        <ele>560.6</ele>
        <time>2019-10-13T07:46:43Z</time>
      </trkpt>
      <trkpt lat="45.84089" lon="4.80077">
        <ele>560.6</ele>
        <time>2019-10-13T07:46:44Z</time>
      </trkpt>
      <trkpt lat="45.84092" lon="4.80078">
        <ele>560.6</ele>
        <time>2019-10-13T07:46:45Z</time>
      </trkpt>
      <trkpt lat="45.84111" lon="4.80077">
        <ele>561</ele>
        <time>2019-10-13T07:46:51Z</time>
      </trkpt>
      <trkpt lat="45.8414" lon="4.80078">
        <ele>561.4</ele>
        <time>2019-10-13T07:46:59Z</time>
      </trkpt>
      <trkpt lat="45.84162" lon="4.80081">
        <ele>561.3</ele>
        <time>2019-10-13T07:47:05Z</time>
      </trkpt>
      <trkpt lat="45.84196" lon="4.80086">
        <ele>561.7</ele>
        <time>2019-10-13T07:47:13Z</time>
      </trkpt>
      <trkpt lat="45.84209" lon="4.80074">
        <ele>563.7</ele>
        <time>2019-10-13T07:47:17Z</time>
      </trkpt>
      <trkpt lat="45.84212" lon="4.80069">
        <ele>564.2</ele>
        <time>2019-10-13T07:47:19Z</time>
      </trkpt>
      <trkpt lat="45.84213" lon="4.80066">
        <ele>564.6</ele>
        <time>2019-10-13T07:47:21Z</time>
      </trkpt>
      <trkpt lat="45.8422" lon="4.80048">
        <ele>566.7</ele>
        <time>2019-10-13T07:47:29Z</time>
      </trkpt>
      <trkpt lat="45.84224" lon="4.8004">
        <ele>568.3</ele>
        <time>2019-10-13T07:47:33Z</time>
      </trkpt>
      <trkpt lat="45.84227" lon="4.80035">
        <ele>569.4</ele>
        <time>2019-10-13T07:47:36Z</time>
      </trkpt>
      <trkpt lat="45.84228" lon="4.80033">
        <ele>569.8</ele>
        <time>2019-10-13T07:47:37Z</time>
      </trkpt>
      <trkpt lat="45.84231" lon="4.80026">
        <ele>571</ele>
        <time>2019-10-13T07:47:41Z</time>
      </trkpt>
      <trkpt lat="45.84233" lon="4.8002">
        <ele>571.7</ele>
        <time>2019-10-13T07:47:44Z</time>
      </trkpt>
      <trkpt lat="45.84237" lon="4.80014">
        <ele>572.7</ele>
        <time>2019-10-13T07:47:48Z</time>
      </trkpt>
      <trkpt lat="45.84239" lon="4.80007">
        <ele>573.5</ele>
        <time>2019-10-13T07:47:52Z</time>
      </trkpt>
      <trkpt lat="45.8424" lon="4.80001">
        <ele>574.1</ele>
        <time>2019-10-13T07:47:55Z</time>
      </trkpt>
      <trkpt lat="45.84243" lon="4.79995">
        <ele>575</ele>
        <time>2019-10-13T07:47:59Z</time>
      </trkpt>
      <trkpt lat="45.84244" lon="4.7999">
        <ele>575.5</ele>
        <time>2019-10-13T07:48:02Z</time>
      </trkpt>
      <trkpt lat="45.84244" lon="4.79988">
        <ele>575.7</ele>
        <time>2019-10-13T07:48:03Z</time>
      </trkpt>
      <trkpt lat="45.84245" lon="4.79983">
        <ele>576.4</ele>
        <time>2019-10-13T07:48:06Z</time>
      </trkpt>
      <trkpt lat="45.84246" lon="4.79974">
        <ele>577.5</ele>
        <time>2019-10-13T07:48:11Z</time>
      </trkpt>
      <trkpt lat="45.84247" lon="4.79972">
        <ele>577.7</ele>
        <time>2019-10-13T07:48:12Z</time>
      </trkpt>
      <trkpt lat="45.84247" lon="4.79963">
        <ele>578.3</ele>
        <time>2019-10-13T07:48:17Z</time>
      </trkpt>
      <trkpt lat="45.84247" lon="4.7996">
        <ele>578.6</ele>
        <time>2019-10-13T07:48:19Z</time>
      </trkpt>
      <trkpt lat="45.84247" lon="4.79957">
        <ele>578.8</ele>
        <time>2019-10-13T07:48:21Z</time>
      </trkpt>
      <trkpt lat="45.84247" lon="4.79955">
        <ele>579</ele>
        <time>2019-10-13T07:48:22Z</time>
      </trkpt>
      <trkpt lat="45.84247" lon="4.79944">
        <ele>579.8</ele>
        <time>2019-10-13T07:48:28Z</time>
      </trkpt>
      <trkpt lat="45.84248" lon="4.7994">
        <ele>580.1</ele>
        <time>2019-10-13T07:48:30Z</time>
      </trkpt>
      <trkpt lat="45.84249" lon="4.7993">
        <ele>580.9</ele>
        <time>2019-10-13T07:48:35Z</time>
      </trkpt>
      <trkpt lat="45.84251" lon="4.79921">
        <ele>581.6</ele>
        <time>2019-10-13T07:48:40Z</time>
      </trkpt>
      <trkpt lat="45.84251" lon="4.79919">
        <ele>581.8</ele>
        <time>2019-10-13T07:48:41Z</time>
      </trkpt>
      <trkpt lat="45.8425" lon="4.79907">
        <ele>583.1</ele>
        <time>2019-10-13T07:48:47Z</time>
      </trkpt>
      <trkpt lat="45.8425" lon="4.79901">
        <ele>583.6</ele>
        <time>2019-10-13T07:48:50Z</time>
      </trkpt>
      <trkpt lat="45.84248" lon="4.79893">
        <ele>584.4</ele>
        <time>2019-10-13T07:48:54Z</time>
      </trkpt>
      <trkpt lat="45.84246" lon="4.79885">
        <ele>585.2</ele>
        <time>2019-10-13T07:48:58Z</time>
      </trkpt>
      <trkpt lat="45.84245" lon="4.79882">
        <ele>585.6</ele>
        <time>2019-10-13T07:49:00Z</time>
      </trkpt>
      <trkpt lat="45.8424" lon="4.79871">
        <ele>587</ele>
        <time>2019-10-13T07:49:06Z</time>
      </trkpt>
      <trkpt lat="45.84235" lon="4.79863">
        <ele>587.7</ele>
        <time>2019-10-13T07:49:11Z</time>
      </trkpt>
      <trkpt lat="45.84234" lon="4.79861">
        <ele>587.8</ele>
        <time>2019-10-13T07:49:12Z</time>
      </trkpt>
      <trkpt lat="45.84231" lon="4.79853">
        <ele>588.3</ele>
        <time>2019-10-13T07:49:16Z</time>
      </trkpt>
      <trkpt lat="45.8423" lon="4.79849">
        <ele>588.4</ele>
        <time>2019-10-13T07:49:18Z</time>
      </trkpt>
      <trkpt lat="45.84229" lon="4.7984">
        <ele>588.6</ele>
        <time>2019-10-13T07:49:22Z</time>
      </trkpt>
      <trkpt lat="45.84229" lon="4.7984">
        <ele>588.6</ele>
        <time>2019-10-13T07:49:23Z</time>
      </trkpt>
      <trkpt lat="45.8423" lon="4.79836">
        <ele>588.7</ele>
        <time>2019-10-13T07:49:25Z</time>
      </trkpt>
      <trkpt lat="45.8423" lon="4.79834">
        <ele>588.8</ele>
        <time>2019-10-13T07:49:26Z</time>
      </trkpt>
      <trkpt lat="45.84228" lon="4.7983">
        <ele>588.9</ele>
        <time>2019-10-13T07:49:28Z</time>
      </trkpt>
      <trkpt lat="45.84227" lon="4.79827">
        <ele>589</ele>
        <time>2019-10-13T07:49:30Z</time>
      </trkpt>
      <trkpt lat="45.84225" lon="4.79815">
        <ele>589.1</ele>
        <time>2019-10-13T07:49:36Z</time>
      </trkpt>
      <trkpt lat="45.84224" lon="4.79811">
        <ele>589.2</ele>
        <time>2019-10-13T07:49:38Z</time>
      </trkpt>
      <trkpt lat="45.84219" lon="4.79804">
        <ele>589.2</ele>
        <time>2019-10-13T07:49:44Z</time>
      </trkpt>
      <trkpt lat="45.84216" lon="4.79801">
        <ele>589.2</ele>
        <time>2019-10-13T07:49:56Z</time>
      </trkpt>
      <trkpt lat="45.84214" lon="4.79798">
        <ele>589.2</ele>
        <time>2019-10-13T07:49:58Z</time>
      </trkpt>
      <trkpt lat="45.84201" lon="4.79791">
        <ele>592.1</ele>
        <time>2019-10-13T07:50:07Z</time>
      </trkpt>
      <trkpt lat="45.84199" lon="4.7979">
        <ele>592.3</ele>
        <time>2019-10-13T07:50:08Z</time>
      </trkpt>
      <trkpt lat="45.8419" lon="4.79786">
        <ele>593.5</ele>
        <time>2019-10-13T07:50:14Z</time>
      </trkpt>
      <trkpt lat="45.84179" lon="4.79782">
        <ele>594.7</ele>
        <time>2019-10-13T07:50:21Z</time>
      </trkpt>
      <trkpt lat="45.84171" lon="4.79779">
        <ele>595.7</ele>
        <time>2019-10-13T07:50:27Z</time>
      </trkpt>
      <trkpt lat="45.84161" lon="4.79776">
        <ele>595.1</ele>
        <time>2019-10-13T07:50:34Z</time>
      </trkpt>
      <trkpt lat="45.84156" lon="4.79772">
        <ele>594.7</ele>
        <time>2019-10-13T07:50:38Z</time>
      </trkpt>
      <trkpt lat="45.84155" lon="4.7977">
        <ele>594.6</ele>
        <time>2019-10-13T07:50:40Z</time>
      </trkpt>
      <trkpt lat="45.84159" lon="4.79772">
        <ele>594.3</ele>
        <time>2019-10-13T07:54:19Z</time>
      </trkpt>
      <trkpt lat="45.84161" lon="4.79773">
        <ele>594.2</ele>
        <time>2019-10-13T07:54:20Z</time>
      </trkpt>
      <trkpt lat="45.84173" lon="4.7978">
        <ele>593.4</ele>
        <time>2019-10-13T07:54:26Z</time>
      </trkpt>
      <trkpt lat="45.8419" lon="4.79785">
        <ele>592.4</ele>
        <time>2019-10-13T07:54:33Z</time>
      </trkpt>
      <trkpt lat="45.84206" lon="4.7979">
        <ele>591.2</ele>
        <time>2019-10-13T07:54:39Z</time>
      </trkpt>
      <trkpt lat="45.84226" lon="4.79792">
        <ele>589.9</ele>
        <time>2019-10-13T07:54:45Z</time>
      </trkpt>
      <trkpt lat="45.84229" lon="4.79798">
        <ele>589.6</ele>
        <time>2019-10-13T07:55:02Z</time>
      </trkpt>
      <trkpt lat="45.84235" lon="4.79816">
        <ele>587.1</ele>
        <time>2019-10-13T07:55:07Z</time>
      </trkpt>
      <trkpt lat="45.8424" lon="4.79825">
        <ele>586.2</ele>
        <time>2019-10-13T07:55:09Z</time>
      </trkpt>
      <trkpt lat="45.8425" lon="4.79844">
        <ele>584</ele>
        <time>2019-10-13T07:55:12Z</time>
      </trkpt>
      <trkpt lat="45.84265" lon="4.79865">
        <ele>581.9</ele>
        <time>2019-10-13T07:55:15Z</time>
      </trkpt>
      <trkpt lat="45.84272" lon="4.79871">
        <ele>581.1</ele>
        <time>2019-10-13T07:55:16Z</time>
      </trkpt>
      <trkpt lat="45.84278" lon="4.79878">
        <ele>580.1</ele>
        <time>2019-10-13T07:55:17Z</time>
      </trkpt>
      <trkpt lat="45.84291" lon="4.79893">
        <ele>578.4</ele>
        <time>2019-10-13T07:55:19Z</time>
      </trkpt>
      <trkpt lat="45.84297" lon="4.79898">
        <ele>577.7</ele>
        <time>2019-10-13T07:55:20Z</time>
      </trkpt>
      <trkpt lat="45.84302" lon="4.79905">
        <ele>577.2</ele>
        <time>2019-10-13T07:55:21Z</time>
      </trkpt>
      <trkpt lat="45.84314" lon="4.79918">
        <ele>575.7</ele>
        <time>2019-10-13T07:55:23Z</time>
      </trkpt>
      <trkpt lat="45.8432" lon="4.79925">
        <ele>575.1</ele>
        <time>2019-10-13T07:55:24Z</time>
      </trkpt>
      <trkpt lat="45.84325" lon="4.79931">
        <ele>574.4</ele>
        <time>2019-10-13T07:55:25Z</time>
      </trkpt>
      <trkpt lat="45.84332" lon="4.79939">
        <ele>573.3</ele>
        <time>2019-10-13T07:55:27Z</time>
      </trkpt>
      <trkpt lat="45.84334" lon="4.79942">
        <ele>572.9</ele>
        <time>2019-10-13T07:55:28Z</time>
      </trkpt>
      <trkpt lat="45.84335" lon="4.79945">
        <ele>572.6</ele>
        <time>2019-10-13T07:55:29Z</time>
      </trkpt>
      <trkpt lat="45.84341" lon="4.7995">
        <ele>571.9</ele>
        <time>2019-10-13T07:55:31Z</time>
      </trkpt>
      <trkpt lat="45.84346" lon="4.79951">
        <ele>571.5</ele>
        <time>2019-10-13T07:55:32Z</time>
      </trkpt>
      <trkpt lat="45.84355" lon="4.79956">
        <ele>570.5</ele>
        <time>2019-10-13T07:55:34Z</time>
      </trkpt>
      <trkpt lat="45.84364" lon="4.79964">
        <ele>569.4</ele>
        <time>2019-10-13T07:55:36Z</time>
      </trkpt>
      <trkpt lat="45.84368" lon="4.7997">
        <ele>568.9</ele>
        <time>2019-10-13T07:55:37Z</time>
      </trkpt>
      <trkpt lat="45.84369" lon="4.79977">
        <ele>568.4</ele>
        <time>2019-10-13T07:55:38Z</time>
      </trkpt>
      <trkpt lat="45.84369" lon="4.79991">
        <ele>567.5</ele>
        <time>2019-10-13T07:55:40Z</time>
      </trkpt>
      <trkpt lat="45.84368" lon="4.79997">
        <ele>567.1</ele>
        <time>2019-10-13T07:55:41Z</time>
      </trkpt>
      <trkpt lat="45.84367" lon="4.80015">
        <ele>566.3</ele>
        <time>2019-10-13T07:55:44Z</time>
      </trkpt>
      <trkpt lat="45.84368" lon="4.80021">
        <ele>566</ele>
        <time>2019-10-13T07:55:45Z</time>
      </trkpt>
      <trkpt lat="45.84377" lon="4.80043">
        <ele>564.1</ele>
        <time>2019-10-13T07:55:49Z</time>
      </trkpt>
      <trkpt lat="45.84391" lon="4.80054">
        <ele>562.5</ele>
        <time>2019-10-13T07:55:52Z</time>
      </trkpt>
      <trkpt lat="45.84396" lon="4.80058">
        <ele>561.8</ele>
        <time>2019-10-13T07:55:53Z</time>
      </trkpt>
      <trkpt lat="45.84409" lon="4.80069">
        <ele>560.3</ele>
        <time>2019-10-13T07:55:56Z</time>
      </trkpt>
      <trkpt lat="45.84418" lon="4.80079">
        <ele>559.2</ele>
        <time>2019-10-13T07:55:58Z</time>
      </trkpt>
      <trkpt lat="45.84422" lon="4.80085">
        <ele>558.8</ele>
        <time>2019-10-13T07:55:59Z</time>
      </trkpt>
      <trkpt lat="45.84426" lon="4.80091">
        <ele>558.4</ele>
        <time>2019-10-13T07:56:00Z</time>
      </trkpt>
      <trkpt lat="45.84437" lon="4.80109">
        <ele>556.9</ele>
        <time>2019-10-13T07:56:03Z</time>
      </trkpt>
      <trkpt lat="45.84443" lon="4.80124">
        <ele>555.8</ele>
        <time>2019-10-13T07:56:06Z</time>
      </trkpt>
      <trkpt lat="45.84445" lon="4.8013">
        <ele>555.3</ele>
        <time>2019-10-13T07:56:07Z</time>
      </trkpt>
      <trkpt lat="45.84447" lon="4.80136">
        <ele>554.8</ele>
        <time>2019-10-13T07:56:08Z</time>
      </trkpt>
      <trkpt lat="45.84451" lon="4.80155">
        <ele>553.2</ele>
        <time>2019-10-13T07:56:11Z</time>
      </trkpt>
      <trkpt lat="45.84455" lon="4.8016">
        <ele>552.9</ele>
        <time>2019-10-13T07:56:12Z</time>
      </trkpt>
      <trkpt lat="45.84462" lon="4.80175">
        <ele>551.7</ele>
        <time>2019-10-13T07:56:14Z</time>
      </trkpt>
      <trkpt lat="45.84469" lon="4.80192">
        <ele>550.4</ele>
        <time>2019-10-13T07:56:16Z</time>
      </trkpt>
      <trkpt lat="45.84473" lon="4.80201">
        <ele>549.7</ele>
        <time>2019-10-13T07:56:17Z</time>
      </trkpt>
      <trkpt lat="45.84477" lon="4.80209">
        <ele>548.9</ele>
        <time>2019-10-13T07:56:18Z</time>
      </trkpt>
      <trkpt lat="45.84484" lon="4.80222">
        <ele>547.8</ele>
        <time>2019-10-13T07:56:20Z</time>
      </trkpt>
      <trkpt lat="45.84489" lon="4.80227">
        <ele>547.1</ele>
        <time>2019-10-13T07:56:21Z</time>
      </trkpt>
      <trkpt lat="45.84494" lon="4.80233">
        <ele>546.5</ele>
        <time>2019-10-13T07:56:22Z</time>
      </trkpt>
      <trkpt lat="45.84504" lon="4.80244">
        <ele>545.3</ele>
        <time>2019-10-13T07:56:24Z</time>
      </trkpt>
      <trkpt lat="45.84516" lon="4.80254">
        <ele>544</ele>
        <time>2019-10-13T07:56:26Z</time>
      </trkpt>
      <trkpt lat="45.84527" lon="4.80263">
        <ele>542.9</ele>
        <time>2019-10-13T07:56:28Z</time>
      </trkpt>
      <trkpt lat="45.84533" lon="4.80266">
        <ele>542.3</ele>
        <time>2019-10-13T07:56:29Z</time>
      </trkpt>
      <trkpt lat="45.84539" lon="4.80269">
        <ele>541.8</ele>
        <time>2019-10-13T07:56:30Z</time>
      </trkpt>
      <trkpt lat="45.84551" lon="4.8027">
        <ele>540.8</ele>
        <time>2019-10-13T07:56:32Z</time>
      </trkpt>
      <trkpt lat="45.84563" lon="4.80268">
        <ele>539.9</ele>
        <time>2019-10-13T07:56:34Z</time>
      </trkpt>
      <trkpt lat="45.84576" lon="4.8027">
        <ele>538.9</ele>
        <time>2019-10-13T07:56:36Z</time>
      </trkpt>
      <trkpt lat="45.84591" lon="4.80275">
        <ele>538</ele>
        <time>2019-10-13T07:56:38Z</time>
      </trkpt>
      <trkpt lat="45.84604" lon="4.80281">
        <ele>537.3</ele>
        <time>2019-10-13T07:56:40Z</time>
      </trkpt>
      <trkpt lat="45.84611" lon="4.80283">
        <ele>536.8</ele>
        <time>2019-10-13T07:56:41Z</time>
      </trkpt>
      <trkpt lat="45.84628" lon="4.80287">
        <ele>535.2</ele>
        <time>2019-10-13T07:56:44Z</time>
      </trkpt>
      <trkpt lat="45.84643" lon="4.80298">
        <ele>533</ele>
        <time>2019-10-13T07:56:47Z</time>
      </trkpt>
      <trkpt lat="45.84648" lon="4.80303">
        <ele>532.2</ele>
        <time>2019-10-13T07:56:48Z</time>
      </trkpt>
      <trkpt lat="45.84672" lon="4.80333">
        <ele>528.3</ele>
        <time>2019-10-13T07:56:53Z</time>
      </trkpt>
      <trkpt lat="45.84676" lon="4.80338">
        <ele>527.6</ele>
        <time>2019-10-13T07:56:54Z</time>
      </trkpt>
      <trkpt lat="45.84687" lon="4.80351">
        <ele>525.6</ele>
        <time>2019-10-13T07:56:56Z</time>
      </trkpt>
      <trkpt lat="45.84703" lon="4.8037">
        <ele>523.1</ele>
        <time>2019-10-13T07:56:59Z</time>
      </trkpt>
      <trkpt lat="45.84708" lon="4.80376">
        <ele>522.4</ele>
        <time>2019-10-13T07:57:00Z</time>
      </trkpt>
      <trkpt lat="45.84718" lon="4.80389">
        <ele>521.2</ele>
        <time>2019-10-13T07:57:02Z</time>
      </trkpt>
      <trkpt lat="45.84726" lon="4.80401">
        <ele>520.2</ele>
        <time>2019-10-13T07:57:04Z</time>
      </trkpt>
      <trkpt lat="45.8473" lon="4.80407">
        <ele>519.7</ele>
        <time>2019-10-13T07:57:05Z</time>
      </trkpt>
      <trkpt lat="45.84733" lon="4.80412">
        <ele>519.3</ele>
        <time>2019-10-13T07:57:06Z</time>
      </trkpt>
      <trkpt lat="45.84744" lon="4.80425">
        <ele>518.1</ele>
        <time>2019-10-13T07:57:09Z</time>
      </trkpt>
      <trkpt lat="45.84751" lon="4.80435">
        <ele>517</ele>
        <time>2019-10-13T07:57:11Z</time>
      </trkpt>
      <trkpt lat="45.84757" lon="4.80445">
        <ele>515.9</ele>
        <time>2019-10-13T07:57:13Z</time>
      </trkpt>
      <trkpt lat="45.8476" lon="4.8045">
        <ele>515.3</ele>
        <time>2019-10-13T07:57:14Z</time>
      </trkpt>
      <trkpt lat="45.84764" lon="4.80454">
        <ele>514.5</ele>
        <time>2019-10-13T07:57:15Z</time>
      </trkpt>
      <trkpt lat="45.84769" lon="4.80459">
        <ele>513.7</ele>
        <time>2019-10-13T07:57:16Z</time>
      </trkpt>
      <trkpt lat="45.84776" lon="4.80467">
        <ele>512.2</ele>
        <time>2019-10-13T07:57:18Z</time>
      </trkpt>
      <trkpt lat="45.84784" lon="4.80474">
        <ele>510.9</ele>
        <time>2019-10-13T07:57:20Z</time>
      </trkpt>
      <trkpt lat="45.84797" lon="4.80487">
        <ele>508.2</ele>
        <time>2019-10-13T07:57:23Z</time>
      </trkpt>
      <trkpt lat="45.84806" lon="4.80496">
        <ele>505.8</ele>
        <time>2019-10-13T07:57:25Z</time>
      </trkpt>
      <trkpt lat="45.84815" lon="4.80505">
        <ele>503.7</ele>
        <time>2019-10-13T07:57:27Z</time>
      </trkpt>
      <trkpt lat="45.84825" lon="4.80513">
        <ele>501.4</ele>
        <time>2019-10-13T07:57:29Z</time>
      </trkpt>
      <trkpt lat="45.84835" lon="4.80523">
        <ele>498.7</ele>
        <time>2019-10-13T07:57:31Z</time>
      </trkpt>
      <trkpt lat="45.84847" lon="4.80535">
        <ele>495.9</ele>
        <time>2019-10-13T07:57:33Z</time>
      </trkpt>
      <trkpt lat="45.84859" lon="4.8055">
        <ele>493.1</ele>
        <time>2019-10-13T07:57:35Z</time>
      </trkpt>
      <trkpt lat="45.84865" lon="4.80558">
        <ele>491.8</ele>
        <time>2019-10-13T07:57:36Z</time>
      </trkpt>
      <trkpt lat="45.84871" lon="4.80568">
        <ele>490.2</ele>
        <time>2019-10-13T07:57:37Z</time>
      </trkpt>
      <trkpt lat="45.84888" lon="4.80591">
        <ele>486</ele>
        <time>2019-10-13T07:57:40Z</time>
      </trkpt>
      <trkpt lat="45.84899" lon="4.80605">
        <ele>485.3</ele>
        <time>2019-10-13T07:57:42Z</time>
      </trkpt>
      <trkpt lat="45.84906" lon="4.80611">
        <ele>484.9</ele>
        <time>2019-10-13T07:57:43Z</time>
      </trkpt>
      <trkpt lat="45.84917" lon="4.80626">
        <ele>484.2</ele>
        <time>2019-10-13T07:57:45Z</time>
      </trkpt>
      <trkpt lat="45.84923" lon="4.80634">
        <ele>484</ele>
        <time>2019-10-13T07:57:46Z</time>
      </trkpt>
      <trkpt lat="45.84934" lon="4.80647">
        <ele>484.2</ele>
        <time>2019-10-13T07:57:48Z</time>
      </trkpt>
      <trkpt lat="45.84944" lon="4.80661">
        <ele>484.9</ele>
        <time>2019-10-13T07:57:50Z</time>
      </trkpt>
      <trkpt lat="45.84952" lon="4.80677">
        <ele>486</ele>
        <time>2019-10-13T07:57:52Z</time>
      </trkpt>
      <trkpt lat="45.84957" lon="4.80686">
        <ele>486.5</ele>
        <time>2019-10-13T07:57:53Z</time>
      </trkpt>
      <trkpt lat="45.84961" lon="4.80695">
        <ele>487</ele>
        <time>2019-10-13T07:57:54Z</time>
      </trkpt>
      <trkpt lat="45.84972" lon="4.80723">
        <ele>488.1</ele>
        <time>2019-10-13T07:57:57Z</time>
      </trkpt>
      <trkpt lat="45.8498" lon="4.80742">
        <ele>488.5</ele>
        <time>2019-10-13T07:57:59Z</time>
      </trkpt>
      <trkpt lat="45.84987" lon="4.80757">
        <ele>488.9</ele>
        <time>2019-10-13T07:58:01Z</time>
      </trkpt>
      <trkpt lat="45.84994" lon="4.80774">
        <ele>488.7</ele>
        <time>2019-10-13T07:58:04Z</time>
      </trkpt>
      <trkpt lat="45.84996" lon="4.80779">
        <ele>488.5</ele>
        <time>2019-10-13T07:58:06Z</time>
      </trkpt>
      <trkpt lat="45.84997" lon="4.80781">
        <ele>488.4</ele>
        <time>2019-10-13T07:58:08Z</time>
      </trkpt>
      <trkpt lat="45.84998" lon="4.80783">
        <ele>488.3</ele>
        <time>2019-10-13T07:58:10Z</time>
      </trkpt>
      <trkpt lat="45.85001" lon="4.80789">
        <ele>488.1</ele>
        <time>2019-10-13T07:58:13Z</time>
      </trkpt>
      <trkpt lat="45.85003" lon="4.80792">
        <ele>487.9</ele>
        <time>2019-10-13T07:58:14Z</time>
      </trkpt>
      <trkpt lat="45.85009" lon="4.80802">
        <ele>487.5</ele>
        <time>2019-10-13T07:58:17Z</time>
      </trkpt>
      <trkpt lat="45.85017" lon="4.80817">
        <ele>486.8</ele>
        <time>2019-10-13T07:58:21Z</time>
      </trkpt>
      <trkpt lat="45.8503" lon="4.80843">
        <ele>485.6</ele>
        <time>2019-10-13T07:58:27Z</time>
      </trkpt>
      <trkpt lat="45.85052" lon="4.80875">
        <ele>483.3</ele>
        <time>2019-10-13T07:58:34Z</time>
      </trkpt>
      <trkpt lat="45.85072" lon="4.80909">
        <ele>481.3</ele>
        <time>2019-10-13T07:58:40Z</time>
      </trkpt>
      <trkpt lat="45.85083" lon="4.80927">
        <ele>480.1</ele>
        <time>2019-10-13T07:58:44Z</time>
      </trkpt>
      <trkpt lat="45.85089" lon="4.80935">
        <ele>479.4</ele>
        <time>2019-10-13T07:58:46Z</time>
      </trkpt>
      <trkpt lat="45.85101" lon="4.80952">
        <ele>478.3</ele>
        <time>2019-10-13T07:58:50Z</time>
      </trkpt>
      <trkpt lat="45.8512" lon="4.80981">
        <ele>476.5</ele>
        <time>2019-10-13T07:58:56Z</time>
      </trkpt>
      <trkpt lat="45.85139" lon="4.80996">
        <ele>474.8</ele>
        <time>2019-10-13T07:59:00Z</time>
      </trkpt>
      <trkpt lat="45.85144" lon="4.80999">
        <ele>474.4</ele>
        <time>2019-10-13T07:59:01Z</time>
      </trkpt>
      <trkpt lat="45.85159" lon="4.81018">
        <ele>472.8</ele>
        <time>2019-10-13T07:59:04Z</time>
      </trkpt>
      <trkpt lat="45.85163" lon="4.81025">
        <ele>472.3</ele>
        <time>2019-10-13T07:59:05Z</time>
      </trkpt>
      <trkpt lat="45.85171" lon="4.8104">
        <ele>471.2</ele>
        <time>2019-10-13T07:59:07Z</time>
      </trkpt>
      <trkpt lat="45.85182" lon="4.8106">
        <ele>469.6</ele>
        <time>2019-10-13T07:59:10Z</time>
      </trkpt>
      <trkpt lat="45.85207" lon="4.81092">
        <ele>466.2</ele>
        <time>2019-10-13T07:59:15Z</time>
      </trkpt>
      <trkpt lat="45.85242" lon="4.81123">
        <ele>462.2</ele>
        <time>2019-10-13T07:59:20Z</time>
      </trkpt>
      <trkpt lat="45.85273" lon="4.81159">
        <ele>459.8</ele>
        <time>2019-10-13T07:59:25Z</time>
      </trkpt>
      <trkpt lat="45.85307" lon="4.81201">
        <ele>458</ele>
        <time>2019-10-13T07:59:31Z</time>
      </trkpt>
      <trkpt lat="45.85313" lon="4.81206">
        <ele>457.8</ele>
        <time>2019-10-13T07:59:32Z</time>
      </trkpt>
      <trkpt lat="45.85322" lon="4.81211">
        <ele>457.4</ele>
        <time>2019-10-13T07:59:34Z</time>
      </trkpt>
      <trkpt lat="45.85325" lon="4.81212">
        <ele>457.3</ele>
        <time>2019-10-13T07:59:35Z</time>
      </trkpt>
      <trkpt lat="45.85331" lon="4.81215">
        <ele>457.1</ele>
        <time>2019-10-13T07:59:37Z</time>
      </trkpt>
      <trkpt lat="45.85339" lon="4.81221">
        <ele>456.8</ele>
        <time>2019-10-13T07:59:40Z</time>
      </trkpt>
      <trkpt lat="45.85342" lon="4.81224">
        <ele>456.6</ele>
        <time>2019-10-13T07:59:41Z</time>
      </trkpt>
      <trkpt lat="45.85352" lon="4.81234">
        <ele>456.1</ele>
        <time>2019-10-13T07:59:44Z</time>
      </trkpt>
      <trkpt lat="45.85359" lon="4.81242">
        <ele>455.5</ele>
        <time>2019-10-13T07:59:46Z</time>
      </trkpt>
      <trkpt lat="45.85363" lon="4.81246">
        <ele>455.3</ele>
        <time>2019-10-13T07:59:47Z</time>
      </trkpt>
      <trkpt lat="45.85366" lon="4.81248">
        <ele>454.9</ele>
        <time>2019-10-13T07:59:48Z</time>
      </trkpt>
      <trkpt lat="45.85374" lon="4.81253">
        <ele>454.1</ele>
        <time>2019-10-13T07:59:50Z</time>
      </trkpt>
      <trkpt lat="45.85378" lon="4.81255">
        <ele>453.7</ele>
        <time>2019-10-13T07:59:51Z</time>
      </trkpt>
      <trkpt lat="45.85385" lon="4.81258">
        <ele>452.8</ele>
        <time>2019-10-13T07:59:53Z</time>
      </trkpt>
      <trkpt lat="45.85392" lon="4.81261">
        <ele>451.7</ele>
        <time>2019-10-13T07:59:55Z</time>
      </trkpt>
      <trkpt lat="45.85402" lon="4.81268">
        <ele>450.1</ele>
        <time>2019-10-13T07:59:58Z</time>
      </trkpt>
      <trkpt lat="45.8541" lon="4.81271">
        <ele>448.3</ele>
        <time>2019-10-13T08:00:00Z</time>
      </trkpt>
      <trkpt lat="45.85414" lon="4.81272">
        <ele>447.1</ele>
        <time>2019-10-13T08:00:01Z</time>
      </trkpt>
      <trkpt lat="45.85427" lon="4.81276">
        <ele>443.6</ele>
        <time>2019-10-13T08:00:04Z</time>
      </trkpt>
      <trkpt lat="45.85437" lon="4.81277">
        <ele>440.8</ele>
        <time>2019-10-13T08:00:06Z</time>
      </trkpt>
      <trkpt lat="45.85443" lon="4.81278">
        <ele>439.8</ele>
        <time>2019-10-13T08:00:07Z</time>
      </trkpt>
      <trkpt lat="45.85448" lon="4.81278">
        <ele>438.7</ele>
        <time>2019-10-13T08:00:08Z</time>
      </trkpt>
      <trkpt lat="45.8546" lon="4.81278">
        <ele>436</ele>
        <time>2019-10-13T08:00:10Z</time>
      </trkpt>
      <trkpt lat="45.85465" lon="4.81279">
        <ele>434.8</ele>
        <time>2019-10-13T08:00:11Z</time>
      </trkpt>
      <trkpt lat="45.85472" lon="4.81282">
        <ele>433.3</ele>
        <time>2019-10-13T08:00:13Z</time>
      </trkpt>
      <trkpt lat="45.85474" lon="4.81284">
        <ele>432.8</ele>
        <time>2019-10-13T08:00:14Z</time>
      </trkpt>
      <trkpt lat="45.85486" lon="4.81292">
        <ele>429.8</ele>
        <time>2019-10-13T08:00:56Z</time>
      </trkpt>
      <trkpt lat="45.85481" lon="4.81302">
        <ele>431.8</ele>
        <time>2019-10-13T08:01:00Z</time>
      </trkpt>
      <trkpt lat="45.85479" lon="4.81305">
        <ele>432.3</ele>
        <time>2019-10-13T08:01:01Z</time>
      </trkpt>
      <trkpt lat="45.85471" lon="4.81319">
        <ele>434.3</ele>
        <time>2019-10-13T08:01:05Z</time>
      </trkpt>
      <trkpt lat="45.85465" lon="4.81332">
        <ele>435.4</ele>
        <time>2019-10-13T08:01:08Z</time>
      </trkpt>
      <trkpt lat="45.85461" lon="4.81344">
        <ele>436.1</ele>
        <time>2019-10-13T08:01:10Z</time>
      </trkpt>
      <trkpt lat="45.85459" lon="4.81363">
        <ele>437</ele>
        <time>2019-10-13T08:01:13Z</time>
      </trkpt>
      <trkpt lat="45.85459" lon="4.81378">
        <ele>437.5</ele>
        <time>2019-10-13T08:01:15Z</time>
      </trkpt>
      <trkpt lat="45.85461" lon="4.81402">
        <ele>438</ele>
        <time>2019-10-13T08:01:18Z</time>
      </trkpt>
      <trkpt lat="45.85469" lon="4.81448">
        <ele>435.7</ele>
        <time>2019-10-13T08:01:23Z</time>
      </trkpt>
      <trkpt lat="45.85471" lon="4.81457">
        <ele>435.3</ele>
        <time>2019-10-13T08:01:24Z</time>
      </trkpt>
      <trkpt lat="45.85485" lon="4.81508">
        <ele>431.8</ele>
        <time>2019-10-13T08:01:29Z</time>
      </trkpt>
      <trkpt lat="45.85496" lon="4.81545">
        <ele>429</ele>
        <time>2019-10-13T08:01:32Z</time>
      </trkpt>
      <trkpt lat="45.85504" lon="4.81572">
        <ele>427</ele>
        <time>2019-10-13T08:01:34Z</time>
      </trkpt>
      <trkpt lat="45.85508" lon="4.81586">
        <ele>426</ele>
        <time>2019-10-13T08:01:35Z</time>
      </trkpt>
      <trkpt lat="45.85512" lon="4.81601">
        <ele>425</ele>
        <time>2019-10-13T08:01:36Z</time>
      </trkpt>
      <trkpt lat="45.85516" lon="4.81616">
        <ele>424.1</ele>
        <time>2019-10-13T08:01:37Z</time>
      </trkpt>
      <trkpt lat="45.85525" lon="4.81647">
        <ele>422.3</ele>
        <time>2019-10-13T08:01:39Z</time>
      </trkpt>
      <trkpt lat="45.85529" lon="4.81663">
        <ele>421.5</ele>
        <time>2019-10-13T08:01:40Z</time>
      </trkpt>
      <trkpt lat="45.85533" lon="4.81678">
        <ele>420.8</ele>
        <time>2019-10-13T08:01:41Z</time>
      </trkpt>
      <trkpt lat="45.85537" lon="4.81693">
        <ele>420.4</ele>
        <time>2019-10-13T08:01:42Z</time>
      </trkpt>
      <trkpt lat="45.85541" lon="4.81707">
        <ele>420.2</ele>
        <time>2019-10-13T08:01:43Z</time>
      </trkpt>
      <trkpt lat="45.85542" lon="4.81721">
        <ele>420</ele>
        <time>2019-10-13T08:01:44Z</time>
      </trkpt>
      <trkpt lat="45.85542" lon="4.81733">
        <ele>419.8</ele>
        <time>2019-10-13T08:01:45Z</time>
      </trkpt>
      <trkpt lat="45.8554" lon="4.81744">
        <ele>419.6</ele>
        <time>2019-10-13T08:01:46Z</time>
      </trkpt>
      <trkpt lat="45.85537" lon="4.81753">
        <ele>419.4</ele>
        <time>2019-10-13T08:01:47Z</time>
      </trkpt>
      <trkpt lat="45.85533" lon="4.81761">
        <ele>419.1</ele>
        <time>2019-10-13T08:01:48Z</time>
      </trkpt>
      <trkpt lat="45.85528" lon="4.81767">
        <ele>418.9</ele>
        <time>2019-10-13T08:01:49Z</time>
      </trkpt>
      <trkpt lat="45.85523" lon="4.81771">
        <ele>418.7</ele>
        <time>2019-10-13T08:01:50Z</time>
      </trkpt>
      <trkpt lat="45.85517" lon="4.81778">
        <ele>418.3</ele>
        <time>2019-10-13T08:01:52Z</time>
      </trkpt>
      <trkpt lat="45.85518" lon="4.81781">
        <ele>418.2</ele>
        <time>2019-10-13T08:01:54Z</time>
      </trkpt>
      <trkpt lat="45.85522" lon="4.81784">
        <ele>418.1</ele>
        <time>2019-10-13T08:02:08Z</time>
      </trkpt>
      <trkpt lat="45.85528" lon="4.81791">
        <ele>417.9</ele>
        <time>2019-10-13T08:02:11Z</time>
      </trkpt>
      <trkpt lat="45.85539" lon="4.81804">
        <ele>418</ele>
        <time>2019-10-13T08:02:16Z</time>
      </trkpt>
      <trkpt lat="45.85547" lon="4.81813">
        <ele>418.3</ele>
        <time>2019-10-13T08:02:19Z</time>
      </trkpt>
      <trkpt lat="45.85555" lon="4.81824">
        <ele>418.7</ele>
        <time>2019-10-13T08:02:23Z</time>
      </trkpt>
      <trkpt lat="45.8556" lon="4.81845">
        <ele>419.4</ele>
        <time>2019-10-13T08:02:29Z</time>
      </trkpt>
      <trkpt lat="45.85566" lon="4.81875">
        <ele>420</ele>
        <time>2019-10-13T08:02:36Z</time>
      </trkpt>
      <trkpt lat="45.85568" lon="4.81883">
        <ele>420</ele>
        <time>2019-10-13T08:02:38Z</time>
      </trkpt>
      <trkpt lat="45.85566" lon="4.81892">
        <ele>420</ele>
        <time>2019-10-13T08:02:40Z</time>
      </trkpt>
      <trkpt lat="45.85567" lon="4.81923">
        <ele>419.9</ele>
        <time>2019-10-13T08:02:45Z</time>
      </trkpt>
      <trkpt lat="45.85568" lon="4.8193">
        <ele>419.9</ele>
        <time>2019-10-13T08:02:46Z</time>
      </trkpt>
      <trkpt lat="45.85572" lon="4.81958">
        <ele>419.4</ele>
        <time>2019-10-13T08:02:50Z</time>
      </trkpt>
      <trkpt lat="45.85575" lon="4.8198">
        <ele>418.8</ele>
        <time>2019-10-13T08:02:53Z</time>
      </trkpt>
      <trkpt lat="45.85579" lon="4.81995">
        <ele>417.9</ele>
        <time>2019-10-13T08:02:55Z</time>
      </trkpt>
      <trkpt lat="45.85584" lon="4.82009">
        <ele>417</ele>
        <time>2019-10-13T08:02:57Z</time>
      </trkpt>
      <trkpt lat="45.85586" lon="4.82026">
        <ele>415.9</ele>
        <time>2019-10-13T08:02:59Z</time>
      </trkpt>
      <trkpt lat="45.85587" lon="4.82046">
        <ele>414.6</ele>
        <time>2019-10-13T08:03:01Z</time>
      </trkpt>
      <trkpt lat="45.85588" lon="4.82065">
        <ele>413.1</ele>
        <time>2019-10-13T08:03:03Z</time>
      </trkpt>
      <trkpt lat="45.85588" lon="4.82072">
        <ele>412.4</ele>
        <time>2019-10-13T08:03:04Z</time>
      </trkpt>
      <trkpt lat="45.85589" lon="4.82078">
        <ele>411.7</ele>
        <time>2019-10-13T08:03:05Z</time>
      </trkpt>
      <trkpt lat="45.85586" lon="4.82091">
        <ele>410.1</ele>
        <time>2019-10-13T08:03:07Z</time>
      </trkpt>
      <trkpt lat="45.85576" lon="4.82112">
        <ele>407.2</ele>
        <time>2019-10-13T08:03:10Z</time>
      </trkpt>
      <trkpt lat="45.85573" lon="4.82119">
        <ele>406.4</ele>
        <time>2019-10-13T08:03:11Z</time>
      </trkpt>
      <trkpt lat="45.8557" lon="4.82124">
        <ele>405.7</ele>
        <time>2019-10-13T08:03:12Z</time>
      </trkpt>
      <trkpt lat="45.85564" lon="4.82135">
        <ele>403.5</ele>
        <time>2019-10-13T08:03:14Z</time>
      </trkpt>
      <trkpt lat="45.85557" lon="4.82147">
        <ele>401.4</ele>
        <time>2019-10-13T08:03:16Z</time>
      </trkpt>
      <trkpt lat="45.85551" lon="4.82159">
        <ele>399.5</ele>
        <time>2019-10-13T08:03:18Z</time>
      </trkpt>
      <trkpt lat="45.85548" lon="4.82164">
        <ele>398.5</ele>
        <time>2019-10-13T08:03:19Z</time>
      </trkpt>
      <trkpt lat="45.85545" lon="4.8217">
        <ele>397.6</ele>
        <time>2019-10-13T08:03:20Z</time>
      </trkpt>
      <trkpt lat="45.85543" lon="4.82176">
        <ele>396.7</ele>
        <time>2019-10-13T08:03:21Z</time>
      </trkpt>
      <trkpt lat="45.8554" lon="4.82182">
        <ele>395.9</ele>
        <time>2019-10-13T08:03:22Z</time>
      </trkpt>
      <trkpt lat="45.85536" lon="4.82193">
        <ele>394.2</ele>
        <time>2019-10-13T08:03:24Z</time>
      </trkpt>
      <trkpt lat="45.85534" lon="4.822">
        <ele>393.2</ele>
        <time>2019-10-13T08:03:25Z</time>
      </trkpt>
      <trkpt lat="45.85533" lon="4.82208">
        <ele>392</ele>
        <time>2019-10-13T08:03:26Z</time>
      </trkpt>
      <trkpt lat="45.85529" lon="4.82226">
        <ele>389.3</ele>
        <time>2019-10-13T08:03:28Z</time>
      </trkpt>
      <trkpt lat="45.85527" lon="4.82235">
        <ele>388</ele>
        <time>2019-10-13T08:03:29Z</time>
      </trkpt>
      <trkpt lat="45.85525" lon="4.82243">
        <ele>387</ele>
        <time>2019-10-13T08:03:30Z</time>
      </trkpt>
      <trkpt lat="45.85522" lon="4.82256">
        <ele>385.4</ele>
        <time>2019-10-13T08:03:32Z</time>
      </trkpt>
      <trkpt lat="45.85521" lon="4.82261">
        <ele>384.9</ele>
        <time>2019-10-13T08:03:33Z</time>
      </trkpt>
      <trkpt lat="45.8552" lon="4.82267">
        <ele>384.4</ele>
        <time>2019-10-13T08:03:34Z</time>
      </trkpt>
      <trkpt lat="45.85517" lon="4.82279">
        <ele>383.2</ele>
        <time>2019-10-13T08:03:36Z</time>
      </trkpt>
      <trkpt lat="45.85516" lon="4.82285">
        <ele>382.5</ele>
        <time>2019-10-13T08:03:37Z</time>
      </trkpt>
      <trkpt lat="45.85514" lon="4.82292">
        <ele>381.8</ele>
        <time>2019-10-13T08:03:38Z</time>
      </trkpt>
      <trkpt lat="45.85513" lon="4.82299">
        <ele>380.9</ele>
        <time>2019-10-13T08:03:39Z</time>
      </trkpt>
      <trkpt lat="45.85512" lon="4.82308">
        <ele>379.2</ele>
        <time>2019-10-13T08:03:40Z</time>
      </trkpt>
      <trkpt lat="45.85508" lon="4.82326">
        <ele>377.2</ele>
        <time>2019-10-13T08:03:42Z</time>
      </trkpt>
      <trkpt lat="45.85503" lon="4.82346">
        <ele>374.7</ele>
        <time>2019-10-13T08:03:44Z</time>
      </trkpt>
      <trkpt lat="45.85498" lon="4.82369">
        <ele>372.2</ele>
        <time>2019-10-13T08:03:46Z</time>
      </trkpt>
      <trkpt lat="45.85495" lon="4.82383">
        <ele>370.8</ele>
        <time>2019-10-13T08:03:47Z</time>
      </trkpt>
      <trkpt lat="45.85492" lon="4.82396">
        <ele>369.3</ele>
        <time>2019-10-13T08:03:48Z</time>
      </trkpt>
      <trkpt lat="45.85489" lon="4.82409">
        <ele>367.8</ele>
        <time>2019-10-13T08:03:49Z</time>
      </trkpt>
      <trkpt lat="45.85486" lon="4.82422">
        <ele>366.2</ele>
        <time>2019-10-13T08:03:50Z</time>
      </trkpt>
      <trkpt lat="45.85483" lon="4.82434">
        <ele>364.6</ele>
        <time>2019-10-13T08:03:51Z</time>
      </trkpt>
      <trkpt lat="45.8548" lon="4.82445">
        <ele>363.2</ele>
        <time>2019-10-13T08:03:52Z</time>
      </trkpt>
      <trkpt lat="45.85478" lon="4.82456">
        <ele>361.7</ele>
        <time>2019-10-13T08:03:53Z</time>
      </trkpt>
      <trkpt lat="45.85475" lon="4.82467">
        <ele>360.3</ele>
        <time>2019-10-13T08:03:54Z</time>
      </trkpt>
      <trkpt lat="45.85473" lon="4.82478">
        <ele>359.1</ele>
        <time>2019-10-13T08:03:55Z</time>
      </trkpt>
      <trkpt lat="45.85471" lon="4.82489">
        <ele>357.6</ele>
        <time>2019-10-13T08:03:56Z</time>
      </trkpt>
      <trkpt lat="45.85469" lon="4.825">
        <ele>356.2</ele>
        <time>2019-10-13T08:03:57Z</time>
      </trkpt>
      <trkpt lat="45.85466" lon="4.82512">
        <ele>354.9</ele>
        <time>2019-10-13T08:03:58Z</time>
      </trkpt>
      <trkpt lat="45.85464" lon="4.82523">
        <ele>353.5</ele>
        <time>2019-10-13T08:03:59Z</time>
      </trkpt>
      <trkpt lat="45.85462" lon="4.82533">
        <ele>352.1</ele>
        <time>2019-10-13T08:04:00Z</time>
      </trkpt>
      <trkpt lat="45.8546" lon="4.82543">
        <ele>351</ele>
        <time>2019-10-13T08:04:01Z</time>
      </trkpt>
      <trkpt lat="45.85458" lon="4.82552">
        <ele>349.7</ele>
        <time>2019-10-13T08:04:02Z</time>
      </trkpt>
      <trkpt lat="45.85456" lon="4.82562">
        <ele>348.3</ele>
        <time>2019-10-13T08:04:03Z</time>
      </trkpt>
      <trkpt lat="45.85454" lon="4.82571">
        <ele>347</ele>
        <time>2019-10-13T08:04:04Z</time>
      </trkpt>
      <trkpt lat="45.85452" lon="4.8258">
        <ele>345.9</ele>
        <time>2019-10-13T08:04:05Z</time>
      </trkpt>
      <trkpt lat="45.85451" lon="4.82587">
        <ele>345</ele>
        <time>2019-10-13T08:04:06Z</time>
      </trkpt>
      <trkpt lat="45.8545" lon="4.82592">
        <ele>344.4</ele>
        <time>2019-10-13T08:04:07Z</time>
      </trkpt>
      <trkpt lat="45.85451" lon="4.82595">
        <ele>344</ele>
        <time>2019-10-13T08:04:08Z</time>
      </trkpt>
      <trkpt lat="45.85452" lon="4.82597">
        <ele>343.7</ele>
        <time>2019-10-13T08:04:09Z</time>
      </trkpt>
      <trkpt lat="45.85455" lon="4.826">
        <ele>343</ele>
        <time>2019-10-13T08:04:11Z</time>
      </trkpt>
      <trkpt lat="45.85457" lon="4.82602">
        <ele>342.5</ele>
        <time>2019-10-13T08:04:12Z</time>
      </trkpt>
      <trkpt lat="45.85459" lon="4.82604">
        <ele>341.9</ele>
        <time>2019-10-13T08:04:13Z</time>
      </trkpt>
      <trkpt lat="45.8546" lon="4.82613">
        <ele>340.6</ele>
        <time>2019-10-13T08:04:15Z</time>
      </trkpt>
      <trkpt lat="45.85459" lon="4.82628">
        <ele>338.7</ele>
        <time>2019-10-13T08:04:17Z</time>
      </trkpt>
      <trkpt lat="45.85458" lon="4.82637">
        <ele>337.6</ele>
        <time>2019-10-13T08:04:18Z</time>
      </trkpt>
      <trkpt lat="45.85457" lon="4.82644">
        <ele>336.8</ele>
        <time>2019-10-13T08:04:19Z</time>
      </trkpt>
      <trkpt lat="45.85457" lon="4.82652">
        <ele>335.9</ele>
        <time>2019-10-13T08:04:20Z</time>
      </trkpt>
      <trkpt lat="45.85459" lon="4.82658">
        <ele>335.1</ele>
        <time>2019-10-13T08:04:21Z</time>
      </trkpt>
      <trkpt lat="45.85463" lon="4.82662">
        <ele>334.2</ele>
        <time>2019-10-13T08:04:22Z</time>
      </trkpt>
      <trkpt lat="45.85468" lon="4.82665">
        <ele>333.4</ele>
        <time>2019-10-13T08:04:23Z</time>
      </trkpt>
      <trkpt lat="45.85473" lon="4.82668">
        <ele>331.8</ele>
        <time>2019-10-13T08:04:24Z</time>
      </trkpt>
      <trkpt lat="45.85478" lon="4.8267">
        <ele>332.2</ele>
        <time>2019-10-13T08:04:25Z</time>
      </trkpt>
      <trkpt lat="45.85482" lon="4.82672">
        <ele>332.6</ele>
        <time>2019-10-13T08:04:26Z</time>
      </trkpt>
      <trkpt lat="45.85487" lon="4.82672">
        <ele>332.9</ele>
        <time>2019-10-13T08:04:27Z</time>
      </trkpt>
      <trkpt lat="45.85496" lon="4.8267">
        <ele>333.5</ele>
        <time>2019-10-13T08:04:29Z</time>
      </trkpt>
      <trkpt lat="45.855" lon="4.82668">
        <ele>333.7</ele>
        <time>2019-10-13T08:04:30Z</time>
      </trkpt>
      <trkpt lat="45.85504" lon="4.82666">
        <ele>334</ele>
        <time>2019-10-13T08:04:31Z</time>
      </trkpt>
      <trkpt lat="45.85508" lon="4.82663">
        <ele>334.3</ele>
        <time>2019-10-13T08:04:32Z</time>
      </trkpt>
      <trkpt lat="45.85512" lon="4.8266">
        <ele>334.5</ele>
        <time>2019-10-13T08:04:33Z</time>
      </trkpt>
      <trkpt lat="45.8552" lon="4.82653">
        <ele>334.9</ele>
        <time>2019-10-13T08:04:35Z</time>
      </trkpt>
      <trkpt lat="45.85527" lon="4.82646">
        <ele>335.3</ele>
        <time>2019-10-13T08:04:37Z</time>
      </trkpt>
      <trkpt lat="45.85533" lon="4.82641">
        <ele>335.5</ele>
        <time>2019-10-13T08:04:39Z</time>
      </trkpt>
      <trkpt lat="45.85547" lon="4.82631">
        <ele>336</ele>
        <time>2019-10-13T08:04:43Z</time>
      </trkpt>
      <trkpt lat="45.85555" lon="4.82624">
        <ele>336.1</ele>
        <time>2019-10-13T08:04:45Z</time>
      </trkpt>
      <trkpt lat="45.85574" lon="4.82609">
        <ele>336.3</ele>
        <time>2019-10-13T08:04:49Z</time>
      </trkpt>
      <trkpt lat="45.85598" lon="4.82592">
        <ele>336.9</ele>
        <time>2019-10-13T08:04:54Z</time>
      </trkpt>
      <trkpt lat="45.85603" lon="4.82588">
        <ele>337.1</ele>
        <time>2019-10-13T08:04:55Z</time>
      </trkpt>
      <trkpt lat="45.85635" lon="4.82556">
        <ele>337</ele>
        <time>2019-10-13T08:05:02Z</time>
      </trkpt>
      <trkpt lat="45.8564" lon="4.82551">
        <ele>336.9</ele>
        <time>2019-10-13T08:05:03Z</time>
      </trkpt>
      <trkpt lat="45.85677" lon="4.82522">
        <ele>335.3</ele>
        <time>2019-10-13T08:05:09Z</time>
      </trkpt>
      <trkpt lat="45.85683" lon="4.82518">
        <ele>335</ele>
        <time>2019-10-13T08:05:10Z</time>
      </trkpt>
      <trkpt lat="45.85697" lon="4.8251">
        <ele>334.1</ele>
        <time>2019-10-13T08:05:12Z</time>
      </trkpt>
      <trkpt lat="45.85712" lon="4.82502">
        <ele>332.8</ele>
        <time>2019-10-13T08:05:14Z</time>
      </trkpt>
      <trkpt lat="45.85727" lon="4.82489">
        <ele>331.3</ele>
        <time>2019-10-13T08:05:16Z</time>
      </trkpt>
      <trkpt lat="45.85742" lon="4.82474">
        <ele>330</ele>
        <time>2019-10-13T08:05:18Z</time>
      </trkpt>
      <trkpt lat="45.85764" lon="4.82448">
        <ele>327.6</ele>
        <time>2019-10-13T08:05:22Z</time>
      </trkpt>
      <trkpt lat="45.85769" lon="4.82441">
        <ele>327.6</ele>
        <time>2019-10-13T08:05:39Z</time>
      </trkpt>
      <trkpt lat="45.85774" lon="4.82442">
        <ele>328.1</ele>
        <time>2019-10-13T08:05:41Z</time>
      </trkpt>
      <trkpt lat="45.85788" lon="4.82452">
        <ele>329.5</ele>
        <time>2019-10-13T08:05:45Z</time>
      </trkpt>
      <trkpt lat="45.85798" lon="4.82464">
        <ele>329.7</ele>
        <time>2019-10-13T08:05:48Z</time>
      </trkpt>
      <trkpt lat="45.858" lon="4.8247">
        <ele>329</ele>
        <time>2019-10-13T08:05:49Z</time>
      </trkpt>
      <trkpt lat="45.85803" lon="4.82476">
        <ele>328.3</ele>
        <time>2019-10-13T08:05:50Z</time>
      </trkpt>
      <trkpt lat="45.85815" lon="4.82522">
        <ele>323.9</ele>
        <time>2019-10-13T08:05:56Z</time>
      </trkpt>
      <trkpt lat="45.85817" lon="4.8253">
        <ele>323.3</ele>
        <time>2019-10-13T08:05:57Z</time>
      </trkpt>
      <trkpt lat="45.85821" lon="4.82555">
        <ele>321.1</ele>
        <time>2019-10-13T08:06:00Z</time>
      </trkpt>
      <trkpt lat="45.85822" lon="4.82563">
        <ele>320.3</ele>
        <time>2019-10-13T08:06:01Z</time>
      </trkpt>
      <trkpt lat="45.85823" lon="4.82585">
        <ele>318</ele>
        <time>2019-10-13T08:06:04Z</time>
      </trkpt>
      <trkpt lat="45.85824" lon="4.82593">
        <ele>317.2</ele>
        <time>2019-10-13T08:06:05Z</time>
      </trkpt>
      <trkpt lat="45.85825" lon="4.82607">
        <ele>315.8</ele>
        <time>2019-10-13T08:06:07Z</time>
      </trkpt>
      <trkpt lat="45.85828" lon="4.8262">
        <ele>314.5</ele>
        <time>2019-10-13T08:06:09Z</time>
      </trkpt>
      <trkpt lat="45.8583" lon="4.82627">
        <ele>313.9</ele>
        <time>2019-10-13T08:06:10Z</time>
      </trkpt>
      <trkpt lat="45.85833" lon="4.82634">
        <ele>313.2</ele>
        <time>2019-10-13T08:06:11Z</time>
      </trkpt>
      <trkpt lat="45.85838" lon="4.82649">
        <ele>311.7</ele>
        <time>2019-10-13T08:06:13Z</time>
      </trkpt>
      <trkpt lat="45.85842" lon="4.82657">
        <ele>310.9</ele>
        <time>2019-10-13T08:06:14Z</time>
      </trkpt>
      <trkpt lat="45.85846" lon="4.82664">
        <ele>310.1</ele>
        <time>2019-10-13T08:06:15Z</time>
      </trkpt>
      <trkpt lat="45.85854" lon="4.82678">
        <ele>308.5</ele>
        <time>2019-10-13T08:06:17Z</time>
      </trkpt>
      <trkpt lat="45.85859" lon="4.82686">
        <ele>307.6</ele>
        <time>2019-10-13T08:06:18Z</time>
      </trkpt>
      <trkpt lat="45.85866" lon="4.82692">
        <ele>307.4</ele>
        <time>2019-10-13T08:06:19Z</time>
      </trkpt>
      <trkpt lat="45.85886" lon="4.82706">
        <ele>307.1</ele>
        <time>2019-10-13T08:06:22Z</time>
      </trkpt>
      <trkpt lat="45.85893" lon="4.82708">
        <ele>306.9</ele>
        <time>2019-10-13T08:06:23Z</time>
      </trkpt>
      <trkpt lat="45.85909" lon="4.82712">
        <ele>306.3</ele>
        <time>2019-10-13T08:06:25Z</time>
      </trkpt>
      <trkpt lat="45.85934" lon="4.82719">
        <ele>304.7</ele>
        <time>2019-10-13T08:06:28Z</time>
      </trkpt>
      <trkpt lat="45.85943" lon="4.82721">
        <ele>304.1</ele>
        <time>2019-10-13T08:06:29Z</time>
      </trkpt>
      <trkpt lat="45.85962" lon="4.82725">
        <ele>302.5</ele>
        <time>2019-10-13T08:06:31Z</time>
      </trkpt>
      <trkpt lat="45.85989" lon="4.82731">
        <ele>299.9</ele>
        <time>2019-10-13T08:06:34Z</time>
      </trkpt>
      <trkpt lat="45.85998" lon="4.82731">
        <ele>298.5</ele>
        <time>2019-10-13T08:06:35Z</time>
      </trkpt>
      <trkpt lat="45.86006" lon="4.8273">
        <ele>298.5</ele>
        <time>2019-10-13T08:06:36Z</time>
      </trkpt>
      <trkpt lat="45.86019" lon="4.82727">
        <ele>298.7</ele>
        <time>2019-10-13T08:06:38Z</time>
      </trkpt>
      <trkpt lat="45.86024" lon="4.82726">
        <ele>299.4</ele>
        <time>2019-10-13T08:06:39Z</time>
      </trkpt>
      <trkpt lat="45.86027" lon="4.82724">
        <ele>300</ele>
        <time>2019-10-13T08:06:40Z</time>
      </trkpt>
      <trkpt lat="45.86032" lon="4.82723">
        <ele>300.7</ele>
        <time>2019-10-13T08:06:42Z</time>
      </trkpt>
      <trkpt lat="45.86034" lon="4.82722">
        <ele>301.1</ele>
        <time>2019-10-13T08:06:44Z</time>
      </trkpt>
      <trkpt lat="45.8604" lon="4.82718">
        <ele>301.7</ele>
        <time>2019-10-13T08:06:58Z</time>
      </trkpt>
      <trkpt lat="45.86041" lon="4.82717">
        <ele>301.9</ele>
        <time>2019-10-13T08:06:59Z</time>
      </trkpt>
      <trkpt lat="45.86044" lon="4.82714">
        <ele>302.4</ele>
        <time>2019-10-13T08:07:01Z</time>
      </trkpt>
      <trkpt lat="45.86049" lon="4.8271">
        <ele>303.1</ele>
        <time>2019-10-13T08:07:04Z</time>
      </trkpt>
      <trkpt lat="45.86052" lon="4.82708">
        <ele>303.5</ele>
        <time>2019-10-13T08:07:06Z</time>
      </trkpt>
      <trkpt lat="45.86061" lon="4.827">
        <ele>304.6</ele>
        <time>2019-10-13T08:07:10Z</time>
      </trkpt>
      <trkpt lat="45.86064" lon="4.82697">
        <ele>305</ele>
        <time>2019-10-13T08:07:12Z</time>
      </trkpt>
      <trkpt lat="45.86075" lon="4.82691">
        <ele>305.9</ele>
        <time>2019-10-13T08:07:18Z</time>
      </trkpt>
      <trkpt lat="45.86083" lon="4.82683">
        <ele>306.7</ele>
        <time>2019-10-13T08:07:23Z</time>
      </trkpt>
      <trkpt lat="45.86085" lon="4.82681">
        <ele>306.9</ele>
        <time>2019-10-13T08:07:24Z</time>
      </trkpt>
      <trkpt lat="45.86092" lon="4.82677">
        <ele>307.6</ele>
        <time>2019-10-13T08:07:28Z</time>
      </trkpt>
      <trkpt lat="45.86097" lon="4.82674">
        <ele>308.2</ele>
        <time>2019-10-13T08:07:31Z</time>
      </trkpt>
      <trkpt lat="45.86099" lon="4.82674">
        <ele>308.3</ele>
        <time>2019-10-13T08:07:32Z</time>
      </trkpt>
      <trkpt lat="45.86102" lon="4.82673">
        <ele>308.6</ele>
        <time>2019-10-13T08:07:34Z</time>
      </trkpt>
      <trkpt lat="45.86107" lon="4.8267">
        <ele>309.1</ele>
        <time>2019-10-13T08:07:37Z</time>
      </trkpt>
      <trkpt lat="45.86108" lon="4.82669">
        <ele>309.2</ele>
        <time>2019-10-13T08:07:38Z</time>
      </trkpt>
      <trkpt lat="45.86111" lon="4.82667">
        <ele>309.5</ele>
        <time>2019-10-13T08:07:40Z</time>
      </trkpt>
      <trkpt lat="45.86115" lon="4.82664">
        <ele>310</ele>
        <time>2019-10-13T08:07:43Z</time>
      </trkpt>
      <trkpt lat="45.86119" lon="4.8266">
        <ele>310.5</ele>
        <time>2019-10-13T08:07:46Z</time>
      </trkpt>
      <trkpt lat="45.86121" lon="4.82659">
        <ele>310.7</ele>
        <time>2019-10-13T08:07:47Z</time>
      </trkpt>
      <trkpt lat="45.8613" lon="4.82652">
        <ele>311.5</ele>
        <time>2019-10-13T08:07:53Z</time>
      </trkpt>
      <trkpt lat="45.86135" lon="4.82648">
        <ele>312</ele>
        <time>2019-10-13T08:07:56Z</time>
      </trkpt>
      <trkpt lat="45.8614" lon="4.82645">
        <ele>312.4</ele>
        <time>2019-10-13T08:07:59Z</time>
      </trkpt>
      <trkpt lat="45.86148" lon="4.82642">
        <ele>313.3</ele>
        <time>2019-10-13T08:08:02Z</time>
      </trkpt>
      <trkpt lat="45.86156" lon="4.82638">
        <ele>314.2</ele>
        <time>2019-10-13T08:08:06Z</time>
      </trkpt>
      <trkpt lat="45.86159" lon="4.82636">
        <ele>314.5</ele>
        <time>2019-10-13T08:08:08Z</time>
      </trkpt>
      <trkpt lat="45.86165" lon="4.82632">
        <ele>315.2</ele>
        <time>2019-10-13T08:08:12Z</time>
      </trkpt>
      <trkpt lat="45.8617" lon="4.82628">
        <ele>315.8</ele>
        <time>2019-10-13T08:08:16Z</time>
      </trkpt>
      <trkpt lat="45.86171" lon="4.82626">
        <ele>315.9</ele>
        <time>2019-10-13T08:08:17Z</time>
      </trkpt>
      <trkpt lat="45.86206" lon="4.82591">
        <ele>319.3</ele>
        <time>2019-10-13T08:08:44Z</time>
      </trkpt>
      <trkpt lat="45.86211" lon="4.82587">
        <ele>319.8</ele>
        <time>2019-10-13T08:08:47Z</time>
      </trkpt>
      <trkpt lat="45.86215" lon="4.82584">
        <ele>320.3</ele>
        <time>2019-10-13T08:08:50Z</time>
      </trkpt>
      <trkpt lat="45.86222" lon="4.82579">
        <ele>321</ele>
        <time>2019-10-13T08:08:54Z</time>
      </trkpt>
      <trkpt lat="45.86223" lon="4.82577">
        <ele>321.4</ele>
        <time>2019-10-13T08:08:55Z</time>
      </trkpt>
      <trkpt lat="45.86228" lon="4.82571">
        <ele>322.4</ele>
        <time>2019-10-13T08:08:59Z</time>
      </trkpt>
      <trkpt lat="45.86249" lon="4.82545">
        <ele>326.6</ele>
        <time>2019-10-13T08:09:16Z</time>
      </trkpt>
      <trkpt lat="45.8625" lon="4.82543">
        <ele>326.8</ele>
        <time>2019-10-13T08:09:17Z</time>
      </trkpt>
      <trkpt lat="45.86298" lon="4.82458">
        <ele>334.1</ele>
        <time>2019-10-13T08:10:02Z</time>
      </trkpt>
      <trkpt lat="45.86301" lon="4.82451">
        <ele>334.3</ele>
        <time>2019-10-13T08:10:05Z</time>
      </trkpt>
      <trkpt lat="45.86303" lon="4.82444">
        <ele>334.4</ele>
        <time>2019-10-13T08:10:08Z</time>
      </trkpt>
      <trkpt lat="45.86304" lon="4.82439">
        <ele>334.5</ele>
        <time>2019-10-13T08:10:10Z</time>
      </trkpt>
      <trkpt lat="45.86305" lon="4.82431">
        <ele>334.6</ele>
        <time>2019-10-13T08:10:13Z</time>
      </trkpt>
      <trkpt lat="45.86305" lon="4.82429">
        <ele>334.6</ele>
        <time>2019-10-13T08:10:14Z</time>
      </trkpt>
      <trkpt lat="45.86306" lon="4.82424">
        <ele>334.7</ele>
        <time>2019-10-13T08:10:16Z</time>
      </trkpt>
      <trkpt lat="45.86307" lon="4.82419">
        <ele>334.7</ele>
        <time>2019-10-13T08:10:18Z</time>
      </trkpt>
      <trkpt lat="45.86307" lon="4.82411">
        <ele>334.8</ele>
        <time>2019-10-13T08:10:21Z</time>
      </trkpt>
      <trkpt lat="45.86309" lon="4.82394">
        <ele>334.9</ele>
        <time>2019-10-13T08:10:28Z</time>
      </trkpt>
      <trkpt lat="45.86309" lon="4.82389">
        <ele>334.9</ele>
        <time>2019-10-13T08:10:30Z</time>
      </trkpt>
      <trkpt lat="45.86305" lon="4.82383">
        <ele>334.4</ele>
        <time>2019-10-13T08:10:34Z</time>
      </trkpt>
      <trkpt lat="45.86303" lon="4.82376">
        <ele>333.5</ele>
        <time>2019-10-13T08:10:38Z</time>
      </trkpt>
      <trkpt lat="45.86304" lon="4.82372">
        <ele>333</ele>
        <time>2019-10-13T08:10:40Z</time>
      </trkpt>
      <trkpt lat="45.86308" lon="4.8237">
        <ele>332.4</ele>
        <time>2019-10-13T08:10:42Z</time>
      </trkpt>
      <trkpt lat="45.86311" lon="4.82369">
        <ele>331.9</ele>
        <time>2019-10-13T08:10:43Z</time>
      </trkpt>
      <trkpt lat="45.86314" lon="4.82369">
        <ele>331.3</ele>
        <time>2019-10-13T08:10:44Z</time>
      </trkpt>
      <trkpt lat="45.8635" lon="4.82364">
        <ele>324.8</ele>
        <time>2019-10-13T08:10:52Z</time>
      </trkpt>
      <trkpt lat="45.86355" lon="4.82362">
        <ele>323.7</ele>
        <time>2019-10-13T08:10:53Z</time>
      </trkpt>
      <trkpt lat="45.86363" lon="4.82355">
        <ele>322.2</ele>
        <time>2019-10-13T08:10:55Z</time>
      </trkpt>
      <trkpt lat="45.86366" lon="4.82351">
        <ele>321.5</ele>
        <time>2019-10-13T08:10:56Z</time>
      </trkpt>
      <trkpt lat="45.86377" lon="4.82341">
        <ele>317.8</ele>
        <time>2019-10-13T08:10:59Z</time>
      </trkpt>
      <trkpt lat="45.86388" lon="4.82336">
        <ele>315</ele>
        <time>2019-10-13T08:11:01Z</time>
      </trkpt>
      <trkpt lat="45.86421" lon="4.82328">
        <ele>306.2</ele>
        <time>2019-10-13T08:11:06Z</time>
      </trkpt>
      <trkpt lat="45.86431" lon="4.82325">
        <ele>302.7</ele>
        <time>2019-10-13T08:11:08Z</time>
      </trkpt>
      <trkpt lat="45.86434" lon="4.82324">
        <ele>301.9</ele>
        <time>2019-10-13T08:11:09Z</time>
      </trkpt>
      <trkpt lat="45.86438" lon="4.82321">
        <ele>300.4</ele>
        <time>2019-10-13T08:11:11Z</time>
      </trkpt>
      <trkpt lat="45.86439" lon="4.82319">
        <ele>299.9</ele>
        <time>2019-10-13T08:11:12Z</time>
      </trkpt>
      <trkpt lat="45.86439" lon="4.82318">
        <ele>299.5</ele>
        <time>2019-10-13T08:11:13Z</time>
      </trkpt>
      <trkpt lat="45.86439" lon="4.82316">
        <ele>299.3</ele>
        <time>2019-10-13T08:11:14Z</time>
      </trkpt>
      <trkpt lat="45.86439" lon="4.82311">
        <ele>298.4</ele>
        <time>2019-10-13T08:11:17Z</time>
      </trkpt>
      <trkpt lat="45.86439" lon="4.82309">
        <ele>297.4</ele>
        <time>2019-10-13T08:11:18Z</time>
      </trkpt>
      <trkpt lat="45.86438" lon="4.82307">
        <ele>297.6</ele>
        <time>2019-10-13T08:11:19Z</time>
      </trkpt>
      <trkpt lat="45.86436" lon="4.82305">
        <ele>298</ele>
        <time>2019-10-13T08:11:21Z</time>
      </trkpt>
      <trkpt lat="45.86435" lon="4.823">
        <ele>298.5</ele>
        <time>2019-10-13T08:11:24Z</time>
      </trkpt>
      <trkpt lat="45.86434" lon="4.82299">
        <ele>298.7</ele>
        <time>2019-10-13T08:11:25Z</time>
      </trkpt>
      <trkpt lat="45.86432" lon="4.82295">
        <ele>299.2</ele>
        <time>2019-10-13T08:11:27Z</time>
      </trkpt>
      <trkpt lat="45.86426" lon="4.82288">
        <ele>300.4</ele>
        <time>2019-10-13T08:11:32Z</time>
      </trkpt>
      <trkpt lat="45.86424" lon="4.82285">
        <ele>301</ele>
        <time>2019-10-13T08:11:34Z</time>
      </trkpt>
      <trkpt lat="45.86415" lon="4.82276">
        <ele>303.3</ele>
        <time>2019-10-13T08:11:42Z</time>
      </trkpt>
      <trkpt lat="45.86412" lon="4.82274">
        <ele>303.8</ele>
        <time>2019-10-13T08:11:43Z</time>
      </trkpt>
      <trkpt lat="45.86406" lon="4.82268">
        <ele>305.2</ele>
        <time>2019-10-13T08:11:46Z</time>
      </trkpt>
      <trkpt lat="45.86398" lon="4.82258">
        <ele>307.3</ele>
        <time>2019-10-13T08:11:52Z</time>
      </trkpt>
      <trkpt lat="45.86395" lon="4.82256">
        <ele>307.9</ele>
        <time>2019-10-13T08:11:54Z</time>
      </trkpt>
      <trkpt lat="45.86388" lon="4.82253">
        <ele>308.9</ele>
        <time>2019-10-13T08:11:58Z</time>
      </trkpt>
      <trkpt lat="45.86386" lon="4.82251">
        <ele>309.2</ele>
        <time>2019-10-13T08:11:59Z</time>
      </trkpt>
      <trkpt lat="45.86379" lon="4.82243">
        <ele>310.3</ele>
        <time>2019-10-13T08:12:04Z</time>
      </trkpt>
      <trkpt lat="45.86373" lon="4.82239">
        <ele>311.1</ele>
        <time>2019-10-13T08:12:07Z</time>
      </trkpt>
      <trkpt lat="45.86366" lon="4.8223">
        <ele>312.1</ele>
        <time>2019-10-13T08:12:10Z</time>
      </trkpt>
      <trkpt lat="45.86363" lon="4.82211">
        <ele>313.5</ele>
        <time>2019-10-13T08:12:14Z</time>
      </trkpt>
      <trkpt lat="45.86366" lon="4.82182">
        <ele>313.5</ele>
        <time>2019-10-13T08:12:20Z</time>
      </trkpt>
      <trkpt lat="45.86369" lon="4.82174">
        <ele>312.5</ele>
        <time>2019-10-13T08:12:23Z</time>
      </trkpt>
      <trkpt lat="45.8637" lon="4.82169">
        <ele>311.8</ele>
        <time>2019-10-13T08:12:25Z</time>
      </trkpt>
      <trkpt lat="45.86376" lon="4.82151">
        <ele>309.3</ele>
        <time>2019-10-13T08:12:29Z</time>
      </trkpt>
      <trkpt lat="45.86396" lon="4.82136">
        <ele>304.3</ele>
        <time>2019-10-13T08:12:33Z</time>
      </trkpt>
      <trkpt lat="45.86414" lon="4.82135">
        <ele>301.2</ele>
        <time>2019-10-13T08:12:35Z</time>
      </trkpt>
      <trkpt lat="45.86424" lon="4.82135">
        <ele>299.8</ele>
        <time>2019-10-13T08:12:36Z</time>
      </trkpt>
      <trkpt lat="45.86467" lon="4.82129">
        <ele>294.9</ele>
        <time>2019-10-13T08:12:40Z</time>
      </trkpt>
      <trkpt lat="45.86513" lon="4.82125">
        <ele>288.3</ele>
        <time>2019-10-13T08:12:44Z</time>
      </trkpt>
      <trkpt lat="45.86524" lon="4.82125">
        <ele>286.9</ele>
        <time>2019-10-13T08:12:45Z</time>
      </trkpt>
      <trkpt lat="45.86533" lon="4.82125">
        <ele>285.5</ele>
        <time>2019-10-13T08:12:46Z</time>
      </trkpt>
      <trkpt lat="45.86541" lon="4.82124">
        <ele>284.3</ele>
        <time>2019-10-13T08:12:47Z</time>
      </trkpt>
      <trkpt lat="45.86548" lon="4.8212">
        <ele>282.9</ele>
        <time>2019-10-13T08:12:48Z</time>
      </trkpt>
      <trkpt lat="45.86553" lon="4.82112">
        <ele>281.8</ele>
        <time>2019-10-13T08:12:49Z</time>
      </trkpt>
      <trkpt lat="45.8656" lon="4.82098">
        <ele>279.9</ele>
        <time>2019-10-13T08:12:51Z</time>
      </trkpt>
      <trkpt lat="45.86565" lon="4.82088">
        <ele>278.4</ele>
        <time>2019-10-13T08:12:53Z</time>
      </trkpt>
      <trkpt lat="45.86566" lon="4.82084">
        <ele>278.6</ele>
        <time>2019-10-13T08:12:54Z</time>
      </trkpt>
      <trkpt lat="45.86566" lon="4.82082">
        <ele>278.8</ele>
        <time>2019-10-13T08:12:55Z</time>
      </trkpt>
      <trkpt lat="45.86554" lon="4.82077">
        <ele>280.2</ele>
        <time>2019-10-13T08:13:22Z</time>
      </trkpt>
      <trkpt lat="45.86551" lon="4.82075">
        <ele>280.7</ele>
        <time>2019-10-13T08:13:24Z</time>
      </trkpt>
      <trkpt lat="45.86544" lon="4.82071">
        <ele>281.8</ele>
        <time>2019-10-13T08:13:29Z</time>
      </trkpt>
      <trkpt lat="45.86532" lon="4.82063">
        <ele>283.4</ele>
        <time>2019-10-13T08:13:35Z</time>
      </trkpt>
      <trkpt lat="45.8652" lon="4.82057">
        <ele>285</ele>
        <time>2019-10-13T08:13:41Z</time>
      </trkpt>
      <trkpt lat="45.86499" lon="4.82048">
        <ele>287.5</ele>
        <time>2019-10-13T08:13:48Z</time>
      </trkpt>
      <trkpt lat="45.8649" lon="4.82044">
        <ele>288.7</ele>
        <time>2019-10-13T08:13:51Z</time>
      </trkpt>
      <trkpt lat="45.86482" lon="4.82041">
        <ele>289.8</ele>
        <time>2019-10-13T08:13:54Z</time>
      </trkpt>
      <trkpt lat="45.86461" lon="4.82035">
        <ele>292</ele>
        <time>2019-10-13T08:14:01Z</time>
      </trkpt>
      <trkpt lat="45.86452" lon="4.82031">
        <ele>293</ele>
        <time>2019-10-13T08:14:04Z</time>
      </trkpt>
      <trkpt lat="45.86444" lon="4.82028">
        <ele>293.7</ele>
        <time>2019-10-13T08:14:07Z</time>
      </trkpt>
      <trkpt lat="45.86429" lon="4.82023">
        <ele>294.7</ele>
        <time>2019-10-13T08:14:13Z</time>
      </trkpt>
      <trkpt lat="45.8642" lon="4.8202">
        <ele>295.2</ele>
        <time>2019-10-13T08:14:16Z</time>
      </trkpt>
      <trkpt lat="45.86409" lon="4.82015">
        <ele>295.8</ele>
        <time>2019-10-13T08:14:21Z</time>
      </trkpt>
      <trkpt lat="45.86407" lon="4.82014">
        <ele>296</ele>
        <time>2019-10-13T08:14:22Z</time>
      </trkpt>
      <trkpt lat="45.86396" lon="4.82009">
        <ele>296.6</ele>
        <time>2019-10-13T08:14:27Z</time>
      </trkpt>
      <trkpt lat="45.86392" lon="4.82008">
        <ele>296.9</ele>
        <time>2019-10-13T08:14:29Z</time>
      </trkpt>
      <trkpt lat="45.86386" lon="4.82005">
        <ele>297.3</ele>
        <time>2019-10-13T08:14:32Z</time>
      </trkpt>
      <trkpt lat="45.8638" lon="4.82003">
        <ele>298</ele>
        <time>2019-10-13T08:14:36Z</time>
      </trkpt>
      <trkpt lat="45.86378" lon="4.82002">
        <ele>298.2</ele>
        <time>2019-10-13T08:14:37Z</time>
      </trkpt>
      <trkpt lat="45.86373" lon="4.82001">
        <ele>298.7</ele>
        <time>2019-10-13T08:14:40Z</time>
      </trkpt>
      <trkpt lat="45.86366" lon="4.81999">
        <ele>299.5</ele>
        <time>2019-10-13T08:14:43Z</time>
      </trkpt>
      <trkpt lat="45.86361" lon="4.81995">
        <ele>300.1</ele>
        <time>2019-10-13T08:14:46Z</time>
      </trkpt>
      <trkpt lat="45.86353" lon="4.8199">
        <ele>301.2</ele>
        <time>2019-10-13T08:14:51Z</time>
      </trkpt>
      <trkpt lat="45.86339" lon="4.81984">
        <ele>302.4</ele>
        <time>2019-10-13T08:14:58Z</time>
      </trkpt>
      <trkpt lat="45.86336" lon="4.81983">
        <ele>302.6</ele>
        <time>2019-10-13T08:15:00Z</time>
      </trkpt>
      <trkpt lat="45.86324" lon="4.81976">
        <ele>303.4</ele>
        <time>2019-10-13T08:15:07Z</time>
      </trkpt>
      <trkpt lat="45.86309" lon="4.81966">
        <ele>304.7</ele>
        <time>2019-10-13T08:15:15Z</time>
      </trkpt>
      <trkpt lat="45.863" lon="4.81959">
        <ele>305.8</ele>
        <time>2019-10-13T08:15:21Z</time>
      </trkpt>
      <trkpt lat="45.86299" lon="4.81958">
        <ele>306</ele>
        <time>2019-10-13T08:15:22Z</time>
      </trkpt>
      <trkpt lat="45.86295" lon="4.8195">
        <ele>307.3</ele>
        <time>2019-10-13T08:15:26Z</time>
      </trkpt>
      <trkpt lat="45.86291" lon="4.81945">
        <ele>307.6</ele>
        <time>2019-10-13T08:15:29Z</time>
      </trkpt>
      <trkpt lat="45.86287" lon="4.81934">
        <ele>308</ele>
        <time>2019-10-13T08:15:33Z</time>
      </trkpt>
      <trkpt lat="45.86285" lon="4.81929">
        <ele>308.1</ele>
        <time>2019-10-13T08:15:35Z</time>
      </trkpt>
      <trkpt lat="45.86281" lon="4.81916">
        <ele>308.7</ele>
        <time>2019-10-13T08:15:41Z</time>
      </trkpt>
      <trkpt lat="45.86276" lon="4.81902">
        <ele>309.3</ele>
        <time>2019-10-13T08:15:48Z</time>
      </trkpt>
      <trkpt lat="45.86272" lon="4.8189">
        <ele>309.8</ele>
        <time>2019-10-13T08:15:53Z</time>
      </trkpt>
      <trkpt lat="45.86268" lon="4.81883">
        <ele>310.2</ele>
        <time>2019-10-13T08:15:56Z</time>
      </trkpt>
      <trkpt lat="45.86267" lon="4.81881">
        <ele>310.4</ele>
        <time>2019-10-13T08:15:57Z</time>
      </trkpt>
      <trkpt lat="45.86261" lon="4.81869">
        <ele>311.1</ele>
        <time>2019-10-13T08:16:03Z</time>
      </trkpt>
      <trkpt lat="45.86256" lon="4.81862">
        <ele>311.5</ele>
        <time>2019-10-13T08:16:07Z</time>
      </trkpt>
      <trkpt lat="45.86253" lon="4.81856">
        <ele>311.8</ele>
        <time>2019-10-13T08:16:10Z</time>
      </trkpt>
      <trkpt lat="45.86242" lon="4.81843">
        <ele>312.2</ele>
        <time>2019-10-13T08:16:17Z</time>
      </trkpt>
      <trkpt lat="45.86238" lon="4.81839">
        <ele>312.3</ele>
        <time>2019-10-13T08:16:19Z</time>
      </trkpt>
      <trkpt lat="45.86229" lon="4.81825">
        <ele>312.5</ele>
        <time>2019-10-13T08:16:25Z</time>
      </trkpt>
      <trkpt lat="45.86224" lon="4.81818">
        <ele>312.7</ele>
        <time>2019-10-13T08:16:28Z</time>
      </trkpt>
      <trkpt lat="45.86221" lon="4.81815">
        <ele>312.9</ele>
        <time>2019-10-13T08:16:30Z</time>
      </trkpt>
      <trkpt lat="45.86203" lon="4.81791">
        <ele>313.9</ele>
        <time>2019-10-13T08:16:42Z</time>
      </trkpt>
      <trkpt lat="45.86194" lon="4.81778">
        <ele>314.8</ele>
        <time>2019-10-13T08:16:48Z</time>
      </trkpt>
      <trkpt lat="45.86178" lon="4.81762">
        <ele>316.5</ele>
        <time>2019-10-13T08:16:56Z</time>
      </trkpt>
      <trkpt lat="45.86168" lon="4.81753">
        <ele>317.6</ele>
        <time>2019-10-13T08:17:02Z</time>
      </trkpt>
      <trkpt lat="45.86151" lon="4.8174">
        <ele>319.5</ele>
        <time>2019-10-13T08:17:10Z</time>
      </trkpt>
      <trkpt lat="45.86143" lon="4.81733">
        <ele>320.4</ele>
        <time>2019-10-13T08:17:14Z</time>
      </trkpt>
      <trkpt lat="45.86139" lon="4.81728">
        <ele>320.9</ele>
        <time>2019-10-13T08:17:17Z</time>
      </trkpt>
      <trkpt lat="45.86125" lon="4.81716">
        <ele>322.3</ele>
        <time>2019-10-13T08:17:24Z</time>
      </trkpt>
      <trkpt lat="45.86107" lon="4.81698">
        <ele>324.3</ele>
        <time>2019-10-13T08:17:32Z</time>
      </trkpt>
      <trkpt lat="45.86097" lon="4.81685">
        <ele>325.3</ele>
        <time>2019-10-13T08:17:37Z</time>
      </trkpt>
      <trkpt lat="45.86093" lon="4.81678">
        <ele>325.8</ele>
        <time>2019-10-13T08:17:39Z</time>
      </trkpt>
      <trkpt lat="45.86086" lon="4.81664">
        <ele>326.8</ele>
        <time>2019-10-13T08:17:44Z</time>
      </trkpt>
      <trkpt lat="45.86085" lon="4.81661">
        <ele>327</ele>
        <time>2019-10-13T08:17:45Z</time>
      </trkpt>
      <trkpt lat="45.86075" lon="4.81645">
        <ele>328.2</ele>
        <time>2019-10-13T08:17:51Z</time>
      </trkpt>
      <trkpt lat="45.86057" lon="4.8162">
        <ele>330.6</ele>
        <time>2019-10-13T08:17:59Z</time>
      </trkpt>
      <trkpt lat="45.86055" lon="4.81617">
        <ele>331</ele>
        <time>2019-10-13T08:18:00Z</time>
      </trkpt>
      <trkpt lat="45.86045" lon="4.81602">
        <ele>332.7</ele>
        <time>2019-10-13T08:18:06Z</time>
      </trkpt>
      <trkpt lat="45.86043" lon="4.81599">
        <ele>333.2</ele>
        <time>2019-10-13T08:18:07Z</time>
      </trkpt>
      <trkpt lat="45.86033" lon="4.81578">
        <ele>335.3</ele>
        <time>2019-10-13T08:18:14Z</time>
      </trkpt>
      <trkpt lat="45.86031" lon="4.81575">
        <ele>335.7</ele>
        <time>2019-10-13T08:18:15Z</time>
      </trkpt>
      <trkpt lat="45.86023" lon="4.81565">
        <ele>337.1</ele>
        <time>2019-10-13T08:18:19Z</time>
      </trkpt>
      <trkpt lat="45.86017" lon="4.81556">
        <ele>338.6</ele>
        <time>2019-10-13T08:18:23Z</time>
      </trkpt>
      <trkpt lat="45.86015" lon="4.8155">
        <ele>339.4</ele>
        <time>2019-10-13T08:18:25Z</time>
      </trkpt>
      <trkpt lat="45.86017" lon="4.81543">
        <ele>340.3</ele>
        <time>2019-10-13T08:18:28Z</time>
      </trkpt>
      <trkpt lat="45.86018" lon="4.81541">
        <ele>340.3</ele>
        <time>2019-10-13T08:18:29Z</time>
      </trkpt>
      <trkpt lat="45.86027" lon="4.81543">
        <ele>339.5</ele>
        <time>2019-10-13T08:18:34Z</time>
      </trkpt>
      <trkpt lat="45.86034" lon="4.81547">
        <ele>338.9</ele>
        <time>2019-10-13T08:18:36Z</time>
      </trkpt>
      <trkpt lat="45.86047" lon="4.81556">
        <ele>337.5</ele>
        <time>2019-10-13T08:18:38Z</time>
      </trkpt>
      <trkpt lat="45.86059" lon="4.81565">
        <ele>335.4</ele>
        <time>2019-10-13T08:18:40Z</time>
      </trkpt>
      <trkpt lat="45.8608" lon="4.8158">
        <ele>332.6</ele>
        <time>2019-10-13T08:18:43Z</time>
      </trkpt>
      <trkpt lat="45.86106" lon="4.81595">
        <ele>330.2</ele>
        <time>2019-10-13T08:18:46Z</time>
      </trkpt>
      <trkpt lat="45.86124" lon="4.81607">
        <ele>328</ele>
        <time>2019-10-13T08:18:48Z</time>
      </trkpt>
      <trkpt lat="45.86142" lon="4.81618">
        <ele>325</ele>
        <time>2019-10-13T08:18:50Z</time>
      </trkpt>
      <trkpt lat="45.8616" lon="4.81633">
        <ele>322.8</ele>
        <time>2019-10-13T08:18:52Z</time>
      </trkpt>
      <trkpt lat="45.86178" lon="4.81647">
        <ele>320.1</ele>
        <time>2019-10-13T08:18:54Z</time>
      </trkpt>
      <trkpt lat="45.86187" lon="4.81653">
        <ele>319</ele>
        <time>2019-10-13T08:18:55Z</time>
      </trkpt>
      <trkpt lat="45.86205" lon="4.81668">
        <ele>316.9</ele>
        <time>2019-10-13T08:18:57Z</time>
      </trkpt>
      <trkpt lat="45.86223" lon="4.81683">
        <ele>314.6</ele>
        <time>2019-10-13T08:18:59Z</time>
      </trkpt>
      <trkpt lat="45.86232" lon="4.81691">
        <ele>313.5</ele>
        <time>2019-10-13T08:19:00Z</time>
      </trkpt>
      <trkpt lat="45.86252" lon="4.81709">
        <ele>310.9</ele>
        <time>2019-10-13T08:19:02Z</time>
      </trkpt>
      <trkpt lat="45.86267" lon="4.81727">
        <ele>309</ele>
        <time>2019-10-13T08:19:04Z</time>
      </trkpt>
      <trkpt lat="45.86274" lon="4.81736">
        <ele>308.1</ele>
        <time>2019-10-13T08:19:05Z</time>
      </trkpt>
      <trkpt lat="45.86281" lon="4.81744">
        <ele>307.1</ele>
        <time>2019-10-13T08:19:06Z</time>
      </trkpt>
      <trkpt lat="45.86293" lon="4.8176">
        <ele>305.5</ele>
        <time>2019-10-13T08:19:08Z</time>
      </trkpt>
      <trkpt lat="45.86299" lon="4.81768">
        <ele>304.8</ele>
        <time>2019-10-13T08:19:09Z</time>
      </trkpt>
      <trkpt lat="45.86303" lon="4.81775">
        <ele>304.1</ele>
        <time>2019-10-13T08:19:10Z</time>
      </trkpt>
      <trkpt lat="45.86311" lon="4.81786">
        <ele>302.7</ele>
        <time>2019-10-13T08:19:12Z</time>
      </trkpt>
      <trkpt lat="45.86319" lon="4.81797">
        <ele>301.6</ele>
        <time>2019-10-13T08:19:14Z</time>
      </trkpt>
      <trkpt lat="45.86323" lon="4.81803">
        <ele>301</ele>
        <time>2019-10-13T08:19:15Z</time>
      </trkpt>
      <trkpt lat="45.86328" lon="4.81809">
        <ele>300.1</ele>
        <time>2019-10-13T08:19:16Z</time>
      </trkpt>
      <trkpt lat="45.86338" lon="4.81822">
        <ele>298.5</ele>
        <time>2019-10-13T08:19:18Z</time>
      </trkpt>
      <trkpt lat="45.86349" lon="4.81835">
        <ele>297.5</ele>
        <time>2019-10-13T08:19:20Z</time>
      </trkpt>
      <trkpt lat="45.86354" lon="4.8184">
        <ele>297.3</ele>
        <time>2019-10-13T08:19:21Z</time>
      </trkpt>
      <trkpt lat="45.86362" lon="4.81851">
        <ele>297.8</ele>
        <time>2019-10-13T08:19:23Z</time>
      </trkpt>
      <trkpt lat="45.86366" lon="4.81855">
        <ele>298.3</ele>
        <time>2019-10-13T08:19:24Z</time>
      </trkpt>
      <trkpt lat="45.86374" lon="4.81864">
        <ele>299.7</ele>
        <time>2019-10-13T08:19:26Z</time>
      </trkpt>
      <trkpt lat="45.86379" lon="4.81871">
        <ele>299.5</ele>
        <time>2019-10-13T08:19:27Z</time>
      </trkpt>
      <trkpt lat="45.86389" lon="4.81883">
        <ele>298.8</ele>
        <time>2019-10-13T08:19:29Z</time>
      </trkpt>
      <trkpt lat="45.864" lon="4.81896">
        <ele>297.8</ele>
        <time>2019-10-13T08:19:31Z</time>
      </trkpt>
      <trkpt lat="45.86413" lon="4.8191">
        <ele>296.5</ele>
        <time>2019-10-13T08:19:33Z</time>
      </trkpt>
      <trkpt lat="45.8642" lon="4.81916">
        <ele>295.8</ele>
        <time>2019-10-13T08:19:34Z</time>
      </trkpt>
      <trkpt lat="45.86427" lon="4.81922">
        <ele>295</ele>
        <time>2019-10-13T08:19:35Z</time>
      </trkpt>
      <trkpt lat="45.86441" lon="4.81931">
        <ele>293.9</ele>
        <time>2019-10-13T08:19:37Z</time>
      </trkpt>
      <trkpt lat="45.86456" lon="4.81938">
        <ele>292.6</ele>
        <time>2019-10-13T08:19:39Z</time>
      </trkpt>
      <trkpt lat="45.86472" lon="4.81942">
        <ele>291.5</ele>
        <time>2019-10-13T08:19:41Z</time>
      </trkpt>
      <trkpt lat="45.86489" lon="4.81943">
        <ele>290.3</ele>
        <time>2019-10-13T08:19:43Z</time>
      </trkpt>
      <trkpt lat="45.86497" lon="4.81944">
        <ele>289.6</ele>
        <time>2019-10-13T08:19:44Z</time>
      </trkpt>
      <trkpt lat="45.8651" lon="4.81944">
        <ele>289.2</ele>
        <time>2019-10-13T08:19:46Z</time>
      </trkpt>
      <trkpt lat="45.86512" lon="4.81945">
        <ele>289.1</ele>
        <time>2019-10-13T08:19:47Z</time>
      </trkpt>
      <trkpt lat="45.86513" lon="4.81947">
        <ele>289.1</ele>
        <time>2019-10-13T08:19:48Z</time>
      </trkpt>
      <trkpt lat="45.86513" lon="4.81952">
        <ele>288.9</ele>
        <time>2019-10-13T08:19:50Z</time>
      </trkpt>
      <trkpt lat="45.86511" lon="4.81957">
        <ele>288.8</ele>
        <time>2019-10-13T08:19:51Z</time>
      </trkpt>
      <trkpt lat="45.86509" lon="4.81967">
        <ele>288.5</ele>
        <time>2019-10-13T08:19:53Z</time>
      </trkpt>
      <trkpt lat="45.86509" lon="4.81972">
        <ele>288.3</ele>
        <time>2019-10-13T08:19:54Z</time>
      </trkpt>
      <trkpt lat="45.86511" lon="4.81979">
        <ele>288.1</ele>
        <time>2019-10-13T08:19:57Z</time>
      </trkpt>
      <trkpt lat="45.86513" lon="4.81981">
        <ele>287.9</ele>
        <time>2019-10-13T08:19:59Z</time>
      </trkpt>
      <trkpt lat="45.86518" lon="4.81987">
        <ele>287.6</ele>
        <time>2019-10-13T08:20:05Z</time>
      </trkpt>
      <trkpt lat="45.8652" lon="4.81988">
        <ele>287.5</ele>
        <time>2019-10-13T08:20:06Z</time>
      </trkpt>
      <trkpt lat="45.86525" lon="4.81993">
        <ele>287.2</ele>
        <time>2019-10-13T08:20:10Z</time>
      </trkpt>
      <trkpt lat="45.8653" lon="4.81997">
        <ele>287</ele>
        <time>2019-10-13T08:20:13Z</time>
      </trkpt>
      <trkpt lat="45.86541" lon="4.82005">
        <ele>286.4</ele>
        <time>2019-10-13T08:20:20Z</time>
      </trkpt>
      <trkpt lat="45.86551" lon="4.82016">
        <ele>286</ele>
        <time>2019-10-13T08:20:27Z</time>
      </trkpt>
      <trkpt lat="45.86556" lon="4.82019">
        <ele>285.8</ele>
        <time>2019-10-13T08:20:29Z</time>
      </trkpt>
      <trkpt lat="45.86559" lon="4.82022">
        <ele>285.8</ele>
        <time>2019-10-13T08:20:31Z</time>
      </trkpt>
      <trkpt lat="45.8657" lon="4.82033">
        <ele>285.6</ele>
        <time>2019-10-13T08:20:38Z</time>
      </trkpt>
      <trkpt lat="45.86573" lon="4.82037">
        <ele>285.6</ele>
        <time>2019-10-13T08:20:40Z</time>
      </trkpt>
      <trkpt lat="45.8658" lon="4.82046">
        <ele>285.6</ele>
        <time>2019-10-13T08:20:46Z</time>
      </trkpt>
      <trkpt lat="45.86583" lon="4.82048">
        <ele>285.5</ele>
        <time>2019-10-13T08:20:48Z</time>
      </trkpt>
      <trkpt lat="45.86589" lon="4.82054">
        <ele>285.5</ele>
        <time>2019-10-13T08:20:53Z</time>
      </trkpt>
      <trkpt lat="45.86591" lon="4.82056">
        <ele>285.5</ele>
        <time>2019-10-13T08:20:54Z</time>
      </trkpt>
      <trkpt lat="45.86601" lon="4.82068">
        <ele>285.2</ele>
        <time>2019-10-13T08:21:01Z</time>
      </trkpt>
      <trkpt lat="45.86604" lon="4.8207">
        <ele>285.1</ele>
        <time>2019-10-13T08:21:03Z</time>
      </trkpt>
      <trkpt lat="45.86614" lon="4.82076">
        <ele>284.7</ele>
        <time>2019-10-13T08:21:09Z</time>
      </trkpt>
      <trkpt lat="45.86628" lon="4.82075">
        <ele>284</ele>
        <time>2019-10-13T08:21:13Z</time>
      </trkpt>
      <trkpt lat="45.86633" lon="4.82075">
        <ele>283.7</ele>
        <time>2019-10-13T08:21:14Z</time>
      </trkpt>
      <trkpt lat="45.86644" lon="4.82074">
        <ele>283.2</ele>
        <time>2019-10-13T08:21:16Z</time>
      </trkpt>
      <trkpt lat="45.86667" lon="4.82077">
        <ele>281.9</ele>
        <time>2019-10-13T08:21:19Z</time>
      </trkpt>
      <trkpt lat="45.86706" lon="4.82077">
        <ele>278.8</ele>
        <time>2019-10-13T08:21:23Z</time>
      </trkpt>
      <trkpt lat="45.86726" lon="4.82074">
        <ele>276.4</ele>
        <time>2019-10-13T08:21:25Z</time>
      </trkpt>
      <trkpt lat="45.86753" lon="4.82068">
        <ele>273.5</ele>
        <time>2019-10-13T08:21:28Z</time>
      </trkpt>
      <trkpt lat="45.86779" lon="4.82068">
        <ele>271.3</ele>
        <time>2019-10-13T08:21:31Z</time>
      </trkpt>
      <trkpt lat="45.86796" lon="4.82068">
        <ele>270</ele>
        <time>2019-10-13T08:21:33Z</time>
      </trkpt>
      <trkpt lat="45.86818" lon="4.82066">
        <ele>268.8</ele>
        <time>2019-10-13T08:21:36Z</time>
      </trkpt>
      <trkpt lat="45.86821" lon="4.82065">
        <ele>268.6</ele>
        <time>2019-10-13T08:21:37Z</time>
      </trkpt>
      <trkpt lat="45.86824" lon="4.82063">
        <ele>268.5</ele>
        <time>2019-10-13T08:21:38Z</time>
      </trkpt>
      <trkpt lat="45.86826" lon="4.82058">
        <ele>268.2</ele>
        <time>2019-10-13T08:21:40Z</time>
      </trkpt>
      <trkpt lat="45.86815" lon="4.82046">
        <ele>267.4</ele>
        <time>2019-10-13T08:21:43Z</time>
      </trkpt>
      <trkpt lat="45.86803" lon="4.8204">
        <ele>266.4</ele>
        <time>2019-10-13T08:21:45Z</time>
      </trkpt>
      <trkpt lat="45.8679" lon="4.82037">
        <ele>265.8</ele>
        <time>2019-10-13T08:21:47Z</time>
      </trkpt>
      <trkpt lat="45.86782" lon="4.82036">
        <ele>265.7</ele>
        <time>2019-10-13T08:21:48Z</time>
      </trkpt>
      <trkpt lat="45.86775" lon="4.82035">
        <ele>265.6</ele>
        <time>2019-10-13T08:21:49Z</time>
      </trkpt>
      <trkpt lat="45.86751" lon="4.82033">
        <ele>265.1</ele>
        <time>2019-10-13T08:21:52Z</time>
      </trkpt>
      <trkpt lat="45.86742" lon="4.82032">
        <ele>264.8</ele>
        <time>2019-10-13T08:21:53Z</time>
      </trkpt>
      <trkpt lat="45.86734" lon="4.82029">
        <ele>264.3</ele>
        <time>2019-10-13T08:21:54Z</time>
      </trkpt>
      <trkpt lat="45.86726" lon="4.82025">
        <ele>263.7</ele>
        <time>2019-10-13T08:21:55Z</time>
      </trkpt>
      <trkpt lat="45.86713" lon="4.82016">
        <ele>262.3</ele>
        <time>2019-10-13T08:21:57Z</time>
      </trkpt>
      <trkpt lat="45.86708" lon="4.82012">
        <ele>261.6</ele>
        <time>2019-10-13T08:21:58Z</time>
      </trkpt>
      <trkpt lat="45.86707" lon="4.82006">
        <ele>260.9</ele>
        <time>2019-10-13T08:22:00Z</time>
      </trkpt>
      <trkpt lat="45.8671" lon="4.82003">
        <ele>260.2</ele>
        <time>2019-10-13T08:22:02Z</time>
      </trkpt>
      <trkpt lat="45.86713" lon="4.82001">
        <ele>259.7</ele>
        <time>2019-10-13T08:22:03Z</time>
      </trkpt>
      <trkpt lat="45.86716" lon="4.82">
        <ele>259.1</ele>
        <time>2019-10-13T08:22:04Z</time>
      </trkpt>
      <trkpt lat="45.86724" lon="4.81997">
        <ele>257.6</ele>
        <time>2019-10-13T08:22:06Z</time>
      </trkpt>
      <trkpt lat="45.86734" lon="4.81992">
        <ele>255.8</ele>
        <time>2019-10-13T08:22:08Z</time>
      </trkpt>
      <trkpt lat="45.8674" lon="4.8199">
        <ele>254.9</ele>
        <time>2019-10-13T08:22:09Z</time>
      </trkpt>
      <trkpt lat="45.86747" lon="4.81987">
        <ele>254.1</ele>
        <time>2019-10-13T08:22:10Z</time>
      </trkpt>
      <trkpt lat="45.86762" lon="4.81981">
        <ele>252.8</ele>
        <time>2019-10-13T08:22:12Z</time>
      </trkpt>
      <trkpt lat="45.8677" lon="4.81978">
        <ele>252.2</ele>
        <time>2019-10-13T08:22:13Z</time>
      </trkpt>
      <trkpt lat="45.86779" lon="4.81974">
        <ele>251.5</ele>
        <time>2019-10-13T08:22:14Z</time>
      </trkpt>
      <trkpt lat="45.86798" lon="4.81968">
        <ele>249.6</ele>
        <time>2019-10-13T08:22:16Z</time>
      </trkpt>
      <trkpt lat="45.86817" lon="4.81962">
        <ele>246.9</ele>
        <time>2019-10-13T08:22:18Z</time>
      </trkpt>
      <trkpt lat="45.86836" lon="4.81959">
        <ele>243.4</ele>
        <time>2019-10-13T08:22:20Z</time>
      </trkpt>
      <trkpt lat="45.86853" lon="4.81956">
        <ele>240</ele>
        <time>2019-10-13T08:22:22Z</time>
      </trkpt>
      <trkpt lat="45.86869" lon="4.81953">
        <ele>237.5</ele>
        <time>2019-10-13T08:22:24Z</time>
      </trkpt>
      <trkpt lat="45.86881" lon="4.81953">
        <ele>236.5</ele>
        <time>2019-10-13T08:22:26Z</time>
      </trkpt>
      <trkpt lat="45.86885" lon="4.81952">
        <ele>236.1</ele>
        <time>2019-10-13T08:22:28Z</time>
      </trkpt>
      <trkpt lat="45.86886" lon="4.81952">
        <ele>236.1</ele>
        <time>2019-10-13T08:22:29Z</time>
      </trkpt>
      <trkpt lat="45.86887" lon="4.8195">
        <ele>236</ele>
        <time>2019-10-13T08:22:37Z</time>
      </trkpt>
      <trkpt lat="45.86888" lon="4.81947">
        <ele>235.8</ele>
        <time>2019-10-13T08:22:38Z</time>
      </trkpt>
      <trkpt lat="45.8689" lon="4.81944">
        <ele>235.7</ele>
        <time>2019-10-13T08:22:39Z</time>
      </trkpt>
      <trkpt lat="45.8689" lon="4.81942">
        <ele>235.5</ele>
        <time>2019-10-13T08:22:40Z</time>
      </trkpt>
      <trkpt lat="45.86891" lon="4.81938">
        <ele>235.4</ele>
        <time>2019-10-13T08:22:42Z</time>
      </trkpt>
      <trkpt lat="45.8689" lon="4.81937">
        <ele>235.4</ele>
        <time>2019-10-13T08:22:43Z</time>
      </trkpt>
      <trkpt lat="45.8689" lon="4.81934">
        <ele>235.3</ele>
        <time>2019-10-13T08:22:44Z</time>
      </trkpt>
      <trkpt lat="45.8689" lon="4.81928">
        <ele>235.1</ele>
        <time>2019-10-13T08:22:46Z</time>
      </trkpt>
      <trkpt lat="45.86888" lon="4.81921">
        <ele>234.7</ele>
        <time>2019-10-13T08:22:48Z</time>
      </trkpt>
      <trkpt lat="45.86883" lon="4.81912">
        <ele>234.9</ele>
        <time>2019-10-13T08:22:51Z</time>
      </trkpt>
      <trkpt lat="45.86877" lon="4.81901">
        <ele>235</ele>
        <time>2019-10-13T08:22:54Z</time>
      </trkpt>
      <trkpt lat="45.86869" lon="4.81885">
        <ele>235.3</ele>
        <time>2019-10-13T08:22:58Z</time>
      </trkpt>
      <trkpt lat="45.86859" lon="4.81869">
        <ele>235.8</ele>
        <time>2019-10-13T08:23:02Z</time>
      </trkpt>
      <trkpt lat="45.86857" lon="4.81865">
        <ele>235.9</ele>
        <time>2019-10-13T08:23:03Z</time>
      </trkpt>
      <trkpt lat="45.86846" lon="4.81843">
        <ele>236.8</ele>
        <time>2019-10-13T08:23:09Z</time>
      </trkpt>
      <trkpt lat="45.86837" lon="4.81823">
        <ele>237.8</ele>
        <time>2019-10-13T08:23:14Z</time>
      </trkpt>
      <trkpt lat="45.86833" lon="4.81816">
        <ele>238.2</ele>
        <time>2019-10-13T08:23:16Z</time>
      </trkpt>
      <trkpt lat="45.86828" lon="4.81794">
        <ele>239.4</ele>
        <time>2019-10-13T08:23:22Z</time>
      </trkpt>
      <trkpt lat="45.86826" lon="4.81781">
        <ele>240.8</ele>
        <time>2019-10-13T08:23:27Z</time>
      </trkpt>
      <trkpt lat="45.86825" lon="4.81773">
        <ele>241.8</ele>
        <time>2019-10-13T08:23:31Z</time>
      </trkpt>
      <trkpt lat="45.86824" lon="4.81771">
        <ele>242</ele>
        <time>2019-10-13T08:23:32Z</time>
      </trkpt>
      <trkpt lat="45.86824" lon="4.81769">
        <ele>242.3</ele>
        <time>2019-10-13T08:23:33Z</time>
      </trkpt>
      <trkpt lat="45.86824" lon="4.81765">
        <ele>242.9</ele>
        <time>2019-10-13T08:23:35Z</time>
      </trkpt>
      <trkpt lat="45.86823" lon="4.81763">
        <ele>243.2</ele>
        <time>2019-10-13T08:23:36Z</time>
      </trkpt>
      <trkpt lat="45.86822" lon="4.81751">
        <ele>244.8</ele>
        <time>2019-10-13T08:23:42Z</time>
      </trkpt>
      <trkpt lat="45.86822" lon="4.81745">
        <ele>245.6</ele>
        <time>2019-10-13T08:23:45Z</time>
      </trkpt>
      <trkpt lat="45.86822" lon="4.81741">
        <ele>246.2</ele>
        <time>2019-10-13T08:23:47Z</time>
      </trkpt>
      <trkpt lat="45.86822" lon="4.81739">
        <ele>246.4</ele>
        <time>2019-10-13T08:23:48Z</time>
      </trkpt>
      <trkpt lat="45.86824" lon="4.81729">
        <ele>247.9</ele>
        <time>2019-10-13T08:23:54Z</time>
      </trkpt>
      <trkpt lat="45.86824" lon="4.81727">
        <ele>248.1</ele>
        <time>2019-10-13T08:23:55Z</time>
      </trkpt>
      <trkpt lat="45.86824" lon="4.81723">
        <ele>248.6</ele>
        <time>2019-10-13T08:23:57Z</time>
      </trkpt>
      <trkpt lat="45.86824" lon="4.81711">
        <ele>250.1</ele>
        <time>2019-10-13T08:24:03Z</time>
      </trkpt>
      <trkpt lat="45.86826" lon="4.817">
        <ele>251.5</ele>
        <time>2019-10-13T08:24:09Z</time>
      </trkpt>
      <trkpt lat="45.86826" lon="4.81696">
        <ele>252</ele>
        <time>2019-10-13T08:24:11Z</time>
      </trkpt>
      <trkpt lat="45.86827" lon="4.8169">
        <ele>252.8</ele>
        <time>2019-10-13T08:24:14Z</time>
      </trkpt>
      <trkpt lat="45.86829" lon="4.81683">
        <ele>253.8</ele>
        <time>2019-10-13T08:24:18Z</time>
      </trkpt>
      <trkpt lat="45.86829" lon="4.81681">
        <ele>254.1</ele>
        <time>2019-10-13T08:24:19Z</time>
      </trkpt>
      <trkpt lat="45.8683" lon="4.8167">
        <ele>255.6</ele>
        <time>2019-10-13T08:24:25Z</time>
      </trkpt>
      <trkpt lat="45.86831" lon="4.81669">
        <ele>255.8</ele>
        <time>2019-10-13T08:24:26Z</time>
      </trkpt>
      <trkpt lat="45.86831" lon="4.81665">
        <ele>256.2</ele>
        <time>2019-10-13T08:24:28Z</time>
      </trkpt>
      <trkpt lat="45.86832" lon="4.81657">
        <ele>257.3</ele>
        <time>2019-10-13T08:24:32Z</time>
      </trkpt>
      <trkpt lat="45.86832" lon="4.81651">
        <ele>258.1</ele>
        <time>2019-10-13T08:24:35Z</time>
      </trkpt>
      <trkpt lat="45.86833" lon="4.8164">
        <ele>259.4</ele>
        <time>2019-10-13T08:24:42Z</time>
      </trkpt>
      <trkpt lat="45.86832" lon="4.81633">
        <ele>260.2</ele>
        <time>2019-10-13T08:24:45Z</time>
      </trkpt>
      <trkpt lat="45.86831" lon="4.81625">
        <ele>261.2</ele>
        <time>2019-10-13T08:24:49Z</time>
      </trkpt>
      <trkpt lat="45.86832" lon="4.81619">
        <ele>261.7</ele>
        <time>2019-10-13T08:24:52Z</time>
      </trkpt>
      <trkpt lat="45.86832" lon="4.81613">
        <ele>262.3</ele>
        <time>2019-10-13T08:24:55Z</time>
      </trkpt>
      <trkpt lat="45.86831" lon="4.81602">
        <ele>263.4</ele>
        <time>2019-10-13T08:25:00Z</time>
      </trkpt>
      <trkpt lat="45.86831" lon="4.816">
        <ele>263.6</ele>
        <time>2019-10-13T08:25:01Z</time>
      </trkpt>
      <trkpt lat="45.86831" lon="4.81593">
        <ele>264.3</ele>
        <time>2019-10-13T08:25:05Z</time>
      </trkpt>
      <trkpt lat="45.86832" lon="4.81583">
        <ele>265.1</ele>
        <time>2019-10-13T08:25:10Z</time>
      </trkpt>
      <trkpt lat="45.8683" lon="4.81563">
        <ele>267.1</ele>
        <time>2019-10-13T08:25:20Z</time>
      </trkpt>
      <trkpt lat="45.8683" lon="4.81561">
        <ele>267.3</ele>
        <time>2019-10-13T08:25:21Z</time>
      </trkpt>
      <trkpt lat="45.86828" lon="4.81549">
        <ele>268.8</ele>
        <time>2019-10-13T08:25:28Z</time>
      </trkpt>
      <trkpt lat="45.86828" lon="4.81541">
        <ele>269.8</ele>
        <time>2019-10-13T08:25:32Z</time>
      </trkpt>
      <trkpt lat="45.86829" lon="4.81537">
        <ele>270.4</ele>
        <time>2019-10-13T08:25:35Z</time>
      </trkpt>
      <trkpt lat="45.86829" lon="4.81534">
        <ele>270.7</ele>
        <time>2019-10-13T08:25:37Z</time>
      </trkpt>
      <trkpt lat="45.86828" lon="4.81527">
        <ele>271.4</ele>
        <time>2019-10-13T08:25:40Z</time>
      </trkpt>
      <trkpt lat="45.86828" lon="4.81524">
        <ele>271.7</ele>
        <time>2019-10-13T08:25:42Z</time>
      </trkpt>
      <trkpt lat="45.86827" lon="4.81522">
        <ele>271.9</ele>
        <time>2019-10-13T08:25:43Z</time>
      </trkpt>
      <trkpt lat="45.86826" lon="4.81513">
        <ele>272.9</ele>
        <time>2019-10-13T08:25:47Z</time>
      </trkpt>
      <trkpt lat="45.86824" lon="4.81506">
        <ele>273.7</ele>
        <time>2019-10-13T08:25:50Z</time>
      </trkpt>
      <trkpt lat="45.86824" lon="4.81504">
        <ele>274</ele>
        <time>2019-10-13T08:25:51Z</time>
      </trkpt>
      <trkpt lat="45.86822" lon="4.81498">
        <ele>274.7</ele>
        <time>2019-10-13T08:25:54Z</time>
      </trkpt>
      <trkpt lat="45.8682" lon="4.81491">
        <ele>275.4</ele>
        <time>2019-10-13T08:25:57Z</time>
      </trkpt>
      <trkpt lat="45.8682" lon="4.81489">
        <ele>275.7</ele>
        <time>2019-10-13T08:25:58Z</time>
      </trkpt>
      <trkpt lat="45.86819" lon="4.81486">
        <ele>276</ele>
        <time>2019-10-13T08:26:00Z</time>
      </trkpt>
      <trkpt lat="45.86817" lon="4.81475">
        <ele>276.9</ele>
        <time>2019-10-13T08:26:05Z</time>
      </trkpt>
      <trkpt lat="45.86815" lon="4.81466">
        <ele>277.6</ele>
        <time>2019-10-13T08:26:09Z</time>
      </trkpt>
      <trkpt lat="45.86812" lon="4.81457">
        <ele>278.3</ele>
        <time>2019-10-13T08:26:13Z</time>
      </trkpt>
      <trkpt lat="45.86809" lon="4.81441">
        <ele>278.8</ele>
        <time>2019-10-13T08:26:20Z</time>
      </trkpt>
      <trkpt lat="45.86809" lon="4.81439">
        <ele>278.8</ele>
        <time>2019-10-13T08:26:21Z</time>
      </trkpt>
      <trkpt lat="45.86806" lon="4.8143">
        <ele>279.2</ele>
        <time>2019-10-13T08:26:25Z</time>
      </trkpt>
      <trkpt lat="45.86803" lon="4.81422">
        <ele>279.6</ele>
        <time>2019-10-13T08:26:29Z</time>
      </trkpt>
      <trkpt lat="45.86801" lon="4.81413">
        <ele>280</ele>
        <time>2019-10-13T08:26:33Z</time>
      </trkpt>
      <trkpt lat="45.86799" lon="4.81405">
        <ele>280.5</ele>
        <time>2019-10-13T08:26:36Z</time>
      </trkpt>
      <trkpt lat="45.86797" lon="4.81399">
        <ele>280.8</ele>
        <time>2019-10-13T08:26:39Z</time>
      </trkpt>
      <trkpt lat="45.86796" lon="4.81392">
        <ele>281.2</ele>
        <time>2019-10-13T08:26:42Z</time>
      </trkpt>
      <trkpt lat="45.86795" lon="4.81388">
        <ele>281.5</ele>
        <time>2019-10-13T08:26:44Z</time>
      </trkpt>
      <trkpt lat="45.86793" lon="4.81379">
        <ele>282.1</ele>
        <time>2019-10-13T08:26:48Z</time>
      </trkpt>
      <trkpt lat="45.86793" lon="4.81377">
        <ele>282.2</ele>
        <time>2019-10-13T08:26:49Z</time>
      </trkpt>
      <trkpt lat="45.86792" lon="4.81368">
        <ele>282.8</ele>
        <time>2019-10-13T08:26:53Z</time>
      </trkpt>
      <trkpt lat="45.86791" lon="4.81362">
        <ele>283.3</ele>
        <time>2019-10-13T08:26:56Z</time>
      </trkpt>
      <trkpt lat="45.86791" lon="4.81359">
        <ele>283.5</ele>
        <time>2019-10-13T08:26:57Z</time>
      </trkpt>
      <trkpt lat="45.8679" lon="4.81352">
        <ele>284.3</ele>
        <time>2019-10-13T08:27:00Z</time>
      </trkpt>
      <trkpt lat="45.86789" lon="4.81346">
        <ele>284.9</ele>
        <time>2019-10-13T08:27:03Z</time>
      </trkpt>
      <trkpt lat="45.86787" lon="4.81333">
        <ele>286.4</ele>
        <time>2019-10-13T08:27:09Z</time>
      </trkpt>
      <trkpt lat="45.86787" lon="4.8133">
        <ele>286.7</ele>
        <time>2019-10-13T08:27:10Z</time>
      </trkpt>
      <trkpt lat="45.86785" lon="4.81324">
        <ele>287.4</ele>
        <time>2019-10-13T08:27:13Z</time>
      </trkpt>
      <trkpt lat="45.86782" lon="4.81318">
        <ele>288.1</ele>
        <time>2019-10-13T08:27:16Z</time>
      </trkpt>
      <trkpt lat="45.86777" lon="4.81302">
        <ele>290.1</ele>
        <time>2019-10-13T08:27:23Z</time>
      </trkpt>
      <trkpt lat="45.86774" lon="4.81295">
        <ele>290.9</ele>
        <time>2019-10-13T08:27:27Z</time>
      </trkpt>
      <trkpt lat="45.86772" lon="4.81287">
        <ele>291.7</ele>
        <time>2019-10-13T08:27:31Z</time>
      </trkpt>
      <trkpt lat="45.86771" lon="4.81285">
        <ele>291.9</ele>
        <time>2019-10-13T08:27:32Z</time>
      </trkpt>
      <trkpt lat="45.86769" lon="4.81277">
        <ele>292.5</ele>
        <time>2019-10-13T08:27:36Z</time>
      </trkpt>
      <trkpt lat="45.86768" lon="4.8127">
        <ele>292.9</ele>
        <time>2019-10-13T08:27:39Z</time>
      </trkpt>
      <trkpt lat="45.86768" lon="4.81268">
        <ele>293.1</ele>
        <time>2019-10-13T08:27:40Z</time>
      </trkpt>
      <trkpt lat="45.86765" lon="4.81258">
        <ele>293.7</ele>
        <time>2019-10-13T08:27:45Z</time>
      </trkpt>
      <trkpt lat="45.86764" lon="4.81256">
        <ele>293.8</ele>
        <time>2019-10-13T08:27:46Z</time>
      </trkpt>
      <trkpt lat="45.86761" lon="4.81247">
        <ele>294.5</ele>
        <time>2019-10-13T08:27:50Z</time>
      </trkpt>
      <trkpt lat="45.8676" lon="4.81238">
        <ele>295.3</ele>
        <time>2019-10-13T08:27:54Z</time>
      </trkpt>
      <trkpt lat="45.86757" lon="4.81229">
        <ele>296.4</ele>
        <time>2019-10-13T08:27:58Z</time>
      </trkpt>
      <trkpt lat="45.86755" lon="4.81221">
        <ele>297.3</ele>
        <time>2019-10-13T08:28:02Z</time>
      </trkpt>
      <trkpt lat="45.86751" lon="4.81211">
        <ele>298.7</ele>
        <time>2019-10-13T08:28:07Z</time>
      </trkpt>
      <trkpt lat="45.86749" lon="4.81207">
        <ele>299.3</ele>
        <time>2019-10-13T08:28:09Z</time>
      </trkpt>
      <trkpt lat="45.86745" lon="4.81198">
        <ele>300.6</ele>
        <time>2019-10-13T08:28:13Z</time>
      </trkpt>
      <trkpt lat="45.86741" lon="4.81187">
        <ele>301.9</ele>
        <time>2019-10-13T08:28:18Z</time>
      </trkpt>
      <trkpt lat="45.86739" lon="4.81177">
        <ele>303</ele>
        <time>2019-10-13T08:28:22Z</time>
      </trkpt>
      <trkpt lat="45.86737" lon="4.81168">
        <ele>304</ele>
        <time>2019-10-13T08:28:26Z</time>
      </trkpt>
      <trkpt lat="45.86733" lon="4.81157">
        <ele>305</ele>
        <time>2019-10-13T08:28:31Z</time>
      </trkpt>
      <trkpt lat="45.86731" lon="4.8115">
        <ele>305.6</ele>
        <time>2019-10-13T08:28:34Z</time>
      </trkpt>
      <trkpt lat="45.8673" lon="4.81146">
        <ele>305.9</ele>
        <time>2019-10-13T08:28:36Z</time>
      </trkpt>
      <trkpt lat="45.86727" lon="4.8113">
        <ele>307.2</ele>
        <time>2019-10-13T08:28:43Z</time>
      </trkpt>
      <trkpt lat="45.86726" lon="4.81126">
        <ele>307.5</ele>
        <time>2019-10-13T08:28:45Z</time>
      </trkpt>
      <trkpt lat="45.86725" lon="4.81117">
        <ele>308.5</ele>
        <time>2019-10-13T08:28:50Z</time>
      </trkpt>
      <trkpt lat="45.86724" lon="4.81111">
        <ele>309</ele>
        <time>2019-10-13T08:28:53Z</time>
      </trkpt>
      <trkpt lat="45.86724" lon="4.81109">
        <ele>309.3</ele>
        <time>2019-10-13T08:28:54Z</time>
      </trkpt>
      <trkpt lat="45.86723" lon="4.81103">
        <ele>310</ele>
        <time>2019-10-13T08:28:57Z</time>
      </trkpt>
      <trkpt lat="45.86716" lon="4.81086">
        <ele>312.7</ele>
        <time>2019-10-13T08:29:06Z</time>
      </trkpt>
      <trkpt lat="45.86716" lon="4.81084">
        <ele>312.9</ele>
        <time>2019-10-13T08:29:07Z</time>
      </trkpt>
      <trkpt lat="45.86713" lon="4.81074">
        <ele>313.8</ele>
        <time>2019-10-13T08:29:13Z</time>
      </trkpt>
      <trkpt lat="45.86712" lon="4.81072">
        <ele>314</ele>
        <time>2019-10-13T08:29:14Z</time>
      </trkpt>
      <trkpt lat="45.8671" lon="4.81061">
        <ele>314.9</ele>
        <time>2019-10-13T08:29:19Z</time>
      </trkpt>
      <trkpt lat="45.86707" lon="4.81053">
        <ele>315.7</ele>
        <time>2019-10-13T08:29:23Z</time>
      </trkpt>
      <trkpt lat="45.86705" lon="4.81038">
        <ele>316.8</ele>
        <time>2019-10-13T08:29:30Z</time>
      </trkpt>
      <trkpt lat="45.86699" lon="4.81023">
        <ele>316.5</ele>
        <time>2019-10-13T08:29:38Z</time>
      </trkpt>
      <trkpt lat="45.86694" lon="4.81008">
        <ele>316.8</ele>
        <time>2019-10-13T08:29:45Z</time>
      </trkpt>
      <trkpt lat="45.86693" lon="4.81006">
        <ele>316.9</ele>
        <time>2019-10-13T08:29:46Z</time>
      </trkpt>
      <trkpt lat="45.86687" lon="4.80987">
        <ele>317.7</ele>
        <time>2019-10-13T08:29:55Z</time>
      </trkpt>
      <trkpt lat="45.86681" lon="4.80972">
        <ele>318.8</ele>
        <time>2019-10-13T08:30:03Z</time>
      </trkpt>
      <trkpt lat="45.86678" lon="4.80963">
        <ele>319.7</ele>
        <time>2019-10-13T08:30:08Z</time>
      </trkpt>
      <trkpt lat="45.86677" lon="4.8096">
        <ele>320</ele>
        <time>2019-10-13T08:30:10Z</time>
      </trkpt>
      <trkpt lat="45.86676" lon="4.80957">
        <ele>320.3</ele>
        <time>2019-10-13T08:30:12Z</time>
      </trkpt>
      <trkpt lat="45.86674" lon="4.80954">
        <ele>320.8</ele>
        <time>2019-10-13T08:30:14Z</time>
      </trkpt>
      <trkpt lat="45.86672" lon="4.8095">
        <ele>321.3</ele>
        <time>2019-10-13T08:30:17Z</time>
      </trkpt>
      <trkpt lat="45.86665" lon="4.80944">
        <ele>322.4</ele>
        <time>2019-10-13T08:30:23Z</time>
      </trkpt>
      <trkpt lat="45.86661" lon="4.80942">
        <ele>322.8</ele>
        <time>2019-10-13T08:30:26Z</time>
      </trkpt>
      <trkpt lat="45.86659" lon="4.80942">
        <ele>322.9</ele>
        <time>2019-10-13T08:30:27Z</time>
      </trkpt>
      <trkpt lat="45.86638" lon="4.80937">
        <ele>325.2</ele>
        <time>2019-10-13T08:30:43Z</time>
      </trkpt>
      <trkpt lat="45.86636" lon="4.80937">
        <ele>325.4</ele>
        <time>2019-10-13T08:30:44Z</time>
      </trkpt>
      <trkpt lat="45.86621" lon="4.80937">
        <ele>326.2</ele>
        <time>2019-10-13T08:30:51Z</time>
      </trkpt>
      <trkpt lat="45.8661" lon="4.80938">
        <ele>326.8</ele>
        <time>2019-10-13T08:30:57Z</time>
      </trkpt>
      <trkpt lat="45.86598" lon="4.80942">
        <ele>327.6</ele>
        <time>2019-10-13T08:31:04Z</time>
      </trkpt>
      <trkpt lat="45.86592" lon="4.80942">
        <ele>327.9</ele>
        <time>2019-10-13T08:31:07Z</time>
      </trkpt>
      <trkpt lat="45.86585" lon="4.80943">
        <ele>328.5</ele>
        <time>2019-10-13T08:31:11Z</time>
      </trkpt>
      <trkpt lat="45.86581" lon="4.80943">
        <ele>328.8</ele>
        <time>2019-10-13T08:31:13Z</time>
      </trkpt>
      <trkpt lat="45.86579" lon="4.80944">
        <ele>328.9</ele>
        <time>2019-10-13T08:31:14Z</time>
      </trkpt>
      <trkpt lat="45.8657" lon="4.80943">
        <ele>329.5</ele>
        <time>2019-10-13T08:31:19Z</time>
      </trkpt>
      <trkpt lat="45.86566" lon="4.80942">
        <ele>329.9</ele>
        <time>2019-10-13T08:31:21Z</time>
      </trkpt>
      <trkpt lat="45.86557" lon="4.8094">
        <ele>330.8</ele>
        <time>2019-10-13T08:31:26Z</time>
      </trkpt>
      <trkpt lat="45.86554" lon="4.80938">
        <ele>331</ele>
        <time>2019-10-13T08:31:28Z</time>
      </trkpt>
      <trkpt lat="45.86549" lon="4.80937">
        <ele>331.3</ele>
        <time>2019-10-13T08:31:31Z</time>
      </trkpt>
      <trkpt lat="45.86542" lon="4.80934">
        <ele>331.7</ele>
        <time>2019-10-13T08:31:35Z</time>
      </trkpt>
      <trkpt lat="45.86536" lon="4.8093">
        <ele>332</ele>
        <time>2019-10-13T08:31:38Z</time>
      </trkpt>
      <trkpt lat="45.86527" lon="4.80924">
        <ele>332.5</ele>
        <time>2019-10-13T08:31:43Z</time>
      </trkpt>
      <trkpt lat="45.86517" lon="4.80917">
        <ele>333.3</ele>
        <time>2019-10-13T08:31:49Z</time>
      </trkpt>
      <trkpt lat="45.86503" lon="4.80909">
        <ele>334.4</ele>
        <time>2019-10-13T08:31:56Z</time>
      </trkpt>
      <trkpt lat="45.86495" lon="4.80901">
        <ele>335</ele>
        <time>2019-10-13T08:32:01Z</time>
      </trkpt>
      <trkpt lat="45.8649" lon="4.80897">
        <ele>335.4</ele>
        <time>2019-10-13T08:32:04Z</time>
      </trkpt>
      <trkpt lat="45.86487" lon="4.80894">
        <ele>335.7</ele>
        <time>2019-10-13T08:32:06Z</time>
      </trkpt>
      <trkpt lat="45.86479" lon="4.80887">
        <ele>336.4</ele>
        <time>2019-10-13T08:32:11Z</time>
      </trkpt>
      <trkpt lat="45.86477" lon="4.80885">
        <ele>336.5</ele>
        <time>2019-10-13T08:32:12Z</time>
      </trkpt>
      <trkpt lat="45.86474" lon="4.80882">
        <ele>336.7</ele>
        <time>2019-10-13T08:32:14Z</time>
      </trkpt>
      <trkpt lat="45.86471" lon="4.80878">
        <ele>337</ele>
        <time>2019-10-13T08:32:17Z</time>
      </trkpt>
      <trkpt lat="45.8647" lon="4.80877">
        <ele>337.1</ele>
        <time>2019-10-13T08:32:18Z</time>
      </trkpt>
      <trkpt lat="45.86464" lon="4.80873">
        <ele>337.5</ele>
        <time>2019-10-13T08:32:21Z</time>
      </trkpt>
      <trkpt lat="45.86457" lon="4.80866">
        <ele>338.1</ele>
        <time>2019-10-13T08:32:25Z</time>
      </trkpt>
      <trkpt lat="45.86455" lon="4.80864">
        <ele>338.5</ele>
        <time>2019-10-13T08:32:26Z</time>
      </trkpt>
      <trkpt lat="45.86446" lon="4.80852">
        <ele>339.8</ele>
        <time>2019-10-13T08:32:33Z</time>
      </trkpt>
      <trkpt lat="45.86436" lon="4.80838">
        <ele>340.9</ele>
        <time>2019-10-13T08:32:41Z</time>
      </trkpt>
      <trkpt lat="45.86433" lon="4.80834">
        <ele>341.7</ele>
        <time>2019-10-13T08:32:44Z</time>
      </trkpt>
      <trkpt lat="45.86429" lon="4.80828">
        <ele>342.8</ele>
        <time>2019-10-13T08:32:48Z</time>
      </trkpt>
      <trkpt lat="45.86429" lon="4.80827">
        <ele>343.1</ele>
        <time>2019-10-13T08:32:49Z</time>
      </trkpt>
      <trkpt lat="45.86422" lon="4.8082">
        <ele>344.4</ele>
        <time>2019-10-13T08:32:54Z</time>
      </trkpt>
      <trkpt lat="45.86418" lon="4.80719">
        <ele>358.2</ele>
        <time>2019-10-13T08:33:56Z</time>
      </trkpt>
      <trkpt lat="45.86419" lon="4.80714">
        <ele>358.8</ele>
        <time>2019-10-13T08:33:59Z</time>
      </trkpt>
      <trkpt lat="45.86421" lon="4.80709">
        <ele>359.4</ele>
        <time>2019-10-13T08:34:02Z</time>
      </trkpt>
      <trkpt lat="45.86422" lon="4.807">
        <ele>360.2</ele>
        <time>2019-10-13T08:34:07Z</time>
      </trkpt>
      <trkpt lat="45.86423" lon="4.80698">
        <ele>360.4</ele>
        <time>2019-10-13T08:34:08Z</time>
      </trkpt>
      <trkpt lat="45.86423" lon="4.80688">
        <ele>361.3</ele>
        <time>2019-10-13T08:34:13Z</time>
      </trkpt>
      <trkpt lat="45.86423" lon="4.80686">
        <ele>361.4</ele>
        <time>2019-10-13T08:34:14Z</time>
      </trkpt>
      <trkpt lat="45.86424" lon="4.8068">
        <ele>361.8</ele>
        <time>2019-10-13T08:34:17Z</time>
      </trkpt>
      <trkpt lat="45.86423" lon="4.80673">
        <ele>362.3</ele>
        <time>2019-10-13T08:34:20Z</time>
      </trkpt>
      <trkpt lat="45.86421" lon="4.80664">
        <ele>363.1</ele>
        <time>2019-10-13T08:34:24Z</time>
      </trkpt>
      <trkpt lat="45.86419" lon="4.80655">
        <ele>364.1</ele>
        <time>2019-10-13T08:34:29Z</time>
      </trkpt>
      <trkpt lat="45.86413" lon="4.80636">
        <ele>366.2</ele>
        <time>2019-10-13T08:34:38Z</time>
      </trkpt>
      <trkpt lat="45.86411" lon="4.80622">
        <ele>366.9</ele>
        <time>2019-10-13T08:34:45Z</time>
      </trkpt>
      <trkpt lat="45.86407" lon="4.80608">
        <ele>367.5</ele>
        <time>2019-10-13T08:34:52Z</time>
      </trkpt>
      <trkpt lat="45.86406" lon="4.80601">
        <ele>368.1</ele>
        <time>2019-10-13T08:34:56Z</time>
      </trkpt>
      <trkpt lat="45.86404" lon="4.80594">
        <ele>368.6</ele>
        <time>2019-10-13T08:34:59Z</time>
      </trkpt>
      <trkpt lat="45.86399" lon="4.80577">
        <ele>370.2</ele>
        <time>2019-10-13T08:35:07Z</time>
      </trkpt>
      <trkpt lat="45.86398" lon="4.80568">
        <ele>371</ele>
        <time>2019-10-13T08:35:11Z</time>
      </trkpt>
      <trkpt lat="45.86396" lon="4.80561">
        <ele>371.6</ele>
        <time>2019-10-13T08:35:14Z</time>
      </trkpt>
      <trkpt lat="45.86392" lon="4.80547">
        <ele>372.8</ele>
        <time>2019-10-13T08:35:21Z</time>
      </trkpt>
      <trkpt lat="45.86391" lon="4.80545">
        <ele>373.1</ele>
        <time>2019-10-13T08:35:22Z</time>
      </trkpt>
      <trkpt lat="45.86391" lon="4.80543">
        <ele>373.2</ele>
        <time>2019-10-13T08:35:23Z</time>
      </trkpt>
      <trkpt lat="45.86389" lon="4.8054">
        <ele>373.6</ele>
        <time>2019-10-13T08:35:25Z</time>
      </trkpt>
      <trkpt lat="45.86387" lon="4.80533">
        <ele>374.2</ele>
        <time>2019-10-13T08:35:28Z</time>
      </trkpt>
      <trkpt lat="45.86386" lon="4.80531">
        <ele>374.4</ele>
        <time>2019-10-13T08:35:29Z</time>
      </trkpt>
      <trkpt lat="45.86385" lon="4.80527">
        <ele>374.8</ele>
        <time>2019-10-13T08:35:31Z</time>
      </trkpt>
      <trkpt lat="45.86383" lon="4.80521">
        <ele>375.6</ele>
        <time>2019-10-13T08:35:34Z</time>
      </trkpt>
      <trkpt lat="45.86382" lon="4.80513">
        <ele>376.5</ele>
        <time>2019-10-13T08:35:38Z</time>
      </trkpt>
      <trkpt lat="45.86381" lon="4.80511">
        <ele>376.8</ele>
        <time>2019-10-13T08:35:39Z</time>
      </trkpt>
      <trkpt lat="45.86378" lon="4.80502">
        <ele>378.1</ele>
        <time>2019-10-13T08:35:44Z</time>
      </trkpt>
      <trkpt lat="45.86377" lon="4.80496">
        <ele>378.8</ele>
        <time>2019-10-13T08:35:47Z</time>
      </trkpt>
      <trkpt lat="45.86374" lon="4.8049">
        <ele>380.2</ele>
        <time>2019-10-13T08:35:50Z</time>
      </trkpt>
      <trkpt lat="45.86371" lon="4.80483">
        <ele>381</ele>
        <time>2019-10-13T08:35:54Z</time>
      </trkpt>
      <trkpt lat="45.86371" lon="4.80481">
        <ele>381.1</ele>
        <time>2019-10-13T08:35:55Z</time>
      </trkpt>
      <trkpt lat="45.86369" lon="4.80476">
        <ele>381.7</ele>
        <time>2019-10-13T08:35:58Z</time>
      </trkpt>
      <trkpt lat="45.86366" lon="4.80467">
        <ele>382.6</ele>
        <time>2019-10-13T08:36:03Z</time>
      </trkpt>
      <trkpt lat="45.86365" lon="4.80464">
        <ele>383</ele>
        <time>2019-10-13T08:36:05Z</time>
      </trkpt>
      <trkpt lat="45.86364" lon="4.8046">
        <ele>383.3</ele>
        <time>2019-10-13T08:36:07Z</time>
      </trkpt>
      <trkpt lat="45.86362" lon="4.80452">
        <ele>383.9</ele>
        <time>2019-10-13T08:36:11Z</time>
      </trkpt>
      <trkpt lat="45.86361" lon="4.80451">
        <ele>384.1</ele>
        <time>2019-10-13T08:36:12Z</time>
      </trkpt>
      <trkpt lat="45.86359" lon="4.80445">
        <ele>384.6</ele>
        <time>2019-10-13T08:36:15Z</time>
      </trkpt>
      <trkpt lat="45.86357" lon="4.8044">
        <ele>385.2</ele>
        <time>2019-10-13T08:36:18Z</time>
      </trkpt>
      <trkpt lat="45.86356" lon="4.80436">
        <ele>385.5</ele>
        <time>2019-10-13T08:36:20Z</time>
      </trkpt>
      <trkpt lat="45.86354" lon="4.80433">
        <ele>385.8</ele>
        <time>2019-10-13T08:36:22Z</time>
      </trkpt>
      <trkpt lat="45.86352" lon="4.80426">
        <ele>386.3</ele>
        <time>2019-10-13T08:36:26Z</time>
      </trkpt>
      <trkpt lat="45.86351" lon="4.80424">
        <ele>386.5</ele>
        <time>2019-10-13T08:36:27Z</time>
      </trkpt>
      <trkpt lat="45.8635" lon="4.80421">
        <ele>386.7</ele>
        <time>2019-10-13T08:36:29Z</time>
      </trkpt>
      <trkpt lat="45.86346" lon="4.80412">
        <ele>387.4</ele>
        <time>2019-10-13T08:36:34Z</time>
      </trkpt>
      <trkpt lat="45.86346" lon="4.8041">
        <ele>387.6</ele>
        <time>2019-10-13T08:36:35Z</time>
      </trkpt>
      <trkpt lat="45.86343" lon="4.804">
        <ele>388.3</ele>
        <time>2019-10-13T08:36:40Z</time>
      </trkpt>
      <trkpt lat="45.86342" lon="4.80396">
        <ele>388.5</ele>
        <time>2019-10-13T08:36:42Z</time>
      </trkpt>
      <trkpt lat="45.8634" lon="4.80387">
        <ele>389.2</ele>
        <time>2019-10-13T08:36:47Z</time>
      </trkpt>
      <trkpt lat="45.86339" lon="4.80381">
        <ele>389.6</ele>
        <time>2019-10-13T08:36:50Z</time>
      </trkpt>
      <trkpt lat="45.86338" lon="4.80379">
        <ele>389.7</ele>
        <time>2019-10-13T08:36:51Z</time>
      </trkpt>
      <trkpt lat="45.86336" lon="4.80372">
        <ele>390.2</ele>
        <time>2019-10-13T08:36:55Z</time>
      </trkpt>
      <trkpt lat="45.86335" lon="4.80367">
        <ele>390.5</ele>
        <time>2019-10-13T08:36:58Z</time>
      </trkpt>
      <trkpt lat="45.86335" lon="4.80363">
        <ele>390.8</ele>
        <time>2019-10-13T08:37:00Z</time>
      </trkpt>
      <trkpt lat="45.86335" lon="4.80361">
        <ele>390.9</ele>
        <time>2019-10-13T08:37:01Z</time>
      </trkpt>
      <trkpt lat="45.86333" lon="4.8035">
        <ele>391.7</ele>
        <time>2019-10-13T08:37:07Z</time>
      </trkpt>
      <trkpt lat="45.86327" lon="4.80334">
        <ele>392.7</ele>
        <time>2019-10-13T08:37:14Z</time>
      </trkpt>
      <trkpt lat="45.86327" lon="4.80333">
        <ele>392.8</ele>
        <time>2019-10-13T08:37:15Z</time>
      </trkpt>
      <trkpt lat="45.86321" lon="4.80326">
        <ele>393.5</ele>
        <time>2019-10-13T08:37:20Z</time>
      </trkpt>
      <trkpt lat="45.86316" lon="4.80316">
        <ele>394.5</ele>
        <time>2019-10-13T08:37:25Z</time>
      </trkpt>
      <trkpt lat="45.86314" lon="4.80311">
        <ele>395.1</ele>
        <time>2019-10-13T08:37:28Z</time>
      </trkpt>
      <trkpt lat="45.8631" lon="4.80303">
        <ele>396.1</ele>
        <time>2019-10-13T08:37:33Z</time>
      </trkpt>
      <trkpt lat="45.86309" lon="4.80299">
        <ele>396.5</ele>
        <time>2019-10-13T08:37:35Z</time>
      </trkpt>
      <trkpt lat="45.86308" lon="4.80298">
        <ele>396.7</ele>
        <time>2019-10-13T08:37:36Z</time>
      </trkpt>
      <trkpt lat="45.86305" lon="4.80292">
        <ele>397.5</ele>
        <time>2019-10-13T08:37:40Z</time>
      </trkpt>
      <trkpt lat="45.86302" lon="4.80285">
        <ele>398.2</ele>
        <time>2019-10-13T08:37:43Z</time>
      </trkpt>
      <trkpt lat="45.86302" lon="4.80284">
        <ele>398.4</ele>
        <time>2019-10-13T08:37:44Z</time>
      </trkpt>
      <trkpt lat="45.86302" lon="4.80278">
        <ele>399</ele>
        <time>2019-10-13T08:37:47Z</time>
      </trkpt>
      <trkpt lat="45.86299" lon="4.80269">
        <ele>399.9</ele>
        <time>2019-10-13T08:37:52Z</time>
      </trkpt>
      <trkpt lat="45.86298" lon="4.80259">
        <ele>400.9</ele>
        <time>2019-10-13T08:37:57Z</time>
      </trkpt>
      <trkpt lat="45.86297" lon="4.80256">
        <ele>401.2</ele>
        <time>2019-10-13T08:37:59Z</time>
      </trkpt>
      <trkpt lat="45.86296" lon="4.80239">
        <ele>402.9</ele>
        <time>2019-10-13T08:38:08Z</time>
      </trkpt>
      <trkpt lat="45.86295" lon="4.80235">
        <ele>403.4</ele>
        <time>2019-10-13T08:38:10Z</time>
      </trkpt>
      <trkpt lat="45.86292" lon="4.80222">
        <ele>404.7</ele>
        <time>2019-10-13T08:38:16Z</time>
      </trkpt>
      <trkpt lat="45.86289" lon="4.80216">
        <ele>405.4</ele>
        <time>2019-10-13T08:38:19Z</time>
      </trkpt>
      <trkpt lat="45.86288" lon="4.80212">
        <ele>405.8</ele>
        <time>2019-10-13T08:38:21Z</time>
      </trkpt>
      <trkpt lat="45.86282" lon="4.80205">
        <ele>406.7</ele>
        <time>2019-10-13T08:38:26Z</time>
      </trkpt>
      <trkpt lat="45.86281" lon="4.80204">
        <ele>406.9</ele>
        <time>2019-10-13T08:38:27Z</time>
      </trkpt>
      <trkpt lat="45.86279" lon="4.80201">
        <ele>407.3</ele>
        <time>2019-10-13T08:38:30Z</time>
      </trkpt>
      <trkpt lat="45.86274" lon="4.80196">
        <ele>408</ele>
        <time>2019-10-13T08:38:34Z</time>
      </trkpt>
      <trkpt lat="45.8625" lon="4.80101">
        <ele>420.6</ele>
        <time>2019-10-13T08:39:32Z</time>
      </trkpt>
      <trkpt lat="45.86249" lon="4.80096">
        <ele>421.2</ele>
        <time>2019-10-13T08:39:36Z</time>
      </trkpt>
      <trkpt lat="45.86243" lon="4.80044">
        <ele>427.4</ele>
        <time>2019-10-13T08:40:07Z</time>
      </trkpt>
      <trkpt lat="45.86243" lon="4.80024">
        <ele>429.7</ele>
        <time>2019-10-13T08:40:17Z</time>
      </trkpt>
      <trkpt lat="45.86241" lon="4.80009">
        <ele>431.2</ele>
        <time>2019-10-13T08:40:26Z</time>
      </trkpt>
      <trkpt lat="45.86241" lon="4.80008">
        <ele>431.3</ele>
        <time>2019-10-13T08:40:27Z</time>
      </trkpt>
      <trkpt lat="45.86231" lon="4.80002">
        <ele>432.3</ele>
        <time>2019-10-13T08:41:54Z</time>
      </trkpt>
      <trkpt lat="45.86226" lon="4.8">
        <ele>432.8</ele>
        <time>2019-10-13T08:41:57Z</time>
      </trkpt>
      <trkpt lat="45.86219" lon="4.79996">
        <ele>433.4</ele>
        <time>2019-10-13T08:42:01Z</time>
      </trkpt>
      <trkpt lat="45.86217" lon="4.79995">
        <ele>433.5</ele>
        <time>2019-10-13T08:42:02Z</time>
      </trkpt>
      <trkpt lat="45.86212" lon="4.79993">
        <ele>433.7</ele>
        <time>2019-10-13T08:42:05Z</time>
      </trkpt>
      <trkpt lat="45.86204" lon="4.79993">
        <ele>434.1</ele>
        <time>2019-10-13T08:42:10Z</time>
      </trkpt>
      <trkpt lat="45.86202" lon="4.79992">
        <ele>434.1</ele>
        <time>2019-10-13T08:42:11Z</time>
      </trkpt>
      <trkpt lat="45.86189" lon="4.7999">
        <ele>434.7</ele>
        <time>2019-10-13T08:42:19Z</time>
      </trkpt>
      <trkpt lat="45.86186" lon="4.7999">
        <ele>434.8</ele>
        <time>2019-10-13T08:42:21Z</time>
      </trkpt>
      <trkpt lat="45.86181" lon="4.79985">
        <ele>435</ele>
        <time>2019-10-13T08:42:25Z</time>
      </trkpt>
      <trkpt lat="45.86183" lon="4.79982">
        <ele>435.2</ele>
        <time>2019-10-13T08:42:27Z</time>
      </trkpt>
      <trkpt lat="45.86188" lon="4.79981">
        <ele>435.4</ele>
        <time>2019-10-13T08:42:30Z</time>
      </trkpt>
      <trkpt lat="45.86192" lon="4.7998">
        <ele>435.5</ele>
        <time>2019-10-13T08:42:32Z</time>
      </trkpt>
      <trkpt lat="45.86193" lon="4.7998">
        <ele>435.5</ele>
        <time>2019-10-13T08:42:33Z</time>
      </trkpt>
      <trkpt lat="45.86205" lon="4.79976">
        <ele>437.2</ele>
        <time>2019-10-13T08:42:40Z</time>
      </trkpt>
      <trkpt lat="45.86209" lon="4.79971">
        <ele>437.2</ele>
        <time>2019-10-13T08:42:43Z</time>
      </trkpt>
      <trkpt lat="45.86213" lon="4.79964">
        <ele>438</ele>
        <time>2019-10-13T08:42:47Z</time>
      </trkpt>
      <trkpt lat="45.86214" lon="4.79959">
        <ele>438.5</ele>
        <time>2019-10-13T08:42:49Z</time>
      </trkpt>
      <trkpt lat="45.86216" lon="4.79948">
        <ele>439.9</ele>
        <time>2019-10-13T08:42:54Z</time>
      </trkpt>
      <trkpt lat="45.86216" lon="4.79945">
        <ele>440.2</ele>
        <time>2019-10-13T08:42:55Z</time>
      </trkpt>
      <trkpt lat="45.86218" lon="4.79935">
        <ele>441.5</ele>
        <time>2019-10-13T08:42:59Z</time>
      </trkpt>
      <trkpt lat="45.8622" lon="4.79926">
        <ele>442.4</ele>
        <time>2019-10-13T08:43:03Z</time>
      </trkpt>
      <trkpt lat="45.86221" lon="4.79921">
        <ele>442.9</ele>
        <time>2019-10-13T08:43:05Z</time>
      </trkpt>
      <trkpt lat="45.86223" lon="4.79914">
        <ele>443.6</ele>
        <time>2019-10-13T08:43:08Z</time>
      </trkpt>
      <trkpt lat="45.8623" lon="4.7991">
        <ele>444.9</ele>
        <time>2019-10-13T08:43:12Z</time>
      </trkpt>
      <trkpt lat="45.86239" lon="4.79908">
        <ele>445.7</ele>
        <time>2019-10-13T08:43:16Z</time>
      </trkpt>
      <trkpt lat="45.86252" lon="4.799">
        <ele>446.9</ele>
        <time>2019-10-13T08:43:23Z</time>
      </trkpt>
      <trkpt lat="45.8626" lon="4.79895">
        <ele>447.5</ele>
        <time>2019-10-13T08:43:27Z</time>
      </trkpt>
      <trkpt lat="45.8627" lon="4.79888">
        <ele>448.3</ele>
        <time>2019-10-13T08:43:32Z</time>
      </trkpt>
      <trkpt lat="45.86279" lon="4.79882">
        <ele>449</ele>
        <time>2019-10-13T08:43:37Z</time>
      </trkpt>
      <trkpt lat="45.86283" lon="4.79879">
        <ele>449.2</ele>
        <time>2019-10-13T08:43:40Z</time>
      </trkpt>
      <trkpt lat="45.86291" lon="4.79873">
        <ele>449.6</ele>
        <time>2019-10-13T08:43:46Z</time>
      </trkpt>
      <trkpt lat="45.86293" lon="4.7987">
        <ele>449.7</ele>
        <time>2019-10-13T08:43:48Z</time>
      </trkpt>
      <trkpt lat="45.86294" lon="4.79867">
        <ele>449.8</ele>
        <time>2019-10-13T08:43:50Z</time>
      </trkpt>
      <trkpt lat="45.86292" lon="4.79865">
        <ele>449.9</ele>
        <time>2019-10-13T08:43:53Z</time>
      </trkpt>
      <trkpt lat="45.8629" lon="4.79863">
        <ele>450</ele>
        <time>2019-10-13T08:43:55Z</time>
      </trkpt>
      <trkpt lat="45.86288" lon="4.79862">
        <ele>450</ele>
        <time>2019-10-13T08:43:58Z</time>
      </trkpt>
      <trkpt lat="45.86286" lon="4.79862">
        <ele>450.6</ele>
        <time>2019-10-13T08:44:00Z</time>
      </trkpt>
      <trkpt lat="45.86281" lon="4.7986">
        <ele>451.2</ele>
        <time>2019-10-13T08:44:04Z</time>
      </trkpt>
      <trkpt lat="45.8628" lon="4.79853">
        <ele>451.9</ele>
        <time>2019-10-13T08:44:09Z</time>
      </trkpt>
      <trkpt lat="45.86279" lon="4.79849">
        <ele>452.2</ele>
        <time>2019-10-13T08:44:11Z</time>
      </trkpt>
      <trkpt lat="45.8628" lon="4.79841">
        <ele>453.2</ele>
        <time>2019-10-13T08:44:16Z</time>
      </trkpt>
      <trkpt lat="45.8628" lon="4.79837">
        <ele>453.7</ele>
        <time>2019-10-13T08:44:18Z</time>
      </trkpt>
      <trkpt lat="45.8628" lon="4.79831">
        <ele>454.4</ele>
        <time>2019-10-13T08:44:21Z</time>
      </trkpt>
      <trkpt lat="45.8628" lon="4.79826">
        <ele>455.1</ele>
        <time>2019-10-13T08:44:24Z</time>
      </trkpt>
      <trkpt lat="45.8628" lon="4.79825">
        <ele>455.3</ele>
        <time>2019-10-13T08:44:25Z</time>
      </trkpt>
      <trkpt lat="45.86279" lon="4.79819">
        <ele>456.3</ele>
        <time>2019-10-13T08:44:29Z</time>
      </trkpt>
      <trkpt lat="45.86279" lon="4.79813">
        <ele>457.1</ele>
        <time>2019-10-13T08:44:32Z</time>
      </trkpt>
      <trkpt lat="45.86279" lon="4.79812">
        <ele>457.3</ele>
        <time>2019-10-13T08:44:33Z</time>
      </trkpt>
      <trkpt lat="45.86279" lon="4.79805">
        <ele>458.2</ele>
        <time>2019-10-13T08:44:37Z</time>
      </trkpt>
      <trkpt lat="45.86277" lon="4.79803">
        <ele>458.5</ele>
        <time>2019-10-13T08:44:39Z</time>
      </trkpt>
      <trkpt lat="45.86276" lon="4.798">
        <ele>458.9</ele>
        <time>2019-10-13T08:44:41Z</time>
      </trkpt>
      <trkpt lat="45.86272" lon="4.79795">
        <ele>460.4</ele>
        <time>2019-10-13T08:44:46Z</time>
      </trkpt>
      <trkpt lat="45.86239" lon="4.79762">
        <ele>466.4</ele>
        <time>2019-10-13T08:48:41Z</time>
      </trkpt>
      <trkpt lat="45.86241" lon="4.79755">
        <ele>467.3</ele>
        <time>2019-10-13T08:48:44Z</time>
      </trkpt>
      <trkpt lat="45.86242" lon="4.79754">
        <ele>467.6</ele>
        <time>2019-10-13T08:48:45Z</time>
      </trkpt>
      <trkpt lat="45.86243" lon="4.79753">
        <ele>467.8</ele>
        <time>2019-10-13T08:48:46Z</time>
      </trkpt>
      <trkpt lat="45.86247" lon="4.7975">
        <ele>468.5</ele>
        <time>2019-10-13T08:48:49Z</time>
      </trkpt>
      <trkpt lat="45.86264" lon="4.79733">
        <ele>470.8</ele>
        <time>2019-10-13T08:49:00Z</time>
      </trkpt>
      <trkpt lat="45.86269" lon="4.79728">
        <ele>471.1</ele>
        <time>2019-10-13T08:49:03Z</time>
      </trkpt>
      <trkpt lat="45.86275" lon="4.79724">
        <ele>471.6</ele>
        <time>2019-10-13T08:49:06Z</time>
      </trkpt>
      <trkpt lat="45.8628" lon="4.79722">
        <ele>472</ele>
        <time>2019-10-13T08:49:09Z</time>
      </trkpt>
      <trkpt lat="45.86296" lon="4.79717">
        <ele>473.3</ele>
        <time>2019-10-13T08:49:16Z</time>
      </trkpt>
      <trkpt lat="45.86318" lon="4.79714">
        <ele>474.9</ele>
        <time>2019-10-13T08:49:25Z</time>
      </trkpt>
      <trkpt lat="45.8632" lon="4.79714">
        <ele>475.1</ele>
        <time>2019-10-13T08:49:26Z</time>
      </trkpt>
      <trkpt lat="45.86338" lon="4.79713">
        <ele>476</ele>
        <time>2019-10-13T08:49:35Z</time>
      </trkpt>
      <trkpt lat="45.8634" lon="4.79712">
        <ele>476</ele>
        <time>2019-10-13T08:49:36Z</time>
      </trkpt>
      <trkpt lat="45.86352" lon="4.79711">
        <ele>476.4</ele>
        <time>2019-10-13T08:49:43Z</time>
      </trkpt>
      <trkpt lat="45.86366" lon="4.79706">
        <ele>476.9</ele>
        <time>2019-10-13T08:49:51Z</time>
      </trkpt>
      <trkpt lat="45.86374" lon="4.79704">
        <ele>477.3</ele>
        <time>2019-10-13T08:49:56Z</time>
      </trkpt>
      <trkpt lat="45.86378" lon="4.79704">
        <ele>477.5</ele>
        <time>2019-10-13T08:49:58Z</time>
      </trkpt>
      <trkpt lat="45.86382" lon="4.79703">
        <ele>477.7</ele>
        <time>2019-10-13T08:50:00Z</time>
      </trkpt>
      <trkpt lat="45.86388" lon="4.79702">
        <ele>478</ele>
        <time>2019-10-13T08:50:03Z</time>
      </trkpt>
      <trkpt lat="45.86395" lon="4.797">
        <ele>478.3</ele>
        <time>2019-10-13T08:50:06Z</time>
      </trkpt>
      <trkpt lat="45.864" lon="4.79699">
        <ele>478.5</ele>
        <time>2019-10-13T08:50:09Z</time>
      </trkpt>
      <trkpt lat="45.86406" lon="4.79698">
        <ele>478.9</ele>
        <time>2019-10-13T08:50:12Z</time>
      </trkpt>
      <trkpt lat="45.86408" lon="4.79698">
        <ele>479</ele>
        <time>2019-10-13T08:50:13Z</time>
      </trkpt>
      <trkpt lat="45.86412" lon="4.79699">
        <ele>479.2</ele>
        <time>2019-10-13T08:50:15Z</time>
      </trkpt>
      <trkpt lat="45.86418" lon="4.79699">
        <ele>479.6</ele>
        <time>2019-10-13T08:50:18Z</time>
      </trkpt>
      <trkpt lat="45.86422" lon="4.79697">
        <ele>479.8</ele>
        <time>2019-10-13T08:50:20Z</time>
      </trkpt>
      <trkpt lat="45.86426" lon="4.79697">
        <ele>480.1</ele>
        <time>2019-10-13T08:50:22Z</time>
      </trkpt>
      <trkpt lat="45.86438" lon="4.79694">
        <ele>480.8</ele>
        <time>2019-10-13T08:50:26Z</time>
      </trkpt>
      <trkpt lat="45.86441" lon="4.79693">
        <ele>481</ele>
        <time>2019-10-13T08:50:27Z</time>
      </trkpt>
      <trkpt lat="45.86447" lon="4.79692">
        <ele>481.4</ele>
        <time>2019-10-13T08:50:29Z</time>
      </trkpt>
      <trkpt lat="45.86455" lon="4.79692">
        <ele>482</ele>
        <time>2019-10-13T08:50:32Z</time>
      </trkpt>
      <trkpt lat="45.86464" lon="4.7969">
        <ele>482.7</ele>
        <time>2019-10-13T08:50:36Z</time>
      </trkpt>
      <trkpt lat="45.8647" lon="4.79689">
        <ele>483.1</ele>
        <time>2019-10-13T08:50:39Z</time>
      </trkpt>
      <trkpt lat="45.86483" lon="4.79688">
        <ele>484</ele>
        <time>2019-10-13T08:50:44Z</time>
      </trkpt>
      <trkpt lat="45.8649" lon="4.79688">
        <ele>484.4</ele>
        <time>2019-10-13T08:50:47Z</time>
      </trkpt>
      <trkpt lat="45.86492" lon="4.79688">
        <ele>484.6</ele>
        <time>2019-10-13T08:50:48Z</time>
      </trkpt>
      <trkpt lat="45.86502" lon="4.79687">
        <ele>485</ele>
        <time>2019-10-13T08:50:52Z</time>
      </trkpt>
      <trkpt lat="45.86507" lon="4.79686">
        <ele>485.2</ele>
        <time>2019-10-13T08:50:55Z</time>
      </trkpt>
      <trkpt lat="45.86522" lon="4.79684">
        <ele>482.1</ele>
        <time>2019-10-13T08:51:03Z</time>
      </trkpt>
      <trkpt lat="45.8654" lon="4.79684">
        <ele>478.9</ele>
        <time>2019-10-13T08:51:11Z</time>
      </trkpt>
      <trkpt lat="45.86549" lon="4.79684">
        <ele>477.3</ele>
        <time>2019-10-13T08:51:15Z</time>
      </trkpt>
      <trkpt lat="45.86559" lon="4.79682">
        <ele>475.4</ele>
        <time>2019-10-13T08:51:19Z</time>
      </trkpt>
      <trkpt lat="45.86561" lon="4.79681">
        <ele>474.9</ele>
        <time>2019-10-13T08:51:20Z</time>
      </trkpt>
      <trkpt lat="45.86571" lon="4.79677">
        <ele>472.8</ele>
        <time>2019-10-13T08:51:25Z</time>
      </trkpt>
      <trkpt lat="45.86576" lon="4.79671">
        <ele>472.4</ele>
        <time>2019-10-13T08:51:28Z</time>
      </trkpt>
      <trkpt lat="45.86579" lon="4.79665">
        <ele>472.7</ele>
        <time>2019-10-13T08:51:31Z</time>
      </trkpt>
      <trkpt lat="45.8658" lon="4.79663">
        <ele>472.8</ele>
        <time>2019-10-13T08:51:32Z</time>
      </trkpt>
      <trkpt lat="45.86581" lon="4.79658">
        <ele>472.9</ele>
        <time>2019-10-13T08:51:34Z</time>
      </trkpt>
      <trkpt lat="45.86581" lon="4.79655">
        <ele>473</ele>
        <time>2019-10-13T08:51:35Z</time>
      </trkpt>
      <trkpt lat="45.86581" lon="4.79652">
        <ele>473.1</ele>
        <time>2019-10-13T08:51:36Z</time>
      </trkpt>
      <trkpt lat="45.86582" lon="4.79647">
        <ele>473.2</ele>
        <time>2019-10-13T08:51:38Z</time>
      </trkpt>
      <trkpt lat="45.86581" lon="4.7964">
        <ele>473.3</ele>
        <time>2019-10-13T08:51:40Z</time>
      </trkpt>
      <trkpt lat="45.8658" lon="4.79633">
        <ele>473.4</ele>
        <time>2019-10-13T08:51:42Z</time>
      </trkpt>
      <trkpt lat="45.8658" lon="4.79628">
        <ele>473.4</ele>
        <time>2019-10-13T08:51:44Z</time>
      </trkpt>
      <trkpt lat="45.8658" lon="4.79626">
        <ele>473.5</ele>
        <time>2019-10-13T08:51:45Z</time>
      </trkpt>
      <trkpt lat="45.8658" lon="4.79618">
        <ele>473.5</ele>
        <time>2019-10-13T08:51:48Z</time>
      </trkpt>
      <trkpt lat="45.8658" lon="4.79614">
        <ele>473.5</ele>
        <time>2019-10-13T08:51:50Z</time>
      </trkpt>
      <trkpt lat="45.86579" lon="4.7961">
        <ele>473.5</ele>
        <time>2019-10-13T08:51:52Z</time>
      </trkpt>
      <trkpt lat="45.86579" lon="4.796">
        <ele>473.6</ele>
        <time>2019-10-13T08:51:56Z</time>
      </trkpt>
      <trkpt lat="45.86578" lon="4.79593">
        <ele>473.8</ele>
        <time>2019-10-13T08:51:59Z</time>
      </trkpt>
      <trkpt lat="45.86577" lon="4.79587">
        <ele>473.9</ele>
        <time>2019-10-13T08:52:02Z</time>
      </trkpt>
      <trkpt lat="45.86574" lon="4.79574">
        <ele>474.7</ele>
        <time>2019-10-13T08:52:09Z</time>
      </trkpt>
      <trkpt lat="45.86573" lon="4.79572">
        <ele>475</ele>
        <time>2019-10-13T08:52:10Z</time>
      </trkpt>
      <trkpt lat="45.86546" lon="4.79533">
        <ele>481</ele>
        <time>2019-10-13T08:52:34Z</time>
      </trkpt>
      <trkpt lat="45.86545" lon="4.79531">
        <ele>481.2</ele>
        <time>2019-10-13T08:52:35Z</time>
      </trkpt>
      <trkpt lat="45.86536" lon="4.79522">
        <ele>482.7</ele>
        <time>2019-10-13T08:52:41Z</time>
      </trkpt>
      <trkpt lat="45.86533" lon="4.79519">
        <ele>483.1</ele>
        <time>2019-10-13T08:52:43Z</time>
      </trkpt>
      <trkpt lat="45.86532" lon="4.79518">
        <ele>483.3</ele>
        <time>2019-10-13T08:52:44Z</time>
      </trkpt>
      <trkpt lat="45.86524" lon="4.79512">
        <ele>484.3</ele>
        <time>2019-10-13T08:52:49Z</time>
      </trkpt>
      <trkpt lat="45.86519" lon="4.79507">
        <ele>485.2</ele>
        <time>2019-10-13T08:52:53Z</time>
      </trkpt>
      <trkpt lat="45.86514" lon="4.79501">
        <ele>486</ele>
        <time>2019-10-13T08:52:57Z</time>
      </trkpt>
      <trkpt lat="45.865" lon="4.7949">
        <ele>490.6</ele>
        <time>2019-10-13T08:53:07Z</time>
      </trkpt>
      <trkpt lat="45.86494" lon="4.79484">
        <ele>492.9</ele>
        <time>2019-10-13T08:53:11Z</time>
      </trkpt>
      <trkpt lat="45.86484" lon="4.79476">
        <ele>495</ele>
        <time>2019-10-13T08:53:18Z</time>
      </trkpt>
      <trkpt lat="45.8648" lon="4.79473">
        <ele>495.7</ele>
        <time>2019-10-13T08:53:21Z</time>
      </trkpt>
      <trkpt lat="45.86477" lon="4.79471">
        <ele>496.2</ele>
        <time>2019-10-13T08:53:23Z</time>
      </trkpt>
      <trkpt lat="45.86476" lon="4.79469">
        <ele>496.5</ele>
        <time>2019-10-13T08:53:24Z</time>
      </trkpt>
      <trkpt lat="45.86474" lon="4.79468">
        <ele>496.7</ele>
        <time>2019-10-13T08:53:25Z</time>
      </trkpt>
      <trkpt lat="45.8647" lon="4.79465">
        <ele>497.4</ele>
        <time>2019-10-13T08:53:28Z</time>
      </trkpt>
      <trkpt lat="45.86415" lon="4.79419">
        <ele>509.4</ele>
        <time>2019-10-13T08:54:12Z</time>
      </trkpt>
      <trkpt lat="45.86413" lon="4.79417">
        <ele>509.7</ele>
        <time>2019-10-13T08:54:13Z</time>
      </trkpt>
      <trkpt lat="45.86405" lon="4.79409">
        <ele>511.5</ele>
        <time>2019-10-13T08:54:19Z</time>
      </trkpt>
      <trkpt lat="45.86395" lon="4.79401">
        <ele>513.3</ele>
        <time>2019-10-13T08:54:26Z</time>
      </trkpt>
      <trkpt lat="45.86388" lon="4.79396">
        <ele>514.5</ele>
        <time>2019-10-13T08:54:31Z</time>
      </trkpt>
      <trkpt lat="45.8638" lon="4.79389">
        <ele>516.1</ele>
        <time>2019-10-13T08:54:39Z</time>
      </trkpt>
      <trkpt lat="45.86372" lon="4.79382">
        <ele>517.4</ele>
        <time>2019-10-13T08:54:44Z</time>
      </trkpt>
      <trkpt lat="45.86354" lon="4.79367">
        <ele>520.9</ele>
        <time>2019-10-13T08:54:59Z</time>
      </trkpt>
      <trkpt lat="45.86351" lon="4.79364">
        <ele>521.5</ele>
        <time>2019-10-13T08:55:01Z</time>
      </trkpt>
      <trkpt lat="45.86347" lon="4.7936">
        <ele>522.2</ele>
        <time>2019-10-13T08:55:05Z</time>
      </trkpt>
      <trkpt lat="45.86342" lon="4.79357">
        <ele>523</ele>
        <time>2019-10-13T08:55:09Z</time>
      </trkpt>
      <trkpt lat="45.86338" lon="4.79353">
        <ele>523.8</ele>
        <time>2019-10-13T08:55:12Z</time>
      </trkpt>
      <trkpt lat="45.86334" lon="4.79349">
        <ele>524.7</ele>
        <time>2019-10-13T08:55:15Z</time>
      </trkpt>
      <trkpt lat="45.86325" lon="4.79341">
        <ele>526.1</ele>
        <time>2019-10-13T08:55:21Z</time>
      </trkpt>
      <trkpt lat="45.8632" lon="4.79336">
        <ele>527</ele>
        <time>2019-10-13T08:55:25Z</time>
      </trkpt>
      <trkpt lat="45.86315" lon="4.79333">
        <ele>527.8</ele>
        <time>2019-10-13T08:55:28Z</time>
      </trkpt>
      <trkpt lat="45.86306" lon="4.79326">
        <ele>529.3</ele>
        <time>2019-10-13T08:55:35Z</time>
      </trkpt>
      <trkpt lat="45.86305" lon="4.79325">
        <ele>529.4</ele>
        <time>2019-10-13T08:55:36Z</time>
      </trkpt>
      <trkpt lat="45.863" lon="4.79322">
        <ele>529.9</ele>
        <time>2019-10-13T08:55:39Z</time>
      </trkpt>
      <trkpt lat="45.86297" lon="4.79318">
        <ele>530.3</ele>
        <time>2019-10-13T08:55:42Z</time>
      </trkpt>
      <trkpt lat="45.86296" lon="4.79316">
        <ele>530.5</ele>
        <time>2019-10-13T08:55:43Z</time>
      </trkpt>
      <trkpt lat="45.86292" lon="4.79312">
        <ele>531.2</ele>
        <time>2019-10-13T08:55:46Z</time>
      </trkpt>
      <trkpt lat="45.86283" lon="4.79303">
        <ele>532.3</ele>
        <time>2019-10-13T08:55:52Z</time>
      </trkpt>
      <trkpt lat="45.86275" lon="4.7929">
        <ele>533.5</ele>
        <time>2019-10-13T08:55:58Z</time>
      </trkpt>
      <trkpt lat="45.86273" lon="4.79288">
        <ele>533.8</ele>
        <time>2019-10-13T08:55:59Z</time>
      </trkpt>
      <trkpt lat="45.86262" lon="4.79277">
        <ele>535.5</ele>
        <time>2019-10-13T08:56:06Z</time>
      </trkpt>
      <trkpt lat="45.8626" lon="4.79276">
        <ele>535.8</ele>
        <time>2019-10-13T08:56:07Z</time>
      </trkpt>
      <trkpt lat="45.86257" lon="4.79275">
        <ele>536.4</ele>
        <time>2019-10-13T08:56:09Z</time>
      </trkpt>
      <trkpt lat="45.86253" lon="4.79275">
        <ele>537.1</ele>
        <time>2019-10-13T08:56:11Z</time>
      </trkpt>
      <trkpt lat="45.86249" lon="4.79275">
        <ele>537.8</ele>
        <time>2019-10-13T08:56:13Z</time>
      </trkpt>
      <trkpt lat="45.86246" lon="4.79274">
        <ele>538.5</ele>
        <time>2019-10-13T08:56:15Z</time>
      </trkpt>
      <trkpt lat="45.86243" lon="4.79277">
        <ele>539.2</ele>
        <time>2019-10-13T08:56:18Z</time>
      </trkpt>
      <trkpt lat="45.86242" lon="4.79281">
        <ele>539.6</ele>
        <time>2019-10-13T08:56:20Z</time>
      </trkpt>
      <trkpt lat="45.8624" lon="4.79288">
        <ele>540.5</ele>
        <time>2019-10-13T08:56:23Z</time>
      </trkpt>
      <trkpt lat="45.86239" lon="4.7929">
        <ele>540.9</ele>
        <time>2019-10-13T08:56:24Z</time>
      </trkpt>
      <trkpt lat="45.86238" lon="4.79294">
        <ele>541.4</ele>
        <time>2019-10-13T08:56:25Z</time>
      </trkpt>
      <trkpt lat="45.86228" lon="4.79305">
        <ele>543.8</ele>
        <time>2019-10-13T08:56:29Z</time>
      </trkpt>
      <trkpt lat="45.86213" lon="4.79317">
        <ele>547.3</ele>
        <time>2019-10-13T08:56:35Z</time>
      </trkpt>
      <trkpt lat="45.86208" lon="4.7932">
        <ele>548.3</ele>
        <time>2019-10-13T08:56:37Z</time>
      </trkpt>
      <trkpt lat="45.86198" lon="4.79324">
        <ele>550.5</ele>
        <time>2019-10-13T08:56:41Z</time>
      </trkpt>
      <trkpt lat="45.86195" lon="4.79324">
        <ele>550.5</ele>
        <time>2019-10-13T08:56:42Z</time>
      </trkpt>
      <trkpt lat="45.86177" lon="4.7932">
        <ele>550.8</ele>
        <time>2019-10-13T08:56:49Z</time>
      </trkpt>
      <trkpt lat="45.86175" lon="4.79319">
        <ele>550.9</ele>
        <time>2019-10-13T08:56:50Z</time>
      </trkpt>
      <trkpt lat="45.86162" lon="4.79309">
        <ele>551.3</ele>
        <time>2019-10-13T08:56:56Z</time>
      </trkpt>
      <trkpt lat="45.86149" lon="4.79302">
        <ele>551.9</ele>
        <time>2019-10-13T08:57:03Z</time>
      </trkpt>
      <trkpt lat="45.86147" lon="4.793">
        <ele>552.1</ele>
        <time>2019-10-13T08:57:04Z</time>
      </trkpt>
      <trkpt lat="45.86141" lon="4.7929">
        <ele>552.7</ele>
        <time>2019-10-13T08:57:09Z</time>
      </trkpt>
      <trkpt lat="45.86138" lon="4.79281">
        <ele>553.5</ele>
        <time>2019-10-13T08:57:13Z</time>
      </trkpt>
      <trkpt lat="45.86133" lon="4.79273">
        <ele>554.2</ele>
        <time>2019-10-13T08:57:16Z</time>
      </trkpt>
      <trkpt lat="45.86128" lon="4.79267">
        <ele>554.7</ele>
        <time>2019-10-13T08:57:19Z</time>
      </trkpt>
      <trkpt lat="45.86124" lon="4.79263">
        <ele>555.1</ele>
        <time>2019-10-13T08:57:22Z</time>
      </trkpt>
      <trkpt lat="45.86122" lon="4.79258">
        <ele>555.4</ele>
        <time>2019-10-13T08:57:24Z</time>
      </trkpt>
      <trkpt lat="45.86115" lon="4.79245">
        <ele>557</ele>
        <time>2019-10-13T08:57:29Z</time>
      </trkpt>
      <trkpt lat="45.86111" lon="4.79237">
        <ele>557.7</ele>
        <time>2019-10-13T08:57:32Z</time>
      </trkpt>
      <trkpt lat="45.86105" lon="4.7923">
        <ele>558.5</ele>
        <time>2019-10-13T08:57:36Z</time>
      </trkpt>
      <trkpt lat="45.86098" lon="4.7922">
        <ele>559.5</ele>
        <time>2019-10-13T08:57:41Z</time>
      </trkpt>
      <trkpt lat="45.86092" lon="4.79216">
        <ele>560.1</ele>
        <time>2019-10-13T08:57:44Z</time>
      </trkpt>
      <trkpt lat="45.86084" lon="4.79206">
        <ele>561.2</ele>
        <time>2019-10-13T08:57:48Z</time>
      </trkpt>
      <trkpt lat="45.86082" lon="4.79206">
        <ele>561.4</ele>
        <time>2019-10-13T08:57:49Z</time>
      </trkpt>
      <trkpt lat="45.86072" lon="4.79207">
        <ele>561.7</ele>
        <time>2019-10-13T08:57:53Z</time>
      </trkpt>
      <trkpt lat="45.86059" lon="4.79208">
        <ele>560.8</ele>
        <time>2019-10-13T08:57:58Z</time>
      </trkpt>
      <trkpt lat="45.86056" lon="4.79208">
        <ele>560.6</ele>
        <time>2019-10-13T08:57:59Z</time>
      </trkpt>
      <trkpt lat="45.86035" lon="4.79199">
        <ele>558.7</ele>
        <time>2019-10-13T08:58:06Z</time>
      </trkpt>
      <trkpt lat="45.86022" lon="4.79183">
        <ele>557.3</ele>
        <time>2019-10-13T08:58:10Z</time>
      </trkpt>
      <trkpt lat="45.86019" lon="4.79177">
        <ele>556.9</ele>
        <time>2019-10-13T08:58:11Z</time>
      </trkpt>
      <trkpt lat="45.85998" lon="4.79139">
        <ele>553.4</ele>
        <time>2019-10-13T08:58:17Z</time>
      </trkpt>
      <trkpt lat="45.8599" lon="4.79124">
        <ele>552</ele>
        <time>2019-10-13T08:58:19Z</time>
      </trkpt>
      <trkpt lat="45.85975" lon="4.79089">
        <ele>548.8</ele>
        <time>2019-10-13T08:58:23Z</time>
      </trkpt>
      <trkpt lat="45.85966" lon="4.79047">
        <ele>546</ele>
        <time>2019-10-13T08:58:27Z</time>
      </trkpt>
      <trkpt lat="45.85964" lon="4.79037">
        <ele>545.5</ele>
        <time>2019-10-13T08:58:28Z</time>
      </trkpt>
      <trkpt lat="45.85959" lon="4.79018">
        <ele>544.5</ele>
        <time>2019-10-13T08:58:30Z</time>
      </trkpt>
      <trkpt lat="45.85955" lon="4.79009">
        <ele>544</ele>
        <time>2019-10-13T08:58:31Z</time>
      </trkpt>
      <trkpt lat="45.85951" lon="4.79">
        <ele>543.4</ele>
        <time>2019-10-13T08:58:32Z</time>
      </trkpt>
      <trkpt lat="45.8594" lon="4.78985">
        <ele>542.4</ele>
        <time>2019-10-13T08:58:34Z</time>
      </trkpt>
      <trkpt lat="45.85929" lon="4.78975">
        <ele>541.2</ele>
        <time>2019-10-13T08:58:36Z</time>
      </trkpt>
      <trkpt lat="45.85922" lon="4.78972">
        <ele>540.6</ele>
        <time>2019-10-13T08:58:37Z</time>
      </trkpt>
      <trkpt lat="45.85903" lon="4.7896">
        <ele>539</ele>
        <time>2019-10-13T08:58:40Z</time>
      </trkpt>
      <trkpt lat="45.8589" lon="4.78951">
        <ele>537.6</ele>
        <time>2019-10-13T08:58:42Z</time>
      </trkpt>
      <trkpt lat="45.85883" lon="4.78945">
        <ele>536.9</ele>
        <time>2019-10-13T08:58:43Z</time>
      </trkpt>
      <trkpt lat="45.85871" lon="4.78929">
        <ele>535.6</ele>
        <time>2019-10-13T08:58:45Z</time>
      </trkpt>
      <trkpt lat="45.85866" lon="4.7892">
        <ele>535</ele>
        <time>2019-10-13T08:58:46Z</time>
      </trkpt>
      <trkpt lat="45.85861" lon="4.78911">
        <ele>534.5</ele>
        <time>2019-10-13T08:58:47Z</time>
      </trkpt>
      <trkpt lat="45.8585" lon="4.78893">
        <ele>533.2</ele>
        <time>2019-10-13T08:58:49Z</time>
      </trkpt>
      <trkpt lat="45.85846" lon="4.78883">
        <ele>532.5</ele>
        <time>2019-10-13T08:58:50Z</time>
      </trkpt>
      <trkpt lat="45.85842" lon="4.78873">
        <ele>531.7</ele>
        <time>2019-10-13T08:58:51Z</time>
      </trkpt>
      <trkpt lat="45.85839" lon="4.78863">
        <ele>530.9</ele>
        <time>2019-10-13T08:58:52Z</time>
      </trkpt>
      <trkpt lat="45.85836" lon="4.78854">
        <ele>530.2</ele>
        <time>2019-10-13T08:58:53Z</time>
      </trkpt>
      <trkpt lat="45.85831" lon="4.78835">
        <ele>528.6</ele>
        <time>2019-10-13T08:58:55Z</time>
      </trkpt>
      <trkpt lat="45.85825" lon="4.78821">
        <ele>527.3</ele>
        <time>2019-10-13T08:58:57Z</time>
      </trkpt>
      <trkpt lat="45.85822" lon="4.78813">
        <ele>526.6</ele>
        <time>2019-10-13T08:58:59Z</time>
      </trkpt>
      <trkpt lat="45.85822" lon="4.7881">
        <ele>526.4</ele>
        <time>2019-10-13T08:59:00Z</time>
      </trkpt>
      <trkpt lat="45.85826" lon="4.78808">
        <ele>526</ele>
        <time>2019-10-13T08:59:03Z</time>
      </trkpt>
      <trkpt lat="45.85834" lon="4.78816">
        <ele>526.3</ele>
        <time>2019-10-13T08:59:08Z</time>
      </trkpt>
      <trkpt lat="45.85836" lon="4.7882">
        <ele>526.5</ele>
        <time>2019-10-13T08:59:10Z</time>
      </trkpt>
      <trkpt lat="45.85838" lon="4.78824">
        <ele>526.7</ele>
        <time>2019-10-13T08:59:12Z</time>
      </trkpt>
      <trkpt lat="45.8584" lon="4.78827">
        <ele>526.7</ele>
        <time>2019-10-13T08:59:14Z</time>
      </trkpt>
      <trkpt lat="45.85842" lon="4.78827">
        <ele>526.6</ele>
        <time>2019-10-13T08:59:16Z</time>
      </trkpt>
      <trkpt lat="45.85848" lon="4.78826">
        <ele>526.5</ele>
        <time>2019-10-13T08:59:20Z</time>
      </trkpt>
      <trkpt lat="45.85862" lon="4.78818">
        <ele>525.8</ele>
        <time>2019-10-13T08:59:27Z</time>
      </trkpt>
      <trkpt lat="45.85883" lon="4.78824">
        <ele>524.4</ele>
        <time>2019-10-13T08:59:32Z</time>
      </trkpt>
      <trkpt lat="45.85895" lon="4.78827">
        <ele>523.5</ele>
        <time>2019-10-13T08:59:42Z</time>
      </trkpt>
      <trkpt lat="45.85898" lon="4.78828">
        <ele>523.4</ele>
        <time>2019-10-13T08:59:43Z</time>
      </trkpt>
      <trkpt lat="45.85919" lon="4.78828">
        <ele>521.8</ele>
        <time>2019-10-13T09:00:00Z</time>
      </trkpt>
      <trkpt lat="45.85929" lon="4.78828">
        <ele>520.9</ele>
        <time>2019-10-13T09:00:02Z</time>
      </trkpt>
      <trkpt lat="45.85936" lon="4.78828">
        <ele>520.5</ele>
        <time>2019-10-13T09:00:03Z</time>
      </trkpt>
      <trkpt lat="45.85941" lon="4.78829">
        <ele>520.1</ele>
        <time>2019-10-13T09:00:04Z</time>
      </trkpt>
      <trkpt lat="45.85955" lon="4.78831">
        <ele>519.4</ele>
        <time>2019-10-13T09:00:06Z</time>
      </trkpt>
      <trkpt lat="45.85962" lon="4.78833">
        <ele>519.1</ele>
        <time>2019-10-13T09:00:07Z</time>
      </trkpt>
      <trkpt lat="45.85987" lon="4.78844">
        <ele>518.2</ele>
        <time>2019-10-13T09:00:11Z</time>
      </trkpt>
      <trkpt lat="45.85993" lon="4.78847">
        <ele>517.9</ele>
        <time>2019-10-13T09:00:12Z</time>
      </trkpt>
      <trkpt lat="45.8602" lon="4.78859">
        <ele>516.6</ele>
        <time>2019-10-13T09:00:16Z</time>
      </trkpt>
      <trkpt lat="45.86027" lon="4.78862">
        <ele>516.5</ele>
        <time>2019-10-13T09:00:17Z</time>
      </trkpt>
      <trkpt lat="45.86056" lon="4.78879">
        <ele>516.3</ele>
        <time>2019-10-13T09:00:21Z</time>
      </trkpt>
      <trkpt lat="45.86076" lon="4.78893">
        <ele>516</ele>
        <time>2019-10-13T09:00:24Z</time>
      </trkpt>
      <trkpt lat="45.86097" lon="4.78906">
        <ele>515.4</ele>
        <time>2019-10-13T09:00:27Z</time>
      </trkpt>
      <trkpt lat="45.86103" lon="4.78912">
        <ele>515.3</ele>
        <time>2019-10-13T09:00:28Z</time>
      </trkpt>
      <trkpt lat="45.86115" lon="4.78924">
        <ele>515.2</ele>
        <time>2019-10-13T09:00:30Z</time>
      </trkpt>
      <trkpt lat="45.8613" lon="4.78945">
        <ele>515.2</ele>
        <time>2019-10-13T09:00:33Z</time>
      </trkpt>
      <trkpt lat="45.86133" lon="4.78951">
        <ele>515.1</ele>
        <time>2019-10-13T09:00:34Z</time>
      </trkpt>
      <trkpt lat="45.86136" lon="4.78958">
        <ele>514.9</ele>
        <time>2019-10-13T09:00:35Z</time>
      </trkpt>
      <trkpt lat="45.86141" lon="4.78978">
        <ele>513.7</ele>
        <time>2019-10-13T09:00:38Z</time>
      </trkpt>
      <trkpt lat="45.86146" lon="4.78987">
        <ele>512.8</ele>
        <time>2019-10-13T09:00:40Z</time>
      </trkpt>
      <trkpt lat="45.86153" lon="4.78999">
        <ele>511.7</ele>
        <time>2019-10-13T09:00:43Z</time>
      </trkpt>
      <trkpt lat="45.8617" lon="4.79026">
        <ele>508.9</ele>
        <time>2019-10-13T09:00:49Z</time>
      </trkpt>
      <trkpt lat="45.86179" lon="4.7904">
        <ele>507.8</ele>
        <time>2019-10-13T09:00:52Z</time>
      </trkpt>
      <trkpt lat="45.86183" lon="4.79045">
        <ele>507.3</ele>
        <time>2019-10-13T09:00:53Z</time>
      </trkpt>
      <trkpt lat="45.86193" lon="4.79057">
        <ele>506.2</ele>
        <time>2019-10-13T09:00:55Z</time>
      </trkpt>
      <trkpt lat="45.86205" lon="4.79068">
        <ele>504.9</ele>
        <time>2019-10-13T09:00:58Z</time>
      </trkpt>
      <trkpt lat="45.86209" lon="4.79071">
        <ele>504.5</ele>
        <time>2019-10-13T09:00:59Z</time>
      </trkpt>
      <trkpt lat="45.86213" lon="4.79075">
        <ele>504.2</ele>
        <time>2019-10-13T09:01:00Z</time>
      </trkpt>
      <trkpt lat="45.86221" lon="4.79083">
        <ele>503.7</ele>
        <time>2019-10-13T09:01:02Z</time>
      </trkpt>
      <trkpt lat="45.86231" lon="4.79092">
        <ele>503.2</ele>
        <time>2019-10-13T09:01:04Z</time>
      </trkpt>
      <trkpt lat="45.86236" lon="4.79099">
        <ele>503</ele>
        <time>2019-10-13T09:01:05Z</time>
      </trkpt>
      <trkpt lat="45.86252" lon="4.79126">
        <ele>502</ele>
        <time>2019-10-13T09:01:08Z</time>
      </trkpt>
      <trkpt lat="45.86268" lon="4.79153">
        <ele>500.5</ele>
        <time>2019-10-13T09:01:11Z</time>
      </trkpt>
      <trkpt lat="45.86283" lon="4.79172">
        <ele>498.8</ele>
        <time>2019-10-13T09:01:14Z</time>
      </trkpt>
      <trkpt lat="45.86298" lon="4.79189">
        <ele>497.4</ele>
        <time>2019-10-13T09:01:17Z</time>
      </trkpt>
      <trkpt lat="45.86302" lon="4.79196">
        <ele>497</ele>
        <time>2019-10-13T09:01:18Z</time>
      </trkpt>
      <trkpt lat="45.86311" lon="4.7921">
        <ele>495.8</ele>
        <time>2019-10-13T09:01:20Z</time>
      </trkpt>
      <trkpt lat="45.8633" lon="4.7924">
        <ele>493.1</ele>
        <time>2019-10-13T09:01:24Z</time>
      </trkpt>
      <trkpt lat="45.86336" lon="4.79249">
        <ele>492.2</ele>
        <time>2019-10-13T09:01:25Z</time>
      </trkpt>
      <trkpt lat="45.86361" lon="4.79286">
        <ele>488.2</ele>
        <time>2019-10-13T09:01:29Z</time>
      </trkpt>
      <trkpt lat="45.86368" lon="4.79295">
        <ele>487.2</ele>
        <time>2019-10-13T09:01:30Z</time>
      </trkpt>
      <trkpt lat="45.86403" lon="4.79338">
        <ele>483.7</ele>
        <time>2019-10-13T09:01:34Z</time>
      </trkpt>
      <trkpt lat="45.86413" lon="4.79349">
        <ele>482.5</ele>
        <time>2019-10-13T09:01:35Z</time>
      </trkpt>
      <trkpt lat="45.86434" lon="4.79369">
        <ele>480.4</ele>
        <time>2019-10-13T09:01:37Z</time>
      </trkpt>
      <trkpt lat="45.86454" lon="4.79388">
        <ele>478.3</ele>
        <time>2019-10-13T09:01:39Z</time>
      </trkpt>
      <trkpt lat="45.86473" lon="4.79405">
        <ele>476.6</ele>
        <time>2019-10-13T09:01:41Z</time>
      </trkpt>
      <trkpt lat="45.86492" lon="4.7942">
        <ele>474.8</ele>
        <time>2019-10-13T09:01:43Z</time>
      </trkpt>
      <trkpt lat="45.86509" lon="4.79435">
        <ele>473.5</ele>
        <time>2019-10-13T09:01:45Z</time>
      </trkpt>
      <trkpt lat="45.86517" lon="4.79441">
        <ele>472.8</ele>
        <time>2019-10-13T09:01:46Z</time>
      </trkpt>
      <trkpt lat="45.86525" lon="4.79446">
        <ele>472.2</ele>
        <time>2019-10-13T09:01:47Z</time>
      </trkpt>
      <trkpt lat="45.86538" lon="4.79456">
        <ele>470.9</ele>
        <time>2019-10-13T09:01:49Z</time>
      </trkpt>
      <trkpt lat="45.86543" lon="4.79459">
        <ele>470.5</ele>
        <time>2019-10-13T09:01:50Z</time>
      </trkpt>
      <trkpt lat="45.86553" lon="4.79468">
        <ele>469.6</ele>
        <time>2019-10-13T09:01:52Z</time>
      </trkpt>
      <trkpt lat="45.86558" lon="4.79473">
        <ele>469.1</ele>
        <time>2019-10-13T09:01:53Z</time>
      </trkpt>
      <trkpt lat="45.86563" lon="4.79479">
        <ele>468.7</ele>
        <time>2019-10-13T09:01:54Z</time>
      </trkpt>
      <trkpt lat="45.86568" lon="4.79486">
        <ele>468.3</ele>
        <time>2019-10-13T09:01:55Z</time>
      </trkpt>
      <trkpt lat="45.86572" lon="4.79491">
        <ele>468</ele>
        <time>2019-10-13T09:01:56Z</time>
      </trkpt>
      <trkpt lat="45.86579" lon="4.79501">
        <ele>467.1</ele>
        <time>2019-10-13T09:01:58Z</time>
      </trkpt>
      <trkpt lat="45.86587" lon="4.79511">
        <ele>466.2</ele>
        <time>2019-10-13T09:02:00Z</time>
      </trkpt>
      <trkpt lat="45.86594" lon="4.79522">
        <ele>465</ele>
        <time>2019-10-13T09:02:02Z</time>
      </trkpt>
      <trkpt lat="45.86607" lon="4.7954">
        <ele>463.2</ele>
        <time>2019-10-13T09:02:04Z</time>
      </trkpt>
      <trkpt lat="45.86613" lon="4.7955">
        <ele>462.1</ele>
        <time>2019-10-13T09:02:05Z</time>
      </trkpt>
      <trkpt lat="45.86619" lon="4.79558">
        <ele>460.9</ele>
        <time>2019-10-13T09:02:06Z</time>
      </trkpt>
      <trkpt lat="45.86633" lon="4.79579">
        <ele>458.2</ele>
        <time>2019-10-13T09:02:08Z</time>
      </trkpt>
      <trkpt lat="45.86644" lon="4.79601">
        <ele>455.4</ele>
        <time>2019-10-13T09:02:10Z</time>
      </trkpt>
      <trkpt lat="45.86652" lon="4.79623">
        <ele>452.7</ele>
        <time>2019-10-13T09:02:12Z</time>
      </trkpt>
      <trkpt lat="45.86655" lon="4.79632">
        <ele>451.1</ele>
        <time>2019-10-13T09:02:13Z</time>
      </trkpt>
      <trkpt lat="45.86657" lon="4.79638">
        <ele>450.6</ele>
        <time>2019-10-13T09:02:14Z</time>
      </trkpt>
      <trkpt lat="45.86658" lon="4.79643">
        <ele>450.3</ele>
        <time>2019-10-13T09:02:15Z</time>
      </trkpt>
      <trkpt lat="45.86659" lon="4.79648">
        <ele>449.5</ele>
        <time>2019-10-13T09:02:16Z</time>
      </trkpt>
      <trkpt lat="45.86661" lon="4.7965">
        <ele>449.6</ele>
        <time>2019-10-13T09:02:17Z</time>
      </trkpt>
      <trkpt lat="45.86663" lon="4.79651">
        <ele>449.7</ele>
        <time>2019-10-13T09:02:18Z</time>
      </trkpt>
      <trkpt lat="45.86665" lon="4.79653">
        <ele>449.7</ele>
        <time>2019-10-13T09:02:19Z</time>
      </trkpt>
      <trkpt lat="45.86666" lon="4.79655">
        <ele>449.8</ele>
        <time>2019-10-13T09:02:20Z</time>
      </trkpt>
      <trkpt lat="45.86665" lon="4.79649">
        <ele>449.9</ele>
        <time>2019-10-13T09:02:26Z</time>
      </trkpt>
      <trkpt lat="45.86664" lon="4.79646">
        <ele>450</ele>
        <time>2019-10-13T09:02:28Z</time>
      </trkpt>
      <trkpt lat="45.86663" lon="4.79642">
        <ele>450.1</ele>
        <time>2019-10-13T09:02:30Z</time>
      </trkpt>
      <trkpt lat="45.86661" lon="4.79632">
        <ele>451</ele>
        <time>2019-10-13T09:02:33Z</time>
      </trkpt>
      <trkpt lat="45.8666" lon="4.79627">
        <ele>450.9</ele>
        <time>2019-10-13T09:02:35Z</time>
      </trkpt>
      <trkpt lat="45.86659" lon="4.79625">
        <ele>450.9</ele>
        <time>2019-10-13T09:02:36Z</time>
      </trkpt>
      <trkpt lat="45.86657" lon="4.79612">
        <ele>450.7</ele>
        <time>2019-10-13T09:02:40Z</time>
      </trkpt>
      <trkpt lat="45.86657" lon="4.79609">
        <ele>450.7</ele>
        <time>2019-10-13T09:02:41Z</time>
      </trkpt>
      <trkpt lat="45.86654" lon="4.79584">
        <ele>450.1</ele>
        <time>2019-10-13T09:02:47Z</time>
      </trkpt>
      <trkpt lat="45.86655" lon="4.79559">
        <ele>449</ele>
        <time>2019-10-13T09:02:52Z</time>
      </trkpt>
      <trkpt lat="45.86656" lon="4.79539">
        <ele>448.2</ele>
        <time>2019-10-13T09:02:55Z</time>
      </trkpt>
      <trkpt lat="45.86657" lon="4.79516">
        <ele>447.4</ele>
        <time>2019-10-13T09:02:58Z</time>
      </trkpt>
      <trkpt lat="45.86658" lon="4.79508">
        <ele>447.1</ele>
        <time>2019-10-13T09:02:59Z</time>
      </trkpt>
      <trkpt lat="45.86657" lon="4.79469">
        <ele>445.4</ele>
        <time>2019-10-13T09:03:03Z</time>
      </trkpt>
      <trkpt lat="45.86657" lon="4.79448">
        <ele>444.2</ele>
        <time>2019-10-13T09:03:05Z</time>
      </trkpt>
      <trkpt lat="45.86657" lon="4.79422">
        <ele>442.7</ele>
        <time>2019-10-13T09:03:08Z</time>
      </trkpt>
      <trkpt lat="45.86657" lon="4.79408">
        <ele>441.8</ele>
        <time>2019-10-13T09:03:10Z</time>
      </trkpt>
      <trkpt lat="45.86657" lon="4.79399">
        <ele>441.1</ele>
        <time>2019-10-13T09:03:12Z</time>
      </trkpt>
      <trkpt lat="45.86657" lon="4.79395">
        <ele>440.8</ele>
        <time>2019-10-13T09:03:13Z</time>
      </trkpt>
      <trkpt lat="45.86659" lon="4.79383">
        <ele>439.9</ele>
        <time>2019-10-13T09:03:16Z</time>
      </trkpt>
      <trkpt lat="45.86657" lon="4.79378">
        <ele>439.5</ele>
        <time>2019-10-13T09:03:17Z</time>
      </trkpt>
      <trkpt lat="45.86656" lon="4.79373">
        <ele>439.1</ele>
        <time>2019-10-13T09:03:18Z</time>
      </trkpt>
      <trkpt lat="45.86655" lon="4.79369">
        <ele>438.8</ele>
        <time>2019-10-13T09:03:19Z</time>
      </trkpt>
      <trkpt lat="45.86654" lon="4.79364">
        <ele>438.3</ele>
        <time>2019-10-13T09:03:21Z</time>
      </trkpt>
      <trkpt lat="45.86654" lon="4.79358">
        <ele>437.7</ele>
        <time>2019-10-13T09:08:31Z</time>
      </trkpt>
      <trkpt lat="45.86654" lon="4.79354">
        <ele>437.4</ele>
        <time>2019-10-13T09:08:32Z</time>
      </trkpt>
      <trkpt lat="45.86654" lon="4.7935">
        <ele>437.1</ele>
        <time>2019-10-13T09:08:33Z</time>
      </trkpt>
      <trkpt lat="45.86654" lon="4.79339">
        <ele>436.2</ele>
        <time>2019-10-13T09:08:35Z</time>
      </trkpt>
      <trkpt lat="45.86656" lon="4.7932">
        <ele>434.6</ele>
        <time>2019-10-13T09:08:38Z</time>
      </trkpt>
      <trkpt lat="45.86656" lon="4.793">
        <ele>432.9</ele>
        <time>2019-10-13T09:08:41Z</time>
      </trkpt>
      <trkpt lat="45.86656" lon="4.79278">
        <ele>431.3</ele>
        <time>2019-10-13T09:08:44Z</time>
      </trkpt>
      <trkpt lat="45.86657" lon="4.79271">
        <ele>430.9</ele>
        <time>2019-10-13T09:08:45Z</time>
      </trkpt>
      <trkpt lat="45.86657" lon="4.79263">
        <ele>430.5</ele>
        <time>2019-10-13T09:08:46Z</time>
      </trkpt>
      <trkpt lat="45.86657" lon="4.79248">
        <ele>429.7</ele>
        <time>2019-10-13T09:08:48Z</time>
      </trkpt>
      <trkpt lat="45.86659" lon="4.79232">
        <ele>428.8</ele>
        <time>2019-10-13T09:08:50Z</time>
      </trkpt>
      <trkpt lat="45.8666" lon="4.79224">
        <ele>428.3</ele>
        <time>2019-10-13T09:08:51Z</time>
      </trkpt>
      <trkpt lat="45.86662" lon="4.79208">
        <ele>427.4</ele>
        <time>2019-10-13T09:08:53Z</time>
      </trkpt>
      <trkpt lat="45.86664" lon="4.792">
        <ele>426.9</ele>
        <time>2019-10-13T09:08:54Z</time>
      </trkpt>
      <trkpt lat="45.86666" lon="4.79192">
        <ele>426.6</ele>
        <time>2019-10-13T09:08:55Z</time>
      </trkpt>
      <trkpt lat="45.86669" lon="4.79176">
        <ele>425.7</ele>
        <time>2019-10-13T09:08:57Z</time>
      </trkpt>
      <trkpt lat="45.86672" lon="4.79168">
        <ele>425.2</ele>
        <time>2019-10-13T09:08:58Z</time>
      </trkpt>
      <trkpt lat="45.86676" lon="4.79154">
        <ele>424.3</ele>
        <time>2019-10-13T09:09:00Z</time>
      </trkpt>
      <trkpt lat="45.86678" lon="4.79147">
        <ele>423.8</ele>
        <time>2019-10-13T09:09:01Z</time>
      </trkpt>
      <trkpt lat="45.86683" lon="4.79133">
        <ele>423</ele>
        <time>2019-10-13T09:09:03Z</time>
      </trkpt>
      <trkpt lat="45.86689" lon="4.79113">
        <ele>421.8</ele>
        <time>2019-10-13T09:09:06Z</time>
      </trkpt>
      <trkpt lat="45.86692" lon="4.79107">
        <ele>421.5</ele>
        <time>2019-10-13T09:09:07Z</time>
      </trkpt>
      <trkpt lat="45.86695" lon="4.79102">
        <ele>421.2</ele>
        <time>2019-10-13T09:09:08Z</time>
      </trkpt>
      <trkpt lat="45.86701" lon="4.79091">
        <ele>420.5</ele>
        <time>2019-10-13T09:09:10Z</time>
      </trkpt>
      <trkpt lat="45.86707" lon="4.79081">
        <ele>420</ele>
        <time>2019-10-13T09:09:12Z</time>
      </trkpt>
      <trkpt lat="45.86714" lon="4.7907">
        <ele>419.5</ele>
        <time>2019-10-13T09:09:14Z</time>
      </trkpt>
      <trkpt lat="45.86723" lon="4.79056">
        <ele>418.7</ele>
        <time>2019-10-13T09:09:17Z</time>
      </trkpt>
      <trkpt lat="45.86725" lon="4.79051">
        <ele>418.4</ele>
        <time>2019-10-13T09:09:18Z</time>
      </trkpt>
      <trkpt lat="45.86728" lon="4.79046">
        <ele>418</ele>
        <time>2019-10-13T09:09:19Z</time>
      </trkpt>
      <trkpt lat="45.8674" lon="4.79018">
        <ele>415.3</ele>
        <time>2019-10-13T09:09:23Z</time>
      </trkpt>
      <trkpt lat="45.86744" lon="4.7899">
        <ele>412.2</ele>
        <time>2019-10-13T09:09:26Z</time>
      </trkpt>
      <trkpt lat="45.86745" lon="4.78981">
        <ele>411.1</ele>
        <time>2019-10-13T09:09:27Z</time>
      </trkpt>
      <trkpt lat="45.8675" lon="4.78954">
        <ele>408.7</ele>
        <time>2019-10-13T09:09:30Z</time>
      </trkpt>
      <trkpt lat="45.86755" lon="4.78942">
        <ele>407.7</ele>
        <time>2019-10-13T09:09:32Z</time>
      </trkpt>
      <trkpt lat="45.86759" lon="4.78937">
        <ele>407.1</ele>
        <time>2019-10-13T09:09:33Z</time>
      </trkpt>
      <trkpt lat="45.86767" lon="4.78921">
        <ele>405.4</ele>
        <time>2019-10-13T09:09:36Z</time>
      </trkpt>
      <trkpt lat="45.86768" lon="4.78917">
        <ele>405</ele>
        <time>2019-10-13T09:09:37Z</time>
      </trkpt>
      <trkpt lat="45.86768" lon="4.78916">
        <ele>404.7</ele>
        <time>2019-10-13T09:09:38Z</time>
      </trkpt>
      <trkpt lat="45.8677" lon="4.78909">
        <ele>403.3</ele>
        <time>2019-10-13T09:09:57Z</time>
      </trkpt>
      <trkpt lat="45.86771" lon="4.78901">
        <ele>402.8</ele>
        <time>2019-10-13T09:09:59Z</time>
      </trkpt>
      <trkpt lat="45.86772" lon="4.78893">
        <ele>402.3</ele>
        <time>2019-10-13T09:10:01Z</time>
      </trkpt>
      <trkpt lat="45.86772" lon="4.78885">
        <ele>401.7</ele>
        <time>2019-10-13T09:10:03Z</time>
      </trkpt>
      <trkpt lat="45.86772" lon="4.78878">
        <ele>401.3</ele>
        <time>2019-10-13T09:10:05Z</time>
      </trkpt>
      <trkpt lat="45.86772" lon="4.78875">
        <ele>401</ele>
        <time>2019-10-13T09:10:06Z</time>
      </trkpt>
      <trkpt lat="45.86771" lon="4.78868">
        <ele>400.6</ele>
        <time>2019-10-13T09:10:08Z</time>
      </trkpt>
      <trkpt lat="45.86769" lon="4.78862">
        <ele>400.1</ele>
        <time>2019-10-13T09:10:10Z</time>
      </trkpt>
      <trkpt lat="45.86768" lon="4.78858">
        <ele>399.8</ele>
        <time>2019-10-13T09:10:11Z</time>
      </trkpt>
      <trkpt lat="45.86766" lon="4.78851">
        <ele>399.2</ele>
        <time>2019-10-13T09:10:13Z</time>
      </trkpt>
      <trkpt lat="45.86762" lon="4.78839">
        <ele>398.1</ele>
        <time>2019-10-13T09:10:17Z</time>
      </trkpt>
      <trkpt lat="45.86763" lon="4.78837">
        <ele>397.9</ele>
        <time>2019-10-13T09:10:18Z</time>
      </trkpt>
      <trkpt lat="45.86765" lon="4.78834">
        <ele>397.7</ele>
        <time>2019-10-13T09:10:20Z</time>
      </trkpt>
      <trkpt lat="45.86766" lon="4.78835">
        <ele>397.5</ele>
        <time>2019-10-13T09:10:21Z</time>
      </trkpt>
      <trkpt lat="45.86768" lon="4.78834">
        <ele>397.3</ele>
        <time>2019-10-13T09:10:22Z</time>
      </trkpt>
      <trkpt lat="45.86777" lon="4.78831">
        <ele>396.1</ele>
        <time>2019-10-13T09:10:25Z</time>
      </trkpt>
      <trkpt lat="45.86786" lon="4.78829">
        <ele>394.9</ele>
        <time>2019-10-13T09:10:27Z</time>
      </trkpt>
      <trkpt lat="45.86795" lon="4.78826">
        <ele>393.7</ele>
        <time>2019-10-13T09:10:29Z</time>
      </trkpt>
      <trkpt lat="45.86807" lon="4.78824">
        <ele>392.2</ele>
        <time>2019-10-13T09:10:31Z</time>
      </trkpt>
      <trkpt lat="45.8682" lon="4.78819">
        <ele>390.7</ele>
        <time>2019-10-13T09:10:33Z</time>
      </trkpt>
      <trkpt lat="45.86836" lon="4.78812">
        <ele>389.1</ele>
        <time>2019-10-13T09:10:35Z</time>
      </trkpt>
      <trkpt lat="45.86843" lon="4.78808">
        <ele>388.2</ele>
        <time>2019-10-13T09:10:36Z</time>
      </trkpt>
      <trkpt lat="45.8685" lon="4.78804">
        <ele>387.5</ele>
        <time>2019-10-13T09:10:37Z</time>
      </trkpt>
      <trkpt lat="45.86863" lon="4.78795">
        <ele>385.9</ele>
        <time>2019-10-13T09:10:39Z</time>
      </trkpt>
      <trkpt lat="45.86869" lon="4.78791">
        <ele>385.3</ele>
        <time>2019-10-13T09:10:40Z</time>
      </trkpt>
      <trkpt lat="45.86874" lon="4.78788">
        <ele>384.9</ele>
        <time>2019-10-13T09:10:41Z</time>
      </trkpt>
      <trkpt lat="45.86882" lon="4.78783">
        <ele>384.2</ele>
        <time>2019-10-13T09:10:43Z</time>
      </trkpt>
      <trkpt lat="45.86886" lon="4.78781">
        <ele>383.7</ele>
        <time>2019-10-13T09:10:44Z</time>
      </trkpt>
      <trkpt lat="45.86891" lon="4.78779">
        <ele>383.3</ele>
        <time>2019-10-13T09:10:45Z</time>
      </trkpt>
      <trkpt lat="45.869" lon="4.78775">
        <ele>382.3</ele>
        <time>2019-10-13T09:10:47Z</time>
      </trkpt>
      <trkpt lat="45.86908" lon="4.7877">
        <ele>381.2</ele>
        <time>2019-10-13T09:10:49Z</time>
      </trkpt>
      <trkpt lat="45.86917" lon="4.78766">
        <ele>380</ele>
        <time>2019-10-13T09:10:51Z</time>
      </trkpt>
      <trkpt lat="45.86927" lon="4.78765">
        <ele>378.3</ele>
        <time>2019-10-13T09:10:53Z</time>
      </trkpt>
      <trkpt lat="45.86937" lon="4.78763">
        <ele>376.4</ele>
        <time>2019-10-13T09:10:55Z</time>
      </trkpt>
      <trkpt lat="45.86949" lon="4.78761">
        <ele>375.1</ele>
        <time>2019-10-13T09:10:57Z</time>
      </trkpt>
      <trkpt lat="45.86958" lon="4.78758">
        <ele>374</ele>
        <time>2019-10-13T09:10:59Z</time>
      </trkpt>
      <trkpt lat="45.86962" lon="4.78757">
        <ele>373.6</ele>
        <time>2019-10-13T09:11:00Z</time>
      </trkpt>
      <trkpt lat="45.86965" lon="4.78755">
        <ele>373.3</ele>
        <time>2019-10-13T09:11:01Z</time>
      </trkpt>
      <trkpt lat="45.86967" lon="4.78752">
        <ele>373</ele>
        <time>2019-10-13T09:11:02Z</time>
      </trkpt>
      <trkpt lat="45.86967" lon="4.78748">
        <ele>372.8</ele>
        <time>2019-10-13T09:11:03Z</time>
      </trkpt>
      <trkpt lat="45.86968" lon="4.78739">
        <ele>371.8</ele>
        <time>2019-10-13T09:11:05Z</time>
      </trkpt>
      <trkpt lat="45.86965" lon="4.78728">
        <ele>370.9</ele>
        <time>2019-10-13T09:11:07Z</time>
      </trkpt>
      <trkpt lat="45.86959" lon="4.78719">
        <ele>369.9</ele>
        <time>2019-10-13T09:11:09Z</time>
      </trkpt>
      <trkpt lat="45.8695" lon="4.78713">
        <ele>368.9</ele>
        <time>2019-10-13T09:11:11Z</time>
      </trkpt>
      <trkpt lat="45.86941" lon="4.78708">
        <ele>368</ele>
        <time>2019-10-13T09:11:13Z</time>
      </trkpt>
      <trkpt lat="45.86926" lon="4.78699">
        <ele>366.9</ele>
        <time>2019-10-13T09:11:16Z</time>
      </trkpt>
      <trkpt lat="45.86915" lon="4.78695">
        <ele>366</ele>
        <time>2019-10-13T09:11:18Z</time>
      </trkpt>
      <trkpt lat="45.86904" lon="4.78691">
        <ele>364.7</ele>
        <time>2019-10-13T09:11:20Z</time>
      </trkpt>
      <trkpt lat="45.86892" lon="4.78685">
        <ele>362.8</ele>
        <time>2019-10-13T09:11:22Z</time>
      </trkpt>
      <trkpt lat="45.86879" lon="4.78679">
        <ele>360.5</ele>
        <time>2019-10-13T09:11:24Z</time>
      </trkpt>
      <trkpt lat="45.86861" lon="4.78671">
        <ele>357.2</ele>
        <time>2019-10-13T09:11:27Z</time>
      </trkpt>
      <trkpt lat="45.8685" lon="4.78666">
        <ele>355.2</ele>
        <time>2019-10-13T09:11:29Z</time>
      </trkpt>
      <trkpt lat="45.86838" lon="4.78662">
        <ele>353.1</ele>
        <time>2019-10-13T09:11:31Z</time>
      </trkpt>
      <trkpt lat="45.86825" lon="4.78657">
        <ele>350.7</ele>
        <time>2019-10-13T09:11:33Z</time>
      </trkpt>
      <trkpt lat="45.8681" lon="4.78651">
        <ele>348.2</ele>
        <time>2019-10-13T09:11:35Z</time>
      </trkpt>
      <trkpt lat="45.86803" lon="4.78647">
        <ele>347</ele>
        <time>2019-10-13T09:11:36Z</time>
      </trkpt>
      <trkpt lat="45.86795" lon="4.78644">
        <ele>345.8</ele>
        <time>2019-10-13T09:11:37Z</time>
      </trkpt>
      <trkpt lat="45.86775" lon="4.78637">
        <ele>343.1</ele>
        <time>2019-10-13T09:11:40Z</time>
      </trkpt>
      <trkpt lat="45.86766" lon="4.78631">
        <ele>341.8</ele>
        <time>2019-10-13T09:11:43Z</time>
      </trkpt>
      <trkpt lat="45.86765" lon="4.78628">
        <ele>341.4</ele>
        <time>2019-10-13T09:11:44Z</time>
      </trkpt>
      <trkpt lat="45.86766" lon="4.78621">
        <ele>340.8</ele>
        <time>2019-10-13T09:11:46Z</time>
      </trkpt>
      <trkpt lat="45.86769" lon="4.78616">
        <ele>340.2</ele>
        <time>2019-10-13T09:11:48Z</time>
      </trkpt>
      <trkpt lat="45.86774" lon="4.7861">
        <ele>339.2</ele>
        <time>2019-10-13T09:11:50Z</time>
      </trkpt>
      <trkpt lat="45.86777" lon="4.78606">
        <ele>338.5</ele>
        <time>2019-10-13T09:11:51Z</time>
      </trkpt>
      <trkpt lat="45.86781" lon="4.78603">
        <ele>337.8</ele>
        <time>2019-10-13T09:11:52Z</time>
      </trkpt>
      <trkpt lat="45.86791" lon="4.786">
        <ele>336</ele>
        <time>2019-10-13T09:11:54Z</time>
      </trkpt>
      <trkpt lat="45.86799" lon="4.78599">
        <ele>334.7</ele>
        <time>2019-10-13T09:11:55Z</time>
      </trkpt>
      <trkpt lat="45.86806" lon="4.78597">
        <ele>333.4</ele>
        <time>2019-10-13T09:11:56Z</time>
      </trkpt>
      <trkpt lat="45.8682" lon="4.78591">
        <ele>330.8</ele>
        <time>2019-10-13T09:11:58Z</time>
      </trkpt>
      <trkpt lat="45.86828" lon="4.78587">
        <ele>329.3</ele>
        <time>2019-10-13T09:11:59Z</time>
      </trkpt>
      <trkpt lat="45.86836" lon="4.78583">
        <ele>327.7</ele>
        <time>2019-10-13T09:12:00Z</time>
      </trkpt>
      <trkpt lat="45.86843" lon="4.78579">
        <ele>326.2</ele>
        <time>2019-10-13T09:12:01Z</time>
      </trkpt>
      <trkpt lat="45.86851" lon="4.78575">
        <ele>324.6</ele>
        <time>2019-10-13T09:12:02Z</time>
      </trkpt>
      <trkpt lat="45.86888" lon="4.78547">
        <ele>316.9</ele>
        <time>2019-10-13T09:12:07Z</time>
      </trkpt>
      <trkpt lat="45.86901" lon="4.78539">
        <ele>314.9</ele>
        <time>2019-10-13T09:12:09Z</time>
      </trkpt>
      <trkpt lat="45.86911" lon="4.78533">
        <ele>313.4</ele>
        <time>2019-10-13T09:12:11Z</time>
      </trkpt>
      <trkpt lat="45.86916" lon="4.7853">
        <ele>312.5</ele>
        <time>2019-10-13T09:12:12Z</time>
      </trkpt>
      <trkpt lat="45.86935" lon="4.7852">
        <ele>309.3</ele>
        <time>2019-10-13T09:12:15Z</time>
      </trkpt>
      <trkpt lat="45.86942" lon="4.78516">
        <ele>308</ele>
        <time>2019-10-13T09:12:16Z</time>
      </trkpt>
      <trkpt lat="45.86949" lon="4.7851">
        <ele>306.6</ele>
        <time>2019-10-13T09:12:17Z</time>
      </trkpt>
      <trkpt lat="45.86969" lon="4.78494">
        <ele>302.8</ele>
        <time>2019-10-13T09:12:20Z</time>
      </trkpt>
      <trkpt lat="45.86981" lon="4.78482">
        <ele>300.2</ele>
        <time>2019-10-13T09:12:22Z</time>
      </trkpt>
      <trkpt lat="45.86989" lon="4.78476">
        <ele>298.7</ele>
        <time>2019-10-13T09:12:23Z</time>
      </trkpt>
      <trkpt lat="45.87005" lon="4.78462">
        <ele>295.9</ele>
        <time>2019-10-13T09:12:25Z</time>
      </trkpt>
      <trkpt lat="45.8702" lon="4.78448">
        <ele>294.1</ele>
        <time>2019-10-13T09:12:27Z</time>
      </trkpt>
      <trkpt lat="45.87033" lon="4.78435">
        <ele>292.8</ele>
        <time>2019-10-13T09:12:29Z</time>
      </trkpt>
      <trkpt lat="45.87045" lon="4.78425">
        <ele>291.5</ele>
        <time>2019-10-13T09:12:31Z</time>
      </trkpt>
      <trkpt lat="45.87056" lon="4.78416">
        <ele>290.1</ele>
        <time>2019-10-13T09:12:33Z</time>
      </trkpt>
      <trkpt lat="45.87066" lon="4.78407">
        <ele>288.6</ele>
        <time>2019-10-13T09:12:35Z</time>
      </trkpt>
      <trkpt lat="45.87072" lon="4.78401">
        <ele>287.7</ele>
        <time>2019-10-13T09:12:36Z</time>
      </trkpt>
      <trkpt lat="45.87079" lon="4.78394">
        <ele>286.7</ele>
        <time>2019-10-13T09:12:37Z</time>
      </trkpt>
      <trkpt lat="45.87092" lon="4.78382">
        <ele>284.8</ele>
        <time>2019-10-13T09:12:39Z</time>
      </trkpt>
      <trkpt lat="45.87099" lon="4.78376">
        <ele>283.9</ele>
        <time>2019-10-13T09:12:40Z</time>
      </trkpt>
      <trkpt lat="45.87106" lon="4.78369">
        <ele>283.1</ele>
        <time>2019-10-13T09:12:41Z</time>
      </trkpt>
      <trkpt lat="45.87113" lon="4.78364">
        <ele>282.3</ele>
        <time>2019-10-13T09:12:42Z</time>
      </trkpt>
      <trkpt lat="45.8712" lon="4.78358">
        <ele>281.4</ele>
        <time>2019-10-13T09:12:43Z</time>
      </trkpt>
      <trkpt lat="45.87127" lon="4.78354">
        <ele>280.7</ele>
        <time>2019-10-13T09:12:44Z</time>
      </trkpt>
      <trkpt lat="45.87135" lon="4.7835">
        <ele>279.6</ele>
        <time>2019-10-13T09:12:45Z</time>
      </trkpt>
      <trkpt lat="45.87143" lon="4.78346">
        <ele>278.6</ele>
        <time>2019-10-13T09:12:46Z</time>
      </trkpt>
      <trkpt lat="45.87156" lon="4.78339">
        <ele>277</ele>
        <time>2019-10-13T09:12:48Z</time>
      </trkpt>
      <trkpt lat="45.87159" lon="4.78337">
        <ele>276.7</ele>
        <time>2019-10-13T09:12:49Z</time>
      </trkpt>
      <trkpt lat="45.8716" lon="4.78334">
        <ele>276.6</ele>
        <time>2019-10-13T09:12:50Z</time>
      </trkpt>
      <trkpt lat="45.87161" lon="4.78333">
        <ele>276.5</ele>
        <time>2019-10-13T09:12:51Z</time>
      </trkpt>
      <trkpt lat="45.8716" lon="4.78332">
        <ele>276.3</ele>
        <time>2019-10-13T09:12:52Z</time>
      </trkpt>
      <trkpt lat="45.8716" lon="4.78331">
        <ele>276.3</ele>
        <time>2019-10-13T09:12:53Z</time>
      </trkpt>
      <trkpt lat="45.87159" lon="4.7833">
        <ele>276.2</ele>
        <time>2019-10-13T09:12:54Z</time>
      </trkpt>
      <trkpt lat="45.87159" lon="4.78325">
        <ele>276</ele>
        <time>2019-10-13T09:12:56Z</time>
      </trkpt>
      <trkpt lat="45.87159" lon="4.78322">
        <ele>275.9</ele>
        <time>2019-10-13T09:12:57Z</time>
      </trkpt>
      <trkpt lat="45.87159" lon="4.78318">
        <ele>275.8</ele>
        <time>2019-10-13T09:12:58Z</time>
      </trkpt>
      <trkpt lat="45.8716" lon="4.78313">
        <ele>275.6</ele>
        <time>2019-10-13T09:12:59Z</time>
      </trkpt>
      <trkpt lat="45.87161" lon="4.78302">
        <ele>275.1</ele>
        <time>2019-10-13T09:13:01Z</time>
      </trkpt>
      <trkpt lat="45.87162" lon="4.7829">
        <ele>274.6</ele>
        <time>2019-10-13T09:13:03Z</time>
      </trkpt>
      <trkpt lat="45.87162" lon="4.78277">
        <ele>274.2</ele>
        <time>2019-10-13T09:13:05Z</time>
      </trkpt>
      <trkpt lat="45.87162" lon="4.78264">
        <ele>273.9</ele>
        <time>2019-10-13T09:13:07Z</time>
      </trkpt>
      <trkpt lat="45.87162" lon="4.7825">
        <ele>273.4</ele>
        <time>2019-10-13T09:13:09Z</time>
      </trkpt>
      <trkpt lat="45.87163" lon="4.78242">
        <ele>273.1</ele>
        <time>2019-10-13T09:13:10Z</time>
      </trkpt>
      <trkpt lat="45.87165" lon="4.78234">
        <ele>272.9</ele>
        <time>2019-10-13T09:13:11Z</time>
      </trkpt>
      <trkpt lat="45.87168" lon="4.78226">
        <ele>272.8</ele>
        <time>2019-10-13T09:13:12Z</time>
      </trkpt>
      <trkpt lat="45.87172" lon="4.78209">
        <ele>272.8</ele>
        <time>2019-10-13T09:13:14Z</time>
      </trkpt>
      <trkpt lat="45.87172" lon="4.78201">
        <ele>272.8</ele>
        <time>2019-10-13T09:13:15Z</time>
      </trkpt>
      <trkpt lat="45.87171" lon="4.78192">
        <ele>272.9</ele>
        <time>2019-10-13T09:13:16Z</time>
      </trkpt>
      <trkpt lat="45.87169" lon="4.78185">
        <ele>273</ele>
        <time>2019-10-13T09:13:17Z</time>
      </trkpt>
      <trkpt lat="45.87168" lon="4.78177">
        <ele>273</ele>
        <time>2019-10-13T09:13:18Z</time>
      </trkpt>
      <trkpt lat="45.87167" lon="4.78169">
        <ele>273.1</ele>
        <time>2019-10-13T09:13:19Z</time>
      </trkpt>
      <trkpt lat="45.87167" lon="4.78163">
        <ele>272.9</ele>
        <time>2019-10-13T09:13:20Z</time>
      </trkpt>
      <trkpt lat="45.8717" lon="4.78153">
        <ele>272.5</ele>
        <time>2019-10-13T09:13:22Z</time>
      </trkpt>
      <trkpt lat="45.87177" lon="4.78147">
        <ele>272.3</ele>
        <time>2019-10-13T09:13:24Z</time>
      </trkpt>
      <trkpt lat="45.87186" lon="4.78142">
        <ele>272.2</ele>
        <time>2019-10-13T09:13:26Z</time>
      </trkpt>
      <trkpt lat="45.87206" lon="4.7813">
        <ele>271.9</ele>
        <time>2019-10-13T09:13:30Z</time>
      </trkpt>
      <trkpt lat="45.87211" lon="4.78126">
        <ele>271.7</ele>
        <time>2019-10-13T09:13:31Z</time>
      </trkpt>
      <trkpt lat="45.87221" lon="4.78117">
        <ele>271.2</ele>
        <time>2019-10-13T09:13:33Z</time>
      </trkpt>
      <trkpt lat="45.87232" lon="4.7811">
        <ele>270.7</ele>
        <time>2019-10-13T09:13:35Z</time>
      </trkpt>
      <trkpt lat="45.87249" lon="4.78093">
        <ele>269.4</ele>
        <time>2019-10-13T09:13:39Z</time>
      </trkpt>
      <trkpt lat="45.87253" lon="4.78089">
        <ele>269.1</ele>
        <time>2019-10-13T09:13:40Z</time>
      </trkpt>
      <trkpt lat="45.87265" lon="4.78079">
        <ele>268.4</ele>
        <time>2019-10-13T09:13:43Z</time>
      </trkpt>
      <trkpt lat="45.87272" lon="4.78073">
        <ele>267.9</ele>
        <time>2019-10-13T09:13:45Z</time>
      </trkpt>
      <trkpt lat="45.87281" lon="4.78062">
        <ele>267</ele>
        <time>2019-10-13T09:13:48Z</time>
      </trkpt>
      <trkpt lat="45.87285" lon="4.78056">
        <ele>266.4</ele>
        <time>2019-10-13T09:13:50Z</time>
      </trkpt>
      <trkpt lat="45.8729" lon="4.78045">
        <ele>265.2</ele>
        <time>2019-10-13T09:13:54Z</time>
      </trkpt>
      <trkpt lat="45.87293" lon="4.78038">
        <ele>264.6</ele>
        <time>2019-10-13T09:13:56Z</time>
      </trkpt>
      <trkpt lat="45.87294" lon="4.78035">
        <ele>264.4</ele>
        <time>2019-10-13T09:13:57Z</time>
      </trkpt>
      <trkpt lat="45.87298" lon="4.78017">
        <ele>262.9</ele>
        <time>2019-10-13T09:14:02Z</time>
      </trkpt>
      <trkpt lat="45.87296" lon="4.77995">
        <ele>261.5</ele>
        <time>2019-10-13T09:14:08Z</time>
      </trkpt>
      <trkpt lat="45.87293" lon="4.77973">
        <ele>261.5</ele>
        <time>2019-10-13T09:14:13Z</time>
      </trkpt>
      <trkpt lat="45.87292" lon="4.77967">
        <ele>261.6</ele>
        <time>2019-10-13T09:14:14Z</time>
      </trkpt>
      <trkpt lat="45.87291" lon="4.77955">
        <ele>261.7</ele>
        <time>2019-10-13T09:14:16Z</time>
      </trkpt>
      <trkpt lat="45.87287" lon="4.77937">
        <ele>262.1</ele>
        <time>2019-10-13T09:14:19Z</time>
      </trkpt>
      <trkpt lat="45.87283" lon="4.77917">
        <ele>262.3</ele>
        <time>2019-10-13T09:14:22Z</time>
      </trkpt>
      <trkpt lat="45.8728" lon="4.77896">
        <ele>262.3</ele>
        <time>2019-10-13T09:14:25Z</time>
      </trkpt>
      <trkpt lat="45.87271" lon="4.77848">
        <ele>262.7</ele>
        <time>2019-10-13T09:14:32Z</time>
      </trkpt>
      <trkpt lat="45.8727" lon="4.77841">
        <ele>262.8</ele>
        <time>2019-10-13T09:14:33Z</time>
      </trkpt>
      <trkpt lat="45.8727" lon="4.77827">
        <ele>263.1</ele>
        <time>2019-10-13T09:14:35Z</time>
      </trkpt>
      <trkpt lat="45.87272" lon="4.77804">
        <ele>263.3</ele>
        <time>2019-10-13T09:14:38Z</time>
      </trkpt>
      <trkpt lat="45.87274" lon="4.77781">
        <ele>262.5</ele>
        <time>2019-10-13T09:14:41Z</time>
      </trkpt>
      <trkpt lat="45.87274" lon="4.77764">
        <ele>261.7</ele>
        <time>2019-10-13T09:14:43Z</time>
      </trkpt>
      <trkpt lat="45.87274" lon="4.77755">
        <ele>261.2</ele>
        <time>2019-10-13T09:14:44Z</time>
      </trkpt>
      <trkpt lat="45.87274" lon="4.77746">
        <ele>260.7</ele>
        <time>2019-10-13T09:14:45Z</time>
      </trkpt>
      <trkpt lat="45.87272" lon="4.77714">
        <ele>258.9</ele>
        <time>2019-10-13T09:14:48Z</time>
      </trkpt>
      <trkpt lat="45.87271" lon="4.77702">
        <ele>258.1</ele>
        <time>2019-10-13T09:14:49Z</time>
      </trkpt>
      <trkpt lat="45.8727" lon="4.7769">
        <ele>257</ele>
        <time>2019-10-13T09:14:50Z</time>
      </trkpt>
      <trkpt lat="45.87267" lon="4.77666">
        <ele>255</ele>
        <time>2019-10-13T09:14:52Z</time>
      </trkpt>
      <trkpt lat="45.87265" lon="4.77642">
        <ele>253.3</ele>
        <time>2019-10-13T09:14:54Z</time>
      </trkpt>
      <trkpt lat="45.87263" lon="4.77629">
        <ele>252.5</ele>
        <time>2019-10-13T09:14:55Z</time>
      </trkpt>
      <trkpt lat="45.87262" lon="4.77617">
        <ele>251.6</ele>
        <time>2019-10-13T09:14:56Z</time>
      </trkpt>
      <trkpt lat="45.8726" lon="4.77597">
        <ele>250.8</ele>
        <time>2019-10-13T09:14:58Z</time>
      </trkpt>
      <trkpt lat="45.87259" lon="4.77591">
        <ele>250.5</ele>
        <time>2019-10-13T09:14:59Z</time>
      </trkpt>
      <trkpt lat="45.87256" lon="4.77588">
        <ele>250.3</ele>
        <time>2019-10-13T09:15:00Z</time>
      </trkpt>
      <trkpt lat="45.87249" lon="4.77586">
        <ele>251.2</ele>
        <time>2019-10-13T09:15:02Z</time>
      </trkpt>
      <trkpt lat="45.87244" lon="4.77588">
        <ele>251.7</ele>
        <time>2019-10-13T09:15:04Z</time>
      </trkpt>
      <trkpt lat="45.87242" lon="4.77588">
        <ele>251.9</ele>
        <time>2019-10-13T09:15:05Z</time>
      </trkpt>
      <trkpt lat="45.8724" lon="4.77589">
        <ele>252</ele>
        <time>2019-10-13T09:15:06Z</time>
      </trkpt>
      <trkpt lat="45.87238" lon="4.77589">
        <ele>252.2</ele>
        <time>2019-10-13T09:15:07Z</time>
      </trkpt>
      <trkpt lat="45.87236" lon="4.7759">
        <ele>252.4</ele>
        <time>2019-10-13T09:15:08Z</time>
      </trkpt>
      <trkpt lat="45.87229" lon="4.77593">
        <ele>253.2</ele>
        <time>2019-10-13T09:15:12Z</time>
      </trkpt>
      <trkpt lat="45.87223" lon="4.77596">
        <ele>253.8</ele>
        <time>2019-10-13T09:15:15Z</time>
      </trkpt>
      <trkpt lat="45.87207" lon="4.77604">
        <ele>256.1</ele>
        <time>2019-10-13T09:15:24Z</time>
      </trkpt>
      <trkpt lat="45.87201" lon="4.77607">
        <ele>257.2</ele>
        <time>2019-10-13T09:15:28Z</time>
      </trkpt>
      <trkpt lat="45.87194" lon="4.77612">
        <ele>258.2</ele>
        <time>2019-10-13T09:15:32Z</time>
      </trkpt>
      <trkpt lat="45.8719" lon="4.77616">
        <ele>258.9</ele>
        <time>2019-10-13T09:15:35Z</time>
      </trkpt>
      <trkpt lat="45.87187" lon="4.77622">
        <ele>259.5</ele>
        <time>2019-10-13T09:15:38Z</time>
      </trkpt>
      <trkpt lat="45.87184" lon="4.77626">
        <ele>260.1</ele>
        <time>2019-10-13T09:15:41Z</time>
      </trkpt>
      <trkpt lat="45.87183" lon="4.77628">
        <ele>260.4</ele>
        <time>2019-10-13T09:15:42Z</time>
      </trkpt>
      <trkpt lat="45.87178" lon="4.77635">
        <ele>261.3</ele>
        <time>2019-10-13T09:15:46Z</time>
      </trkpt>
      <trkpt lat="45.87174" lon="4.77642">
        <ele>262</ele>
        <time>2019-10-13T09:15:50Z</time>
      </trkpt>
      <trkpt lat="45.87173" lon="4.77644">
        <ele>262.2</ele>
        <time>2019-10-13T09:15:51Z</time>
      </trkpt>
      <trkpt lat="45.8717" lon="4.7765">
        <ele>262.7</ele>
        <time>2019-10-13T09:15:55Z</time>
      </trkpt>
      <trkpt lat="45.87166" lon="4.77658">
        <ele>263.5</ele>
        <time>2019-10-13T09:15:59Z</time>
      </trkpt>
      <trkpt lat="45.87165" lon="4.7766">
        <ele>263.8</ele>
        <time>2019-10-13T09:16:00Z</time>
      </trkpt>
      <trkpt lat="45.87162" lon="4.77667">
        <ele>264.6</ele>
        <time>2019-10-13T09:16:03Z</time>
      </trkpt>
      <trkpt lat="45.87156" lon="4.77676">
        <ele>265.7</ele>
        <time>2019-10-13T09:16:07Z</time>
      </trkpt>
      <trkpt lat="45.87154" lon="4.7768">
        <ele>266.3</ele>
        <time>2019-10-13T09:16:09Z</time>
      </trkpt>
      <trkpt lat="45.87149" lon="4.77686">
        <ele>267.6</ele>
        <time>2019-10-13T09:16:13Z</time>
      </trkpt>
      <trkpt lat="45.87148" lon="4.77686">
        <ele>267.7</ele>
        <time>2019-10-13T09:16:14Z</time>
      </trkpt>
      <trkpt lat="45.87145" lon="4.77683">
        <ele>267.9</ele>
        <time>2019-10-13T09:16:16Z</time>
      </trkpt>
      <trkpt lat="45.8714" lon="4.77676">
        <ele>268.1</ele>
        <time>2019-10-13T09:16:19Z</time>
      </trkpt>
      <trkpt lat="45.87132" lon="4.77664">
        <ele>268.1</ele>
        <time>2019-10-13T09:16:22Z</time>
      </trkpt>
      <trkpt lat="45.87124" lon="4.77645">
        <ele>267.5</ele>
        <time>2019-10-13T09:16:25Z</time>
      </trkpt>
      <trkpt lat="45.8712" lon="4.77629">
        <ele>266.9</ele>
        <time>2019-10-13T09:16:27Z</time>
      </trkpt>
      <trkpt lat="45.87117" lon="4.77602">
        <ele>265.3</ele>
        <time>2019-10-13T09:16:30Z</time>
      </trkpt>
      <trkpt lat="45.87113" lon="4.77576">
        <ele>263.7</ele>
        <time>2019-10-13T09:16:33Z</time>
      </trkpt>
      <trkpt lat="45.87108" lon="4.77549">
        <ele>262</ele>
        <time>2019-10-13T09:16:36Z</time>
      </trkpt>
      <trkpt lat="45.87109" lon="4.77539">
        <ele>261.5</ele>
        <time>2019-10-13T09:16:37Z</time>
      </trkpt>
      <trkpt lat="45.8711" lon="4.77528">
        <ele>260.9</ele>
        <time>2019-10-13T09:16:38Z</time>
      </trkpt>
      <trkpt lat="45.87111" lon="4.77519">
        <ele>260.4</ele>
        <time>2019-10-13T09:16:39Z</time>
      </trkpt>
      <trkpt lat="45.87111" lon="4.77497">
        <ele>259.4</ele>
        <time>2019-10-13T09:16:41Z</time>
      </trkpt>
      <trkpt lat="45.87108" lon="4.77487">
        <ele>258.9</ele>
        <time>2019-10-13T09:16:42Z</time>
      </trkpt>
      <trkpt lat="45.87099" lon="4.77459">
        <ele>257.6</ele>
        <time>2019-10-13T09:16:45Z</time>
      </trkpt>
      <trkpt lat="45.87097" lon="4.77453">
        <ele>257.3</ele>
        <time>2019-10-13T09:16:46Z</time>
      </trkpt>
      <trkpt lat="45.87097" lon="4.77449">
        <ele>257</ele>
        <time>2019-10-13T09:16:47Z</time>
      </trkpt>
      <trkpt lat="45.87099" lon="4.77445">
        <ele>256.6</ele>
        <time>2019-10-13T09:16:48Z</time>
      </trkpt>
      <trkpt lat="45.87102" lon="4.77443">
        <ele>256.1</ele>
        <time>2019-10-13T09:16:49Z</time>
      </trkpt>
      <trkpt lat="45.87112" lon="4.77439">
        <ele>255.1</ele>
        <time>2019-10-13T09:16:51Z</time>
      </trkpt>
      <trkpt lat="45.87117" lon="4.77437">
        <ele>254.7</ele>
        <time>2019-10-13T09:16:52Z</time>
      </trkpt>
      <trkpt lat="45.87122" lon="4.77435">
        <ele>254.2</ele>
        <time>2019-10-13T09:16:53Z</time>
      </trkpt>
      <trkpt lat="45.87153" lon="4.77428">
        <ele>252.2</ele>
        <time>2019-10-13T09:16:58Z</time>
      </trkpt>
      <trkpt lat="45.87185" lon="4.77414">
        <ele>249.8</ele>
        <time>2019-10-13T09:17:03Z</time>
      </trkpt>
      <trkpt lat="45.87194" lon="4.77406">
        <ele>249</ele>
        <time>2019-10-13T09:17:05Z</time>
      </trkpt>
      <trkpt lat="45.87195" lon="4.77392">
        <ele>249.4</ele>
        <time>2019-10-13T09:17:07Z</time>
      </trkpt>
      <trkpt lat="45.87195" lon="4.77357">
        <ele>249.8</ele>
        <time>2019-10-13T09:17:12Z</time>
      </trkpt>
      <trkpt lat="45.87195" lon="4.77338">
        <ele>249.8</ele>
        <time>2019-10-13T09:17:15Z</time>
      </trkpt>
      <trkpt lat="45.87198" lon="4.77304">
        <ele>250</ele>
        <time>2019-10-13T09:17:22Z</time>
      </trkpt>
      <trkpt lat="45.87209" lon="4.77293">
        <ele>250.6</ele>
        <time>2019-10-13T09:17:25Z</time>
      </trkpt>
      <trkpt lat="45.87213" lon="4.77289">
        <ele>250.6</ele>
        <time>2019-10-13T09:17:26Z</time>
      </trkpt>
      <trkpt lat="45.87224" lon="4.77281">
        <ele>250.4</ele>
        <time>2019-10-13T09:17:28Z</time>
      </trkpt>
      <trkpt lat="45.87234" lon="4.77269">
        <ele>249.7</ele>
        <time>2019-10-13T09:17:30Z</time>
      </trkpt>
      <trkpt lat="45.87247" lon="4.77233">
        <ele>247.7</ele>
        <time>2019-10-13T09:17:34Z</time>
      </trkpt>
      <trkpt lat="45.87248" lon="4.77222">
        <ele>247.2</ele>
        <time>2019-10-13T09:17:35Z</time>
      </trkpt>
      <trkpt lat="45.87253" lon="4.77192">
        <ele>244.5</ele>
        <time>2019-10-13T09:17:38Z</time>
      </trkpt>
      <trkpt lat="45.87255" lon="4.77166">
        <ele>242.9</ele>
        <time>2019-10-13T09:17:41Z</time>
      </trkpt>
      <trkpt lat="45.87256" lon="4.77154">
        <ele>242.5</ele>
        <time>2019-10-13T09:17:43Z</time>
      </trkpt>
      <trkpt lat="45.87253" lon="4.77144">
        <ele>241.7</ele>
        <time>2019-10-13T09:17:45Z</time>
      </trkpt>
      <trkpt lat="45.8725" lon="4.77142">
        <ele>241.7</ele>
        <time>2019-10-13T09:17:46Z</time>
      </trkpt>
      <trkpt lat="45.87244" lon="4.77141">
        <ele>241.7</ele>
        <time>2019-10-13T09:17:48Z</time>
      </trkpt>
      <trkpt lat="45.87241" lon="4.77141">
        <ele>241.7</ele>
        <time>2019-10-13T09:17:49Z</time>
      </trkpt>
      <trkpt lat="45.87229" lon="4.77141">
        <ele>241.9</ele>
        <time>2019-10-13T09:17:53Z</time>
      </trkpt>
      <trkpt lat="45.87222" lon="4.77143">
        <ele>242.2</ele>
        <time>2019-10-13T09:17:56Z</time>
      </trkpt>
      <trkpt lat="45.87215" lon="4.77144">
        <ele>242.5</ele>
        <time>2019-10-13T09:17:59Z</time>
      </trkpt>
      <trkpt lat="45.87204" lon="4.77144">
        <ele>243</ele>
        <time>2019-10-13T09:18:04Z</time>
      </trkpt>
      <trkpt lat="45.87187" lon="4.77144">
        <ele>244.2</ele>
        <time>2019-10-13T09:18:12Z</time>
      </trkpt>
      <trkpt lat="45.87172" lon="4.77143">
        <ele>245.3</ele>
        <time>2019-10-13T09:18:19Z</time>
      </trkpt>
      <trkpt lat="45.87167" lon="4.77143">
        <ele>245.7</ele>
        <time>2019-10-13T09:18:21Z</time>
      </trkpt>
      <trkpt lat="45.87154" lon="4.77144">
        <ele>246.9</ele>
        <time>2019-10-13T09:18:27Z</time>
      </trkpt>
      <trkpt lat="45.87153" lon="4.77144">
        <ele>247.1</ele>
        <time>2019-10-13T09:18:28Z</time>
      </trkpt>
      <trkpt lat="45.87146" lon="4.77144">
        <ele>247.7</ele>
        <time>2019-10-13T09:18:31Z</time>
      </trkpt>
      <trkpt lat="45.87137" lon="4.77145">
        <ele>248.5</ele>
        <time>2019-10-13T09:18:35Z</time>
      </trkpt>
      <trkpt lat="45.87134" lon="4.77146">
        <ele>248.7</ele>
        <time>2019-10-13T09:18:36Z</time>
      </trkpt>
      <trkpt lat="45.87127" lon="4.77146">
        <ele>249.3</ele>
        <time>2019-10-13T09:18:39Z</time>
      </trkpt>
      <trkpt lat="45.87119" lon="4.77145">
        <ele>250.1</ele>
        <time>2019-10-13T09:18:43Z</time>
      </trkpt>
      <trkpt lat="45.87117" lon="4.77145">
        <ele>250.2</ele>
        <time>2019-10-13T09:18:44Z</time>
      </trkpt>
      <trkpt lat="45.87111" lon="4.77145">
        <ele>250.8</ele>
        <time>2019-10-13T09:18:47Z</time>
      </trkpt>
      <trkpt lat="45.87104" lon="4.77145">
        <ele>251.4</ele>
        <time>2019-10-13T09:18:50Z</time>
      </trkpt>
      <trkpt lat="45.87098" lon="4.77144">
        <ele>251.9</ele>
        <time>2019-10-13T09:18:53Z</time>
      </trkpt>
      <trkpt lat="45.87092" lon="4.77147">
        <ele>252.6</ele>
        <time>2019-10-13T09:18:56Z</time>
      </trkpt>
      <trkpt lat="45.87083" lon="4.77147">
        <ele>253.5</ele>
        <time>2019-10-13T09:19:00Z</time>
      </trkpt>
      <trkpt lat="45.8708" lon="4.77146">
        <ele>253.7</ele>
        <time>2019-10-13T09:19:01Z</time>
      </trkpt>
      <trkpt lat="45.87074" lon="4.77148">
        <ele>254.3</ele>
        <time>2019-10-13T09:19:04Z</time>
      </trkpt>
      <trkpt lat="45.87067" lon="4.77148">
        <ele>255</ele>
        <time>2019-10-13T09:19:08Z</time>
      </trkpt>
      <trkpt lat="45.8706" lon="4.77148">
        <ele>255.5</ele>
        <time>2019-10-13T09:19:11Z</time>
      </trkpt>
      <trkpt lat="45.87052" lon="4.77148">
        <ele>256.3</ele>
        <time>2019-10-13T09:19:15Z</time>
      </trkpt>
      <trkpt lat="45.87041" lon="4.77148">
        <ele>257.4</ele>
        <time>2019-10-13T09:19:21Z</time>
      </trkpt>
      <trkpt lat="45.87029" lon="4.77148">
        <ele>258.5</ele>
        <time>2019-10-13T09:19:28Z</time>
      </trkpt>
      <trkpt lat="45.87025" lon="4.77149">
        <ele>258.9</ele>
        <time>2019-10-13T09:19:30Z</time>
      </trkpt>
      <trkpt lat="45.87015" lon="4.77149">
        <ele>259.8</ele>
        <time>2019-10-13T09:19:35Z</time>
      </trkpt>
      <trkpt lat="45.87006" lon="4.77149">
        <ele>260.7</ele>
        <time>2019-10-13T09:19:41Z</time>
      </trkpt>
      <trkpt lat="45.87001" lon="4.7715">
        <ele>261.1</ele>
        <time>2019-10-13T09:19:44Z</time>
      </trkpt>
      <trkpt lat="45.86993" lon="4.77148">
        <ele>261.7</ele>
        <time>2019-10-13T09:19:49Z</time>
      </trkpt>
      <trkpt lat="45.8699" lon="4.77148">
        <ele>261.9</ele>
        <time>2019-10-13T09:19:50Z</time>
      </trkpt>
      <trkpt lat="45.86977" lon="4.77139">
        <ele>262.9</ele>
        <time>2019-10-13T09:19:58Z</time>
      </trkpt>
      <trkpt lat="45.86972" lon="4.77131">
        <ele>263.1</ele>
        <time>2019-10-13T09:20:02Z</time>
      </trkpt>
      <trkpt lat="45.8697" lon="4.77125">
        <ele>263.2</ele>
        <time>2019-10-13T09:20:04Z</time>
      </trkpt>
      <trkpt lat="45.8696" lon="4.77101">
        <ele>262.9</ele>
        <time>2019-10-13T09:20:09Z</time>
      </trkpt>
      <trkpt lat="45.86946" lon="4.77074">
        <ele>262.1</ele>
        <time>2019-10-13T09:20:14Z</time>
      </trkpt>
      <trkpt lat="45.86941" lon="4.77063">
        <ele>261.8</ele>
        <time>2019-10-13T09:20:16Z</time>
      </trkpt>
      <trkpt lat="45.86937" lon="4.77051">
        <ele>261.6</ele>
        <time>2019-10-13T09:20:18Z</time>
      </trkpt>
      <trkpt lat="45.86931" lon="4.77026">
        <ele>262</ele>
        <time>2019-10-13T09:20:22Z</time>
      </trkpt>
      <trkpt lat="45.86928" lon="4.76987">
        <ele>262.6</ele>
        <time>2019-10-13T09:20:29Z</time>
      </trkpt>
      <trkpt lat="45.86929" lon="4.76962">
        <ele>263.3</ele>
        <time>2019-10-13T09:20:36Z</time>
      </trkpt>
      <trkpt lat="45.86928" lon="4.76951">
        <ele>263.9</ele>
        <time>2019-10-13T09:20:42Z</time>
      </trkpt>
      <trkpt lat="45.86927" lon="4.76951">
        <ele>263.9</ele>
        <time>2019-10-13T09:20:43Z</time>
      </trkpt>
      <trkpt lat="45.86928" lon="4.76949">
        <ele>264</ele>
        <time>2019-10-13T09:20:50Z</time>
      </trkpt>
      <trkpt lat="45.86937" lon="4.76946">
        <ele>263.1</ele>
        <time>2019-10-13T09:20:55Z</time>
      </trkpt>
      <trkpt lat="45.86939" lon="4.76945">
        <ele>262.8</ele>
        <time>2019-10-13T09:20:56Z</time>
      </trkpt>
      <trkpt lat="45.8695" lon="4.76937">
        <ele>261.6</ele>
        <time>2019-10-13T09:21:00Z</time>
      </trkpt>
      <trkpt lat="45.86953" lon="4.76933">
        <ele>261.1</ele>
        <time>2019-10-13T09:21:01Z</time>
      </trkpt>
      <trkpt lat="45.86966" lon="4.76919">
        <ele>259.6</ele>
        <time>2019-10-13T09:21:04Z</time>
      </trkpt>
      <trkpt lat="45.86969" lon="4.76912">
        <ele>259.1</ele>
        <time>2019-10-13T09:21:05Z</time>
      </trkpt>
      <trkpt lat="45.86973" lon="4.76884">
        <ele>257.5</ele>
        <time>2019-10-13T09:21:08Z</time>
      </trkpt>
      <trkpt lat="45.86971" lon="4.76864">
        <ele>256.6</ele>
        <time>2019-10-13T09:21:10Z</time>
      </trkpt>
      <trkpt lat="45.8697" lon="4.76853">
        <ele>256.1</ele>
        <time>2019-10-13T09:21:11Z</time>
      </trkpt>
      <trkpt lat="45.8697" lon="4.76843">
        <ele>255.6</ele>
        <time>2019-10-13T09:21:12Z</time>
      </trkpt>
      <trkpt lat="45.8697" lon="4.76833">
        <ele>255.1</ele>
        <time>2019-10-13T09:21:13Z</time>
      </trkpt>
      <trkpt lat="45.86973" lon="4.76824">
        <ele>254.7</ele>
        <time>2019-10-13T09:21:14Z</time>
      </trkpt>
      <trkpt lat="45.86977" lon="4.76818">
        <ele>254.2</ele>
        <time>2019-10-13T09:21:15Z</time>
      </trkpt>
      <trkpt lat="45.86984" lon="4.76809">
        <ele>253.5</ele>
        <time>2019-10-13T09:21:17Z</time>
      </trkpt>
      <trkpt lat="45.86985" lon="4.76803">
        <ele>253.1</ele>
        <time>2019-10-13T09:21:18Z</time>
      </trkpt>
      <trkpt lat="45.86981" lon="4.7679">
        <ele>253.4</ele>
        <time>2019-10-13T09:21:20Z</time>
      </trkpt>
      <trkpt lat="45.86979" lon="4.76784">
        <ele>253.5</ele>
        <time>2019-10-13T09:21:21Z</time>
      </trkpt>
      <trkpt lat="45.86976" lon="4.7677">
        <ele>253.6</ele>
        <time>2019-10-13T09:21:23Z</time>
      </trkpt>
      <trkpt lat="45.86971" lon="4.76742">
        <ele>253.9</ele>
        <time>2019-10-13T09:21:27Z</time>
      </trkpt>
      <trkpt lat="45.86969" lon="4.76734">
        <ele>253.9</ele>
        <time>2019-10-13T09:21:28Z</time>
      </trkpt>
      <trkpt lat="45.86962" lon="4.76706">
        <ele>254</ele>
        <time>2019-10-13T09:21:32Z</time>
      </trkpt>
      <trkpt lat="45.86955" lon="4.7668">
        <ele>253.9</ele>
        <time>2019-10-13T09:21:36Z</time>
      </trkpt>
      <trkpt lat="45.86949" lon="4.76648">
        <ele>253.9</ele>
        <time>2019-10-13T09:21:41Z</time>
      </trkpt>
      <trkpt lat="45.86949" lon="4.76636">
        <ele>253.9</ele>
        <time>2019-10-13T09:21:43Z</time>
      </trkpt>
      <trkpt lat="45.86954" lon="4.76618">
        <ele>253.6</ele>
        <time>2019-10-13T09:21:46Z</time>
      </trkpt>
      <trkpt lat="45.86957" lon="4.76603">
        <ele>253.3</ele>
        <time>2019-10-13T09:21:48Z</time>
      </trkpt>
      <trkpt lat="45.86958" lon="4.76595">
        <ele>253.2</ele>
        <time>2019-10-13T09:21:49Z</time>
      </trkpt>
      <trkpt lat="45.86959" lon="4.7657">
        <ele>253</ele>
        <time>2019-10-13T09:21:52Z</time>
      </trkpt>
      <trkpt lat="45.86957" lon="4.76543">
        <ele>252.7</ele>
        <time>2019-10-13T09:21:55Z</time>
      </trkpt>
      <trkpt lat="45.86955" lon="4.76523">
        <ele>252.4</ele>
        <time>2019-10-13T09:21:57Z</time>
      </trkpt>
      <trkpt lat="45.86955" lon="4.76515">
        <ele>252.3</ele>
        <time>2019-10-13T09:21:58Z</time>
      </trkpt>
      <trkpt lat="45.86957" lon="4.76507">
        <ele>252.2</ele>
        <time>2019-10-13T09:21:59Z</time>
      </trkpt>
      <trkpt lat="45.86961" lon="4.76501">
        <ele>251.6</ele>
        <time>2019-10-13T09:22:00Z</time>
      </trkpt>
      <trkpt lat="45.86965" lon="4.76498">
        <ele>251.3</ele>
        <time>2019-10-13T09:22:01Z</time>
      </trkpt>
      <trkpt lat="45.86976" lon="4.76501">
        <ele>250.5</ele>
        <time>2019-10-13T09:22:03Z</time>
      </trkpt>
      <trkpt lat="45.86987" lon="4.76504">
        <ele>249.8</ele>
        <time>2019-10-13T09:22:05Z</time>
      </trkpt>
      <trkpt lat="45.86993" lon="4.76505">
        <ele>248.9</ele>
        <time>2019-10-13T09:22:06Z</time>
      </trkpt>
      <trkpt lat="45.86997" lon="4.76501">
        <ele>248.8</ele>
        <time>2019-10-13T09:22:07Z</time>
      </trkpt>
      <trkpt lat="45.87003" lon="4.76484">
        <ele>248.6</ele>
        <time>2019-10-13T09:22:10Z</time>
      </trkpt>
      <trkpt lat="45.87005" lon="4.76478">
        <ele>248.6</ele>
        <time>2019-10-13T09:22:11Z</time>
      </trkpt>
      <trkpt lat="45.87013" lon="4.7644">
        <ele>248.8</ele>
        <time>2019-10-13T09:22:18Z</time>
      </trkpt>
      <trkpt lat="45.87019" lon="4.76416">
        <ele>249.3</ele>
        <time>2019-10-13T09:22:24Z</time>
      </trkpt>
      <trkpt lat="45.8702" lon="4.76409">
        <ele>249.4</ele>
        <time>2019-10-13T09:22:27Z</time>
      </trkpt>
      <trkpt lat="45.87016" lon="4.76405">
        <ele>249.8</ele>
        <time>2019-10-13T09:22:29Z</time>
      </trkpt>
      <trkpt lat="45.87014" lon="4.76403">
        <ele>249.9</ele>
        <time>2019-10-13T09:22:30Z</time>
      </trkpt>
      <trkpt lat="45.87008" lon="4.76398">
        <ele>250.4</ele>
        <time>2019-10-13T09:22:33Z</time>
      </trkpt>
      <trkpt lat="45.87004" lon="4.76395">
        <ele>250.6</ele>
        <time>2019-10-13T09:22:35Z</time>
      </trkpt>
      <trkpt lat="45.87002" lon="4.76393">
        <ele>250.8</ele>
        <time>2019-10-13T09:22:36Z</time>
      </trkpt>
      <trkpt lat="45.86997" lon="4.76385">
        <ele>251.5</ele>
        <time>2019-10-13T09:22:40Z</time>
      </trkpt>
      <trkpt lat="45.86993" lon="4.76382">
        <ele>252</ele>
        <time>2019-10-13T09:22:42Z</time>
      </trkpt>
      <trkpt lat="45.86991" lon="4.76378">
        <ele>252.5</ele>
        <time>2019-10-13T09:22:44Z</time>
      </trkpt>
      <trkpt lat="45.86988" lon="4.76369">
        <ele>253.5</ele>
        <time>2019-10-13T09:22:48Z</time>
      </trkpt>
      <trkpt lat="45.86989" lon="4.76367">
        <ele>253.8</ele>
        <time>2019-10-13T09:22:49Z</time>
      </trkpt>
      <trkpt lat="45.86991" lon="4.76356">
        <ele>254.4</ele>
        <time>2019-10-13T09:22:53Z</time>
      </trkpt>
      <trkpt lat="45.86992" lon="4.7635">
        <ele>254.3</ele>
        <time>2019-10-13T09:22:55Z</time>
      </trkpt>
      <trkpt lat="45.86993" lon="4.76347">
        <ele>254.2</ele>
        <time>2019-10-13T09:22:56Z</time>
      </trkpt>
      <trkpt lat="45.87001" lon="4.7633">
        <ele>253.9</ele>
        <time>2019-10-13T09:23:02Z</time>
      </trkpt>
      <trkpt lat="45.87004" lon="4.76307">
        <ele>253.8</ele>
        <time>2019-10-13T09:23:08Z</time>
      </trkpt>
      <trkpt lat="45.87005" lon="4.76289">
        <ele>253.6</ele>
        <time>2019-10-13T09:23:11Z</time>
      </trkpt>
      <trkpt lat="45.87006" lon="4.76274">
        <ele>253.3</ele>
        <time>2019-10-13T09:23:13Z</time>
      </trkpt>
      <trkpt lat="45.87008" lon="4.76266">
        <ele>253</ele>
        <time>2019-10-13T09:23:14Z</time>
      </trkpt>
      <trkpt lat="45.87015" lon="4.76253">
        <ele>251.7</ele>
        <time>2019-10-13T09:23:16Z</time>
      </trkpt>
      <trkpt lat="45.87021" lon="4.76247">
        <ele>250.7</ele>
        <time>2019-10-13T09:23:17Z</time>
      </trkpt>
      <trkpt lat="45.87028" lon="4.76242">
        <ele>249.8</ele>
        <time>2019-10-13T09:23:18Z</time>
      </trkpt>
      <trkpt lat="45.87043" lon="4.76234">
        <ele>247.7</ele>
        <time>2019-10-13T09:23:20Z</time>
      </trkpt>
      <trkpt lat="45.87049" lon="4.76232">
        <ele>247</ele>
        <time>2019-10-13T09:23:21Z</time>
      </trkpt>
      <trkpt lat="45.87054" lon="4.7623">
        <ele>246.7</ele>
        <time>2019-10-13T09:23:22Z</time>
      </trkpt>
      <trkpt lat="45.87057" lon="4.76228">
        <ele>246.6</ele>
        <time>2019-10-13T09:23:23Z</time>
      </trkpt>
      <trkpt lat="45.87058" lon="4.76226">
        <ele>246.4</ele>
        <time>2019-10-13T09:23:24Z</time>
      </trkpt>
      <trkpt lat="45.87059" lon="4.76226">
        <ele>246.3</ele>
        <time>2019-10-13T09:23:25Z</time>
      </trkpt>
      <trkpt lat="45.8706" lon="4.76227">
        <ele>246.1</ele>
        <time>2019-10-13T09:23:26Z</time>
      </trkpt>
      <trkpt lat="45.87055" lon="4.76232">
        <ele>245.6</ele>
        <time>2019-10-13T09:23:29Z</time>
      </trkpt>
      <trkpt lat="45.87039" lon="4.76236">
        <ele>247</ele>
        <time>2019-10-13T09:23:35Z</time>
      </trkpt>
      <trkpt lat="45.8703" lon="4.76239">
        <ele>247.7</ele>
        <time>2019-10-13T09:23:39Z</time>
      </trkpt>
      <trkpt lat="45.87024" lon="4.76241">
        <ele>248.1</ele>
        <time>2019-10-13T09:23:42Z</time>
      </trkpt>
      <trkpt lat="45.87021" lon="4.7624">
        <ele>248.4</ele>
        <time>2019-10-13T09:23:45Z</time>
      </trkpt>
      <trkpt lat="45.87019" lon="4.76242">
        <ele>248.5</ele>
        <time>2019-10-13T09:23:47Z</time>
      </trkpt>
      <trkpt lat="45.87017" lon="4.76244">
        <ele>248.8</ele>
        <time>2019-10-13T09:23:50Z</time>
      </trkpt>
      <trkpt lat="45.87013" lon="4.76245">
        <ele>249</ele>
        <time>2019-10-13T09:23:53Z</time>
      </trkpt>
      <trkpt lat="45.87014" lon="4.76248">
        <ele>249.2</ele>
        <time>2019-10-13T09:23:55Z</time>
      </trkpt>
      <trkpt lat="45.87018" lon="4.76248">
        <ele>249.5</ele>
        <time>2019-10-13T09:23:57Z</time>
      </trkpt>
      <trkpt lat="45.87027" lon="4.76237">
        <ele>250.2</ele>
        <time>2019-10-13T09:24:00Z</time>
      </trkpt>
      <trkpt lat="45.87032" lon="4.76218">
        <ele>251.2</ele>
        <time>2019-10-13T09:24:04Z</time>
      </trkpt>
      <trkpt lat="45.87032" lon="4.76212">
        <ele>251.6</ele>
        <time>2019-10-13T09:24:06Z</time>
      </trkpt>
      <trkpt lat="45.87032" lon="4.76208">
        <ele>251.7</ele>
        <time>2019-10-13T09:24:08Z</time>
      </trkpt>
      <trkpt lat="45.87035" lon="4.76211">
        <ele>252</ele>
        <time>2019-10-13T09:24:16Z</time>
      </trkpt>
      <trkpt lat="45.87035" lon="4.76213">
        <ele>252.1</ele>
        <time>2019-10-13T09:24:17Z</time>
      </trkpt>
      <trkpt lat="45.87034" lon="4.76218">
        <ele>252.4</ele>
        <time>2019-10-13T09:24:20Z</time>
      </trkpt>
      <trkpt lat="45.87031" lon="4.76224">
        <ele>252.7</ele>
        <time>2019-10-13T09:24:23Z</time>
      </trkpt>
      <trkpt lat="45.87029" lon="4.76236">
        <ele>253.1</ele>
        <time>2019-10-13T09:24:28Z</time>
      </trkpt>
      <trkpt lat="45.87028" lon="4.76238">
        <ele>253.1</ele>
        <time>2019-10-13T09:24:29Z</time>
      </trkpt>
      <trkpt lat="45.8702" lon="4.76244">
        <ele>253.4</ele>
        <time>2019-10-13T09:24:34Z</time>
      </trkpt>
      <trkpt lat="45.87019" lon="4.76246">
        <ele>253.4</ele>
        <time>2019-10-13T09:24:35Z</time>
      </trkpt>
      <trkpt lat="45.87016" lon="4.76248">
        <ele>253.5</ele>
        <time>2019-10-13T09:24:37Z</time>
      </trkpt>
      <trkpt lat="45.87013" lon="4.76251">
        <ele>253.5</ele>
        <time>2019-10-13T09:24:39Z</time>
      </trkpt>
      <trkpt lat="45.87009" lon="4.76255">
        <ele>253.6</ele>
        <time>2019-10-13T09:24:42Z</time>
      </trkpt>
      <trkpt lat="45.87006" lon="4.7626">
        <ele>253.6</ele>
        <time>2019-10-13T09:24:45Z</time>
      </trkpt>
      <trkpt lat="45.87004" lon="4.76268">
        <ele>253.7</ele>
        <time>2019-10-13T09:24:48Z</time>
      </trkpt>
      <trkpt lat="45.87004" lon="4.7627">
        <ele>253.7</ele>
        <time>2019-10-13T09:24:49Z</time>
      </trkpt>
      <trkpt lat="45.87002" lon="4.76275">
        <ele>253.8</ele>
        <time>2019-10-13T09:24:51Z</time>
      </trkpt>
      <trkpt lat="45.87002" lon="4.76283">
        <ele>253.8</ele>
        <time>2019-10-13T09:24:54Z</time>
      </trkpt>
      <trkpt lat="45.87002" lon="4.7629">
        <ele>253.8</ele>
        <time>2019-10-13T09:24:57Z</time>
      </trkpt>
      <trkpt lat="45.87002" lon="4.76296">
        <ele>253.9</ele>
        <time>2019-10-13T09:24:59Z</time>
      </trkpt>
      <trkpt lat="45.87002" lon="4.76301">
        <ele>253.9</ele>
        <time>2019-10-13T09:25:01Z</time>
      </trkpt>
      <trkpt lat="45.87002" lon="4.76309">
        <ele>253.9</ele>
        <time>2019-10-13T09:25:04Z</time>
      </trkpt>
      <trkpt lat="45.87" lon="4.76325">
        <ele>253.9</ele>
        <time>2019-10-13T09:25:10Z</time>
      </trkpt>
      <trkpt lat="45.86995" lon="4.76343">
        <ele>254.2</ele>
        <time>2019-10-13T09:25:15Z</time>
      </trkpt>
      <trkpt lat="45.86993" lon="4.76348">
        <ele>254.2</ele>
        <time>2019-10-13T09:25:16Z</time>
      </trkpt>
      <trkpt lat="45.86988" lon="4.76359">
        <ele>254.4</ele>
        <time>2019-10-13T09:25:18Z</time>
      </trkpt>
      <trkpt lat="45.86979" lon="4.76364">
        <ele>254.9</ele>
        <time>2019-10-13T09:25:20Z</time>
      </trkpt>
      <trkpt lat="45.86971" lon="4.76363">
        <ele>255.4</ele>
        <time>2019-10-13T09:25:22Z</time>
      </trkpt>
      <trkpt lat="45.86969" lon="4.76361">
        <ele>255.6</ele>
        <time>2019-10-13T09:25:23Z</time>
      </trkpt>
      <trkpt lat="45.8696" lon="4.76354">
        <ele>256.4</ele>
        <time>2019-10-13T09:25:27Z</time>
      </trkpt>
      <trkpt lat="45.86953" lon="4.76348">
        <ele>257</ele>
        <time>2019-10-13T09:25:30Z</time>
      </trkpt>
      <trkpt lat="45.86943" lon="4.76341">
        <ele>258.1</ele>
        <time>2019-10-13T09:25:34Z</time>
      </trkpt>
      <trkpt lat="45.86936" lon="4.76337">
        <ele>258.6</ele>
        <time>2019-10-13T09:25:37Z</time>
      </trkpt>
      <trkpt lat="45.86933" lon="4.76336">
        <ele>258.8</ele>
        <time>2019-10-13T09:25:38Z</time>
      </trkpt>
      <trkpt lat="45.86926" lon="4.76332">
        <ele>259.3</ele>
        <time>2019-10-13T09:25:41Z</time>
      </trkpt>
      <trkpt lat="45.86921" lon="4.76328">
        <ele>259.7</ele>
        <time>2019-10-13T09:25:43Z</time>
      </trkpt>
      <trkpt lat="45.86917" lon="4.76325">
        <ele>260</ele>
        <time>2019-10-13T09:25:45Z</time>
      </trkpt>
      <trkpt lat="45.86907" lon="4.76319">
        <ele>260.6</ele>
        <time>2019-10-13T09:25:49Z</time>
      </trkpt>
      <trkpt lat="45.86899" lon="4.76317">
        <ele>261</ele>
        <time>2019-10-13T09:25:52Z</time>
      </trkpt>
      <trkpt lat="45.86894" lon="4.76313">
        <ele>261.3</ele>
        <time>2019-10-13T09:25:54Z</time>
      </trkpt>
      <trkpt lat="45.86891" lon="4.76312">
        <ele>261.5</ele>
        <time>2019-10-13T09:25:55Z</time>
      </trkpt>
      <trkpt lat="45.86886" lon="4.76307">
        <ele>261.8</ele>
        <time>2019-10-13T09:25:58Z</time>
      </trkpt>
      <trkpt lat="45.86887" lon="4.76301">
        <ele>261.4</ele>
        <time>2019-10-13T09:25:59Z</time>
      </trkpt>
      <trkpt lat="45.86887" lon="4.76297">
        <ele>261.1</ele>
        <time>2019-10-13T09:26:01Z</time>
      </trkpt>
      <trkpt lat="45.86887" lon="4.76293">
        <ele>260.9</ele>
        <time>2019-10-13T09:26:04Z</time>
      </trkpt>
      <trkpt lat="45.86888" lon="4.76289">
        <ele>260.7</ele>
        <time>2019-10-13T09:26:05Z</time>
      </trkpt>
      <trkpt lat="45.86888" lon="4.76285">
        <ele>260.4</ele>
        <time>2019-10-13T09:26:13Z</time>
      </trkpt>
      <trkpt lat="45.86888" lon="4.76281">
        <ele>260.2</ele>
        <time>2019-10-13T09:26:14Z</time>
      </trkpt>
      <trkpt lat="45.86889" lon="4.76274">
        <ele>259.8</ele>
        <time>2019-10-13T09:26:15Z</time>
      </trkpt>
      <trkpt lat="45.86888" lon="4.76256">
        <ele>258.6</ele>
        <time>2019-10-13T09:26:18Z</time>
      </trkpt>
      <trkpt lat="45.86887" lon="4.76235">
        <ele>257.1</ele>
        <time>2019-10-13T09:26:21Z</time>
      </trkpt>
      <trkpt lat="45.86887" lon="4.76227">
        <ele>256.5</ele>
        <time>2019-10-13T09:26:22Z</time>
      </trkpt>
      <trkpt lat="45.86887" lon="4.76218">
        <ele>255.7</ele>
        <time>2019-10-13T09:26:25Z</time>
      </trkpt>
      <trkpt lat="45.86893" lon="4.76211">
        <ele>254.9</ele>
        <time>2019-10-13T09:26:40Z</time>
      </trkpt>
      <trkpt lat="45.86897" lon="4.76212">
        <ele>254.1</ele>
        <time>2019-10-13T09:26:42Z</time>
      </trkpt>
      <trkpt lat="45.86899" lon="4.76213">
        <ele>254.1</ele>
        <time>2019-10-13T09:26:43Z</time>
      </trkpt>
      <trkpt lat="45.86908" lon="4.76215">
        <ele>253.7</ele>
        <time>2019-10-13T09:26:46Z</time>
      </trkpt>
      <trkpt lat="45.86913" lon="4.76216">
        <ele>253.5</ele>
        <time>2019-10-13T09:26:48Z</time>
      </trkpt>
      <trkpt lat="45.8692" lon="4.76217">
        <ele>253.1</ele>
        <time>2019-10-13T09:26:50Z</time>
      </trkpt>
      <trkpt lat="45.86938" lon="4.76217">
        <ele>251.6</ele>
        <time>2019-10-13T09:26:53Z</time>
      </trkpt>
      <trkpt lat="45.86952" lon="4.76212">
        <ele>250.6</ele>
        <time>2019-10-13T09:26:55Z</time>
      </trkpt>
      <trkpt lat="45.86975" lon="4.76204">
        <ele>248.3</ele>
        <time>2019-10-13T09:26:58Z</time>
      </trkpt>
      <trkpt lat="45.86991" lon="4.76197">
        <ele>247.2</ele>
        <time>2019-10-13T09:27:00Z</time>
      </trkpt>
      <trkpt lat="45.86997" lon="4.76197">
        <ele>246.8</ele>
        <time>2019-10-13T09:27:01Z</time>
      </trkpt>
      <trkpt lat="45.87009" lon="4.76197">
        <ele>245.8</ele>
        <time>2019-10-13T09:27:03Z</time>
      </trkpt>
      <trkpt lat="45.8702" lon="4.76195">
        <ele>244.8</ele>
        <time>2019-10-13T09:27:05Z</time>
      </trkpt>
      <trkpt lat="45.87025" lon="4.76192">
        <ele>244.2</ele>
        <time>2019-10-13T09:27:06Z</time>
      </trkpt>
      <trkpt lat="45.8703" lon="4.76186">
        <ele>243.3</ele>
        <time>2019-10-13T09:27:07Z</time>
      </trkpt>
      <trkpt lat="45.87034" lon="4.7618">
        <ele>242.7</ele>
        <time>2019-10-13T09:27:08Z</time>
      </trkpt>
      <trkpt lat="45.87037" lon="4.76163">
        <ele>241.5</ele>
        <time>2019-10-13T09:27:10Z</time>
      </trkpt>
      <trkpt lat="45.87036" lon="4.76146">
        <ele>240</ele>
        <time>2019-10-13T09:27:12Z</time>
      </trkpt>
      <trkpt lat="45.87031" lon="4.76131">
        <ele>238.8</ele>
        <time>2019-10-13T09:27:14Z</time>
      </trkpt>
      <trkpt lat="45.87029" lon="4.76126">
        <ele>238.6</ele>
        <time>2019-10-13T09:27:15Z</time>
      </trkpt>
      <trkpt lat="45.87028" lon="4.76121">
        <ele>238.5</ele>
        <time>2019-10-13T09:27:16Z</time>
      </trkpt>
      <trkpt lat="45.87025" lon="4.76111">
        <ele>238.3</ele>
        <time>2019-10-13T09:27:18Z</time>
      </trkpt>
      <trkpt lat="45.87025" lon="4.76105">
        <ele>238.1</ele>
        <time>2019-10-13T09:27:19Z</time>
      </trkpt>
      <trkpt lat="45.87023" lon="4.76092">
        <ele>237.7</ele>
        <time>2019-10-13T09:27:21Z</time>
      </trkpt>
      <trkpt lat="45.87022" lon="4.76071">
        <ele>237</ele>
        <time>2019-10-13T09:27:24Z</time>
      </trkpt>
      <trkpt lat="45.87021" lon="4.76055">
        <ele>236.2</ele>
        <time>2019-10-13T09:27:26Z</time>
      </trkpt>
      <trkpt lat="45.8702" lon="4.76038">
        <ele>235.5</ele>
        <time>2019-10-13T09:27:28Z</time>
      </trkpt>
      <trkpt lat="45.87017" lon="4.76019">
        <ele>234.6</ele>
        <time>2019-10-13T09:27:30Z</time>
      </trkpt>
      <trkpt lat="45.87013" lon="4.75988">
        <ele>233.2</ele>
        <time>2019-10-13T09:27:33Z</time>
      </trkpt>
      <trkpt lat="45.87009" lon="4.75965">
        <ele>232.4</ele>
        <time>2019-10-13T09:27:35Z</time>
      </trkpt>
      <trkpt lat="45.87002" lon="4.75933">
        <ele>232</ele>
        <time>2019-10-13T09:27:38Z</time>
      </trkpt>
      <trkpt lat="45.86994" lon="4.75906">
        <ele>232.1</ele>
        <time>2019-10-13T09:27:41Z</time>
      </trkpt>
      <trkpt lat="45.8699" lon="4.7589">
        <ele>232.3</ele>
        <time>2019-10-13T09:27:43Z</time>
      </trkpt>
      <trkpt lat="45.86985" lon="4.75869">
        <ele>232.9</ele>
        <time>2019-10-13T09:27:46Z</time>
      </trkpt>
      <trkpt lat="45.86983" lon="4.75863">
        <ele>233.2</ele>
        <time>2019-10-13T09:27:47Z</time>
      </trkpt>
      <trkpt lat="45.86975" lon="4.75841">
        <ele>234.2</ele>
        <time>2019-10-13T09:27:51Z</time>
      </trkpt>
      <trkpt lat="45.86959" lon="4.75799">
        <ele>236.4</ele>
        <time>2019-10-13T09:27:59Z</time>
      </trkpt>
      <trkpt lat="45.86955" lon="4.7579">
        <ele>237</ele>
        <time>2019-10-13T09:28:01Z</time>
      </trkpt>
      <trkpt lat="45.86946" lon="4.75774">
        <ele>238.1</ele>
        <time>2019-10-13T09:28:05Z</time>
      </trkpt>
      <trkpt lat="45.86944" lon="4.7577">
        <ele>238.3</ele>
        <time>2019-10-13T09:28:06Z</time>
      </trkpt>
      <trkpt lat="45.86938" lon="4.75762">
        <ele>238.8</ele>
        <time>2019-10-13T09:28:09Z</time>
      </trkpt>
      <trkpt lat="45.86929" lon="4.75749">
        <ele>239.5</ele>
        <time>2019-10-13T09:28:14Z</time>
      </trkpt>
      <trkpt lat="45.86916" lon="4.75734">
        <ele>240</ele>
        <time>2019-10-13T09:28:20Z</time>
      </trkpt>
      <trkpt lat="45.86896" lon="4.75718">
        <ele>240.2</ele>
        <time>2019-10-13T09:28:28Z</time>
      </trkpt>
      <trkpt lat="45.86882" lon="4.75707">
        <ele>240.1</ele>
        <time>2019-10-13T09:28:33Z</time>
      </trkpt>
      <trkpt lat="45.86878" lon="4.75704">
        <ele>240</ele>
        <time>2019-10-13T09:28:34Z</time>
      </trkpt>
      <trkpt lat="45.86853" lon="4.75683">
        <ele>238.9</ele>
        <time>2019-10-13T09:28:40Z</time>
      </trkpt>
      <trkpt lat="45.86843" lon="4.75675">
        <ele>238.4</ele>
        <time>2019-10-13T09:28:42Z</time>
      </trkpt>
      <trkpt lat="45.86832" lon="4.7567">
        <ele>238</ele>
        <time>2019-10-13T09:28:44Z</time>
      </trkpt>
      <trkpt lat="45.86819" lon="4.75669">
        <ele>237.7</ele>
        <time>2019-10-13T09:28:46Z</time>
      </trkpt>
      <trkpt lat="45.86813" lon="4.75669">
        <ele>237.6</ele>
        <time>2019-10-13T09:28:47Z</time>
      </trkpt>
      <trkpt lat="45.86806" lon="4.7567">
        <ele>237.5</ele>
        <time>2019-10-13T09:28:48Z</time>
      </trkpt>
      <trkpt lat="45.86761" lon="4.75671">
        <ele>237.2</ele>
        <time>2019-10-13T09:28:55Z</time>
      </trkpt>
      <trkpt lat="45.86755" lon="4.75669">
        <ele>237.2</ele>
        <time>2019-10-13T09:28:56Z</time>
      </trkpt>
      <trkpt lat="45.86743" lon="4.75663">
        <ele>237.3</ele>
        <time>2019-10-13T09:28:58Z</time>
      </trkpt>
      <trkpt lat="45.86733" lon="4.75656">
        <ele>237.4</ele>
        <time>2019-10-13T09:29:00Z</time>
      </trkpt>
      <trkpt lat="45.86707" lon="4.75637">
        <ele>237.8</ele>
        <time>2019-10-13T09:29:05Z</time>
      </trkpt>
      <trkpt lat="45.86698" lon="4.75629">
        <ele>238</ele>
        <time>2019-10-13T09:29:07Z</time>
      </trkpt>
      <trkpt lat="45.86661" lon="4.75603">
        <ele>238.9</ele>
        <time>2019-10-13T09:29:15Z</time>
      </trkpt>
      <trkpt lat="45.86631" lon="4.75598">
        <ele>239.3</ele>
        <time>2019-10-13T09:29:21Z</time>
      </trkpt>
      <trkpt lat="45.86592" lon="4.75589">
        <ele>240.5</ele>
        <time>2019-10-13T09:29:29Z</time>
      </trkpt>
      <trkpt lat="45.86567" lon="4.7558">
        <ele>241.7</ele>
        <time>2019-10-13T09:29:35Z</time>
      </trkpt>
      <trkpt lat="45.86559" lon="4.75577">
        <ele>242.1</ele>
        <time>2019-10-13T09:29:37Z</time>
      </trkpt>
      <trkpt lat="45.86551" lon="4.75574">
        <ele>242.8</ele>
        <time>2019-10-13T09:29:39Z</time>
      </trkpt>
      <trkpt lat="45.86531" lon="4.75566">
        <ele>243.4</ele>
        <time>2019-10-13T09:29:44Z</time>
      </trkpt>
      <trkpt lat="45.86519" lon="4.75562">
        <ele>243.8</ele>
        <time>2019-10-13T09:29:47Z</time>
      </trkpt>
      <trkpt lat="45.86511" lon="4.7556">
        <ele>244</ele>
        <time>2019-10-13T09:29:49Z</time>
      </trkpt>
      <trkpt lat="45.86488" lon="4.75554">
        <ele>244.6</ele>
        <time>2019-10-13T09:29:55Z</time>
      </trkpt>
      <trkpt lat="45.86463" lon="4.7555">
        <ele>245.4</ele>
        <time>2019-10-13T09:30:02Z</time>
      </trkpt>
      <trkpt lat="45.86455" lon="4.75549">
        <ele>245.6</ele>
        <time>2019-10-13T09:30:04Z</time>
      </trkpt>
      <trkpt lat="45.86447" lon="4.7555">
        <ele>245.9</ele>
        <time>2019-10-13T09:30:06Z</time>
      </trkpt>
      <trkpt lat="45.8643" lon="4.75553">
        <ele>246.3</ele>
        <time>2019-10-13T09:30:10Z</time>
      </trkpt>
      <trkpt lat="45.86426" lon="4.75553">
        <ele>246.3</ele>
        <time>2019-10-13T09:30:11Z</time>
      </trkpt>
      <trkpt lat="45.86407" lon="4.7555">
        <ele>246.4</ele>
        <time>2019-10-13T09:30:16Z</time>
      </trkpt>
      <trkpt lat="45.86393" lon="4.75547">
        <ele>246.5</ele>
        <time>2019-10-13T09:30:20Z</time>
      </trkpt>
      <trkpt lat="45.86386" lon="4.75545">
        <ele>246.7</ele>
        <time>2019-10-13T09:30:22Z</time>
      </trkpt>
      <trkpt lat="45.86369" lon="4.75542">
        <ele>247</ele>
        <time>2019-10-13T09:30:27Z</time>
      </trkpt>
      <trkpt lat="45.86366" lon="4.75543">
        <ele>247.1</ele>
        <time>2019-10-13T09:30:28Z</time>
      </trkpt>
      <trkpt lat="45.8636" lon="4.75545">
        <ele>247.3</ele>
        <time>2019-10-13T09:30:30Z</time>
      </trkpt>
      <trkpt lat="45.86346" lon="4.75553">
        <ele>247.7</ele>
        <time>2019-10-13T09:30:34Z</time>
      </trkpt>
      <trkpt lat="45.86326" lon="4.75567">
        <ele>248.6</ele>
        <time>2019-10-13T09:30:41Z</time>
      </trkpt>
      <trkpt lat="45.86304" lon="4.75581">
        <ele>249.9</ele>
        <time>2019-10-13T09:30:49Z</time>
      </trkpt>
      <trkpt lat="45.8628" lon="4.75593">
        <ele>251.1</ele>
        <time>2019-10-13T09:30:58Z</time>
      </trkpt>
      <trkpt lat="45.86271" lon="4.75597">
        <ele>251.4</ele>
        <time>2019-10-13T09:31:01Z</time>
      </trkpt>
      <trkpt lat="45.86256" lon="4.75602">
        <ele>251.9</ele>
        <time>2019-10-13T09:31:06Z</time>
      </trkpt>
      <trkpt lat="45.86246" lon="4.75606">
        <ele>254</ele>
        <time>2019-10-13T09:31:11Z</time>
      </trkpt>
      <trkpt lat="45.86247" lon="4.75617">
        <ele>255</ele>
        <time>2019-10-13T09:31:15Z</time>
      </trkpt>
      <trkpt lat="45.86247" lon="4.7562">
        <ele>255.3</ele>
        <time>2019-10-13T09:31:16Z</time>
      </trkpt>
      <trkpt lat="45.86243" lon="4.75643">
        <ele>257</ele>
        <time>2019-10-13T09:31:23Z</time>
      </trkpt>
      <trkpt lat="45.86236" lon="4.7566">
        <ele>258.6</ele>
        <time>2019-10-13T09:31:30Z</time>
      </trkpt>
      <trkpt lat="45.86234" lon="4.75665">
        <ele>259</ele>
        <time>2019-10-13T09:31:32Z</time>
      </trkpt>
      <trkpt lat="45.8623" lon="4.7567">
        <ele>259.5</ele>
        <time>2019-10-13T09:31:36Z</time>
      </trkpt>
      <trkpt lat="45.86228" lon="4.7567">
        <ele>259.7</ele>
        <time>2019-10-13T09:31:37Z</time>
      </trkpt>
      <trkpt lat="45.86226" lon="4.75672">
        <ele>259.9</ele>
        <time>2019-10-13T09:31:39Z</time>
      </trkpt>
      <trkpt lat="45.86221" lon="4.75675">
        <ele>260.3</ele>
        <time>2019-10-13T09:31:42Z</time>
      </trkpt>
      <trkpt lat="45.86212" lon="4.7568">
        <ele>261.1</ele>
        <time>2019-10-13T09:31:48Z</time>
      </trkpt>
      <trkpt lat="45.8621" lon="4.75681">
        <ele>261.2</ele>
        <time>2019-10-13T09:31:49Z</time>
      </trkpt>
      <trkpt lat="45.86205" lon="4.75684">
        <ele>261.6</ele>
        <time>2019-10-13T09:31:52Z</time>
      </trkpt>
      <trkpt lat="45.86196" lon="4.75689">
        <ele>263</ele>
        <time>2019-10-13T09:31:57Z</time>
      </trkpt>
      <trkpt lat="45.86194" lon="4.75689">
        <ele>263.2</ele>
        <time>2019-10-13T09:31:58Z</time>
      </trkpt>
      <trkpt lat="45.86188" lon="4.75695">
        <ele>264.1</ele>
        <time>2019-10-13T09:32:03Z</time>
      </trkpt>
      <trkpt lat="45.86183" lon="4.75697">
        <ele>264.6</ele>
        <time>2019-10-13T09:32:06Z</time>
      </trkpt>
      <trkpt lat="45.86182" lon="4.75698">
        <ele>264.8</ele>
        <time>2019-10-13T09:32:07Z</time>
      </trkpt>
      <trkpt lat="45.86172" lon="4.75702">
        <ele>265.8</ele>
        <time>2019-10-13T09:32:13Z</time>
      </trkpt>
      <trkpt lat="45.86168" lon="4.75705">
        <ele>266.4</ele>
        <time>2019-10-13T09:32:16Z</time>
      </trkpt>
      <trkpt lat="45.86164" lon="4.75709">
        <ele>267.1</ele>
        <time>2019-10-13T09:32:19Z</time>
      </trkpt>
      <trkpt lat="45.86162" lon="4.75709">
        <ele>267.4</ele>
        <time>2019-10-13T09:32:20Z</time>
      </trkpt>
      <trkpt lat="45.86155" lon="4.75713">
        <ele>268.4</ele>
        <time>2019-10-13T09:32:24Z</time>
      </trkpt>
      <trkpt lat="45.86147" lon="4.75717">
        <ele>269.3</ele>
        <time>2019-10-13T09:32:29Z</time>
      </trkpt>
      <trkpt lat="45.86144" lon="4.75719">
        <ele>269.8</ele>
        <time>2019-10-13T09:32:31Z</time>
      </trkpt>
      <trkpt lat="45.86137" lon="4.75724">
        <ele>271.1</ele>
        <time>2019-10-13T09:32:36Z</time>
      </trkpt>
      <trkpt lat="45.86136" lon="4.75725">
        <ele>271.3</ele>
        <time>2019-10-13T09:32:37Z</time>
      </trkpt>
      <trkpt lat="45.86126" lon="4.75731">
        <ele>272.9</ele>
        <time>2019-10-13T09:32:43Z</time>
      </trkpt>
      <trkpt lat="45.86121" lon="4.75735">
        <ele>273.6</ele>
        <time>2019-10-13T09:32:47Z</time>
      </trkpt>
      <trkpt lat="45.86118" lon="4.75737">
        <ele>273.9</ele>
        <time>2019-10-13T09:32:49Z</time>
      </trkpt>
      <trkpt lat="45.86109" lon="4.75743">
        <ele>275</ele>
        <time>2019-10-13T09:32:55Z</time>
      </trkpt>
      <trkpt lat="45.86108" lon="4.75744">
        <ele>275.2</ele>
        <time>2019-10-13T09:32:56Z</time>
      </trkpt>
      <trkpt lat="45.86096" lon="4.75751">
        <ele>277</ele>
        <time>2019-10-13T09:33:04Z</time>
      </trkpt>
      <trkpt lat="45.86094" lon="4.75753">
        <ele>277.3</ele>
        <time>2019-10-13T09:33:05Z</time>
      </trkpt>
      <trkpt lat="45.86087" lon="4.75757">
        <ele>277.9</ele>
        <time>2019-10-13T09:33:09Z</time>
      </trkpt>
      <trkpt lat="45.86081" lon="4.75761">
        <ele>278.3</ele>
        <time>2019-10-13T09:33:14Z</time>
      </trkpt>
      <trkpt lat="45.86073" lon="4.75767">
        <ele>278.9</ele>
        <time>2019-10-13T09:33:20Z</time>
      </trkpt>
      <trkpt lat="45.86072" lon="4.75768">
        <ele>279</ele>
        <time>2019-10-13T09:33:21Z</time>
      </trkpt>
      <trkpt lat="45.86069" lon="4.7577">
        <ele>279.4</ele>
        <time>2019-10-13T09:33:23Z</time>
      </trkpt>
      <trkpt lat="45.86064" lon="4.75774">
        <ele>280</ele>
        <time>2019-10-13T09:33:26Z</time>
      </trkpt>
      <trkpt lat="45.86058" lon="4.75778">
        <ele>280.8</ele>
        <time>2019-10-13T09:33:30Z</time>
      </trkpt>
      <trkpt lat="45.86057" lon="4.75779">
        <ele>280.9</ele>
        <time>2019-10-13T09:33:31Z</time>
      </trkpt>
      <trkpt lat="45.86048" lon="4.75789">
        <ele>282.5</ele>
        <time>2019-10-13T09:33:39Z</time>
      </trkpt>
      <trkpt lat="45.86047" lon="4.7579">
        <ele>282.7</ele>
        <time>2019-10-13T09:33:40Z</time>
      </trkpt>
      <trkpt lat="45.86039" lon="4.75797">
        <ele>284.1</ele>
        <time>2019-10-13T09:33:47Z</time>
      </trkpt>
      <trkpt lat="45.86038" lon="4.75799">
        <ele>284.3</ele>
        <time>2019-10-13T09:33:48Z</time>
      </trkpt>
      <trkpt lat="45.86029" lon="4.75809">
        <ele>285.5</ele>
        <time>2019-10-13T09:33:55Z</time>
      </trkpt>
      <trkpt lat="45.86028" lon="4.7581">
        <ele>285.7</ele>
        <time>2019-10-13T09:33:56Z</time>
      </trkpt>
      <trkpt lat="45.86024" lon="4.75814">
        <ele>286.1</ele>
        <time>2019-10-13T09:33:59Z</time>
      </trkpt>
      <trkpt lat="45.86019" lon="4.7582">
        <ele>286.7</ele>
        <time>2019-10-13T09:34:03Z</time>
      </trkpt>
      <trkpt lat="45.86016" lon="4.75823">
        <ele>286.9</ele>
        <time>2019-10-13T09:34:05Z</time>
      </trkpt>
      <trkpt lat="45.86011" lon="4.75832">
        <ele>287.5</ele>
        <time>2019-10-13T09:34:10Z</time>
      </trkpt>
      <trkpt lat="45.8601" lon="4.75834">
        <ele>287.7</ele>
        <time>2019-10-13T09:34:11Z</time>
      </trkpt>
      <trkpt lat="45.86006" lon="4.75844">
        <ele>288.3</ele>
        <time>2019-10-13T09:34:16Z</time>
      </trkpt>
      <trkpt lat="45.86004" lon="4.75849">
        <ele>288.5</ele>
        <time>2019-10-13T09:34:19Z</time>
      </trkpt>
      <trkpt lat="45.86" lon="4.75867">
        <ele>289.3</ele>
        <time>2019-10-13T09:34:27Z</time>
      </trkpt>
      <trkpt lat="45.85998" lon="4.75885">
        <ele>290.2</ele>
        <time>2019-10-13T09:34:34Z</time>
      </trkpt>
      <trkpt lat="45.85997" lon="4.75901">
        <ele>290.9</ele>
        <time>2019-10-13T09:34:40Z</time>
      </trkpt>
      <trkpt lat="45.85996" lon="4.75926">
        <ele>291.9</ele>
        <time>2019-10-13T09:34:49Z</time>
      </trkpt>
      <trkpt lat="45.85996" lon="4.75928">
        <ele>292</ele>
        <time>2019-10-13T09:34:50Z</time>
      </trkpt>
      <trkpt lat="45.85995" lon="4.75945">
        <ele>292.9</ele>
        <time>2019-10-13T09:34:56Z</time>
      </trkpt>
      <trkpt lat="45.85994" lon="4.75957">
        <ele>293.5</ele>
        <time>2019-10-13T09:35:00Z</time>
      </trkpt>
      <trkpt lat="45.85995" lon="4.75967">
        <ele>294</ele>
        <time>2019-10-13T09:35:03Z</time>
      </trkpt>
      <trkpt lat="45.85995" lon="4.75973">
        <ele>294.2</ele>
        <time>2019-10-13T09:35:05Z</time>
      </trkpt>
      <trkpt lat="45.85996" lon="4.75987">
        <ele>295.2</ele>
        <time>2019-10-13T09:35:10Z</time>
      </trkpt>
      <trkpt lat="45.85998" lon="4.75997">
        <ele>295.9</ele>
        <time>2019-10-13T09:35:14Z</time>
      </trkpt>
      <trkpt lat="45.85998" lon="4.76005">
        <ele>296.4</ele>
        <time>2019-10-13T09:35:17Z</time>
      </trkpt>
      <trkpt lat="45.86" lon="4.76016">
        <ele>297</ele>
        <time>2019-10-13T09:35:21Z</time>
      </trkpt>
      <trkpt lat="45.86001" lon="4.76023">
        <ele>297.3</ele>
        <time>2019-10-13T09:35:24Z</time>
      </trkpt>
      <trkpt lat="45.86" lon="4.76028">
        <ele>297.5</ele>
        <time>2019-10-13T09:35:26Z</time>
      </trkpt>
      <trkpt lat="45.86002" lon="4.76044">
        <ele>298.3</ele>
        <time>2019-10-13T09:35:32Z</time>
      </trkpt>
      <trkpt lat="45.86002" lon="4.76048">
        <ele>298.5</ele>
        <time>2019-10-13T09:35:34Z</time>
      </trkpt>
      <trkpt lat="45.86001" lon="4.7605">
        <ele>298.6</ele>
        <time>2019-10-13T09:35:35Z</time>
      </trkpt>
      <trkpt lat="45.85999" lon="4.76054">
        <ele>298.6</ele>
        <time>2019-10-13T09:35:37Z</time>
      </trkpt>
      <trkpt lat="45.86003" lon="4.7606">
        <ele>299</ele>
        <time>2019-10-13T09:35:49Z</time>
      </trkpt>
      <trkpt lat="45.86013" lon="4.76076">
        <ele>300</ele>
        <time>2019-10-13T09:35:55Z</time>
      </trkpt>
      <trkpt lat="45.86023" lon="4.76107">
        <ele>301</ele>
        <time>2019-10-13T09:36:05Z</time>
      </trkpt>
      <trkpt lat="45.86022" lon="4.76124">
        <ele>302</ele>
        <time>2019-10-13T09:36:11Z</time>
      </trkpt>
      <trkpt lat="45.86009" lon="4.76132">
        <ele>303</ele>
        <time>2019-10-13T09:36:17Z</time>
      </trkpt>
      <trkpt lat="45.85991" lon="4.76143">
        <ele>304.4</ele>
        <time>2019-10-13T09:36:25Z</time>
      </trkpt>
      <trkpt lat="45.85985" lon="4.76148">
        <ele>304.8</ele>
        <time>2019-10-13T09:36:28Z</time>
      </trkpt>
      <trkpt lat="45.8597" lon="4.7616">
        <ele>306</ele>
        <time>2019-10-13T09:36:36Z</time>
      </trkpt>
      <trkpt lat="45.85958" lon="4.76172">
        <ele>307.2</ele>
        <time>2019-10-13T09:36:43Z</time>
      </trkpt>
      <trkpt lat="45.85945" lon="4.76182">
        <ele>308.5</ele>
        <time>2019-10-13T09:36:50Z</time>
      </trkpt>
      <trkpt lat="45.85932" lon="4.76197">
        <ele>309.7</ele>
        <time>2019-10-13T09:36:59Z</time>
      </trkpt>
      <trkpt lat="45.85924" lon="4.76212">
        <ele>311</ele>
        <time>2019-10-13T09:37:07Z</time>
      </trkpt>
      <trkpt lat="45.85923" lon="4.76214">
        <ele>311.2</ele>
        <time>2019-10-13T09:37:08Z</time>
      </trkpt>
      <trkpt lat="45.85917" lon="4.76224">
        <ele>311.9</ele>
        <time>2019-10-13T09:37:13Z</time>
      </trkpt>
      <trkpt lat="45.85916" lon="4.76226">
        <ele>312</ele>
        <time>2019-10-13T09:37:14Z</time>
      </trkpt>
      <trkpt lat="45.85907" lon="4.76239">
        <ele>313</ele>
        <time>2019-10-13T09:37:21Z</time>
      </trkpt>
      <trkpt lat="45.85903" lon="4.76245">
        <ele>313.4</ele>
        <time>2019-10-13T09:37:24Z</time>
      </trkpt>
      <trkpt lat="45.859" lon="4.76251">
        <ele>313.8</ele>
        <time>2019-10-13T09:37:27Z</time>
      </trkpt>
      <trkpt lat="45.85889" lon="4.76264">
        <ele>315.4</ele>
        <time>2019-10-13T09:37:35Z</time>
      </trkpt>
      <trkpt lat="45.85878" lon="4.76275">
        <ele>316.4</ele>
        <time>2019-10-13T09:37:42Z</time>
      </trkpt>
      <trkpt lat="45.85877" lon="4.76277">
        <ele>316.6</ele>
        <time>2019-10-13T09:37:43Z</time>
      </trkpt>
      <trkpt lat="45.85872" lon="4.76284">
        <ele>317.3</ele>
        <time>2019-10-13T09:37:47Z</time>
      </trkpt>
      <trkpt lat="45.85866" lon="4.7629">
        <ele>318</ele>
        <time>2019-10-13T09:37:51Z</time>
      </trkpt>
      <trkpt lat="45.85865" lon="4.76292">
        <ele>318.2</ele>
        <time>2019-10-13T09:37:52Z</time>
      </trkpt>
      <trkpt lat="45.85859" lon="4.763">
        <ele>319.2</ele>
        <time>2019-10-13T09:37:57Z</time>
      </trkpt>
      <trkpt lat="45.85858" lon="4.76301">
        <ele>319.4</ele>
        <time>2019-10-13T09:37:58Z</time>
      </trkpt>
      <trkpt lat="45.85851" lon="4.76308">
        <ele>320.2</ele>
        <time>2019-10-13T09:38:03Z</time>
      </trkpt>
      <trkpt lat="45.85848" lon="4.76311">
        <ele>320.5</ele>
        <time>2019-10-13T09:38:05Z</time>
      </trkpt>
      <trkpt lat="45.85838" lon="4.76322">
        <ele>322.1</ele>
        <time>2019-10-13T09:38:12Z</time>
      </trkpt>
      <trkpt lat="45.85835" lon="4.76325">
        <ele>322.5</ele>
        <time>2019-10-13T09:38:14Z</time>
      </trkpt>
      <trkpt lat="45.85828" lon="4.7633">
        <ele>323.1</ele>
        <time>2019-10-13T09:38:18Z</time>
      </trkpt>
      <trkpt lat="45.85825" lon="4.76332">
        <ele>323.4</ele>
        <time>2019-10-13T09:38:20Z</time>
      </trkpt>
      <trkpt lat="45.85817" lon="4.76336">
        <ele>324.3</ele>
        <time>2019-10-13T09:38:25Z</time>
      </trkpt>
      <trkpt lat="45.85812" lon="4.76339">
        <ele>325</ele>
        <time>2019-10-13T09:38:28Z</time>
      </trkpt>
      <trkpt lat="45.85807" lon="4.76343">
        <ele>325.8</ele>
        <time>2019-10-13T09:38:31Z</time>
      </trkpt>
      <trkpt lat="45.85799" lon="4.76348">
        <ele>326.8</ele>
        <time>2019-10-13T09:38:36Z</time>
      </trkpt>
      <trkpt lat="45.85797" lon="4.76349">
        <ele>326.9</ele>
        <time>2019-10-13T09:38:37Z</time>
      </trkpt>
      <trkpt lat="45.85789" lon="4.76356">
        <ele>327.7</ele>
        <time>2019-10-13T09:38:42Z</time>
      </trkpt>
      <trkpt lat="45.85786" lon="4.76359">
        <ele>328</ele>
        <time>2019-10-13T09:38:44Z</time>
      </trkpt>
      <trkpt lat="45.85781" lon="4.76362">
        <ele>328.4</ele>
        <time>2019-10-13T09:38:47Z</time>
      </trkpt>
      <trkpt lat="45.85774" lon="4.76365">
        <ele>329</ele>
        <time>2019-10-13T09:38:51Z</time>
      </trkpt>
      <trkpt lat="45.85765" lon="4.76369">
        <ele>329.7</ele>
        <time>2019-10-13T09:38:56Z</time>
      </trkpt>
      <trkpt lat="45.85762" lon="4.76371">
        <ele>330</ele>
        <time>2019-10-13T09:38:58Z</time>
      </trkpt>
      <trkpt lat="45.85749" lon="4.76385">
        <ele>331.6</ele>
        <time>2019-10-13T09:39:06Z</time>
      </trkpt>
      <trkpt lat="45.85745" lon="4.7639">
        <ele>332.1</ele>
        <time>2019-10-13T09:39:09Z</time>
      </trkpt>
      <trkpt lat="45.85736" lon="4.76399">
        <ele>332.7</ele>
        <time>2019-10-13T09:39:14Z</time>
      </trkpt>
      <trkpt lat="45.85729" lon="4.76406">
        <ele>333.1</ele>
        <time>2019-10-13T09:39:18Z</time>
      </trkpt>
      <trkpt lat="45.85724" lon="4.76412">
        <ele>333.5</ele>
        <time>2019-10-13T09:39:22Z</time>
      </trkpt>
      <trkpt lat="45.85716" lon="4.76421">
        <ele>334.1</ele>
        <time>2019-10-13T09:39:28Z</time>
      </trkpt>
      <trkpt lat="45.85713" lon="4.76425">
        <ele>334.4</ele>
        <time>2019-10-13T09:39:30Z</time>
      </trkpt>
      <trkpt lat="45.85704" lon="4.76435">
        <ele>335.3</ele>
        <time>2019-10-13T09:39:37Z</time>
      </trkpt>
      <trkpt lat="45.85703" lon="4.76437">
        <ele>335.4</ele>
        <time>2019-10-13T09:39:38Z</time>
      </trkpt>
      <trkpt lat="45.85693" lon="4.7645">
        <ele>336.8</ele>
        <time>2019-10-13T09:39:46Z</time>
      </trkpt>
      <trkpt lat="45.85691" lon="4.76452">
        <ele>337</ele>
        <time>2019-10-13T09:39:47Z</time>
      </trkpt>
      <trkpt lat="45.85686" lon="4.7646">
        <ele>337.8</ele>
        <time>2019-10-13T09:39:51Z</time>
      </trkpt>
      <trkpt lat="45.85678" lon="4.76471">
        <ele>338.9</ele>
        <time>2019-10-13T09:39:57Z</time>
      </trkpt>
      <trkpt lat="45.85673" lon="4.76478">
        <ele>339.8</ele>
        <time>2019-10-13T09:40:01Z</time>
      </trkpt>
      <trkpt lat="45.85669" lon="4.76483">
        <ele>340.5</ele>
        <time>2019-10-13T09:40:04Z</time>
      </trkpt>
      <trkpt lat="45.85663" lon="4.7649">
        <ele>341.3</ele>
        <time>2019-10-13T09:40:08Z</time>
      </trkpt>
      <trkpt lat="45.85658" lon="4.76494">
        <ele>341.8</ele>
        <time>2019-10-13T09:40:11Z</time>
      </trkpt>
      <trkpt lat="45.85651" lon="4.76498">
        <ele>342.3</ele>
        <time>2019-10-13T09:40:14Z</time>
      </trkpt>
      <trkpt lat="45.8564" lon="4.76505">
        <ele>343.3</ele>
        <time>2019-10-13T09:40:19Z</time>
      </trkpt>
      <trkpt lat="45.85621" lon="4.76519">
        <ele>344.3</ele>
        <time>2019-10-13T09:40:28Z</time>
      </trkpt>
      <trkpt lat="45.85614" lon="4.76533">
        <ele>344.9</ele>
        <time>2019-10-13T09:40:33Z</time>
      </trkpt>
      <trkpt lat="45.85612" lon="4.76538">
        <ele>345.2</ele>
        <time>2019-10-13T09:40:35Z</time>
      </trkpt>
      <trkpt lat="45.8561" lon="4.76544">
        <ele>345.5</ele>
        <time>2019-10-13T09:40:37Z</time>
      </trkpt>
      <trkpt lat="45.85606" lon="4.76549">
        <ele>345.9</ele>
        <time>2019-10-13T09:40:40Z</time>
      </trkpt>
      <trkpt lat="45.85595" lon="4.76563">
        <ele>346.9</ele>
        <time>2019-10-13T09:40:47Z</time>
      </trkpt>
      <trkpt lat="45.85583" lon="4.76577">
        <ele>348.3</ele>
        <time>2019-10-13T09:40:53Z</time>
      </trkpt>
      <trkpt lat="45.8557" lon="4.76585">
        <ele>349.6</ele>
        <time>2019-10-13T09:40:59Z</time>
      </trkpt>
      <trkpt lat="45.85563" lon="4.76587">
        <ele>350.1</ele>
        <time>2019-10-13T09:41:03Z</time>
      </trkpt>
      <trkpt lat="45.85556" lon="4.76587">
        <ele>350.6</ele>
        <time>2019-10-13T09:41:06Z</time>
      </trkpt>
      <trkpt lat="45.85551" lon="4.76589">
        <ele>351</ele>
        <time>2019-10-13T09:41:09Z</time>
      </trkpt>
      <trkpt lat="45.85542" lon="4.76586">
        <ele>351.6</ele>
        <time>2019-10-13T09:41:13Z</time>
      </trkpt>
      <trkpt lat="45.85533" lon="4.76584">
        <ele>352.1</ele>
        <time>2019-10-13T09:41:17Z</time>
      </trkpt>
      <trkpt lat="45.85525" lon="4.76582">
        <ele>352.5</ele>
        <time>2019-10-13T09:41:21Z</time>
      </trkpt>
      <trkpt lat="45.85517" lon="4.76577">
        <ele>352.8</ele>
        <time>2019-10-13T09:41:25Z</time>
      </trkpt>
      <trkpt lat="45.85513" lon="4.76575">
        <ele>353</ele>
        <time>2019-10-13T09:41:27Z</time>
      </trkpt>
      <trkpt lat="45.85508" lon="4.76575">
        <ele>353.2</ele>
        <time>2019-10-13T09:41:30Z</time>
      </trkpt>
      <trkpt lat="45.85503" lon="4.76578">
        <ele>353.8</ele>
        <time>2019-10-13T09:41:33Z</time>
      </trkpt>
      <trkpt lat="45.85499" lon="4.76583">
        <ele>354.6</ele>
        <time>2019-10-13T09:41:36Z</time>
      </trkpt>
      <trkpt lat="45.85494" lon="4.76588">
        <ele>355.4</ele>
        <time>2019-10-13T09:41:40Z</time>
      </trkpt>
      <trkpt lat="45.85483" lon="4.76599">
        <ele>357.2</ele>
        <time>2019-10-13T09:41:48Z</time>
      </trkpt>
      <trkpt lat="45.85474" lon="4.76609">
        <ele>359.1</ele>
        <time>2019-10-13T09:41:55Z</time>
      </trkpt>
      <trkpt lat="45.85462" lon="4.76615">
        <ele>360.8</ele>
        <time>2019-10-13T09:42:03Z</time>
      </trkpt>
      <trkpt lat="45.85453" lon="4.76614">
        <ele>361.8</ele>
        <time>2019-10-13T09:42:09Z</time>
      </trkpt>
      <trkpt lat="45.85444" lon="4.76614">
        <ele>363.1</ele>
        <time>2019-10-13T09:42:15Z</time>
      </trkpt>
      <trkpt lat="45.85443" lon="4.76614">
        <ele>363.3</ele>
        <time>2019-10-13T09:42:16Z</time>
      </trkpt>
      <trkpt lat="45.85437" lon="4.76614">
        <ele>364</ele>
        <time>2019-10-13T09:42:20Z</time>
      </trkpt>
      <trkpt lat="45.85432" lon="4.76613">
        <ele>364.6</ele>
        <time>2019-10-13T09:42:23Z</time>
      </trkpt>
      <trkpt lat="45.85426" lon="4.76614">
        <ele>365.4</ele>
        <time>2019-10-13T09:42:27Z</time>
      </trkpt>
      <trkpt lat="45.8542" lon="4.76614">
        <ele>366.1</ele>
        <time>2019-10-13T09:42:30Z</time>
      </trkpt>
      <trkpt lat="45.85419" lon="4.76614">
        <ele>366.3</ele>
        <time>2019-10-13T09:42:31Z</time>
      </trkpt>
      <trkpt lat="45.85414" lon="4.76613">
        <ele>367</ele>
        <time>2019-10-13T09:42:34Z</time>
      </trkpt>
      <trkpt lat="45.85412" lon="4.76613">
        <ele>367.3</ele>
        <time>2019-10-13T09:42:35Z</time>
      </trkpt>
      <trkpt lat="45.85404" lon="4.76616">
        <ele>368.2</ele>
        <time>2019-10-13T09:42:40Z</time>
      </trkpt>
      <trkpt lat="45.85401" lon="4.76617">
        <ele>368.6</ele>
        <time>2019-10-13T09:42:42Z</time>
      </trkpt>
      <trkpt lat="45.854" lon="4.76618">
        <ele>368.8</ele>
        <time>2019-10-13T09:42:43Z</time>
      </trkpt>
      <trkpt lat="45.85396" lon="4.7662">
        <ele>369.3</ele>
        <time>2019-10-13T09:42:46Z</time>
      </trkpt>
      <trkpt lat="45.85393" lon="4.76622">
        <ele>369.7</ele>
        <time>2019-10-13T09:42:48Z</time>
      </trkpt>
      <trkpt lat="45.85388" lon="4.76625">
        <ele>370.4</ele>
        <time>2019-10-13T09:42:52Z</time>
      </trkpt>
      <trkpt lat="45.85383" lon="4.76629">
        <ele>371.2</ele>
        <time>2019-10-13T09:42:56Z</time>
      </trkpt>
      <trkpt lat="45.85379" lon="4.76631">
        <ele>371.8</ele>
        <time>2019-10-13T09:42:59Z</time>
      </trkpt>
      <trkpt lat="45.85374" lon="4.76633">
        <ele>372.5</ele>
        <time>2019-10-13T09:43:02Z</time>
      </trkpt>
      <trkpt lat="45.85368" lon="4.76638">
        <ele>373.5</ele>
        <time>2019-10-13T09:43:07Z</time>
      </trkpt>
      <trkpt lat="45.85367" lon="4.76639">
        <ele>373.7</ele>
        <time>2019-10-13T09:43:08Z</time>
      </trkpt>
      <trkpt lat="45.85361" lon="4.76646">
        <ele>374.9</ele>
        <time>2019-10-13T09:43:13Z</time>
      </trkpt>
      <trkpt lat="45.85358" lon="4.76648">
        <ele>375.3</ele>
        <time>2019-10-13T09:43:15Z</time>
      </trkpt>
      <trkpt lat="45.85352" lon="4.76657">
        <ele>376.5</ele>
        <time>2019-10-13T09:43:20Z</time>
      </trkpt>
      <trkpt lat="45.85352" lon="4.76659">
        <ele>376.7</ele>
        <time>2019-10-13T09:43:21Z</time>
      </trkpt>
      <trkpt lat="45.85353" lon="4.76661">
        <ele>376.9</ele>
        <time>2019-10-13T09:43:22Z</time>
      </trkpt>
      <trkpt lat="45.85356" lon="4.76664">
        <ele>377.6</ele>
        <time>2019-10-13T09:43:25Z</time>
      </trkpt>
      <trkpt lat="45.8536" lon="4.76666">
        <ele>378.4</ele>
        <time>2019-10-13T09:43:28Z</time>
      </trkpt>
      <trkpt lat="45.85361" lon="4.76666">
        <ele>378.6</ele>
        <time>2019-10-13T09:43:29Z</time>
      </trkpt>
      <trkpt lat="45.85369" lon="4.76672">
        <ele>380</ele>
        <time>2019-10-13T09:43:35Z</time>
      </trkpt>
      <trkpt lat="45.85373" lon="4.76677">
        <ele>380.8</ele>
        <time>2019-10-13T09:43:39Z</time>
      </trkpt>
      <trkpt lat="45.85377" lon="4.76682">
        <ele>381.5</ele>
        <time>2019-10-13T09:43:42Z</time>
      </trkpt>
      <trkpt lat="45.85383" lon="4.76688">
        <ele>382.5</ele>
        <time>2019-10-13T09:43:47Z</time>
      </trkpt>
      <trkpt lat="45.854" lon="4.7671">
        <ele>385.8</ele>
        <time>2019-10-13T09:44:00Z</time>
      </trkpt>
      <trkpt lat="45.85404" lon="4.76715">
        <ele>386.5</ele>
        <time>2019-10-13T09:44:03Z</time>
      </trkpt>
      <trkpt lat="45.8541" lon="4.76723">
        <ele>387.7</ele>
        <time>2019-10-13T09:44:08Z</time>
      </trkpt>
      <trkpt lat="45.85412" lon="4.76725">
        <ele>388</ele>
        <time>2019-10-13T09:44:09Z</time>
      </trkpt>
      <trkpt lat="45.8542" lon="4.76737">
        <ele>389.5</ele>
        <time>2019-10-13T09:44:15Z</time>
      </trkpt>
      <trkpt lat="45.85422" lon="4.76741">
        <ele>390</ele>
        <time>2019-10-13T09:44:17Z</time>
      </trkpt>
      <trkpt lat="45.85426" lon="4.76746">
        <ele>390.6</ele>
        <time>2019-10-13T09:44:20Z</time>
      </trkpt>
      <trkpt lat="45.85431" lon="4.76758">
        <ele>391.9</ele>
        <time>2019-10-13T09:44:27Z</time>
      </trkpt>
      <trkpt lat="45.85416" lon="4.76764">
        <ele>393.7</ele>
        <time>2019-10-13T09:44:42Z</time>
      </trkpt>
      <trkpt lat="45.85413" lon="4.76766">
        <ele>394.1</ele>
        <time>2019-10-13T09:44:45Z</time>
      </trkpt>
      <trkpt lat="45.8541" lon="4.76766">
        <ele>394.3</ele>
        <time>2019-10-13T09:44:47Z</time>
      </trkpt>
      <trkpt lat="45.85409" lon="4.76766">
        <ele>394.4</ele>
        <time>2019-10-13T09:44:48Z</time>
      </trkpt>
      <trkpt lat="45.85406" lon="4.76765">
        <ele>394.8</ele>
        <time>2019-10-13T09:44:50Z</time>
      </trkpt>
      <trkpt lat="45.85405" lon="4.76765">
        <ele>394.9</ele>
        <time>2019-10-13T09:44:51Z</time>
      </trkpt>
      <trkpt lat="45.85398" lon="4.76765">
        <ele>395.7</ele>
        <time>2019-10-13T09:44:55Z</time>
      </trkpt>
      <trkpt lat="45.85391" lon="4.76764">
        <ele>396.4</ele>
        <time>2019-10-13T09:45:01Z</time>
      </trkpt>
      <trkpt lat="45.85389" lon="4.76765">
        <ele>396.5</ele>
        <time>2019-10-13T09:45:02Z</time>
      </trkpt>
      <trkpt lat="45.85381" lon="4.76766">
        <ele>397.3</ele>
        <time>2019-10-13T09:45:07Z</time>
      </trkpt>
      <trkpt lat="45.8538" lon="4.76767">
        <ele>397.5</ele>
        <time>2019-10-13T09:45:08Z</time>
      </trkpt>
      <trkpt lat="45.85367" lon="4.76772">
        <ele>398.7</ele>
        <time>2019-10-13T09:45:15Z</time>
      </trkpt>
      <trkpt lat="45.85359" lon="4.76781">
        <ele>399.9</ele>
        <time>2019-10-13T09:45:21Z</time>
      </trkpt>
      <trkpt lat="45.85357" lon="4.76785">
        <ele>400.2</ele>
        <time>2019-10-13T09:45:23Z</time>
      </trkpt>
      <trkpt lat="45.85353" lon="4.76794">
        <ele>400.8</ele>
        <time>2019-10-13T09:45:27Z</time>
      </trkpt>
      <trkpt lat="45.85353" lon="4.76797">
        <ele>400.9</ele>
        <time>2019-10-13T09:45:28Z</time>
      </trkpt>
      <trkpt lat="45.85351" lon="4.76815">
        <ele>402</ele>
        <time>2019-10-13T09:45:36Z</time>
      </trkpt>
      <trkpt lat="45.85346" lon="4.76831">
        <ele>402.9</ele>
        <time>2019-10-13T09:45:43Z</time>
      </trkpt>
      <trkpt lat="45.85334" lon="4.76844">
        <ele>403.7</ele>
        <time>2019-10-13T09:45:50Z</time>
      </trkpt>
      <trkpt lat="45.85319" lon="4.76857">
        <ele>404.6</ele>
        <time>2019-10-13T09:45:57Z</time>
      </trkpt>
      <trkpt lat="45.85311" lon="4.76866">
        <ele>404.9</ele>
        <time>2019-10-13T09:46:01Z</time>
      </trkpt>
      <trkpt lat="45.85305" lon="4.76874">
        <ele>405.1</ele>
        <time>2019-10-13T09:46:04Z</time>
      </trkpt>
      <trkpt lat="45.85294" lon="4.76895">
        <ele>405.6</ele>
        <time>2019-10-13T09:46:11Z</time>
      </trkpt>
      <trkpt lat="45.85288" lon="4.76913">
        <ele>406</ele>
        <time>2019-10-13T09:46:17Z</time>
      </trkpt>
      <trkpt lat="45.85277" lon="4.76922">
        <ele>406.6</ele>
        <time>2019-10-13T09:46:22Z</time>
      </trkpt>
      <trkpt lat="45.85266" lon="4.76921">
        <ele>407.1</ele>
        <time>2019-10-13T09:46:27Z</time>
      </trkpt>
      <trkpt lat="45.85255" lon="4.76916">
        <ele>407.8</ele>
        <time>2019-10-13T09:46:32Z</time>
      </trkpt>
      <trkpt lat="45.85251" lon="4.76914">
        <ele>408</ele>
        <time>2019-10-13T09:46:34Z</time>
      </trkpt>
      <trkpt lat="45.85245" lon="4.76909">
        <ele>408.4</ele>
        <time>2019-10-13T09:46:37Z</time>
      </trkpt>
      <trkpt lat="45.85237" lon="4.76903">
        <ele>409.3</ele>
        <time>2019-10-13T09:46:41Z</time>
      </trkpt>
      <trkpt lat="45.85235" lon="4.76901">
        <ele>409.5</ele>
        <time>2019-10-13T09:46:42Z</time>
      </trkpt>
      <trkpt lat="45.85227" lon="4.76896">
        <ele>410.3</ele>
        <time>2019-10-13T09:46:47Z</time>
      </trkpt>
      <trkpt lat="45.85225" lon="4.76895">
        <ele>410.5</ele>
        <time>2019-10-13T09:46:48Z</time>
      </trkpt>
      <trkpt lat="45.8522" lon="4.76892">
        <ele>411.1</ele>
        <time>2019-10-13T09:46:51Z</time>
      </trkpt>
      <trkpt lat="45.85215" lon="4.76891">
        <ele>411.7</ele>
        <time>2019-10-13T09:46:54Z</time>
      </trkpt>
      <trkpt lat="45.85211" lon="4.76891">
        <ele>412.1</ele>
        <time>2019-10-13T09:46:56Z</time>
      </trkpt>
      <trkpt lat="45.85207" lon="4.76891">
        <ele>412.4</ele>
        <time>2019-10-13T09:46:58Z</time>
      </trkpt>
      <trkpt lat="45.85206" lon="4.76891">
        <ele>412.5</ele>
        <time>2019-10-13T09:46:59Z</time>
      </trkpt>
      <trkpt lat="45.85202" lon="4.76891">
        <ele>412.8</ele>
        <time>2019-10-13T09:47:01Z</time>
      </trkpt>
      <trkpt lat="45.85196" lon="4.76892">
        <ele>413.3</ele>
        <time>2019-10-13T09:47:04Z</time>
      </trkpt>
      <trkpt lat="45.85191" lon="4.76893">
        <ele>413.7</ele>
        <time>2019-10-13T09:47:07Z</time>
      </trkpt>
      <trkpt lat="45.85183" lon="4.76894">
        <ele>414.2</ele>
        <time>2019-10-13T09:47:11Z</time>
      </trkpt>
      <trkpt lat="45.85179" lon="4.76894">
        <ele>414.5</ele>
        <time>2019-10-13T09:47:14Z</time>
      </trkpt>
      <trkpt lat="45.85177" lon="4.76894">
        <ele>414.6</ele>
        <time>2019-10-13T09:47:15Z</time>
      </trkpt>
      <trkpt lat="45.85168" lon="4.76897">
        <ele>415</ele>
        <time>2019-10-13T09:47:20Z</time>
      </trkpt>
      <trkpt lat="45.85164" lon="4.76897">
        <ele>415.3</ele>
        <time>2019-10-13T09:47:23Z</time>
      </trkpt>
      <trkpt lat="45.85154" lon="4.76899">
        <ele>416</ele>
        <time>2019-10-13T09:47:29Z</time>
      </trkpt>
      <trkpt lat="45.85141" lon="4.769">
        <ele>416.9</ele>
        <time>2019-10-13T09:47:36Z</time>
      </trkpt>
      <trkpt lat="45.85139" lon="4.769">
        <ele>417.1</ele>
        <time>2019-10-13T09:47:37Z</time>
      </trkpt>
      <trkpt lat="45.85131" lon="4.769">
        <ele>417.7</ele>
        <time>2019-10-13T09:47:42Z</time>
      </trkpt>
      <trkpt lat="45.85124" lon="4.76901">
        <ele>418.3</ele>
        <time>2019-10-13T09:47:45Z</time>
      </trkpt>
      <trkpt lat="45.85121" lon="4.76902">
        <ele>418.6</ele>
        <time>2019-10-13T09:47:47Z</time>
      </trkpt>
      <trkpt lat="45.8511" lon="4.76908">
        <ele>419.5</ele>
        <time>2019-10-13T09:47:54Z</time>
      </trkpt>
      <trkpt lat="45.85106" lon="4.76912">
        <ele>419.8</ele>
        <time>2019-10-13T09:47:56Z</time>
      </trkpt>
      <trkpt lat="45.85102" lon="4.76915">
        <ele>420.1</ele>
        <time>2019-10-13T09:47:58Z</time>
      </trkpt>
      <trkpt lat="45.85101" lon="4.76916">
        <ele>420.3</ele>
        <time>2019-10-13T09:47:59Z</time>
      </trkpt>
      <trkpt lat="45.85097" lon="4.76918">
        <ele>420.7</ele>
        <time>2019-10-13T09:48:01Z</time>
      </trkpt>
      <trkpt lat="45.85091" lon="4.76924">
        <ele>421.6</ele>
        <time>2019-10-13T09:48:05Z</time>
      </trkpt>
      <trkpt lat="45.85087" lon="4.76929">
        <ele>422.2</ele>
        <time>2019-10-13T09:48:08Z</time>
      </trkpt>
      <trkpt lat="45.85086" lon="4.76931">
        <ele>422.4</ele>
        <time>2019-10-13T09:48:09Z</time>
      </trkpt>
      <trkpt lat="45.85084" lon="4.76935">
        <ele>422.7</ele>
        <time>2019-10-13T09:48:11Z</time>
      </trkpt>
      <trkpt lat="45.8508" lon="4.76941">
        <ele>423.3</ele>
        <time>2019-10-13T09:48:14Z</time>
      </trkpt>
      <trkpt lat="45.85079" lon="4.76947">
        <ele>423.7</ele>
        <time>2019-10-13T09:48:16Z</time>
      </trkpt>
      <trkpt lat="45.85078" lon="4.76953">
        <ele>424.1</ele>
        <time>2019-10-13T09:48:18Z</time>
      </trkpt>
      <trkpt lat="45.85079" lon="4.76967">
        <ele>424.8</ele>
        <time>2019-10-13T09:48:23Z</time>
      </trkpt>
      <trkpt lat="45.8508" lon="4.76986">
        <ele>425.8</ele>
        <time>2019-10-13T09:48:30Z</time>
      </trkpt>
      <trkpt lat="45.85081" lon="4.76997">
        <ele>426.1</ele>
        <time>2019-10-13T09:48:34Z</time>
      </trkpt>
      <trkpt lat="45.85082" lon="4.77">
        <ele>426.2</ele>
        <time>2019-10-13T09:48:35Z</time>
      </trkpt>
      <trkpt lat="45.85082" lon="4.77002">
        <ele>426.3</ele>
        <time>2019-10-13T09:48:36Z</time>
      </trkpt>
      <trkpt lat="45.85082" lon="4.77015">
        <ele>426.9</ele>
        <time>2019-10-13T09:48:41Z</time>
      </trkpt>
      <trkpt lat="45.85081" lon="4.77021">
        <ele>427.2</ele>
        <time>2019-10-13T09:48:43Z</time>
      </trkpt>
      <trkpt lat="45.85076" lon="4.7704">
        <ele>428.2</ele>
        <time>2019-10-13T09:48:50Z</time>
      </trkpt>
      <trkpt lat="45.85064" lon="4.77059">
        <ele>429.1</ele>
        <time>2019-10-13T09:48:58Z</time>
      </trkpt>
      <trkpt lat="45.85061" lon="4.77064">
        <ele>429.3</ele>
        <time>2019-10-13T09:49:00Z</time>
      </trkpt>
      <trkpt lat="45.85058" lon="4.77074">
        <ele>429.8</ele>
        <time>2019-10-13T09:49:05Z</time>
      </trkpt>
      <trkpt lat="45.85055" lon="4.77081">
        <ele>430</ele>
        <time>2019-10-13T09:49:08Z</time>
      </trkpt>
      <trkpt lat="45.85047" lon="4.77092">
        <ele>430.5</ele>
        <time>2019-10-13T09:49:13Z</time>
      </trkpt>
      <trkpt lat="45.85038" lon="4.77104">
        <ele>431</ele>
        <time>2019-10-13T09:49:18Z</time>
      </trkpt>
      <trkpt lat="45.85025" lon="4.77119">
        <ele>431.3</ele>
        <time>2019-10-13T09:49:25Z</time>
      </trkpt>
      <trkpt lat="45.85019" lon="4.77136">
        <ele>431.6</ele>
        <time>2019-10-13T09:49:30Z</time>
      </trkpt>
      <trkpt lat="45.85017" lon="4.77139">
        <ele>431.6</ele>
        <time>2019-10-13T09:49:31Z</time>
      </trkpt>
      <trkpt lat="45.85003" lon="4.77158">
        <ele>432</ele>
        <time>2019-10-13T09:49:38Z</time>
      </trkpt>
      <trkpt lat="45.85001" lon="4.77161">
        <ele>432.1</ele>
        <time>2019-10-13T09:49:39Z</time>
      </trkpt>
      <trkpt lat="45.84988" lon="4.77172">
        <ele>432.8</ele>
        <time>2019-10-13T09:49:44Z</time>
      </trkpt>
      <trkpt lat="45.84979" lon="4.77181">
        <ele>433.3</ele>
        <time>2019-10-13T09:49:48Z</time>
      </trkpt>
      <trkpt lat="45.84971" lon="4.77186">
        <ele>433.8</ele>
        <time>2019-10-13T09:49:52Z</time>
      </trkpt>
      <trkpt lat="45.84958" lon="4.7719">
        <ele>434.3</ele>
        <time>2019-10-13T09:49:58Z</time>
      </trkpt>
      <trkpt lat="45.84935" lon="4.77195">
        <ele>435.5</ele>
        <time>2019-10-13T09:50:07Z</time>
      </trkpt>
      <trkpt lat="45.84913" lon="4.77197">
        <ele>436.6</ele>
        <time>2019-10-13T09:50:15Z</time>
      </trkpt>
      <trkpt lat="45.84902" lon="4.77196">
        <ele>437.1</ele>
        <time>2019-10-13T09:50:19Z</time>
      </trkpt>
      <trkpt lat="45.84893" lon="4.77194">
        <ele>437.6</ele>
        <time>2019-10-13T09:50:22Z</time>
      </trkpt>
      <trkpt lat="45.8488" lon="4.77186">
        <ele>438.6</ele>
        <time>2019-10-13T09:50:27Z</time>
      </trkpt>
      <trkpt lat="45.84873" lon="4.77179">
        <ele>439.2</ele>
        <time>2019-10-13T09:50:30Z</time>
      </trkpt>
      <trkpt lat="45.84864" lon="4.7717">
        <ele>439.9</ele>
        <time>2019-10-13T09:50:34Z</time>
      </trkpt>
      <trkpt lat="45.8486" lon="4.77164">
        <ele>440.2</ele>
        <time>2019-10-13T09:50:36Z</time>
      </trkpt>
      <trkpt lat="45.84857" lon="4.77161">
        <ele>440.3</ele>
        <time>2019-10-13T09:50:37Z</time>
      </trkpt>
      <trkpt lat="45.84846" lon="4.7715">
        <ele>440.8</ele>
        <time>2019-10-13T09:50:42Z</time>
      </trkpt>
      <trkpt lat="45.8484" lon="4.77147">
        <ele>441</ele>
        <time>2019-10-13T09:50:44Z</time>
      </trkpt>
      <trkpt lat="45.84823" lon="4.77141">
        <ele>441.7</ele>
        <time>2019-10-13T09:50:50Z</time>
      </trkpt>
      <trkpt lat="45.84804" lon="4.77142">
        <ele>442.2</ele>
        <time>2019-10-13T09:50:56Z</time>
      </trkpt>
      <trkpt lat="45.84781" lon="4.77143">
        <ele>442.4</ele>
        <time>2019-10-13T09:51:03Z</time>
      </trkpt>
      <trkpt lat="45.84759" lon="4.77146">
        <ele>442.3</ele>
        <time>2019-10-13T09:51:10Z</time>
      </trkpt>
      <trkpt lat="45.84746" lon="4.77148">
        <ele>442.3</ele>
        <time>2019-10-13T09:51:16Z</time>
      </trkpt>
      <trkpt lat="45.84745" lon="4.7715">
        <ele>442.3</ele>
        <time>2019-10-13T09:51:17Z</time>
      </trkpt>
      <trkpt lat="45.84747" lon="4.77157">
        <ele>442.3</ele>
        <time>2019-10-13T09:51:20Z</time>
      </trkpt>
      <trkpt lat="45.84755" lon="4.77159">
        <ele>443.5</ele>
        <time>2019-10-13T09:51:23Z</time>
      </trkpt>
      <trkpt lat="45.84761" lon="4.7716">
        <ele>444.3</ele>
        <time>2019-10-13T09:51:25Z</time>
      </trkpt>
      <trkpt lat="45.84763" lon="4.77161">
        <ele>444.6</ele>
        <time>2019-10-13T09:51:26Z</time>
      </trkpt>
      <trkpt lat="45.84778" lon="4.77164">
        <ele>446.5</ele>
        <time>2019-10-13T09:51:32Z</time>
      </trkpt>
      <trkpt lat="45.84789" lon="4.77166">
        <ele>448.3</ele>
        <time>2019-10-13T09:51:37Z</time>
      </trkpt>
      <trkpt lat="45.84799" lon="4.77168">
        <ele>449.4</ele>
        <time>2019-10-13T09:51:41Z</time>
      </trkpt>
      <trkpt lat="45.84806" lon="4.77172">
        <ele>450.2</ele>
        <time>2019-10-13T09:51:44Z</time>
      </trkpt>
      <trkpt lat="45.84813" lon="4.77175">
        <ele>451.2</ele>
        <time>2019-10-13T09:51:47Z</time>
      </trkpt>
      <trkpt lat="45.84815" lon="4.77176">
        <ele>451.6</ele>
        <time>2019-10-13T09:51:48Z</time>
      </trkpt>
      <trkpt lat="45.84821" lon="4.7718">
        <ele>452.6</ele>
        <time>2019-10-13T09:51:51Z</time>
      </trkpt>
      <trkpt lat="45.84828" lon="4.7719">
        <ele>453.7</ele>
        <time>2019-10-13T09:51:55Z</time>
      </trkpt>
      <trkpt lat="45.84835" lon="4.77198">
        <ele>454.8</ele>
        <time>2019-10-13T09:51:59Z</time>
      </trkpt>
      <trkpt lat="45.84843" lon="4.77208">
        <ele>455.9</ele>
        <time>2019-10-13T09:52:04Z</time>
      </trkpt>
      <trkpt lat="45.84845" lon="4.77213">
        <ele>456.4</ele>
        <time>2019-10-13T09:52:06Z</time>
      </trkpt>
      <trkpt lat="45.84856" lon="4.7723">
        <ele>458.2</ele>
        <time>2019-10-13T09:52:13Z</time>
      </trkpt>
      <trkpt lat="45.84858" lon="4.77233">
        <ele>458.4</ele>
        <time>2019-10-13T09:52:14Z</time>
      </trkpt>
      <trkpt lat="45.84872" lon="4.77248">
        <ele>460.3</ele>
        <time>2019-10-13T09:52:22Z</time>
      </trkpt>
      <trkpt lat="45.84889" lon="4.77259">
        <ele>462.2</ele>
        <time>2019-10-13T09:52:30Z</time>
      </trkpt>
      <trkpt lat="45.84891" lon="4.7726">
        <ele>462.4</ele>
        <time>2019-10-13T09:52:31Z</time>
      </trkpt>
      <trkpt lat="45.84908" lon="4.77267">
        <ele>464.6</ele>
        <time>2019-10-13T09:52:39Z</time>
      </trkpt>
      <trkpt lat="45.84914" lon="4.77268">
        <ele>465.1</ele>
        <time>2019-10-13T09:52:42Z</time>
      </trkpt>
      <trkpt lat="45.84924" lon="4.77272">
        <ele>466.2</ele>
        <time>2019-10-13T09:52:47Z</time>
      </trkpt>
      <trkpt lat="45.84927" lon="4.77273">
        <ele>466.5</ele>
        <time>2019-10-13T09:52:48Z</time>
      </trkpt>
      <trkpt lat="45.84945" lon="4.77278">
        <ele>468.4</ele>
        <time>2019-10-13T09:52:56Z</time>
      </trkpt>
      <trkpt lat="45.84962" lon="4.77281">
        <ele>469.4</ele>
        <time>2019-10-13T09:53:04Z</time>
      </trkpt>
      <trkpt lat="45.84971" lon="4.77285">
        <ele>469.9</ele>
        <time>2019-10-13T09:53:08Z</time>
      </trkpt>
      <trkpt lat="45.84982" lon="4.77286">
        <ele>471</ele>
        <time>2019-10-13T09:53:12Z</time>
      </trkpt>
      <trkpt lat="45.84991" lon="4.77285">
        <ele>471.5</ele>
        <time>2019-10-13T09:53:16Z</time>
      </trkpt>
      <trkpt lat="45.84998" lon="4.77284">
        <ele>471.8</ele>
        <time>2019-10-13T09:53:19Z</time>
      </trkpt>
      <trkpt lat="45.85012" lon="4.77283">
        <ele>472.5</ele>
        <time>2019-10-13T09:53:25Z</time>
      </trkpt>
      <trkpt lat="45.85016" lon="4.77282">
        <ele>472.8</ele>
        <time>2019-10-13T09:53:27Z</time>
      </trkpt>
      <trkpt lat="45.85027" lon="4.77278">
        <ele>473.4</ele>
        <time>2019-10-13T09:53:32Z</time>
      </trkpt>
      <trkpt lat="45.85034" lon="4.77276">
        <ele>473.9</ele>
        <time>2019-10-13T09:53:35Z</time>
      </trkpt>
      <trkpt lat="45.85037" lon="4.77275">
        <ele>474.1</ele>
        <time>2019-10-13T09:53:36Z</time>
      </trkpt>
      <trkpt lat="45.85042" lon="4.77273">
        <ele>474.4</ele>
        <time>2019-10-13T09:53:38Z</time>
      </trkpt>
      <trkpt lat="45.85051" lon="4.7727">
        <ele>474.9</ele>
        <time>2019-10-13T09:53:42Z</time>
      </trkpt>
      <trkpt lat="45.85055" lon="4.7727">
        <ele>475.1</ele>
        <time>2019-10-13T09:53:44Z</time>
      </trkpt>
      <trkpt lat="45.8506" lon="4.7727">
        <ele>475.4</ele>
        <time>2019-10-13T09:53:46Z</time>
      </trkpt>
      <trkpt lat="45.85069" lon="4.77267">
        <ele>475.9</ele>
        <time>2019-10-13T09:53:50Z</time>
      </trkpt>
      <trkpt lat="45.85072" lon="4.77267">
        <ele>476</ele>
        <time>2019-10-13T09:53:51Z</time>
      </trkpt>
      <trkpt lat="45.85088" lon="4.77267">
        <ele>476.7</ele>
        <time>2019-10-13T09:53:58Z</time>
      </trkpt>
      <trkpt lat="45.85104" lon="4.77271">
        <ele>477.4</ele>
        <time>2019-10-13T09:54:05Z</time>
      </trkpt>
      <trkpt lat="45.85116" lon="4.77276">
        <ele>478.1</ele>
        <time>2019-10-13T09:54:11Z</time>
      </trkpt>
      <trkpt lat="45.85123" lon="4.77278">
        <ele>478.4</ele>
        <time>2019-10-13T09:54:14Z</time>
      </trkpt>
      <trkpt lat="45.85124" lon="4.77279">
        <ele>478.5</ele>
        <time>2019-10-13T09:54:15Z</time>
      </trkpt>
      <trkpt lat="45.85134" lon="4.77283">
        <ele>478.9</ele>
        <time>2019-10-13T09:54:20Z</time>
      </trkpt>
      <trkpt lat="45.85136" lon="4.77283">
        <ele>479</ele>
        <time>2019-10-13T09:54:21Z</time>
      </trkpt>
      <trkpt lat="45.85143" lon="4.77283">
        <ele>479.3</ele>
        <time>2019-10-13T09:54:24Z</time>
      </trkpt>
      <trkpt lat="45.8515" lon="4.77285">
        <ele>479.6</ele>
        <time>2019-10-13T09:54:27Z</time>
      </trkpt>
      <trkpt lat="45.85156" lon="4.77285">
        <ele>479.9</ele>
        <time>2019-10-13T09:54:30Z</time>
      </trkpt>
      <trkpt lat="45.85159" lon="4.77285">
        <ele>480</ele>
        <time>2019-10-13T09:54:31Z</time>
      </trkpt>
      <trkpt lat="45.85173" lon="4.77287">
        <ele>480.9</ele>
        <time>2019-10-13T09:54:37Z</time>
      </trkpt>
      <trkpt lat="45.85175" lon="4.77287">
        <ele>481</ele>
        <time>2019-10-13T09:54:38Z</time>
      </trkpt>
      <trkpt lat="45.85182" lon="4.77288">
        <ele>481.4</ele>
        <time>2019-10-13T09:54:41Z</time>
      </trkpt>
      <trkpt lat="45.85189" lon="4.77289">
        <ele>481.8</ele>
        <time>2019-10-13T09:54:44Z</time>
      </trkpt>
      <trkpt lat="45.85196" lon="4.7729">
        <ele>482.2</ele>
        <time>2019-10-13T09:54:47Z</time>
      </trkpt>
      <trkpt lat="45.85199" lon="4.77289">
        <ele>482.3</ele>
        <time>2019-10-13T09:54:48Z</time>
      </trkpt>
      <trkpt lat="45.85203" lon="4.77289">
        <ele>482.6</ele>
        <time>2019-10-13T09:54:50Z</time>
      </trkpt>
      <trkpt lat="45.85216" lon="4.77291">
        <ele>483.3</ele>
        <time>2019-10-13T09:54:55Z</time>
      </trkpt>
      <trkpt lat="45.85221" lon="4.77291">
        <ele>483.5</ele>
        <time>2019-10-13T09:54:57Z</time>
      </trkpt>
      <trkpt lat="45.85228" lon="4.77292">
        <ele>483.9</ele>
        <time>2019-10-13T09:55:00Z</time>
      </trkpt>
      <trkpt lat="45.85232" lon="4.77291">
        <ele>484.2</ele>
        <time>2019-10-13T09:55:03Z</time>
      </trkpt>
      <trkpt lat="45.85244" lon="4.77295">
        <ele>485</ele>
        <time>2019-10-13T09:55:08Z</time>
      </trkpt>
      <trkpt lat="45.85246" lon="4.77296">
        <ele>485.1</ele>
        <time>2019-10-13T09:55:09Z</time>
      </trkpt>
      <trkpt lat="45.85251" lon="4.77298">
        <ele>485.4</ele>
        <time>2019-10-13T09:55:11Z</time>
      </trkpt>
      <trkpt lat="45.85264" lon="4.77303">
        <ele>486.1</ele>
        <time>2019-10-13T09:55:17Z</time>
      </trkpt>
      <trkpt lat="45.85266" lon="4.77304">
        <ele>486.2</ele>
        <time>2019-10-13T09:55:18Z</time>
      </trkpt>
      <trkpt lat="45.8528" lon="4.77312">
        <ele>486.9</ele>
        <time>2019-10-13T09:55:24Z</time>
      </trkpt>
      <trkpt lat="45.85285" lon="4.77313">
        <ele>487.3</ele>
        <time>2019-10-13T09:55:26Z</time>
      </trkpt>
      <trkpt lat="45.85303" lon="4.77323">
        <ele>488.3</ele>
        <time>2019-10-13T09:55:34Z</time>
      </trkpt>
      <trkpt lat="45.85309" lon="4.77327">
        <ele>488.9</ele>
        <time>2019-10-13T09:55:37Z</time>
      </trkpt>
      <trkpt lat="45.85319" lon="4.77332">
        <ele>489.5</ele>
        <time>2019-10-13T09:55:41Z</time>
      </trkpt>
      <trkpt lat="45.85334" lon="4.77338">
        <ele>490.6</ele>
        <time>2019-10-13T09:55:48Z</time>
      </trkpt>
      <trkpt lat="45.85339" lon="4.7734">
        <ele>490.9</ele>
        <time>2019-10-13T09:55:50Z</time>
      </trkpt>
      <trkpt lat="45.85348" lon="4.77344">
        <ele>491.3</ele>
        <time>2019-10-13T09:55:54Z</time>
      </trkpt>
      <trkpt lat="45.85358" lon="4.77346">
        <ele>491.8</ele>
        <time>2019-10-13T09:55:58Z</time>
      </trkpt>
      <trkpt lat="45.85361" lon="4.77346">
        <ele>492</ele>
        <time>2019-10-13T09:55:59Z</time>
      </trkpt>
      <trkpt lat="45.8538" lon="4.77355">
        <ele>493.1</ele>
        <time>2019-10-13T09:56:07Z</time>
      </trkpt>
      <trkpt lat="45.854" lon="4.77365">
        <ele>494.5</ele>
        <time>2019-10-13T09:56:16Z</time>
      </trkpt>
      <trkpt lat="45.85402" lon="4.77366">
        <ele>494.6</ele>
        <time>2019-10-13T09:56:17Z</time>
      </trkpt>
      <trkpt lat="45.85418" lon="4.77377">
        <ele>495.6</ele>
        <time>2019-10-13T09:56:25Z</time>
      </trkpt>
      <trkpt lat="45.85436" lon="4.7739">
        <ele>496.4</ele>
        <time>2019-10-13T09:56:34Z</time>
      </trkpt>
      <trkpt lat="45.85449" lon="4.77399">
        <ele>497.1</ele>
        <time>2019-10-13T09:56:40Z</time>
      </trkpt>
      <trkpt lat="45.85464" lon="4.77411">
        <ele>498</ele>
        <time>2019-10-13T09:56:47Z</time>
      </trkpt>
      <trkpt lat="45.85474" lon="4.77419">
        <ele>498.7</ele>
        <time>2019-10-13T09:56:53Z</time>
      </trkpt>
      <trkpt lat="45.85492" lon="4.77435">
        <ele>500</ele>
        <time>2019-10-13T09:57:01Z</time>
      </trkpt>
      <trkpt lat="45.85494" lon="4.77438">
        <ele>500.2</ele>
        <time>2019-10-13T09:57:02Z</time>
      </trkpt>
      <trkpt lat="45.85502" lon="4.77447">
        <ele>500.7</ele>
        <time>2019-10-13T09:57:06Z</time>
      </trkpt>
      <trkpt lat="45.85506" lon="4.77451">
        <ele>501</ele>
        <time>2019-10-13T09:57:08Z</time>
      </trkpt>
      <trkpt lat="45.85517" lon="4.77463">
        <ele>501.8</ele>
        <time>2019-10-13T09:57:14Z</time>
      </trkpt>
      <trkpt lat="45.85519" lon="4.77464">
        <ele>502</ele>
        <time>2019-10-13T09:57:15Z</time>
      </trkpt>
      <trkpt lat="45.85526" lon="4.7747">
        <ele>502.4</ele>
        <time>2019-10-13T09:57:19Z</time>
      </trkpt>
      <trkpt lat="45.85529" lon="4.77473">
        <ele>502.6</ele>
        <time>2019-10-13T09:57:21Z</time>
      </trkpt>
      <trkpt lat="45.85531" lon="4.77477">
        <ele>503.4</ele>
        <time>2019-10-13T09:57:23Z</time>
      </trkpt>
      <trkpt lat="45.85534" lon="4.77483">
        <ele>504</ele>
        <time>2019-10-13T09:57:26Z</time>
      </trkpt>
      <trkpt lat="45.85535" lon="4.77486">
        <ele>504.2</ele>
        <time>2019-10-13T09:57:27Z</time>
      </trkpt>
      <trkpt lat="45.85537" lon="4.77493">
        <ele>505</ele>
        <time>2019-10-13T09:57:29Z</time>
      </trkpt>
      <trkpt lat="45.8554" lon="4.77505">
        <ele>506.1</ele>
        <time>2019-10-13T09:57:33Z</time>
      </trkpt>
      <trkpt lat="45.85543" lon="4.77518">
        <ele>507.9</ele>
        <time>2019-10-13T09:57:39Z</time>
      </trkpt>
      <trkpt lat="45.85543" lon="4.77521">
        <ele>508.2</ele>
        <time>2019-10-13T09:57:40Z</time>
      </trkpt>
      <trkpt lat="45.8554" lon="4.77547">
        <ele>510.9</ele>
        <time>2019-10-13T09:57:48Z</time>
      </trkpt>
      <trkpt lat="45.85539" lon="4.7755">
        <ele>511.3</ele>
        <time>2019-10-13T09:57:49Z</time>
      </trkpt>
      <trkpt lat="45.85532" lon="4.77577">
        <ele>513.5</ele>
        <time>2019-10-13T09:57:57Z</time>
      </trkpt>
      <trkpt lat="45.8553" lon="4.776">
        <ele>514.5</ele>
        <time>2019-10-13T09:58:04Z</time>
      </trkpt>
      <trkpt lat="45.8553" lon="4.77604">
        <ele>514.7</ele>
        <time>2019-10-13T09:58:05Z</time>
      </trkpt>
      <trkpt lat="45.8553" lon="4.77612">
        <ele>515</ele>
        <time>2019-10-13T09:58:07Z</time>
      </trkpt>
      <trkpt lat="45.85527" lon="4.7763">
        <ele>515.9</ele>
        <time>2019-10-13T09:58:12Z</time>
      </trkpt>
      <trkpt lat="45.85526" lon="4.77636">
        <ele>516.1</ele>
        <time>2019-10-13T09:58:14Z</time>
      </trkpt>
      <trkpt lat="45.85523" lon="4.77656">
        <ele>516.7</ele>
        <time>2019-10-13T09:58:20Z</time>
      </trkpt>
      <trkpt lat="45.8552" lon="4.77666">
        <ele>516.9</ele>
        <time>2019-10-13T09:58:23Z</time>
      </trkpt>
      <trkpt lat="45.85508" lon="4.77692">
        <ele>517.7</ele>
        <time>2019-10-13T09:58:31Z</time>
      </trkpt>
      <trkpt lat="45.85492" lon="4.77701">
        <ele>518.3</ele>
        <time>2019-10-13T09:58:37Z</time>
      </trkpt>
      <trkpt lat="45.85489" lon="4.77702">
        <ele>518.4</ele>
        <time>2019-10-13T09:58:38Z</time>
      </trkpt>
      <trkpt lat="45.85475" lon="4.77701">
        <ele>518.9</ele>
        <time>2019-10-13T09:58:44Z</time>
      </trkpt>
      <trkpt lat="45.85458" lon="4.77701">
        <ele>519.1</ele>
        <time>2019-10-13T09:58:51Z</time>
      </trkpt>
      <trkpt lat="45.8545" lon="4.777">
        <ele>519.2</ele>
        <time>2019-10-13T09:58:54Z</time>
      </trkpt>
      <trkpt lat="45.85436" lon="4.77698">
        <ele>519.8</ele>
        <time>2019-10-13T09:59:00Z</time>
      </trkpt>
      <trkpt lat="45.85427" lon="4.77695">
        <ele>520.4</ele>
        <time>2019-10-13T09:59:04Z</time>
      </trkpt>
      <trkpt lat="45.85422" lon="4.77693">
        <ele>520.8</ele>
        <time>2019-10-13T09:59:06Z</time>
      </trkpt>
      <trkpt lat="45.85403" lon="4.77687">
        <ele>521.9</ele>
        <time>2019-10-13T09:59:14Z</time>
      </trkpt>
      <trkpt lat="45.85382" lon="4.7768">
        <ele>523.5</ele>
        <time>2019-10-13T09:59:22Z</time>
      </trkpt>
      <trkpt lat="45.85379" lon="4.77679">
        <ele>523.6</ele>
        <time>2019-10-13T09:59:23Z</time>
      </trkpt>
      <trkpt lat="45.85368" lon="4.77676">
        <ele>524.2</ele>
        <time>2019-10-13T09:59:27Z</time>
      </trkpt>
      <trkpt lat="45.8536" lon="4.77673">
        <ele>524.5</ele>
        <time>2019-10-13T09:59:30Z</time>
      </trkpt>
      <trkpt lat="45.85352" lon="4.7767">
        <ele>524.9</ele>
        <time>2019-10-13T09:59:33Z</time>
      </trkpt>
      <trkpt lat="45.85344" lon="4.77667">
        <ele>525.2</ele>
        <time>2019-10-13T09:59:37Z</time>
      </trkpt>
      <trkpt lat="45.85331" lon="4.77664">
        <ele>525.7</ele>
        <time>2019-10-13T09:59:42Z</time>
      </trkpt>
      <trkpt lat="45.85317" lon="4.77664">
        <ele>526.1</ele>
        <time>2019-10-13T09:59:48Z</time>
      </trkpt>
      <trkpt lat="45.853" lon="4.77672">
        <ele>526.2</ele>
        <time>2019-10-13T09:59:55Z</time>
      </trkpt>
      <trkpt lat="45.85287" lon="4.77683">
        <ele>526.2</ele>
        <time>2019-10-13T10:00:01Z</time>
      </trkpt>
      <trkpt lat="45.85285" lon="4.77687">
        <ele>526.2</ele>
        <time>2019-10-13T10:00:02Z</time>
      </trkpt>
      <trkpt lat="45.85275" lon="4.77711">
        <ele>526.2</ele>
        <time>2019-10-13T10:00:08Z</time>
      </trkpt>
      <trkpt lat="45.8527" lon="4.77736">
        <ele>525.2</ele>
        <time>2019-10-13T10:00:14Z</time>
      </trkpt>
      <trkpt lat="45.85265" lon="4.7777">
        <ele>525.1</ele>
        <time>2019-10-13T10:00:21Z</time>
      </trkpt>
      <trkpt lat="45.85264" lon="4.77774">
        <ele>525.4</ele>
        <time>2019-10-13T10:00:22Z</time>
      </trkpt>
      <trkpt lat="45.85262" lon="4.77794">
        <ele>526.4</ele>
        <time>2019-10-13T10:00:27Z</time>
      </trkpt>
      <trkpt lat="45.8526" lon="4.77804">
        <ele>526.9</ele>
        <time>2019-10-13T10:00:30Z</time>
      </trkpt>
      <trkpt lat="45.8526" lon="4.77808">
        <ele>527.1</ele>
        <time>2019-10-13T10:00:31Z</time>
      </trkpt>
      <trkpt lat="45.85257" lon="4.77821">
        <ele>527.5</ele>
        <time>2019-10-13T10:00:35Z</time>
      </trkpt>
      <trkpt lat="45.85256" lon="4.77832">
        <ele>528.1</ele>
        <time>2019-10-13T10:00:38Z</time>
      </trkpt>
      <trkpt lat="45.85255" lon="4.77843">
        <ele>528.6</ele>
        <time>2019-10-13T10:00:41Z</time>
      </trkpt>
      <trkpt lat="45.85253" lon="4.77853">
        <ele>529.3</ele>
        <time>2019-10-13T10:00:44Z</time>
      </trkpt>
      <trkpt lat="45.8525" lon="4.77867">
        <ele>530.1</ele>
        <time>2019-10-13T10:00:48Z</time>
      </trkpt>
      <trkpt lat="45.85249" lon="4.77882">
        <ele>530.8</ele>
        <time>2019-10-13T10:00:52Z</time>
      </trkpt>
      <trkpt lat="45.85248" lon="4.77886">
        <ele>531.1</ele>
        <time>2019-10-13T10:00:53Z</time>
      </trkpt>
      <trkpt lat="45.85246" lon="4.77901">
        <ele>532</ele>
        <time>2019-10-13T10:00:57Z</time>
      </trkpt>
      <trkpt lat="45.85244" lon="4.77921">
        <ele>533.4</ele>
        <time>2019-10-13T10:01:02Z</time>
      </trkpt>
      <trkpt lat="45.85243" lon="4.77928">
        <ele>534</ele>
        <time>2019-10-13T10:01:04Z</time>
      </trkpt>
      <trkpt lat="45.85241" lon="4.77937">
        <ele>534.6</ele>
        <time>2019-10-13T10:01:07Z</time>
      </trkpt>
      <trkpt lat="45.85239" lon="4.77954">
        <ele>535.6</ele>
        <time>2019-10-13T10:01:12Z</time>
      </trkpt>
      <trkpt lat="45.85239" lon="4.77957">
        <ele>535.8</ele>
        <time>2019-10-13T10:01:13Z</time>
      </trkpt>
      <trkpt lat="45.85235" lon="4.77986">
        <ele>537.1</ele>
        <time>2019-10-13T10:01:22Z</time>
      </trkpt>
      <trkpt lat="45.85233" lon="4.78003">
        <ele>537.8</ele>
        <time>2019-10-13T10:01:27Z</time>
      </trkpt>
      <trkpt lat="45.85232" lon="4.78019">
        <ele>538.5</ele>
        <time>2019-10-13T10:01:32Z</time>
      </trkpt>
      <trkpt lat="45.85231" lon="4.78022">
        <ele>538.6</ele>
        <time>2019-10-13T10:01:33Z</time>
      </trkpt>
      <trkpt lat="45.8523" lon="4.78042">
        <ele>539.5</ele>
        <time>2019-10-13T10:01:39Z</time>
      </trkpt>
      <trkpt lat="45.8523" lon="4.78055">
        <ele>540</ele>
        <time>2019-10-13T10:01:43Z</time>
      </trkpt>
      <trkpt lat="45.8523" lon="4.78065">
        <ele>540.4</ele>
        <time>2019-10-13T10:01:46Z</time>
      </trkpt>
      <trkpt lat="45.85231" lon="4.78082">
        <ele>541</ele>
        <time>2019-10-13T10:01:51Z</time>
      </trkpt>
      <trkpt lat="45.85231" lon="4.78091">
        <ele>541.4</ele>
        <time>2019-10-13T10:01:54Z</time>
      </trkpt>
      <trkpt lat="45.85233" lon="4.78114">
        <ele>542</ele>
        <time>2019-10-13T10:02:01Z</time>
      </trkpt>
      <trkpt lat="45.85237" lon="4.78139">
        <ele>542.5</ele>
        <time>2019-10-13T10:02:09Z</time>
      </trkpt>
      <trkpt lat="45.85238" lon="4.78149">
        <ele>542.7</ele>
        <time>2019-10-13T10:02:12Z</time>
      </trkpt>
      <trkpt lat="45.85241" lon="4.78158">
        <ele>542.9</ele>
        <time>2019-10-13T10:02:15Z</time>
      </trkpt>
      <trkpt lat="45.85246" lon="4.78174">
        <ele>543.4</ele>
        <time>2019-10-13T10:02:20Z</time>
      </trkpt>
      <trkpt lat="45.85247" lon="4.78178">
        <ele>543.6</ele>
        <time>2019-10-13T10:02:21Z</time>
      </trkpt>
      <trkpt lat="45.85257" lon="4.78208">
        <ele>545.6</ele>
        <time>2019-10-13T10:02:31Z</time>
      </trkpt>
      <trkpt lat="45.85259" lon="4.78211">
        <ele>545.9</ele>
        <time>2019-10-13T10:02:32Z</time>
      </trkpt>
      <trkpt lat="45.85265" lon="4.78226">
        <ele>546.9</ele>
        <time>2019-10-13T10:02:37Z</time>
      </trkpt>
      <trkpt lat="45.85267" lon="4.78231">
        <ele>547.2</ele>
        <time>2019-10-13T10:02:39Z</time>
      </trkpt>
      <trkpt lat="45.85273" lon="4.78243">
        <ele>547.7</ele>
        <time>2019-10-13T10:02:43Z</time>
      </trkpt>
      <trkpt lat="45.85279" lon="4.78254">
        <ele>548</ele>
        <time>2019-10-13T10:02:47Z</time>
      </trkpt>
      <trkpt lat="45.85281" lon="4.78257">
        <ele>548.1</ele>
        <time>2019-10-13T10:02:48Z</time>
      </trkpt>
      <trkpt lat="45.8529" lon="4.78272">
        <ele>548.2</ele>
        <time>2019-10-13T10:02:53Z</time>
      </trkpt>
      <trkpt lat="45.85299" lon="4.78289">
        <ele>548.1</ele>
        <time>2019-10-13T10:02:58Z</time>
      </trkpt>
      <trkpt lat="45.8531" lon="4.78309">
        <ele>547.6</ele>
        <time>2019-10-13T10:03:05Z</time>
      </trkpt>
      <trkpt lat="45.85324" lon="4.78334">
        <ele>547.2</ele>
        <time>2019-10-13T10:03:12Z</time>
      </trkpt>
      <trkpt lat="45.85329" lon="4.78343">
        <ele>548.7</ele>
        <time>2019-10-13T10:03:17Z</time>
      </trkpt>
      <trkpt lat="45.85333" lon="4.7835">
        <ele>549.4</ele>
        <time>2019-10-13T10:04:22Z</time>
      </trkpt>
      <trkpt lat="45.85333" lon="4.78351">
        <ele>549.6</ele>
        <time>2019-10-13T10:04:23Z</time>
      </trkpt>
      <trkpt lat="45.85334" lon="4.78354">
        <ele>549.9</ele>
        <time>2019-10-13T10:04:25Z</time>
      </trkpt>
      <trkpt lat="45.85332" lon="4.78352">
        <ele>550.2</ele>
        <time>2019-10-13T10:04:28Z</time>
      </trkpt>
      <trkpt lat="45.8533" lon="4.78351">
        <ele>550.5</ele>
        <time>2019-10-13T10:04:29Z</time>
      </trkpt>
      <trkpt lat="45.85327" lon="4.78346">
        <ele>550.9</ele>
        <time>2019-10-13T10:04:31Z</time>
      </trkpt>
      <trkpt lat="45.85326" lon="4.78343">
        <ele>551.1</ele>
        <time>2019-10-13T10:04:32Z</time>
      </trkpt>
      <trkpt lat="45.85322" lon="4.78338">
        <ele>551.7</ele>
        <time>2019-10-13T10:04:34Z</time>
      </trkpt>
      <trkpt lat="45.85316" lon="4.78329">
        <ele>552.6</ele>
        <time>2019-10-13T10:04:37Z</time>
      </trkpt>
      <trkpt lat="45.8531" lon="4.78319">
        <ele>553.6</ele>
        <time>2019-10-13T10:04:40Z</time>
      </trkpt>
      <trkpt lat="45.85307" lon="4.78316">
        <ele>553.8</ele>
        <time>2019-10-13T10:04:41Z</time>
      </trkpt>
      <trkpt lat="45.85297" lon="4.78305">
        <ele>555</ele>
        <time>2019-10-13T10:04:45Z</time>
      </trkpt>
      <trkpt lat="45.85289" lon="4.78294">
        <ele>556</ele>
        <time>2019-10-13T10:04:48Z</time>
      </trkpt>
      <trkpt lat="45.85278" lon="4.78277">
        <ele>557.1</ele>
        <time>2019-10-13T10:04:52Z</time>
      </trkpt>
      <trkpt lat="45.85272" lon="4.78268">
        <ele>557.3</ele>
        <time>2019-10-13T10:04:54Z</time>
      </trkpt>
      <trkpt lat="45.85262" lon="4.78251">
        <ele>557.7</ele>
        <time>2019-10-13T10:04:58Z</time>
      </trkpt>
      <trkpt lat="45.85259" lon="4.78246">
        <ele>557.8</ele>
        <time>2019-10-13T10:04:59Z</time>
      </trkpt>
      <trkpt lat="45.85254" lon="4.78238">
        <ele>558</ele>
        <time>2019-10-13T10:05:01Z</time>
      </trkpt>
      <trkpt lat="45.85246" lon="4.78224">
        <ele>558.4</ele>
        <time>2019-10-13T10:05:04Z</time>
      </trkpt>
      <trkpt lat="45.85227" lon="4.78197">
        <ele>560</ele>
        <time>2019-10-13T10:05:10Z</time>
      </trkpt>
      <trkpt lat="45.85209" lon="4.78171">
        <ele>561.3</ele>
        <time>2019-10-13T10:05:16Z</time>
      </trkpt>
      <trkpt lat="45.85196" lon="4.78151">
        <ele>562.3</ele>
        <time>2019-10-13T10:05:21Z</time>
      </trkpt>
      <trkpt lat="45.85191" lon="4.78143">
        <ele>562.7</ele>
        <time>2019-10-13T10:05:23Z</time>
      </trkpt>
      <trkpt lat="45.8518" lon="4.78124">
        <ele>563.8</ele>
        <time>2019-10-13T10:05:28Z</time>
      </trkpt>
      <trkpt lat="45.85178" lon="4.7812">
        <ele>564</ele>
        <time>2019-10-13T10:05:29Z</time>
      </trkpt>
      <trkpt lat="45.8516" lon="4.78082">
        <ele>565.4</ele>
        <time>2019-10-13T10:05:38Z</time>
      </trkpt>
      <trkpt lat="45.85153" lon="4.7806">
        <ele>566.4</ele>
        <time>2019-10-13T10:05:45Z</time>
      </trkpt>
      <trkpt lat="45.85149" lon="4.78048">
        <ele>567</ele>
        <time>2019-10-13T10:05:49Z</time>
      </trkpt>
      <trkpt lat="45.85146" lon="4.7804">
        <ele>567.5</ele>
        <time>2019-10-13T10:05:52Z</time>
      </trkpt>
      <trkpt lat="45.85138" lon="4.78023">
        <ele>568.1</ele>
        <time>2019-10-13T10:05:58Z</time>
      </trkpt>
      <trkpt lat="45.85134" lon="4.78013">
        <ele>568.4</ele>
        <time>2019-10-13T10:06:01Z</time>
      </trkpt>
      <trkpt lat="45.85129" lon="4.7799">
        <ele>568.9</ele>
        <time>2019-10-13T10:06:06Z</time>
      </trkpt>
      <trkpt lat="45.85126" lon="4.77972">
        <ele>569.3</ele>
        <time>2019-10-13T10:06:11Z</time>
      </trkpt>
      <trkpt lat="45.85124" lon="4.77954">
        <ele>569.9</ele>
        <time>2019-10-13T10:06:15Z</time>
      </trkpt>
      <trkpt lat="45.85122" lon="4.77944">
        <ele>570.3</ele>
        <time>2019-10-13T10:06:18Z</time>
      </trkpt>
      <trkpt lat="45.85118" lon="4.77935">
        <ele>570.8</ele>
        <time>2019-10-13T10:06:22Z</time>
      </trkpt>
      <trkpt lat="45.85114" lon="4.77929">
        <ele>571</ele>
        <time>2019-10-13T10:06:25Z</time>
      </trkpt>
      <trkpt lat="45.85105" lon="4.77914">
        <ele>572</ele>
        <time>2019-10-13T10:06:32Z</time>
      </trkpt>
      <trkpt lat="45.85104" lon="4.77912">
        <ele>572.2</ele>
        <time>2019-10-13T10:06:33Z</time>
      </trkpt>
      <trkpt lat="45.85099" lon="4.77901">
        <ele>572.9</ele>
        <time>2019-10-13T10:06:38Z</time>
      </trkpt>
      <trkpt lat="45.85092" lon="4.77885">
        <ele>573.4</ele>
        <time>2019-10-13T10:06:44Z</time>
      </trkpt>
      <trkpt lat="45.85095" lon="4.77877">
        <ele>572.9</ele>
        <time>2019-10-13T10:06:47Z</time>
      </trkpt>
      <trkpt lat="45.85096" lon="4.77874">
        <ele>572.8</ele>
        <time>2019-10-13T10:06:48Z</time>
      </trkpt>
      <trkpt lat="45.85102" lon="4.77854">
        <ele>571.4</ele>
        <time>2019-10-13T10:06:52Z</time>
      </trkpt>
      <trkpt lat="45.85102" lon="4.77846">
        <ele>570.6</ele>
        <time>2019-10-13T10:06:53Z</time>
      </trkpt>
      <trkpt lat="45.85102" lon="4.77824">
        <ele>569.1</ele>
        <time>2019-10-13T10:06:56Z</time>
      </trkpt>
      <trkpt lat="45.85103" lon="4.77778">
        <ele>564.3</ele>
        <time>2019-10-13T10:07:02Z</time>
      </trkpt>
      <trkpt lat="45.85099" lon="4.77743">
        <ele>561</ele>
        <time>2019-10-13T10:07:06Z</time>
      </trkpt>
      <trkpt lat="45.85095" lon="4.77725">
        <ele>559</ele>
        <time>2019-10-13T10:07:08Z</time>
      </trkpt>
      <trkpt lat="45.85091" lon="4.77715">
        <ele>557.8</ele>
        <time>2019-10-13T10:07:09Z</time>
      </trkpt>
      <trkpt lat="45.85087" lon="4.77705">
        <ele>556.6</ele>
        <time>2019-10-13T10:07:10Z</time>
      </trkpt>
      <trkpt lat="45.85078" lon="4.77685">
        <ele>555</ele>
        <time>2019-10-13T10:07:12Z</time>
      </trkpt>
      <trkpt lat="45.85058" lon="4.77648">
        <ele>552.4</ele>
        <time>2019-10-13T10:07:17Z</time>
      </trkpt>
      <trkpt lat="45.85053" lon="4.77642">
        <ele>552</ele>
        <time>2019-10-13T10:07:18Z</time>
      </trkpt>
      <trkpt lat="45.85044" lon="4.77636">
        <ele>551.9</ele>
        <time>2019-10-13T10:07:20Z</time>
      </trkpt>
      <trkpt lat="45.85038" lon="4.77634">
        <ele>551.9</ele>
        <time>2019-10-13T10:07:21Z</time>
      </trkpt>
      <trkpt lat="45.85034" lon="4.77632">
        <ele>552</ele>
        <time>2019-10-13T10:07:22Z</time>
      </trkpt>
      <trkpt lat="45.85023" lon="4.77629">
        <ele>552.2</ele>
        <time>2019-10-13T10:07:24Z</time>
      </trkpt>
      <trkpt lat="45.85014" lon="4.77627">
        <ele>552.4</ele>
        <time>2019-10-13T10:07:26Z</time>
      </trkpt>
      <trkpt lat="45.84988" lon="4.77621">
        <ele>552.7</ele>
        <time>2019-10-13T10:07:33Z</time>
      </trkpt>
      <trkpt lat="45.84965" lon="4.77618">
        <ele>552.8</ele>
        <time>2019-10-13T10:07:38Z</time>
      </trkpt>
      <trkpt lat="45.84956" lon="4.77617">
        <ele>552.7</ele>
        <time>2019-10-13T10:07:40Z</time>
      </trkpt>
      <trkpt lat="45.84951" lon="4.77617">
        <ele>552.7</ele>
        <time>2019-10-13T10:07:41Z</time>
      </trkpt>
      <trkpt lat="45.84946" lon="4.77616">
        <ele>552.6</ele>
        <time>2019-10-13T10:07:42Z</time>
      </trkpt>
      <trkpt lat="45.84936" lon="4.77615">
        <ele>552.5</ele>
        <time>2019-10-13T10:07:44Z</time>
      </trkpt>
      <trkpt lat="45.84932" lon="4.77615">
        <ele>552.4</ele>
        <time>2019-10-13T10:07:45Z</time>
      </trkpt>
      <trkpt lat="45.84927" lon="4.77615">
        <ele>552.2</ele>
        <time>2019-10-13T10:07:46Z</time>
      </trkpt>
      <trkpt lat="45.84915" lon="4.77616">
        <ele>551.8</ele>
        <time>2019-10-13T10:07:49Z</time>
      </trkpt>
      <trkpt lat="45.84893" lon="4.77615">
        <ele>550.7</ele>
        <time>2019-10-13T10:07:54Z</time>
      </trkpt>
      <trkpt lat="45.84867" lon="4.77616">
        <ele>549.3</ele>
        <time>2019-10-13T10:07:59Z</time>
      </trkpt>
      <trkpt lat="45.84854" lon="4.77617">
        <ele>548.6</ele>
        <time>2019-10-13T10:08:01Z</time>
      </trkpt>
      <trkpt lat="45.84808" lon="4.77621">
        <ele>547.5</ele>
        <time>2019-10-13T10:08:08Z</time>
      </trkpt>
      <trkpt lat="45.84772" lon="4.77618">
        <ele>547.1</ele>
        <time>2019-10-13T10:08:14Z</time>
      </trkpt>
      <trkpt lat="45.84758" lon="4.77615">
        <ele>547</ele>
        <time>2019-10-13T10:08:17Z</time>
      </trkpt>
      <trkpt lat="45.84749" lon="4.7761">
        <ele>547</ele>
        <time>2019-10-13T10:08:19Z</time>
      </trkpt>
      <trkpt lat="45.84744" lon="4.77609">
        <ele>547</ele>
        <time>2019-10-13T10:08:20Z</time>
      </trkpt>
      <trkpt lat="45.84735" lon="4.77604">
        <ele>547.1</ele>
        <time>2019-10-13T10:08:22Z</time>
      </trkpt>
      <trkpt lat="45.84726" lon="4.776">
        <ele>547.2</ele>
        <time>2019-10-13T10:08:24Z</time>
      </trkpt>
      <trkpt lat="45.84713" lon="4.77589">
        <ele>547.5</ele>
        <time>2019-10-13T10:08:28Z</time>
      </trkpt>
      <trkpt lat="45.8471" lon="4.77585">
        <ele>547.6</ele>
        <time>2019-10-13T10:08:29Z</time>
      </trkpt>
      <trkpt lat="45.84705" lon="4.77578">
        <ele>547.7</ele>
        <time>2019-10-13T10:08:31Z</time>
      </trkpt>
      <trkpt lat="45.84699" lon="4.77574">
        <ele>547.9</ele>
        <time>2019-10-13T10:08:33Z</time>
      </trkpt>
      <trkpt lat="45.84696" lon="4.77574">
        <ele>548</ele>
        <time>2019-10-13T10:08:34Z</time>
      </trkpt>
      <trkpt lat="45.84695" lon="4.77575">
        <ele>548</ele>
        <time>2019-10-13T10:08:35Z</time>
      </trkpt>
      <trkpt lat="45.84695" lon="4.77585">
        <ele>549.5</ele>
        <time>2019-10-13T10:08:38Z</time>
      </trkpt>
      <trkpt lat="45.84697" lon="4.77592">
        <ele>549.9</ele>
        <time>2019-10-13T10:08:40Z</time>
      </trkpt>
      <trkpt lat="45.84699" lon="4.77596">
        <ele>550.1</ele>
        <time>2019-10-13T10:08:41Z</time>
      </trkpt>
      <trkpt lat="45.84705" lon="4.7761">
        <ele>551.1</ele>
        <time>2019-10-13T10:08:45Z</time>
      </trkpt>
      <trkpt lat="45.84706" lon="4.77613">
        <ele>551.3</ele>
        <time>2019-10-13T10:08:46Z</time>
      </trkpt>
      <trkpt lat="45.84716" lon="4.77638">
        <ele>553</ele>
        <time>2019-10-13T10:08:54Z</time>
      </trkpt>
      <trkpt lat="45.84717" lon="4.77641">
        <ele>553.2</ele>
        <time>2019-10-13T10:08:55Z</time>
      </trkpt>
      <trkpt lat="45.84724" lon="4.77664">
        <ele>554.6</ele>
        <time>2019-10-13T10:09:03Z</time>
      </trkpt>
      <trkpt lat="45.84726" lon="4.77686">
        <ele>555.8</ele>
        <time>2019-10-13T10:09:10Z</time>
      </trkpt>
      <trkpt lat="45.84724" lon="4.77707">
        <ele>557.2</ele>
        <time>2019-10-13T10:09:17Z</time>
      </trkpt>
      <trkpt lat="45.84717" lon="4.77731">
        <ele>558.8</ele>
        <time>2019-10-13T10:09:25Z</time>
      </trkpt>
      <trkpt lat="45.84712" lon="4.77745">
        <ele>559.8</ele>
        <time>2019-10-13T10:09:30Z</time>
      </trkpt>
      <trkpt lat="45.84708" lon="4.77757">
        <ele>560.5</ele>
        <time>2019-10-13T10:09:34Z</time>
      </trkpt>
      <trkpt lat="45.84704" lon="4.77768">
        <ele>561</ele>
        <time>2019-10-13T10:09:38Z</time>
      </trkpt>
      <trkpt lat="45.847" lon="4.77778">
        <ele>561.5</ele>
        <time>2019-10-13T10:09:42Z</time>
      </trkpt>
      <trkpt lat="45.84695" lon="4.77791">
        <ele>562</ele>
        <time>2019-10-13T10:09:47Z</time>
      </trkpt>
      <trkpt lat="45.84691" lon="4.77804">
        <ele>562.4</ele>
        <time>2019-10-13T10:09:52Z</time>
      </trkpt>
      <trkpt lat="45.84688" lon="4.77813">
        <ele>562.7</ele>
        <time>2019-10-13T10:09:55Z</time>
      </trkpt>
      <trkpt lat="45.84683" lon="4.77826">
        <ele>563.1</ele>
        <time>2019-10-13T10:10:00Z</time>
      </trkpt>
      <trkpt lat="45.84676" lon="4.77842">
        <ele>563.6</ele>
        <time>2019-10-13T10:10:06Z</time>
      </trkpt>
      <trkpt lat="45.8467" lon="4.77851">
        <ele>563.9</ele>
        <time>2019-10-13T10:10:10Z</time>
      </trkpt>
      <trkpt lat="45.84665" lon="4.77859">
        <ele>564.3</ele>
        <time>2019-10-13T10:10:14Z</time>
      </trkpt>
      <trkpt lat="45.84655" lon="4.77868">
        <ele>564.9</ele>
        <time>2019-10-13T10:10:19Z</time>
      </trkpt>
      <trkpt lat="45.84652" lon="4.7787">
        <ele>565</ele>
        <time>2019-10-13T10:10:20Z</time>
      </trkpt>
      <trkpt lat="45.84645" lon="4.77878">
        <ele>565.7</ele>
        <time>2019-10-13T10:10:24Z</time>
      </trkpt>
      <trkpt lat="45.8464" lon="4.77885">
        <ele>566.2</ele>
        <time>2019-10-13T10:10:27Z</time>
      </trkpt>
      <trkpt lat="45.84636" lon="4.77906">
        <ele>567.8</ele>
        <time>2019-10-13T10:10:34Z</time>
      </trkpt>
      <trkpt lat="45.84641" lon="4.77926">
        <ele>569.2</ele>
        <time>2019-10-13T10:10:41Z</time>
      </trkpt>
      <trkpt lat="45.84654" lon="4.77932">
        <ele>570.1</ele>
        <time>2019-10-13T10:10:47Z</time>
      </trkpt>
      <trkpt lat="45.8467" lon="4.77924">
        <ele>570.7</ele>
        <time>2019-10-13T10:10:53Z</time>
      </trkpt>
      <trkpt lat="45.84682" lon="4.77903">
        <ele>571.1</ele>
        <time>2019-10-13T10:10:59Z</time>
      </trkpt>
      <trkpt lat="45.84686" lon="4.77893">
        <ele>571.3</ele>
        <time>2019-10-13T10:11:02Z</time>
      </trkpt>
      <trkpt lat="45.84693" lon="4.77876">
        <ele>571.7</ele>
        <time>2019-10-13T10:11:07Z</time>
      </trkpt>
      <trkpt lat="45.84695" lon="4.77869">
        <ele>572</ele>
        <time>2019-10-13T10:11:09Z</time>
      </trkpt>
      <trkpt lat="45.84706" lon="4.77839">
        <ele>573.4</ele>
        <time>2019-10-13T10:11:17Z</time>
      </trkpt>
      <trkpt lat="45.84711" lon="4.77831">
        <ele>574.1</ele>
        <time>2019-10-13T10:11:20Z</time>
      </trkpt>
      <trkpt lat="45.84714" lon="4.7783">
        <ele>574.4</ele>
        <time>2019-10-13T10:11:21Z</time>
      </trkpt>
      <trkpt lat="45.84724" lon="4.7783">
        <ele>575.6</ele>
        <time>2019-10-13T10:11:25Z</time>
      </trkpt>
      <trkpt lat="45.84733" lon="4.77844">
        <ele>577.1</ele>
        <time>2019-10-13T10:11:30Z</time>
      </trkpt>
      <trkpt lat="45.84733" lon="4.77863">
        <ele>578.3</ele>
        <time>2019-10-13T10:11:35Z</time>
      </trkpt>
      <trkpt lat="45.84725" lon="4.77881">
        <ele>579.3</ele>
        <time>2019-10-13T10:11:41Z</time>
      </trkpt>
      <trkpt lat="45.84724" lon="4.77884">
        <ele>579.5</ele>
        <time>2019-10-13T10:11:42Z</time>
      </trkpt>
      <trkpt lat="45.84712" lon="4.77905">
        <ele>580.6</ele>
        <time>2019-10-13T10:11:50Z</time>
      </trkpt>
      <trkpt lat="45.84711" lon="4.77908">
        <ele>580.7</ele>
        <time>2019-10-13T10:11:51Z</time>
      </trkpt>
      <trkpt lat="45.84701" lon="4.77931">
        <ele>581.7</ele>
        <time>2019-10-13T10:11:59Z</time>
      </trkpt>
      <trkpt lat="45.84699" lon="4.77936">
        <ele>582</ele>
        <time>2019-10-13T10:12:01Z</time>
      </trkpt>
      <trkpt lat="45.84695" lon="4.77944">
        <ele>582.4</ele>
        <time>2019-10-13T10:12:04Z</time>
      </trkpt>
      <trkpt lat="45.84688" lon="4.77957">
        <ele>583.3</ele>
        <time>2019-10-13T10:12:09Z</time>
      </trkpt>
      <trkpt lat="45.84687" lon="4.7796">
        <ele>583.5</ele>
        <time>2019-10-13T10:12:10Z</time>
      </trkpt>
      <trkpt lat="45.84682" lon="4.77972">
        <ele>584.3</ele>
        <time>2019-10-13T10:12:14Z</time>
      </trkpt>
      <trkpt lat="45.84679" lon="4.77989">
        <ele>585.8</ele>
        <time>2019-10-13T10:12:19Z</time>
      </trkpt>
      <trkpt lat="45.84676" lon="4.78016">
        <ele>589.2</ele>
        <time>2019-10-13T10:12:26Z</time>
      </trkpt>
      <trkpt lat="45.84675" lon="4.78027">
        <ele>589.9</ele>
        <time>2019-10-13T10:12:29Z</time>
      </trkpt>
      <trkpt lat="45.84673" lon="4.7804">
        <ele>590.7</ele>
        <time>2019-10-13T10:12:32Z</time>
      </trkpt>
      <trkpt lat="45.84664" lon="4.78073">
        <ele>590.3</ele>
        <time>2019-10-13T10:12:38Z</time>
      </trkpt>
      <trkpt lat="45.84655" lon="4.78113">
        <ele>588.8</ele>
        <time>2019-10-13T10:12:43Z</time>
      </trkpt>
      <trkpt lat="45.84654" lon="4.78122">
        <ele>588.4</ele>
        <time>2019-10-13T10:12:44Z</time>
      </trkpt>
      <trkpt lat="45.84647" lon="4.78153">
        <ele>587.2</ele>
        <time>2019-10-13T10:12:47Z</time>
      </trkpt>
      <trkpt lat="45.84642" lon="4.78176">
        <ele>586.3</ele>
        <time>2019-10-13T10:12:49Z</time>
      </trkpt>
      <trkpt lat="45.84639" lon="4.78187">
        <ele>585.9</ele>
        <time>2019-10-13T10:12:50Z</time>
      </trkpt>
      <trkpt lat="45.84634" lon="4.78211">
        <ele>585</ele>
        <time>2019-10-13T10:12:52Z</time>
      </trkpt>
      <trkpt lat="45.84627" lon="4.78235">
        <ele>584.1</ele>
        <time>2019-10-13T10:12:54Z</time>
      </trkpt>
      <trkpt lat="45.84622" lon="4.78245">
        <ele>583.6</ele>
        <time>2019-10-13T10:12:55Z</time>
      </trkpt>
      <trkpt lat="45.84615" lon="4.78254">
        <ele>583.1</ele>
        <time>2019-10-13T10:12:56Z</time>
      </trkpt>
      <trkpt lat="45.84597" lon="4.78268">
        <ele>581.9</ele>
        <time>2019-10-13T10:12:58Z</time>
      </trkpt>
      <trkpt lat="45.84587" lon="4.78275">
        <ele>581.3</ele>
        <time>2019-10-13T10:12:59Z</time>
      </trkpt>
      <trkpt lat="45.84578" lon="4.7828">
        <ele>580.6</ele>
        <time>2019-10-13T10:13:00Z</time>
      </trkpt>
      <trkpt lat="45.84559" lon="4.78288">
        <ele>579.4</ele>
        <time>2019-10-13T10:13:02Z</time>
      </trkpt>
      <trkpt lat="45.84549" lon="4.78291">
        <ele>578.8</ele>
        <time>2019-10-13T10:13:03Z</time>
      </trkpt>
      <trkpt lat="45.84539" lon="4.78293">
        <ele>578.5</ele>
        <time>2019-10-13T10:13:04Z</time>
      </trkpt>
      <trkpt lat="45.84518" lon="4.78291">
        <ele>577.8</ele>
        <time>2019-10-13T10:13:06Z</time>
      </trkpt>
      <trkpt lat="45.84506" lon="4.78286">
        <ele>577.2</ele>
        <time>2019-10-13T10:13:07Z</time>
      </trkpt>
      <trkpt lat="45.84474" lon="4.78275">
        <ele>575.8</ele>
        <time>2019-10-13T10:13:10Z</time>
      </trkpt>
      <trkpt lat="45.84454" lon="4.78271">
        <ele>575.2</ele>
        <time>2019-10-13T10:13:12Z</time>
      </trkpt>
      <trkpt lat="45.84433" lon="4.78267">
        <ele>573</ele>
        <time>2019-10-13T10:13:14Z</time>
      </trkpt>
      <trkpt lat="45.84423" lon="4.78264">
        <ele>571.9</ele>
        <time>2019-10-13T10:13:15Z</time>
      </trkpt>
      <trkpt lat="45.84414" lon="4.7826">
        <ele>570.8</ele>
        <time>2019-10-13T10:13:16Z</time>
      </trkpt>
      <trkpt lat="45.84393" lon="4.7825">
        <ele>568.7</ele>
        <time>2019-10-13T10:13:18Z</time>
      </trkpt>
      <trkpt lat="45.84373" lon="4.78244">
        <ele>567</ele>
        <time>2019-10-13T10:13:20Z</time>
      </trkpt>
      <trkpt lat="45.84363" lon="4.78242">
        <ele>566.1</ele>
        <time>2019-10-13T10:13:21Z</time>
      </trkpt>
      <trkpt lat="45.84353" lon="4.78242">
        <ele>565.2</ele>
        <time>2019-10-13T10:13:22Z</time>
      </trkpt>
      <trkpt lat="45.84342" lon="4.78243">
        <ele>564.2</ele>
        <time>2019-10-13T10:13:23Z</time>
      </trkpt>
      <trkpt lat="45.84332" lon="4.78245">
        <ele>563.2</ele>
        <time>2019-10-13T10:13:24Z</time>
      </trkpt>
      <trkpt lat="45.84322" lon="4.78247">
        <ele>562.2</ele>
        <time>2019-10-13T10:13:25Z</time>
      </trkpt>
      <trkpt lat="45.84311" lon="4.7825">
        <ele>561.3</ele>
        <time>2019-10-13T10:13:26Z</time>
      </trkpt>
      <trkpt lat="45.84291" lon="4.78256">
        <ele>559.6</ele>
        <time>2019-10-13T10:13:28Z</time>
      </trkpt>
      <trkpt lat="45.8427" lon="4.78259">
        <ele>557.5</ele>
        <time>2019-10-13T10:13:30Z</time>
      </trkpt>
      <trkpt lat="45.84249" lon="4.78264">
        <ele>555.5</ele>
        <time>2019-10-13T10:13:32Z</time>
      </trkpt>
      <trkpt lat="45.84229" lon="4.78269">
        <ele>553.6</ele>
        <time>2019-10-13T10:13:34Z</time>
      </trkpt>
      <trkpt lat="45.84212" lon="4.78273">
        <ele>553</ele>
        <time>2019-10-13T10:13:36Z</time>
      </trkpt>
      <trkpt lat="45.84202" lon="4.78278">
        <ele>553.4</ele>
        <time>2019-10-13T10:13:38Z</time>
      </trkpt>
      <trkpt lat="45.84199" lon="4.78284">
        <ele>553.5</ele>
        <time>2019-10-13T10:13:39Z</time>
      </trkpt>
      <trkpt lat="45.84196" lon="4.78289">
        <ele>553.7</ele>
        <time>2019-10-13T10:13:40Z</time>
      </trkpt>
      <trkpt lat="45.84191" lon="4.78299">
        <ele>553.9</ele>
        <time>2019-10-13T10:13:42Z</time>
      </trkpt>
      <trkpt lat="45.84189" lon="4.78305">
        <ele>554</ele>
        <time>2019-10-13T10:13:43Z</time>
      </trkpt>
      <trkpt lat="45.84187" lon="4.78311">
        <ele>554.2</ele>
        <time>2019-10-13T10:13:44Z</time>
      </trkpt>
      <trkpt lat="45.84182" lon="4.78325">
        <ele>554.6</ele>
        <time>2019-10-13T10:13:47Z</time>
      </trkpt>
      <trkpt lat="45.84181" lon="4.7833">
        <ele>554.8</ele>
        <time>2019-10-13T10:13:48Z</time>
      </trkpt>
      <trkpt lat="45.84179" lon="4.78334">
        <ele>555</ele>
        <time>2019-10-13T10:13:49Z</time>
      </trkpt>
      <trkpt lat="45.84176" lon="4.78342">
        <ele>555.4</ele>
        <time>2019-10-13T10:13:51Z</time>
      </trkpt>
      <trkpt lat="45.8417" lon="4.7835">
        <ele>555.9</ele>
        <time>2019-10-13T10:13:54Z</time>
      </trkpt>
      <trkpt lat="45.84162" lon="4.78356">
        <ele>556</ele>
        <time>2019-10-13T10:13:58Z</time>
      </trkpt>
      <trkpt lat="45.84159" lon="4.78357">
        <ele>556</ele>
        <time>2019-10-13T10:13:59Z</time>
      </trkpt>
      <trkpt lat="45.84153" lon="4.7836">
        <ele>556</ele>
        <time>2019-10-13T10:14:01Z</time>
      </trkpt>
      <trkpt lat="45.84138" lon="4.78366">
        <ele>556.2</ele>
        <time>2019-10-13T10:14:05Z</time>
      </trkpt>
      <trkpt lat="45.84118" lon="4.78373">
        <ele>556</ele>
        <time>2019-10-13T10:14:11Z</time>
      </trkpt>
      <trkpt lat="45.84104" lon="4.78374">
        <ele>555.6</ele>
        <time>2019-10-13T10:14:16Z</time>
      </trkpt>
      <trkpt lat="45.84082" lon="4.78372">
        <ele>554.9</ele>
        <time>2019-10-13T10:14:21Z</time>
      </trkpt>
      <trkpt lat="45.84057" lon="4.78368">
        <ele>554.8</ele>
        <time>2019-10-13T10:14:26Z</time>
      </trkpt>
      <trkpt lat="45.84052" lon="4.78367">
        <ele>554.8</ele>
        <time>2019-10-13T10:14:27Z</time>
      </trkpt>
      <trkpt lat="45.84038" lon="4.78366">
        <ele>555.1</ele>
        <time>2019-10-13T10:14:30Z</time>
      </trkpt>
      <trkpt lat="45.84029" lon="4.78366">
        <ele>555.4</ele>
        <time>2019-10-13T10:14:32Z</time>
      </trkpt>
      <trkpt lat="45.84024" lon="4.78364">
        <ele>555.7</ele>
        <time>2019-10-13T10:14:33Z</time>
      </trkpt>
      <trkpt lat="45.84015" lon="4.78363">
        <ele>556.2</ele>
        <time>2019-10-13T10:14:35Z</time>
      </trkpt>
      <trkpt lat="45.84006" lon="4.78362">
        <ele>556.8</ele>
        <time>2019-10-13T10:14:37Z</time>
      </trkpt>
      <trkpt lat="45.84003" lon="4.78361">
        <ele>557</ele>
        <time>2019-10-13T10:14:38Z</time>
      </trkpt>
      <trkpt lat="45.83999" lon="4.78361">
        <ele>557.2</ele>
        <time>2019-10-13T10:14:39Z</time>
      </trkpt>
      <trkpt lat="45.83989" lon="4.7836">
        <ele>557.5</ele>
        <time>2019-10-13T10:14:42Z</time>
      </trkpt>
      <trkpt lat="45.83982" lon="4.7836">
        <ele>557.7</ele>
        <time>2019-10-13T10:14:44Z</time>
      </trkpt>
      <trkpt lat="45.83971" lon="4.78362">
        <ele>557.6</ele>
        <time>2019-10-13T10:14:47Z</time>
      </trkpt>
      <trkpt lat="45.83962" lon="4.78365">
        <ele>557.2</ele>
        <time>2019-10-13T10:14:50Z</time>
      </trkpt>
      <trkpt lat="45.8396" lon="4.78366">
        <ele>557.1</ele>
        <time>2019-10-13T10:14:51Z</time>
      </trkpt>
      <trkpt lat="45.83947" lon="4.78369">
        <ele>556.6</ele>
        <time>2019-10-13T10:14:55Z</time>
      </trkpt>
      <trkpt lat="45.83943" lon="4.7837">
        <ele>556.4</ele>
        <time>2019-10-13T10:14:56Z</time>
      </trkpt>
      <trkpt lat="45.83924" lon="4.78372">
        <ele>555.9</ele>
        <time>2019-10-13T10:15:01Z</time>
      </trkpt>
      <trkpt lat="45.83914" lon="4.78372">
        <ele>556</ele>
        <time>2019-10-13T10:15:03Z</time>
      </trkpt>
      <trkpt lat="45.83902" lon="4.78371">
        <ele>556</ele>
        <time>2019-10-13T10:15:06Z</time>
      </trkpt>
      <trkpt lat="45.83885" lon="4.78367">
        <ele>555.7</ele>
        <time>2019-10-13T10:15:12Z</time>
      </trkpt>
      <trkpt lat="45.83883" lon="4.78365">
        <ele>555.6</ele>
        <time>2019-10-13T10:15:13Z</time>
      </trkpt>
      <trkpt lat="45.83874" lon="4.78362">
        <ele>555.3</ele>
        <time>2019-10-13T10:15:16Z</time>
      </trkpt>
      <trkpt lat="45.83871" lon="4.78361">
        <ele>555.1</ele>
        <time>2019-10-13T10:15:17Z</time>
      </trkpt>
      <trkpt lat="45.83863" lon="4.7836">
        <ele>554.7</ele>
        <time>2019-10-13T10:15:20Z</time>
      </trkpt>
      <trkpt lat="45.83855" lon="4.78361">
        <ele>554.2</ele>
        <time>2019-10-13T10:15:22Z</time>
      </trkpt>
      <trkpt lat="45.8384" lon="4.78367">
        <ele>553.2</ele>
        <time>2019-10-13T10:15:26Z</time>
      </trkpt>
      <trkpt lat="45.83837" lon="4.78367">
        <ele>553.1</ele>
        <time>2019-10-13T10:15:27Z</time>
      </trkpt>
      <trkpt lat="45.83825" lon="4.7837">
        <ele>552.7</ele>
        <time>2019-10-13T10:15:31Z</time>
      </trkpt>
      <trkpt lat="45.83822" lon="4.78371">
        <ele>552.6</ele>
        <time>2019-10-13T10:15:32Z</time>
      </trkpt>
      <trkpt lat="45.83806" lon="4.7838">
        <ele>552.3</ele>
        <time>2019-10-13T10:15:36Z</time>
      </trkpt>
      <trkpt lat="45.83803" lon="4.78381">
        <ele>552.2</ele>
        <time>2019-10-13T10:15:37Z</time>
      </trkpt>
      <trkpt lat="45.83787" lon="4.78384">
        <ele>552</ele>
        <time>2019-10-13T10:15:42Z</time>
      </trkpt>
      <trkpt lat="45.8377" lon="4.78385">
        <ele>551.9</ele>
        <time>2019-10-13T10:15:48Z</time>
      </trkpt>
      <trkpt lat="45.83751" lon="4.78387">
        <ele>552</ele>
        <time>2019-10-13T10:15:54Z</time>
      </trkpt>
      <trkpt lat="45.83739" lon="4.78386">
        <ele>552.2</ele>
        <time>2019-10-13T10:15:58Z</time>
      </trkpt>
      <trkpt lat="45.83732" lon="4.78385">
        <ele>552.5</ele>
        <time>2019-10-13T10:16:00Z</time>
      </trkpt>
      <trkpt lat="45.83729" lon="4.78385">
        <ele>552.8</ele>
        <time>2019-10-13T10:16:01Z</time>
      </trkpt>
      <trkpt lat="45.83708" lon="4.78382">
        <ele>554.4</ele>
        <time>2019-10-13T10:16:06Z</time>
      </trkpt>
      <trkpt lat="45.8369" lon="4.78378">
        <ele>555.9</ele>
        <time>2019-10-13T10:16:11Z</time>
      </trkpt>
      <trkpt lat="45.83679" lon="4.7838">
        <ele>556.8</ele>
        <time>2019-10-13T10:16:15Z</time>
      </trkpt>
      <trkpt lat="45.83674" lon="4.7838">
        <ele>557.1</ele>
        <time>2019-10-13T10:16:17Z</time>
      </trkpt>
      <trkpt lat="45.83662" lon="4.78389">
        <ele>557.9</ele>
        <time>2019-10-13T10:16:22Z</time>
      </trkpt>
      <trkpt lat="45.8366" lon="4.78391">
        <ele>558</ele>
        <time>2019-10-13T10:16:23Z</time>
      </trkpt>
      <trkpt lat="45.83644" lon="4.78403">
        <ele>558.8</ele>
        <time>2019-10-13T10:16:29Z</time>
      </trkpt>
      <trkpt lat="45.83639" lon="4.78406">
        <ele>559</ele>
        <time>2019-10-13T10:16:31Z</time>
      </trkpt>
      <trkpt lat="45.83628" lon="4.78415">
        <ele>559.5</ele>
        <time>2019-10-13T10:16:36Z</time>
      </trkpt>
      <trkpt lat="45.83622" lon="4.78421">
        <ele>559.9</ele>
        <time>2019-10-13T10:16:39Z</time>
      </trkpt>
      <trkpt lat="45.8361" lon="4.78434">
        <ele>560.5</ele>
        <time>2019-10-13T10:16:44Z</time>
      </trkpt>
      <trkpt lat="45.83606" lon="4.78438">
        <ele>560.7</ele>
        <time>2019-10-13T10:16:46Z</time>
      </trkpt>
      <trkpt lat="45.83603" lon="4.78443">
        <ele>560.9</ele>
        <time>2019-10-13T10:16:48Z</time>
      </trkpt>
      <trkpt lat="45.83594" lon="4.78453">
        <ele>561.2</ele>
        <time>2019-10-13T10:16:53Z</time>
      </trkpt>
      <trkpt lat="45.83591" lon="4.78458">
        <ele>561.4</ele>
        <time>2019-10-13T10:16:55Z</time>
      </trkpt>
      <trkpt lat="45.8358" lon="4.78473">
        <ele>561.5</ele>
        <time>2019-10-13T10:17:00Z</time>
      </trkpt>
      <trkpt lat="45.83565" lon="4.78498">
        <ele>561.5</ele>
        <time>2019-10-13T10:17:08Z</time>
      </trkpt>
      <trkpt lat="45.83556" lon="4.78516">
        <ele>561.2</ele>
        <time>2019-10-13T10:17:13Z</time>
      </trkpt>
      <trkpt lat="45.83553" lon="4.78523">
        <ele>561</ele>
        <time>2019-10-13T10:17:15Z</time>
      </trkpt>
      <trkpt lat="45.83545" lon="4.78536">
        <ele>560.5</ele>
        <time>2019-10-13T10:17:19Z</time>
      </trkpt>
      <trkpt lat="45.83526" lon="4.78561">
        <ele>558.6</ele>
        <time>2019-10-13T10:17:26Z</time>
      </trkpt>
      <trkpt lat="45.83513" lon="4.78576">
        <ele>557.2</ele>
        <time>2019-10-13T10:17:29Z</time>
      </trkpt>
      <trkpt lat="45.83503" lon="4.78588">
        <ele>556.4</ele>
        <time>2019-10-13T10:17:32Z</time>
      </trkpt>
      <trkpt lat="45.83485" lon="4.78609">
        <ele>554.8</ele>
        <time>2019-10-13T10:17:37Z</time>
      </trkpt>
      <trkpt lat="45.8348" lon="4.78614">
        <ele>554.5</ele>
        <time>2019-10-13T10:17:38Z</time>
      </trkpt>
      <trkpt lat="45.83452" lon="4.78643">
        <ele>552.2</ele>
        <time>2019-10-13T10:17:44Z</time>
      </trkpt>
      <trkpt lat="45.83442" lon="4.78656">
        <ele>551.5</ele>
        <time>2019-10-13T10:17:47Z</time>
      </trkpt>
      <trkpt lat="45.83438" lon="4.7866">
        <ele>551.2</ele>
        <time>2019-10-13T10:17:48Z</time>
      </trkpt>
      <trkpt lat="45.83424" lon="4.78677">
        <ele>550</ele>
        <time>2019-10-13T10:17:52Z</time>
      </trkpt>
      <trkpt lat="45.83412" lon="4.78689">
        <ele>548.9</ele>
        <time>2019-10-13T10:17:55Z</time>
      </trkpt>
      <trkpt lat="45.83401" lon="4.78697">
        <ele>547.8</ele>
        <time>2019-10-13T10:17:57Z</time>
      </trkpt>
      <trkpt lat="45.8339" lon="4.78705">
        <ele>546.8</ele>
        <time>2019-10-13T10:17:59Z</time>
      </trkpt>
      <trkpt lat="45.83384" lon="4.78708">
        <ele>546.1</ele>
        <time>2019-10-13T10:18:00Z</time>
      </trkpt>
      <trkpt lat="45.83372" lon="4.78713">
        <ele>544.7</ele>
        <time>2019-10-13T10:18:02Z</time>
      </trkpt>
      <trkpt lat="45.8336" lon="4.78719">
        <ele>543.3</ele>
        <time>2019-10-13T10:18:04Z</time>
      </trkpt>
      <trkpt lat="45.83349" lon="4.78724">
        <ele>542</ele>
        <time>2019-10-13T10:18:06Z</time>
      </trkpt>
      <trkpt lat="45.83338" lon="4.78729">
        <ele>540.9</ele>
        <time>2019-10-13T10:18:08Z</time>
      </trkpt>
      <trkpt lat="45.83332" lon="4.78729">
        <ele>540.3</ele>
        <time>2019-10-13T10:18:09Z</time>
      </trkpt>
      <trkpt lat="45.83327" lon="4.7873">
        <ele>539.8</ele>
        <time>2019-10-13T10:18:10Z</time>
      </trkpt>
      <trkpt lat="45.83322" lon="4.78731">
        <ele>539.3</ele>
        <time>2019-10-13T10:18:11Z</time>
      </trkpt>
      <trkpt lat="45.83317" lon="4.78731">
        <ele>538.7</ele>
        <time>2019-10-13T10:18:12Z</time>
      </trkpt>
      <trkpt lat="45.83312" lon="4.78732">
        <ele>538.2</ele>
        <time>2019-10-13T10:18:13Z</time>
      </trkpt>
      <trkpt lat="45.83306" lon="4.78734">
        <ele>537.6</ele>
        <time>2019-10-13T10:18:14Z</time>
      </trkpt>
      <trkpt lat="45.83301" lon="4.78736">
        <ele>537.1</ele>
        <time>2019-10-13T10:18:15Z</time>
      </trkpt>
      <trkpt lat="45.83297" lon="4.78741">
        <ele>536.5</ele>
        <time>2019-10-13T10:18:16Z</time>
      </trkpt>
      <trkpt lat="45.8328" lon="4.78752">
        <ele>534.6</ele>
        <time>2019-10-13T10:18:19Z</time>
      </trkpt>
      <trkpt lat="45.8327" lon="4.78758">
        <ele>533.4</ele>
        <time>2019-10-13T10:18:21Z</time>
      </trkpt>
      <trkpt lat="45.83266" lon="4.78761">
        <ele>532.9</ele>
        <time>2019-10-13T10:18:22Z</time>
      </trkpt>
      <trkpt lat="45.83261" lon="4.78764">
        <ele>532.4</ele>
        <time>2019-10-13T10:18:23Z</time>
      </trkpt>
      <trkpt lat="45.83251" lon="4.78771">
        <ele>531.1</ele>
        <time>2019-10-13T10:18:25Z</time>
      </trkpt>
      <trkpt lat="45.83247" lon="4.78776">
        <ele>530.5</ele>
        <time>2019-10-13T10:18:26Z</time>
      </trkpt>
      <trkpt lat="45.83237" lon="4.78785">
        <ele>529.3</ele>
        <time>2019-10-13T10:18:28Z</time>
      </trkpt>
      <trkpt lat="45.83223" lon="4.78801">
        <ele>527.3</ele>
        <time>2019-10-13T10:18:31Z</time>
      </trkpt>
      <trkpt lat="45.83214" lon="4.78812">
        <ele>526</ele>
        <time>2019-10-13T10:18:33Z</time>
      </trkpt>
      <trkpt lat="45.83205" lon="4.78824">
        <ele>524.7</ele>
        <time>2019-10-13T10:18:35Z</time>
      </trkpt>
      <trkpt lat="45.83202" lon="4.78831">
        <ele>524.1</ele>
        <time>2019-10-13T10:18:36Z</time>
      </trkpt>
      <trkpt lat="45.83199" lon="4.78838">
        <ele>523.5</ele>
        <time>2019-10-13T10:18:37Z</time>
      </trkpt>
      <trkpt lat="45.83193" lon="4.78851">
        <ele>522.3</ele>
        <time>2019-10-13T10:18:39Z</time>
      </trkpt>
      <trkpt lat="45.8319" lon="4.78857">
        <ele>521.8</ele>
        <time>2019-10-13T10:18:40Z</time>
      </trkpt>
      <trkpt lat="45.83187" lon="4.78863">
        <ele>521.2</ele>
        <time>2019-10-13T10:18:41Z</time>
      </trkpt>
      <trkpt lat="45.83179" lon="4.78879">
        <ele>519.8</ele>
        <time>2019-10-13T10:18:44Z</time>
      </trkpt>
      <trkpt lat="45.83172" lon="4.78891">
        <ele>518.6</ele>
        <time>2019-10-13T10:18:47Z</time>
      </trkpt>
      <trkpt lat="45.83159" lon="4.78904">
        <ele>516.6</ele>
        <time>2019-10-13T10:18:51Z</time>
      </trkpt>
      <trkpt lat="45.83152" lon="4.78911">
        <ele>515.6</ele>
        <time>2019-10-13T10:18:53Z</time>
      </trkpt>
      <trkpt lat="45.83148" lon="4.78916">
        <ele>515.1</ele>
        <time>2019-10-13T10:18:54Z</time>
      </trkpt>
      <trkpt lat="45.83134" lon="4.7893">
        <ele>513.6</ele>
        <time>2019-10-13T10:18:57Z</time>
      </trkpt>
      <trkpt lat="45.83129" lon="4.78936">
        <ele>513</ele>
        <time>2019-10-13T10:18:58Z</time>
      </trkpt>
      <trkpt lat="45.83124" lon="4.78941">
        <ele>512.3</ele>
        <time>2019-10-13T10:18:59Z</time>
      </trkpt>
      <trkpt lat="45.83113" lon="4.7895">
        <ele>510.9</ele>
        <time>2019-10-13T10:19:01Z</time>
      </trkpt>
      <trkpt lat="45.83102" lon="4.78957">
        <ele>509.4</ele>
        <time>2019-10-13T10:19:03Z</time>
      </trkpt>
      <trkpt lat="45.83092" lon="4.78964">
        <ele>508</ele>
        <time>2019-10-13T10:19:05Z</time>
      </trkpt>
      <trkpt lat="45.83085" lon="4.7897">
        <ele>506.8</ele>
        <time>2019-10-13T10:19:07Z</time>
      </trkpt>
      <trkpt lat="45.83082" lon="4.78973">
        <ele>506.2</ele>
        <time>2019-10-13T10:19:08Z</time>
      </trkpt>
      <trkpt lat="45.83078" lon="4.78975">
        <ele>505.5</ele>
        <time>2019-10-13T10:19:09Z</time>
      </trkpt>
      <trkpt lat="45.8307" lon="4.78981">
        <ele>504</ele>
        <time>2019-10-13T10:19:11Z</time>
      </trkpt>
      <trkpt lat="45.83063" lon="4.78986">
        <ele>503</ele>
        <time>2019-10-13T10:19:13Z</time>
      </trkpt>
      <trkpt lat="45.83059" lon="4.78988">
        <ele>502.3</ele>
        <time>2019-10-13T10:19:14Z</time>
      </trkpt>
      <trkpt lat="45.83055" lon="4.7899">
        <ele>501.7</ele>
        <time>2019-10-13T10:19:15Z</time>
      </trkpt>
      <trkpt lat="45.83042" lon="4.78996">
        <ele>500</ele>
        <time>2019-10-13T10:19:17Z</time>
      </trkpt>
      <trkpt lat="45.83036" lon="4.78998">
        <ele>499</ele>
        <time>2019-10-13T10:19:18Z</time>
      </trkpt>
      <trkpt lat="45.83031" lon="4.79">
        <ele>498.2</ele>
        <time>2019-10-13T10:19:19Z</time>
      </trkpt>
      <trkpt lat="45.83025" lon="4.79">
        <ele>497.1</ele>
        <time>2019-10-13T10:19:20Z</time>
      </trkpt>
      <trkpt lat="45.8302" lon="4.78997">
        <ele>496.6</ele>
        <time>2019-10-13T10:19:21Z</time>
      </trkpt>
      <trkpt lat="45.83016" lon="4.78991">
        <ele>496.1</ele>
        <time>2019-10-13T10:19:22Z</time>
      </trkpt>
      <trkpt lat="45.83011" lon="4.78978">
        <ele>495.1</ele>
        <time>2019-10-13T10:19:24Z</time>
      </trkpt>
      <trkpt lat="45.8301" lon="4.7897">
        <ele>494.5</ele>
        <time>2019-10-13T10:19:25Z</time>
      </trkpt>
      <trkpt lat="45.83009" lon="4.78962">
        <ele>493.9</ele>
        <time>2019-10-13T10:19:26Z</time>
      </trkpt>
      <trkpt lat="45.83007" lon="4.78947">
        <ele>492.8</ele>
        <time>2019-10-13T10:19:28Z</time>
      </trkpt>
      <trkpt lat="45.83004" lon="4.78939">
        <ele>492.1</ele>
        <time>2019-10-13T10:19:30Z</time>
      </trkpt>
      <trkpt lat="45.82997" lon="4.78939">
        <ele>491.2</ele>
        <time>2019-10-13T10:19:32Z</time>
      </trkpt>
      <trkpt lat="45.82993" lon="4.78941">
        <ele>490.7</ele>
        <time>2019-10-13T10:19:33Z</time>
      </trkpt>
      <trkpt lat="45.8299" lon="4.78942">
        <ele>490.3</ele>
        <time>2019-10-13T10:19:34Z</time>
      </trkpt>
      <trkpt lat="45.82981" lon="4.78947">
        <ele>489.1</ele>
        <time>2019-10-13T10:19:36Z</time>
      </trkpt>
      <trkpt lat="45.82972" lon="4.78952">
        <ele>487.8</ele>
        <time>2019-10-13T10:19:38Z</time>
      </trkpt>
      <trkpt lat="45.82966" lon="4.78955">
        <ele>487.1</ele>
        <time>2019-10-13T10:19:39Z</time>
      </trkpt>
      <trkpt lat="45.82961" lon="4.78959">
        <ele>486.2</ele>
        <time>2019-10-13T10:19:40Z</time>
      </trkpt>
      <trkpt lat="45.82948" lon="4.78966">
        <ele>484.2</ele>
        <time>2019-10-13T10:19:42Z</time>
      </trkpt>
      <trkpt lat="45.82936" lon="4.78971">
        <ele>482.2</ele>
        <time>2019-10-13T10:19:44Z</time>
      </trkpt>
      <trkpt lat="45.82929" lon="4.78975">
        <ele>481</ele>
        <time>2019-10-13T10:19:45Z</time>
      </trkpt>
      <trkpt lat="45.82922" lon="4.78979">
        <ele>479.7</ele>
        <time>2019-10-13T10:19:46Z</time>
      </trkpt>
      <trkpt lat="45.82905" lon="4.78986">
        <ele>476.9</ele>
        <time>2019-10-13T10:19:48Z</time>
      </trkpt>
      <trkpt lat="45.82898" lon="4.78989">
        <ele>475.6</ele>
        <time>2019-10-13T10:19:49Z</time>
      </trkpt>
      <trkpt lat="45.82881" lon="4.78998">
        <ele>473</ele>
        <time>2019-10-13T10:19:51Z</time>
      </trkpt>
      <trkpt lat="45.82865" lon="4.79008">
        <ele>470.3</ele>
        <time>2019-10-13T10:19:53Z</time>
      </trkpt>
      <trkpt lat="45.82848" lon="4.79017">
        <ele>468</ele>
        <time>2019-10-13T10:19:55Z</time>
      </trkpt>
      <trkpt lat="45.82832" lon="4.79025">
        <ele>465.9</ele>
        <time>2019-10-13T10:19:57Z</time>
      </trkpt>
      <trkpt lat="45.82821" lon="4.7903">
        <ele>464.4</ele>
        <time>2019-10-13T10:19:59Z</time>
      </trkpt>
      <trkpt lat="45.82817" lon="4.79031">
        <ele>463.7</ele>
        <time>2019-10-13T10:20:01Z</time>
      </trkpt>
      <trkpt lat="45.82815" lon="4.79031">
        <ele>463.5</ele>
        <time>2019-10-13T10:20:02Z</time>
      </trkpt>
      <trkpt lat="45.82814" lon="4.79031">
        <ele>463.4</ele>
        <time>2019-10-13T10:20:03Z</time>
      </trkpt>
      <trkpt lat="45.82814" lon="4.7903">
        <ele>463.2</ele>
        <time>2019-10-13T10:20:04Z</time>
      </trkpt>
      <trkpt lat="45.82813" lon="4.79028">
        <ele>463.2</ele>
        <time>2019-10-13T10:20:05Z</time>
      </trkpt>
      <trkpt lat="45.82814" lon="4.79026">
        <ele>463.2</ele>
        <time>2019-10-13T10:20:06Z</time>
      </trkpt>
      <trkpt lat="45.82814" lon="4.79024">
        <ele>463.3</ele>
        <time>2019-10-13T10:20:07Z</time>
      </trkpt>
      <trkpt lat="45.82814" lon="4.79021">
        <ele>463.4</ele>
        <time>2019-10-13T10:20:09Z</time>
      </trkpt>
      <trkpt lat="45.82815" lon="4.79019">
        <ele>463.4</ele>
        <time>2019-10-13T10:20:10Z</time>
      </trkpt>
      <trkpt lat="45.82816" lon="4.79018">
        <ele>463.5</ele>
        <time>2019-10-13T10:20:11Z</time>
      </trkpt>
      <trkpt lat="45.82816" lon="4.79016">
        <ele>463.5</ele>
        <time>2019-10-13T10:20:12Z</time>
      </trkpt>
      <trkpt lat="45.8282" lon="4.7901">
        <ele>463.6</ele>
        <time>2019-10-13T10:20:30Z</time>
      </trkpt>
      <trkpt lat="45.82821" lon="4.79007">
        <ele>463.6</ele>
        <time>2019-10-13T10:20:31Z</time>
      </trkpt>
      <trkpt lat="45.82831" lon="4.78989">
        <ele>463.3</ele>
        <time>2019-10-13T10:20:36Z</time>
      </trkpt>
      <trkpt lat="45.82844" lon="4.78971">
        <ele>462.7</ele>
        <time>2019-10-13T10:20:41Z</time>
      </trkpt>
      <trkpt lat="45.82858" lon="4.7895">
        <ele>461.6</ele>
        <time>2019-10-13T10:20:45Z</time>
      </trkpt>
      <trkpt lat="45.82866" lon="4.78941">
        <ele>461.1</ele>
        <time>2019-10-13T10:20:47Z</time>
      </trkpt>
      <trkpt lat="45.82872" lon="4.78933">
        <ele>460.8</ele>
        <time>2019-10-13T10:20:49Z</time>
      </trkpt>
      <trkpt lat="45.82881" lon="4.78923">
        <ele>460.4</ele>
        <time>2019-10-13T10:20:52Z</time>
      </trkpt>
      <trkpt lat="45.82885" lon="4.78919">
        <ele>460.3</ele>
        <time>2019-10-13T10:20:53Z</time>
      </trkpt>
      <trkpt lat="45.82892" lon="4.78909">
        <ele>459.9</ele>
        <time>2019-10-13T10:20:55Z</time>
      </trkpt>
      <trkpt lat="45.82901" lon="4.78899">
        <ele>459.4</ele>
        <time>2019-10-13T10:20:57Z</time>
      </trkpt>
      <trkpt lat="45.82906" lon="4.78893">
        <ele>459.2</ele>
        <time>2019-10-13T10:20:58Z</time>
      </trkpt>
      <trkpt lat="45.82916" lon="4.7888">
        <ele>458.6</ele>
        <time>2019-10-13T10:21:00Z</time>
      </trkpt>
      <trkpt lat="45.82924" lon="4.78865">
        <ele>458</ele>
        <time>2019-10-13T10:21:02Z</time>
      </trkpt>
      <trkpt lat="45.82929" lon="4.78853">
        <ele>457.5</ele>
        <time>2019-10-13T10:21:04Z</time>
      </trkpt>
      <trkpt lat="45.82936" lon="4.78842">
        <ele>457.3</ele>
        <time>2019-10-13T10:21:06Z</time>
      </trkpt>
      <trkpt lat="45.82944" lon="4.78833">
        <ele>457.7</ele>
        <time>2019-10-13T10:21:08Z</time>
      </trkpt>
      <trkpt lat="45.82959" lon="4.78818">
        <ele>457.2</ele>
        <time>2019-10-13T10:21:11Z</time>
      </trkpt>
      <trkpt lat="45.82965" lon="4.78812">
        <ele>457.1</ele>
        <time>2019-10-13T10:21:12Z</time>
      </trkpt>
      <trkpt lat="45.8299" lon="4.78786">
        <ele>456.5</ele>
        <time>2019-10-13T10:21:16Z</time>
      </trkpt>
      <trkpt lat="45.83014" lon="4.78748">
        <ele>455.8</ele>
        <time>2019-10-13T10:21:21Z</time>
      </trkpt>
      <trkpt lat="45.83042" lon="4.78687">
        <ele>454.8</ele>
        <time>2019-10-13T10:21:28Z</time>
      </trkpt>
      <trkpt lat="45.83067" lon="4.78635">
        <ele>454</ele>
        <time>2019-10-13T10:21:34Z</time>
      </trkpt>
      <trkpt lat="45.83078" lon="4.78614">
        <ele>453.1</ele>
        <time>2019-10-13T10:21:37Z</time>
      </trkpt>
      <trkpt lat="45.83085" lon="4.78599">
        <ele>452.5</ele>
        <time>2019-10-13T10:21:39Z</time>
      </trkpt>
      <trkpt lat="45.83092" lon="4.78586">
        <ele>452.1</ele>
        <time>2019-10-13T10:21:42Z</time>
      </trkpt>
      <trkpt lat="45.83106" lon="4.78564">
        <ele>452.1</ele>
        <time>2019-10-13T10:21:47Z</time>
      </trkpt>
      <trkpt lat="45.83129" lon="4.78542">
        <ele>452.1</ele>
        <time>2019-10-13T10:21:51Z</time>
      </trkpt>
      <trkpt lat="45.83143" lon="4.78534">
        <ele>452.3</ele>
        <time>2019-10-13T10:21:53Z</time>
      </trkpt>
      <trkpt lat="45.83158" lon="4.78526">
        <ele>452.8</ele>
        <time>2019-10-13T10:21:55Z</time>
      </trkpt>
      <trkpt lat="45.83172" lon="4.78515">
        <ele>453</ele>
        <time>2019-10-13T10:21:57Z</time>
      </trkpt>
      <trkpt lat="45.83184" lon="4.78502">
        <ele>453.1</ele>
        <time>2019-10-13T10:21:59Z</time>
      </trkpt>
      <trkpt lat="45.83195" lon="4.78486">
        <ele>453.4</ele>
        <time>2019-10-13T10:22:01Z</time>
      </trkpt>
      <trkpt lat="45.83211" lon="4.78467">
        <ele>453.8</ele>
        <time>2019-10-13T10:22:04Z</time>
      </trkpt>
      <trkpt lat="45.83218" lon="4.78463">
        <ele>453.9</ele>
        <time>2019-10-13T10:22:05Z</time>
      </trkpt>
      <trkpt lat="45.83239" lon="4.78441">
        <ele>454.3</ele>
        <time>2019-10-13T10:22:09Z</time>
      </trkpt>
      <trkpt lat="45.83242" lon="4.78433">
        <ele>454.5</ele>
        <time>2019-10-13T10:22:10Z</time>
      </trkpt>
      <trkpt lat="45.83256" lon="4.78385">
        <ele>454.8</ele>
        <time>2019-10-13T10:22:15Z</time>
      </trkpt>
      <trkpt lat="45.83271" lon="4.7833">
        <ele>455.2</ele>
        <time>2019-10-13T10:22:20Z</time>
      </trkpt>
      <trkpt lat="45.83273" lon="4.78316">
        <ele>455.4</ele>
        <time>2019-10-13T10:22:21Z</time>
      </trkpt>
      <trkpt lat="45.8327" lon="4.78272">
        <ele>455.6</ele>
        <time>2019-10-13T10:22:24Z</time>
      </trkpt>
      <trkpt lat="45.83262" lon="4.78222">
        <ele>454.5</ele>
        <time>2019-10-13T10:22:28Z</time>
      </trkpt>
      <trkpt lat="45.8326" lon="4.7821">
        <ele>453.9</ele>
        <time>2019-10-13T10:22:29Z</time>
      </trkpt>
      <trkpt lat="45.83247" lon="4.78143">
        <ele>450.9</ele>
        <time>2019-10-13T10:22:35Z</time>
      </trkpt>
      <trkpt lat="45.83257" lon="4.78125">
        <ele>450.8</ele>
        <time>2019-10-13T10:22:37Z</time>
      </trkpt>
      <trkpt lat="45.8327" lon="4.78109">
        <ele>450.8</ele>
        <time>2019-10-13T10:22:39Z</time>
      </trkpt>
      <trkpt lat="45.83291" lon="4.78088">
        <ele>450.8</ele>
        <time>2019-10-13T10:22:42Z</time>
      </trkpt>
      <trkpt lat="45.83314" lon="4.78069">
        <ele>450.8</ele>
        <time>2019-10-13T10:22:45Z</time>
      </trkpt>
      <trkpt lat="45.83331" lon="4.78059">
        <ele>450.8</ele>
        <time>2019-10-13T10:22:47Z</time>
      </trkpt>
      <trkpt lat="45.8334" lon="4.78056">
        <ele>450.8</ele>
        <time>2019-10-13T10:22:48Z</time>
      </trkpt>
      <trkpt lat="45.83367" lon="4.78049">
        <ele>450.8</ele>
        <time>2019-10-13T10:22:51Z</time>
      </trkpt>
      <trkpt lat="45.83392" lon="4.78035">
        <ele>450.8</ele>
        <time>2019-10-13T10:22:54Z</time>
      </trkpt>
      <trkpt lat="45.83399" lon="4.78028">
        <ele>450.8</ele>
        <time>2019-10-13T10:22:55Z</time>
      </trkpt>
      <trkpt lat="45.83415" lon="4.78003">
        <ele>450.8</ele>
        <time>2019-10-13T10:22:58Z</time>
      </trkpt>
      <trkpt lat="45.83422" lon="4.77972">
        <ele>450.8</ele>
        <time>2019-10-13T10:23:01Z</time>
      </trkpt>
      <trkpt lat="45.83433" lon="4.77918">
        <ele>451</ele>
        <time>2019-10-13T10:23:07Z</time>
      </trkpt>
      <trkpt lat="45.83436" lon="4.77909">
        <ele>451.1</ele>
        <time>2019-10-13T10:23:08Z</time>
      </trkpt>
      <trkpt lat="45.83451" lon="4.77884">
        <ele>451.2</ele>
        <time>2019-10-13T10:23:11Z</time>
      </trkpt>
      <trkpt lat="45.83467" lon="4.77872">
        <ele>451</ele>
        <time>2019-10-13T10:23:13Z</time>
      </trkpt>
      <trkpt lat="45.83477" lon="4.77868">
        <ele>450.8</ele>
        <time>2019-10-13T10:23:14Z</time>
      </trkpt>
      <trkpt lat="45.83506" lon="4.77862">
        <ele>450</ele>
        <time>2019-10-13T10:23:17Z</time>
      </trkpt>
      <trkpt lat="45.83517" lon="4.77863">
        <ele>449.7</ele>
        <time>2019-10-13T10:23:18Z</time>
      </trkpt>
      <trkpt lat="45.83558" lon="4.77859">
        <ele>448.6</ele>
        <time>2019-10-13T10:23:22Z</time>
      </trkpt>
      <trkpt lat="45.83589" lon="4.77855">
        <ele>448.1</ele>
        <time>2019-10-13T10:23:25Z</time>
      </trkpt>
      <trkpt lat="45.83597" lon="4.7785">
        <ele>447.9</ele>
        <time>2019-10-13T10:23:26Z</time>
      </trkpt>
      <trkpt lat="45.83606" lon="4.77845">
        <ele>447.6</ele>
        <time>2019-10-13T10:23:27Z</time>
      </trkpt>
      <trkpt lat="45.83614" lon="4.7784">
        <ele>447.4</ele>
        <time>2019-10-13T10:23:28Z</time>
      </trkpt>
      <trkpt lat="45.83638" lon="4.77827">
        <ele>443.1</ele>
        <time>2019-10-13T10:23:31Z</time>
      </trkpt>
      <trkpt lat="45.83663" lon="4.77817">
        <ele>439.6</ele>
        <time>2019-10-13T10:23:34Z</time>
      </trkpt>
      <trkpt lat="45.83672" lon="4.77816">
        <ele>438.5</ele>
        <time>2019-10-13T10:23:35Z</time>
      </trkpt>
      <trkpt lat="45.8369" lon="4.77814">
        <ele>436.7</ele>
        <time>2019-10-13T10:23:37Z</time>
      </trkpt>
      <trkpt lat="45.83699" lon="4.77814">
        <ele>436.2</ele>
        <time>2019-10-13T10:23:38Z</time>
      </trkpt>
      <trkpt lat="45.83712" lon="4.77822">
        <ele>435.3</ele>
        <time>2019-10-13T10:23:39Z</time>
      </trkpt>
      <trkpt lat="45.83724" lon="4.77828">
        <ele>434.6</ele>
        <time>2019-10-13T10:23:40Z</time>
      </trkpt>
      <trkpt lat="45.83736" lon="4.77835">
        <ele>434.1</ele>
        <time>2019-10-13T10:23:41Z</time>
      </trkpt>
      <trkpt lat="45.83747" lon="4.77842">
        <ele>433.7</ele>
        <time>2019-10-13T10:23:42Z</time>
      </trkpt>
      <trkpt lat="45.83767" lon="4.77852">
        <ele>432.7</ele>
        <time>2019-10-13T10:23:44Z</time>
      </trkpt>
      <trkpt lat="45.83776" lon="4.7785">
        <ele>432.3</ele>
        <time>2019-10-13T10:23:45Z</time>
      </trkpt>
      <trkpt lat="45.83789" lon="4.77835">
        <ele>431.5</ele>
        <time>2019-10-13T10:23:47Z</time>
      </trkpt>
      <trkpt lat="45.83794" lon="4.77812">
        <ele>430.9</ele>
        <time>2019-10-13T10:23:49Z</time>
      </trkpt>
      <trkpt lat="45.83797" lon="4.77799">
        <ele>430.6</ele>
        <time>2019-10-13T10:23:50Z</time>
      </trkpt>
      <trkpt lat="45.83799" lon="4.77786">
        <ele>430.3</ele>
        <time>2019-10-13T10:23:51Z</time>
      </trkpt>
      <trkpt lat="45.83799" lon="4.7776">
        <ele>429.7</ele>
        <time>2019-10-13T10:23:53Z</time>
      </trkpt>
      <trkpt lat="45.83793" lon="4.77724">
        <ele>429</ele>
        <time>2019-10-13T10:23:56Z</time>
      </trkpt>
      <trkpt lat="45.83786" lon="4.77714">
        <ele>428.7</ele>
        <time>2019-10-13T10:23:57Z</time>
      </trkpt>
      <trkpt lat="45.83776" lon="4.77683">
        <ele>428.2</ele>
        <time>2019-10-13T10:24:00Z</time>
      </trkpt>
      <trkpt lat="45.83773" lon="4.77662">
        <ele>427.8</ele>
        <time>2019-10-13T10:24:02Z</time>
      </trkpt>
      <trkpt lat="45.83768" lon="4.77579">
        <ele>425.9</ele>
        <time>2019-10-13T10:24:09Z</time>
      </trkpt>
      <trkpt lat="45.83768" lon="4.77556">
        <ele>425.4</ele>
        <time>2019-10-13T10:24:11Z</time>
      </trkpt>
      <trkpt lat="45.83761" lon="4.77487">
        <ele>425.4</ele>
        <time>2019-10-13T10:24:17Z</time>
      </trkpt>
      <trkpt lat="45.83758" lon="4.7743">
        <ele>422</ele>
        <time>2019-10-13T10:24:22Z</time>
      </trkpt>
      <trkpt lat="45.83769" lon="4.77408">
        <ele>422.1</ele>
        <time>2019-10-13T10:24:24Z</time>
      </trkpt>
      <trkpt lat="45.83776" lon="4.77398">
        <ele>422.3</ele>
        <time>2019-10-13T10:24:25Z</time>
      </trkpt>
      <trkpt lat="45.83782" lon="4.77387">
        <ele>422.4</ele>
        <time>2019-10-13T10:24:26Z</time>
      </trkpt>
      <trkpt lat="45.83789" lon="4.77377">
        <ele>422.6</ele>
        <time>2019-10-13T10:24:27Z</time>
      </trkpt>
      <trkpt lat="45.83804" lon="4.77359">
        <ele>423</ele>
        <time>2019-10-13T10:24:29Z</time>
      </trkpt>
      <trkpt lat="45.8381" lon="4.77351">
        <ele>423.1</ele>
        <time>2019-10-13T10:24:30Z</time>
      </trkpt>
      <trkpt lat="45.83815" lon="4.77343">
        <ele>423.1</ele>
        <time>2019-10-13T10:24:31Z</time>
      </trkpt>
      <trkpt lat="45.83819" lon="4.77334">
        <ele>423.2</ele>
        <time>2019-10-13T10:24:32Z</time>
      </trkpt>
      <trkpt lat="45.83819" lon="4.77324">
        <ele>422</ele>
        <time>2019-10-13T10:24:33Z</time>
      </trkpt>
      <trkpt lat="45.83815" lon="4.77294">
        <ele>419.6</ele>
        <time>2019-10-13T10:24:36Z</time>
      </trkpt>
      <trkpt lat="45.83811" lon="4.77285">
        <ele>418.8</ele>
        <time>2019-10-13T10:24:37Z</time>
      </trkpt>
      <trkpt lat="45.83801" lon="4.77265">
        <ele>416.7</ele>
        <time>2019-10-13T10:24:39Z</time>
      </trkpt>
      <trkpt lat="45.83797" lon="4.77253">
        <ele>415.6</ele>
        <time>2019-10-13T10:24:40Z</time>
      </trkpt>
      <trkpt lat="45.83792" lon="4.77242">
        <ele>414.4</ele>
        <time>2019-10-13T10:24:41Z</time>
      </trkpt>
      <trkpt lat="45.83784" lon="4.7722">
        <ele>411.9</ele>
        <time>2019-10-13T10:24:43Z</time>
      </trkpt>
      <trkpt lat="45.83777" lon="4.77196">
        <ele>408.9</ele>
        <time>2019-10-13T10:24:45Z</time>
      </trkpt>
      <trkpt lat="45.83776" lon="4.77186">
        <ele>407.2</ele>
        <time>2019-10-13T10:24:46Z</time>
      </trkpt>
      <trkpt lat="45.83776" lon="4.7718">
        <ele>406.4</ele>
        <time>2019-10-13T10:24:47Z</time>
      </trkpt>
      <trkpt lat="45.83778" lon="4.77175">
        <ele>405.4</ele>
        <time>2019-10-13T10:24:48Z</time>
      </trkpt>
      <trkpt lat="45.83779" lon="4.77172">
        <ele>405.4</ele>
        <time>2019-10-13T10:24:49Z</time>
      </trkpt>
      <trkpt lat="45.83778" lon="4.77168">
        <ele>405.4</ele>
        <time>2019-10-13T10:24:55Z</time>
      </trkpt>
      <trkpt lat="45.83772" lon="4.77165">
        <ele>405.4</ele>
        <time>2019-10-13T10:24:57Z</time>
      </trkpt>
      <trkpt lat="45.83756" lon="4.7716">
        <ele>404.9</ele>
        <time>2019-10-13T10:25:01Z</time>
      </trkpt>
      <trkpt lat="45.83751" lon="4.77159">
        <ele>404.8</ele>
        <time>2019-10-13T10:25:02Z</time>
      </trkpt>
      <trkpt lat="45.83741" lon="4.77155">
        <ele>404.6</ele>
        <time>2019-10-13T10:25:04Z</time>
      </trkpt>
      <trkpt lat="45.83723" lon="4.7715">
        <ele>404.2</ele>
        <time>2019-10-13T10:25:07Z</time>
      </trkpt>
      <trkpt lat="45.83717" lon="4.77149">
        <ele>404</ele>
        <time>2019-10-13T10:25:08Z</time>
      </trkpt>
      <trkpt lat="45.83704" lon="4.77147">
        <ele>403.5</ele>
        <time>2019-10-13T10:25:10Z</time>
      </trkpt>
      <trkpt lat="45.83681" lon="4.77145">
        <ele>402.5</ele>
        <time>2019-10-13T10:25:13Z</time>
      </trkpt>
      <trkpt lat="45.83648" lon="4.77145">
        <ele>401.2</ele>
        <time>2019-10-13T10:25:17Z</time>
      </trkpt>
      <trkpt lat="45.83631" lon="4.77145">
        <ele>400.4</ele>
        <time>2019-10-13T10:25:19Z</time>
      </trkpt>
      <trkpt lat="45.83623" lon="4.77145">
        <ele>399.7</ele>
        <time>2019-10-13T10:25:20Z</time>
      </trkpt>
      <trkpt lat="45.83605" lon="4.77144">
        <ele>395.7</ele>
        <time>2019-10-13T10:25:23Z</time>
      </trkpt>
      <trkpt lat="45.83588" lon="4.77144">
        <ele>393.4</ele>
        <time>2019-10-13T10:25:26Z</time>
      </trkpt>
      <trkpt lat="45.83584" lon="4.77141">
        <ele>392.7</ele>
        <time>2019-10-13T10:25:27Z</time>
      </trkpt>
      <trkpt lat="45.83582" lon="4.77135">
        <ele>392.3</ele>
        <time>2019-10-13T10:25:28Z</time>
      </trkpt>
      <trkpt lat="45.83581" lon="4.77124">
        <ele>391.7</ele>
        <time>2019-10-13T10:25:30Z</time>
      </trkpt>
      <trkpt lat="45.83585" lon="4.77116">
        <ele>391.2</ele>
        <time>2019-10-13T10:25:31Z</time>
      </trkpt>
      <trkpt lat="45.83586" lon="4.7711">
        <ele>390.9</ele>
        <time>2019-10-13T10:25:32Z</time>
      </trkpt>
      <trkpt lat="45.83592" lon="4.77108">
        <ele>390.5</ele>
        <time>2019-10-13T10:25:34Z</time>
      </trkpt>
    </trkseg>
  </trk>
</gpx>